<?xml version="1.0" encoding="UTF-8" standalone="no" ?>
<gpx xmlns="http://www.topografix.com/GPX/1/1" xmlns:xsi="http://www.w3.org/2001/XMLSchema-instance" xsi:schemaLocation="http://www.topografix.com/GPX/1/1 http://www.topografix.com/GPX/1/1/gpx.xsd" version="1.1" creator="VisuGPX - https://www.visugpx.com">
  <metadata>
    <name>Sortie VTT Départ Bois St Pierre</name>
  </metadata>
  <trk>
    <name><![CDATA[Sortie VTT Départ Bois St Pierre_1]]></name>
    <trkseg>
      <trkpt lat="46.50643" lon="0.36814">
        <ele>182.8</ele>
        <time>2024-01-28T07:42:15Z</time>
      </trkpt>
      <trkpt lat="46.50639" lon="0.36812">
        <ele>182.8</ele>
        <time>2024-01-28T07:42:38Z</time>
      </trkpt>
      <trkpt lat="46.50636" lon="0.36811">
        <ele>182.8</ele>
        <time>2024-01-28T07:42:40Z</time>
      </trkpt>
      <trkpt lat="46.50631" lon="0.36814">
        <ele>182.8</ele>
        <time>2024-01-28T07:42:43Z</time>
      </trkpt>
      <trkpt lat="46.50626" lon="0.36824">
        <ele>183.2</ele>
        <time>2024-01-28T07:42:48Z</time>
      </trkpt>
      <trkpt lat="46.5062" lon="0.36844">
        <ele>183.8</ele>
        <time>2024-01-28T07:42:54Z</time>
      </trkpt>
      <trkpt lat="46.50618" lon="0.36847">
        <ele>184</ele>
        <time>2024-01-28T07:42:55Z</time>
      </trkpt>
      <trkpt lat="46.50611" lon="0.3688">
        <ele>184.4</ele>
        <time>2024-01-28T07:43:02Z</time>
      </trkpt>
      <trkpt lat="46.50606" lon="0.36906">
        <ele>184.6</ele>
        <time>2024-01-28T07:43:08Z</time>
      </trkpt>
      <trkpt lat="46.50598" lon="0.36933">
        <ele>184.8</ele>
        <time>2024-01-28T07:43:14Z</time>
      </trkpt>
      <trkpt lat="46.50587" lon="0.36954">
        <ele>184.6</ele>
        <time>2024-01-28T07:43:20Z</time>
      </trkpt>
      <trkpt lat="46.50579" lon="0.36962">
        <ele>184.4</ele>
        <time>2024-01-28T07:43:25Z</time>
      </trkpt>
      <trkpt lat="46.50578" lon="0.36964">
        <ele>184.2</ele>
        <time>2024-01-28T07:43:26Z</time>
      </trkpt>
      <trkpt lat="46.50579" lon="0.3697">
        <ele>184.2</ele>
        <time>2024-01-28T07:43:28Z</time>
      </trkpt>
      <trkpt lat="46.50578" lon="0.36977">
        <ele>184</ele>
        <time>2024-01-28T07:43:30Z</time>
      </trkpt>
      <trkpt lat="46.50586" lon="0.36999">
        <ele>184.6</ele>
        <time>2024-01-28T07:43:35Z</time>
      </trkpt>
      <trkpt lat="46.5059" lon="0.37008">
        <ele>184.4</ele>
        <time>2024-01-28T07:43:37Z</time>
      </trkpt>
      <trkpt lat="46.50596" lon="0.37023">
        <ele>184</ele>
        <time>2024-01-28T07:43:40Z</time>
      </trkpt>
      <trkpt lat="46.506" lon="0.37032">
        <ele>183.8</ele>
        <time>2024-01-28T07:43:42Z</time>
      </trkpt>
      <trkpt lat="46.50602" lon="0.37042">
        <ele>183.6</ele>
        <time>2024-01-28T07:43:44Z</time>
      </trkpt>
      <trkpt lat="46.50602" lon="0.37048">
        <ele>183.6</ele>
        <time>2024-01-28T07:43:45Z</time>
      </trkpt>
      <trkpt lat="46.50602" lon="0.37053">
        <ele>183.6</ele>
        <time>2024-01-28T07:43:46Z</time>
      </trkpt>
      <trkpt lat="46.506" lon="0.37072">
        <ele>183</ele>
        <time>2024-01-28T07:43:49Z</time>
      </trkpt>
      <trkpt lat="46.506" lon="0.37078">
        <ele>182.8</ele>
        <time>2024-01-28T07:43:50Z</time>
      </trkpt>
      <trkpt lat="46.50601" lon="0.37088">
        <ele>181.6</ele>
        <time>2024-01-28T07:43:52Z</time>
      </trkpt>
      <trkpt lat="46.50601" lon="0.37092">
        <ele>181.2</ele>
        <time>2024-01-28T07:43:53Z</time>
      </trkpt>
      <trkpt lat="46.50599" lon="0.37096">
        <ele>180.8</ele>
        <time>2024-01-28T07:43:54Z</time>
      </trkpt>
      <trkpt lat="46.50597" lon="0.37099">
        <ele>180.6</ele>
        <time>2024-01-28T07:43:55Z</time>
      </trkpt>
      <trkpt lat="46.50595" lon="0.37102">
        <ele>180.2</ele>
        <time>2024-01-28T07:43:56Z</time>
      </trkpt>
      <trkpt lat="46.50592" lon="0.37105">
        <ele>179.6</ele>
        <time>2024-01-28T07:43:57Z</time>
      </trkpt>
      <trkpt lat="46.50589" lon="0.37108">
        <ele>179.2</ele>
        <time>2024-01-28T07:43:58Z</time>
      </trkpt>
      <trkpt lat="46.50586" lon="0.37112">
        <ele>178.8</ele>
        <time>2024-01-28T07:43:59Z</time>
      </trkpt>
      <trkpt lat="46.50584" lon="0.37124">
        <ele>178</ele>
        <time>2024-01-28T07:44:01Z</time>
      </trkpt>
      <trkpt lat="46.50582" lon="0.37137">
        <ele>176.8</ele>
        <time>2024-01-28T07:44:03Z</time>
      </trkpt>
      <trkpt lat="46.50582" lon="0.37156">
        <ele>175.8</ele>
        <time>2024-01-28T07:44:06Z</time>
      </trkpt>
      <trkpt lat="46.5058" lon="0.37163">
        <ele>175.6</ele>
        <time>2024-01-28T07:44:07Z</time>
      </trkpt>
      <trkpt lat="46.50576" lon="0.37174">
        <ele>175.4</ele>
        <time>2024-01-28T07:44:09Z</time>
      </trkpt>
      <trkpt lat="46.50574" lon="0.37185">
        <ele>176.6</ele>
        <time>2024-01-28T07:44:11Z</time>
      </trkpt>
      <trkpt lat="46.50573" lon="0.37191">
        <ele>176.8</ele>
        <time>2024-01-28T07:44:12Z</time>
      </trkpt>
      <trkpt lat="46.50572" lon="0.37197">
        <ele>177.2</ele>
        <time>2024-01-28T07:44:13Z</time>
      </trkpt>
      <trkpt lat="46.50573" lon="0.37212">
        <ele>178</ele>
        <time>2024-01-28T07:44:16Z</time>
      </trkpt>
      <trkpt lat="46.50574" lon="0.37222">
        <ele>178.2</ele>
        <time>2024-01-28T07:44:18Z</time>
      </trkpt>
      <trkpt lat="46.50575" lon="0.37228">
        <ele>178.4</ele>
        <time>2024-01-28T07:44:19Z</time>
      </trkpt>
      <trkpt lat="46.50574" lon="0.37235">
        <ele>178.4</ele>
        <time>2024-01-28T07:44:20Z</time>
      </trkpt>
      <trkpt lat="46.50573" lon="0.37254">
        <ele>179</ele>
        <time>2024-01-28T07:44:23Z</time>
      </trkpt>
      <trkpt lat="46.5057" lon="0.37261">
        <ele>179</ele>
        <time>2024-01-28T07:44:24Z</time>
      </trkpt>
      <trkpt lat="46.50567" lon="0.37265">
        <ele>179</ele>
        <time>2024-01-28T07:44:25Z</time>
      </trkpt>
      <trkpt lat="46.5056" lon="0.37274">
        <ele>179.4</ele>
        <time>2024-01-28T07:44:28Z</time>
      </trkpt>
      <trkpt lat="46.50555" lon="0.37283">
        <ele>179.8</ele>
        <time>2024-01-28T07:44:30Z</time>
      </trkpt>
      <trkpt lat="46.50548" lon="0.37295">
        <ele>180.2</ele>
        <time>2024-01-28T07:44:32Z</time>
      </trkpt>
      <trkpt lat="46.50544" lon="0.373">
        <ele>180.4</ele>
        <time>2024-01-28T07:44:33Z</time>
      </trkpt>
      <trkpt lat="46.50523" lon="0.37326">
        <ele>181</ele>
        <time>2024-01-28T07:44:39Z</time>
      </trkpt>
      <trkpt lat="46.5052" lon="0.37331">
        <ele>181.2</ele>
        <time>2024-01-28T07:44:40Z</time>
      </trkpt>
      <trkpt lat="46.50518" lon="0.37335">
        <ele>181.6</ele>
        <time>2024-01-28T07:44:41Z</time>
      </trkpt>
      <trkpt lat="46.50515" lon="0.37341">
        <ele>181.8</ele>
        <time>2024-01-28T07:44:42Z</time>
      </trkpt>
      <trkpt lat="46.50514" lon="0.37346">
        <ele>181.8</ele>
        <time>2024-01-28T07:44:43Z</time>
      </trkpt>
      <trkpt lat="46.50513" lon="0.37351">
        <ele>182</ele>
        <time>2024-01-28T07:44:44Z</time>
      </trkpt>
      <trkpt lat="46.50512" lon="0.37359">
        <ele>182</ele>
        <time>2024-01-28T07:44:46Z</time>
      </trkpt>
      <trkpt lat="46.50512" lon="0.37375">
        <ele>182</ele>
        <time>2024-01-28T07:44:50Z</time>
      </trkpt>
      <trkpt lat="46.5051" lon="0.37379">
        <ele>182</ele>
        <time>2024-01-28T07:44:51Z</time>
      </trkpt>
      <trkpt lat="46.50507" lon="0.374">
        <ele>181.6</ele>
        <time>2024-01-28T07:44:55Z</time>
      </trkpt>
      <trkpt lat="46.50505" lon="0.37406">
        <ele>181.6</ele>
        <time>2024-01-28T07:44:56Z</time>
      </trkpt>
      <trkpt lat="46.50501" lon="0.37423">
        <ele>181.4</ele>
        <time>2024-01-28T07:44:59Z</time>
      </trkpt>
      <trkpt lat="46.50498" lon="0.37427">
        <ele>181.4</ele>
        <time>2024-01-28T07:45:00Z</time>
      </trkpt>
      <trkpt lat="46.50495" lon="0.37429">
        <ele>181.4</ele>
        <time>2024-01-28T07:45:01Z</time>
      </trkpt>
      <trkpt lat="46.50484" lon="0.37433">
        <ele>181.2</ele>
        <time>2024-01-28T07:45:04Z</time>
      </trkpt>
      <trkpt lat="46.50479" lon="0.37434">
        <ele>181.2</ele>
        <time>2024-01-28T07:45:05Z</time>
      </trkpt>
      <trkpt lat="46.50468" lon="0.37433">
        <ele>181.2</ele>
        <time>2024-01-28T07:45:08Z</time>
      </trkpt>
      <trkpt lat="46.50462" lon="0.37439">
        <ele>181.2</ele>
        <time>2024-01-28T07:45:10Z</time>
      </trkpt>
      <trkpt lat="46.50457" lon="0.37445">
        <ele>181</ele>
        <time>2024-01-28T07:45:12Z</time>
      </trkpt>
      <trkpt lat="46.50452" lon="0.37452">
        <ele>180.8</ele>
        <time>2024-01-28T07:45:14Z</time>
      </trkpt>
      <trkpt lat="46.50442" lon="0.37461">
        <ele>180.2</ele>
        <time>2024-01-28T07:45:17Z</time>
      </trkpt>
      <trkpt lat="46.50438" lon="0.37471">
        <ele>180</ele>
        <time>2024-01-28T07:45:19Z</time>
      </trkpt>
      <trkpt lat="46.50431" lon="0.37487">
        <ele>179.6</ele>
        <time>2024-01-28T07:45:22Z</time>
      </trkpt>
      <trkpt lat="46.50427" lon="0.37498">
        <ele>179.4</ele>
        <time>2024-01-28T07:45:24Z</time>
      </trkpt>
      <trkpt lat="46.50424" lon="0.37504">
        <ele>179</ele>
        <time>2024-01-28T07:45:25Z</time>
      </trkpt>
      <trkpt lat="46.50421" lon="0.37509">
        <ele>178.6</ele>
        <time>2024-01-28T07:45:26Z</time>
      </trkpt>
      <trkpt lat="46.50419" lon="0.37513">
        <ele>177.8</ele>
        <time>2024-01-28T07:45:27Z</time>
      </trkpt>
      <trkpt lat="46.50416" lon="0.37517">
        <ele>177.2</ele>
        <time>2024-01-28T07:45:28Z</time>
      </trkpt>
      <trkpt lat="46.50414" lon="0.3752">
        <ele>176.8</ele>
        <time>2024-01-28T07:45:29Z</time>
      </trkpt>
      <trkpt lat="46.50412" lon="0.37523">
        <ele>176.4</ele>
        <time>2024-01-28T07:45:30Z</time>
      </trkpt>
      <trkpt lat="46.50408" lon="0.37529">
        <ele>176</ele>
        <time>2024-01-28T07:45:32Z</time>
      </trkpt>
      <trkpt lat="46.50407" lon="0.37532">
        <ele>175.6</ele>
        <time>2024-01-28T07:45:33Z</time>
      </trkpt>
      <trkpt lat="46.50404" lon="0.3755">
        <ele>175.4</ele>
        <time>2024-01-28T07:45:37Z</time>
      </trkpt>
      <trkpt lat="46.50402" lon="0.37573">
        <ele>176</ele>
        <time>2024-01-28T07:45:41Z</time>
      </trkpt>
      <trkpt lat="46.50401" lon="0.37579">
        <ele>176.2</ele>
        <time>2024-01-28T07:45:42Z</time>
      </trkpt>
      <trkpt lat="46.50402" lon="0.37595">
        <ele>176.8</ele>
        <time>2024-01-28T07:45:45Z</time>
      </trkpt>
      <trkpt lat="46.50403" lon="0.37612">
        <ele>177.8</ele>
        <time>2024-01-28T07:45:48Z</time>
      </trkpt>
      <trkpt lat="46.50405" lon="0.37618">
        <ele>178</ele>
        <time>2024-01-28T07:45:49Z</time>
      </trkpt>
      <trkpt lat="46.50406" lon="0.37623">
        <ele>178.2</ele>
        <time>2024-01-28T07:45:50Z</time>
      </trkpt>
      <trkpt lat="46.50406" lon="0.37635">
        <ele>178.6</ele>
        <time>2024-01-28T07:45:52Z</time>
      </trkpt>
      <trkpt lat="46.50407" lon="0.37642">
        <ele>178.8</ele>
        <time>2024-01-28T07:45:53Z</time>
      </trkpt>
      <trkpt lat="46.50407" lon="0.37648">
        <ele>179</ele>
        <time>2024-01-28T07:45:54Z</time>
      </trkpt>
      <trkpt lat="46.5041" lon="0.37667">
        <ele>179.6</ele>
        <time>2024-01-28T07:45:57Z</time>
      </trkpt>
      <trkpt lat="46.50413" lon="0.37679">
        <ele>180.2</ele>
        <time>2024-01-28T07:45:59Z</time>
      </trkpt>
      <trkpt lat="46.50414" lon="0.37685">
        <ele>180.4</ele>
        <time>2024-01-28T07:46:00Z</time>
      </trkpt>
      <trkpt lat="46.50417" lon="0.37705">
        <ele>180.6</ele>
        <time>2024-01-28T07:46:03Z</time>
      </trkpt>
      <trkpt lat="46.50417" lon="0.37712">
        <ele>180.6</ele>
        <time>2024-01-28T07:46:04Z</time>
      </trkpt>
      <trkpt lat="46.5042" lon="0.37724">
        <ele>180.6</ele>
        <time>2024-01-28T07:46:06Z</time>
      </trkpt>
      <trkpt lat="46.5042" lon="0.37742">
        <ele>181.2</ele>
        <time>2024-01-28T07:46:09Z</time>
      </trkpt>
      <trkpt lat="46.50421" lon="0.37789">
        <ele>181.6</ele>
        <time>2024-01-28T07:46:16Z</time>
      </trkpt>
      <trkpt lat="46.50421" lon="0.37809">
        <ele>181.6</ele>
        <time>2024-01-28T07:46:19Z</time>
      </trkpt>
      <trkpt lat="46.50424" lon="0.37823">
        <ele>181.6</ele>
        <time>2024-01-28T07:46:21Z</time>
      </trkpt>
      <trkpt lat="46.50426" lon="0.37831">
        <ele>181.6</ele>
        <time>2024-01-28T07:46:22Z</time>
      </trkpt>
      <trkpt lat="46.50431" lon="0.37851">
        <ele>181.6</ele>
        <time>2024-01-28T07:46:25Z</time>
      </trkpt>
      <trkpt lat="46.50439" lon="0.37872">
        <ele>181.4</ele>
        <time>2024-01-28T07:46:28Z</time>
      </trkpt>
      <trkpt lat="46.50441" lon="0.37879">
        <ele>181.2</ele>
        <time>2024-01-28T07:46:29Z</time>
      </trkpt>
      <trkpt lat="46.50447" lon="0.37908">
        <ele>181.2</ele>
        <time>2024-01-28T07:46:33Z</time>
      </trkpt>
      <trkpt lat="46.50452" lon="0.3793">
        <ele>181.4</ele>
        <time>2024-01-28T07:46:36Z</time>
      </trkpt>
      <trkpt lat="46.50457" lon="0.37943">
        <ele>182</ele>
        <time>2024-01-28T07:46:38Z</time>
      </trkpt>
      <trkpt lat="46.50461" lon="0.37959">
        <ele>182.2</ele>
        <time>2024-01-28T07:46:40Z</time>
      </trkpt>
      <trkpt lat="46.50462" lon="0.37968">
        <ele>182.2</ele>
        <time>2024-01-28T07:46:41Z</time>
      </trkpt>
      <trkpt lat="46.50463" lon="0.37984">
        <ele>182.2</ele>
        <time>2024-01-28T07:46:43Z</time>
      </trkpt>
      <trkpt lat="46.50471" lon="0.38038">
        <ele>182</ele>
        <time>2024-01-28T07:46:49Z</time>
      </trkpt>
      <trkpt lat="46.50473" lon="0.38045">
        <ele>182.2</ele>
        <time>2024-01-28T07:46:50Z</time>
      </trkpt>
      <trkpt lat="46.50481" lon="0.38085">
        <ele>181.8</ele>
        <time>2024-01-28T07:46:55Z</time>
      </trkpt>
      <trkpt lat="46.50482" lon="0.38091">
        <ele>181.8</ele>
        <time>2024-01-28T07:46:56Z</time>
      </trkpt>
      <trkpt lat="46.50486" lon="0.381">
        <ele>181.8</ele>
        <time>2024-01-28T07:46:58Z</time>
      </trkpt>
      <trkpt lat="46.5049" lon="0.38104">
        <ele>181.6</ele>
        <time>2024-01-28T07:46:59Z</time>
      </trkpt>
      <trkpt lat="46.50508" lon="0.3812">
        <ele>181.2</ele>
        <time>2024-01-28T07:47:04Z</time>
      </trkpt>
      <trkpt lat="46.50513" lon="0.38123">
        <ele>181.2</ele>
        <time>2024-01-28T07:47:05Z</time>
      </trkpt>
      <trkpt lat="46.50517" lon="0.38126">
        <ele>181.2</ele>
        <time>2024-01-28T07:47:06Z</time>
      </trkpt>
      <trkpt lat="46.50526" lon="0.38132">
        <ele>180.8</ele>
        <time>2024-01-28T07:47:08Z</time>
      </trkpt>
      <trkpt lat="46.50536" lon="0.38141">
        <ele>180.6</ele>
        <time>2024-01-28T07:47:10Z</time>
      </trkpt>
      <trkpt lat="46.50543" lon="0.38145">
        <ele>180.6</ele>
        <time>2024-01-28T07:47:11Z</time>
      </trkpt>
      <trkpt lat="46.50548" lon="0.38149">
        <ele>180.4</ele>
        <time>2024-01-28T07:47:12Z</time>
      </trkpt>
      <trkpt lat="46.50553" lon="0.38153">
        <ele>180.2</ele>
        <time>2024-01-28T07:47:13Z</time>
      </trkpt>
      <trkpt lat="46.50568" lon="0.38168">
        <ele>180</ele>
        <time>2024-01-28T07:47:16Z</time>
      </trkpt>
      <trkpt lat="46.50589" lon="0.38185">
        <ele>179</ele>
        <time>2024-01-28T07:47:20Z</time>
      </trkpt>
      <trkpt lat="46.50605" lon="0.38196">
        <ele>178.6</ele>
        <time>2024-01-28T07:47:23Z</time>
      </trkpt>
      <trkpt lat="46.50633" lon="0.38222">
        <ele>178</ele>
        <time>2024-01-28T07:47:29Z</time>
      </trkpt>
      <trkpt lat="46.50638" lon="0.38226">
        <ele>178</ele>
        <time>2024-01-28T07:47:30Z</time>
      </trkpt>
      <trkpt lat="46.50657" lon="0.38244">
        <ele>177.2</ele>
        <time>2024-01-28T07:47:34Z</time>
      </trkpt>
      <trkpt lat="46.5067" lon="0.38254">
        <ele>176.6</ele>
        <time>2024-01-28T07:47:36Z</time>
      </trkpt>
      <trkpt lat="46.5069" lon="0.38269">
        <ele>176</ele>
        <time>2024-01-28T07:47:39Z</time>
      </trkpt>
      <trkpt lat="46.50701" lon="0.38275">
        <ele>175.8</ele>
        <time>2024-01-28T07:47:41Z</time>
      </trkpt>
      <trkpt lat="46.50716" lon="0.38285">
        <ele>175.6</ele>
        <time>2024-01-28T07:47:44Z</time>
      </trkpt>
      <trkpt lat="46.50722" lon="0.38289">
        <ele>175.2</ele>
        <time>2024-01-28T07:47:45Z</time>
      </trkpt>
      <trkpt lat="46.50749" lon="0.38313">
        <ele>174.2</ele>
        <time>2024-01-28T07:47:51Z</time>
      </trkpt>
      <trkpt lat="46.50778" lon="0.38338">
        <ele>173.2</ele>
        <time>2024-01-28T07:47:57Z</time>
      </trkpt>
      <trkpt lat="46.50802" lon="0.38359">
        <ele>172</ele>
        <time>2024-01-28T07:48:02Z</time>
      </trkpt>
      <trkpt lat="46.50811" lon="0.38369">
        <ele>170.8</ele>
        <time>2024-01-28T07:48:04Z</time>
      </trkpt>
      <trkpt lat="46.50813" lon="0.38373">
        <ele>170.4</ele>
        <time>2024-01-28T07:48:05Z</time>
      </trkpt>
      <trkpt lat="46.50815" lon="0.38377">
        <ele>170.2</ele>
        <time>2024-01-28T07:48:06Z</time>
      </trkpt>
      <trkpt lat="46.50818" lon="0.38381">
        <ele>170</ele>
        <time>2024-01-28T07:48:07Z</time>
      </trkpt>
      <trkpt lat="46.50824" lon="0.38384">
        <ele>169.6</ele>
        <time>2024-01-28T07:48:08Z</time>
      </trkpt>
      <trkpt lat="46.50831" lon="0.38386">
        <ele>168.8</ele>
        <time>2024-01-28T07:48:10Z</time>
      </trkpt>
      <trkpt lat="46.50837" lon="0.38385">
        <ele>168.6</ele>
        <time>2024-01-28T07:48:12Z</time>
      </trkpt>
      <trkpt lat="46.50843" lon="0.38385">
        <ele>168.4</ele>
        <time>2024-01-28T07:48:14Z</time>
      </trkpt>
      <trkpt lat="46.50847" lon="0.38386">
        <ele>168.4</ele>
        <time>2024-01-28T07:48:15Z</time>
      </trkpt>
      <trkpt lat="46.50855" lon="0.38387">
        <ele>168.4</ele>
        <time>2024-01-28T07:48:20Z</time>
      </trkpt>
      <trkpt lat="46.50856" lon="0.38388">
        <ele>168.4</ele>
        <time>2024-01-28T07:48:21Z</time>
      </trkpt>
      <trkpt lat="46.50858" lon="0.38389">
        <ele>168.2</ele>
        <time>2024-01-28T07:48:22Z</time>
      </trkpt>
      <trkpt lat="46.50862" lon="0.38384">
        <ele>168.2</ele>
        <time>2024-01-28T07:48:26Z</time>
      </trkpt>
      <trkpt lat="46.50869" lon="0.38382">
        <ele>168.4</ele>
        <time>2024-01-28T07:48:30Z</time>
      </trkpt>
      <trkpt lat="46.50874" lon="0.38383">
        <ele>168.6</ele>
        <time>2024-01-28T07:48:33Z</time>
      </trkpt>
      <trkpt lat="46.50876" lon="0.38382">
        <ele>168.6</ele>
        <time>2024-01-28T07:48:34Z</time>
      </trkpt>
      <trkpt lat="46.50882" lon="0.38375">
        <ele>168</ele>
        <time>2024-01-28T07:48:38Z</time>
      </trkpt>
      <trkpt lat="46.50884" lon="0.38372">
        <ele>168</ele>
        <time>2024-01-28T07:48:40Z</time>
      </trkpt>
      <trkpt lat="46.50885" lon="0.38371">
        <ele>168</ele>
        <time>2024-01-28T07:48:41Z</time>
      </trkpt>
      <trkpt lat="46.50888" lon="0.38368">
        <ele>168.2</ele>
        <time>2024-01-28T07:48:44Z</time>
      </trkpt>
      <trkpt lat="46.50901" lon="0.38363">
        <ele>168.4</ele>
        <time>2024-01-28T07:48:48Z</time>
      </trkpt>
      <trkpt lat="46.50916" lon="0.38351">
        <ele>168</ele>
        <time>2024-01-28T07:48:53Z</time>
      </trkpt>
      <trkpt lat="46.50926" lon="0.38339">
        <ele>167.4</ele>
        <time>2024-01-28T07:48:57Z</time>
      </trkpt>
      <trkpt lat="46.50929" lon="0.38336">
        <ele>166.8</ele>
        <time>2024-01-28T07:48:58Z</time>
      </trkpt>
      <trkpt lat="46.50935" lon="0.38331">
        <ele>166.2</ele>
        <time>2024-01-28T07:49:00Z</time>
      </trkpt>
      <trkpt lat="46.50938" lon="0.38326">
        <ele>166</ele>
        <time>2024-01-28T07:49:02Z</time>
      </trkpt>
      <trkpt lat="46.5095" lon="0.38311">
        <ele>166</ele>
        <time>2024-01-28T07:49:07Z</time>
      </trkpt>
      <trkpt lat="46.50952" lon="0.38306">
        <ele>166.2</ele>
        <time>2024-01-28T07:49:08Z</time>
      </trkpt>
      <trkpt lat="46.50955" lon="0.38298">
        <ele>166.8</ele>
        <time>2024-01-28T07:49:10Z</time>
      </trkpt>
      <trkpt lat="46.50958" lon="0.3829">
        <ele>167.6</ele>
        <time>2024-01-28T07:49:12Z</time>
      </trkpt>
      <trkpt lat="46.50959" lon="0.38285">
        <ele>167.8</ele>
        <time>2024-01-28T07:49:13Z</time>
      </trkpt>
      <trkpt lat="46.50966" lon="0.38263">
        <ele>168.6</ele>
        <time>2024-01-28T07:49:18Z</time>
      </trkpt>
      <trkpt lat="46.50971" lon="0.38238">
        <ele>169.6</ele>
        <time>2024-01-28T07:49:23Z</time>
      </trkpt>
      <trkpt lat="46.50971" lon="0.38229">
        <ele>170.2</ele>
        <time>2024-01-28T07:49:25Z</time>
      </trkpt>
      <trkpt lat="46.50972" lon="0.38206">
        <ele>170.8</ele>
        <time>2024-01-28T07:49:30Z</time>
      </trkpt>
      <trkpt lat="46.50971" lon="0.38198">
        <ele>171.2</ele>
        <time>2024-01-28T07:49:32Z</time>
      </trkpt>
      <trkpt lat="46.5097" lon="0.38186">
        <ele>171.4</ele>
        <time>2024-01-28T07:49:34Z</time>
      </trkpt>
      <trkpt lat="46.50966" lon="0.38167">
        <ele>171.6</ele>
        <time>2024-01-28T07:49:37Z</time>
      </trkpt>
      <trkpt lat="46.50962" lon="0.38142">
        <ele>171.8</ele>
        <time>2024-01-28T07:49:41Z</time>
      </trkpt>
      <trkpt lat="46.50958" lon="0.38122">
        <ele>171.8</ele>
        <time>2024-01-28T07:49:44Z</time>
      </trkpt>
      <trkpt lat="46.5095" lon="0.38094">
        <ele>170.4</ele>
        <time>2024-01-28T07:49:48Z</time>
      </trkpt>
      <trkpt lat="46.50947" lon="0.38086">
        <ele>169.6</ele>
        <time>2024-01-28T07:49:49Z</time>
      </trkpt>
      <trkpt lat="46.50943" lon="0.38076">
        <ele>169</ele>
        <time>2024-01-28T07:49:50Z</time>
      </trkpt>
      <trkpt lat="46.50934" lon="0.38052">
        <ele>167.8</ele>
        <time>2024-01-28T07:49:52Z</time>
      </trkpt>
      <trkpt lat="46.5093" lon="0.3804">
        <ele>167.2</ele>
        <time>2024-01-28T07:49:53Z</time>
      </trkpt>
      <trkpt lat="46.50927" lon="0.38028">
        <ele>166.4</ele>
        <time>2024-01-28T07:49:54Z</time>
      </trkpt>
      <trkpt lat="46.50921" lon="0.3801">
        <ele>165</ele>
        <time>2024-01-28T07:49:56Z</time>
      </trkpt>
      <trkpt lat="46.50919" lon="0.38002">
        <ele>163.4</ele>
        <time>2024-01-28T07:49:57Z</time>
      </trkpt>
      <trkpt lat="46.50919" lon="0.37995">
        <ele>162.4</ele>
        <time>2024-01-28T07:49:58Z</time>
      </trkpt>
      <trkpt lat="46.50919" lon="0.37989">
        <ele>161.4</ele>
        <time>2024-01-28T07:49:59Z</time>
      </trkpt>
      <trkpt lat="46.5092" lon="0.37986">
        <ele>160.8</ele>
        <time>2024-01-28T07:50:00Z</time>
      </trkpt>
      <trkpt lat="46.50923" lon="0.37977">
        <ele>160.2</ele>
        <time>2024-01-28T07:50:02Z</time>
      </trkpt>
      <trkpt lat="46.50927" lon="0.37972">
        <ele>159.6</ele>
        <time>2024-01-28T07:50:04Z</time>
      </trkpt>
      <trkpt lat="46.50935" lon="0.37969">
        <ele>159.2</ele>
        <time>2024-01-28T07:50:07Z</time>
      </trkpt>
      <trkpt lat="46.50937" lon="0.37967">
        <ele>159.2</ele>
        <time>2024-01-28T07:50:08Z</time>
      </trkpt>
      <trkpt lat="46.50944" lon="0.37964">
        <ele>159.2</ele>
        <time>2024-01-28T07:50:10Z</time>
      </trkpt>
      <trkpt lat="46.50956" lon="0.3796">
        <ele>159.4</ele>
        <time>2024-01-28T07:50:13Z</time>
      </trkpt>
      <trkpt lat="46.5096" lon="0.37961">
        <ele>159.4</ele>
        <time>2024-01-28T07:50:14Z</time>
      </trkpt>
      <trkpt lat="46.50964" lon="0.37961">
        <ele>159.2</ele>
        <time>2024-01-28T07:50:15Z</time>
      </trkpt>
      <trkpt lat="46.50982" lon="0.3796">
        <ele>159</ele>
        <time>2024-01-28T07:50:19Z</time>
      </trkpt>
      <trkpt lat="46.51007" lon="0.37955">
        <ele>158.6</ele>
        <time>2024-01-28T07:50:24Z</time>
      </trkpt>
      <trkpt lat="46.51012" lon="0.37953">
        <ele>158.4</ele>
        <time>2024-01-28T07:50:25Z</time>
      </trkpt>
      <trkpt lat="46.51016" lon="0.37951">
        <ele>158.2</ele>
        <time>2024-01-28T07:50:26Z</time>
      </trkpt>
      <trkpt lat="46.51031" lon="0.37943">
        <ele>157.6</ele>
        <time>2024-01-28T07:50:29Z</time>
      </trkpt>
      <trkpt lat="46.51041" lon="0.37941">
        <ele>157.4</ele>
        <time>2024-01-28T07:50:31Z</time>
      </trkpt>
      <trkpt lat="46.51057" lon="0.3794">
        <ele>157.2</ele>
        <time>2024-01-28T07:50:34Z</time>
      </trkpt>
      <trkpt lat="46.51075" lon="0.3794">
        <ele>156.4</ele>
        <time>2024-01-28T07:50:37Z</time>
      </trkpt>
      <trkpt lat="46.51087" lon="0.37943">
        <ele>155.8</ele>
        <time>2024-01-28T07:50:39Z</time>
      </trkpt>
      <trkpt lat="46.51105" lon="0.37947">
        <ele>155</ele>
        <time>2024-01-28T07:50:42Z</time>
      </trkpt>
      <trkpt lat="46.5111" lon="0.37948">
        <ele>154.8</ele>
        <time>2024-01-28T07:50:43Z</time>
      </trkpt>
      <trkpt lat="46.51126" lon="0.37949">
        <ele>154.8</ele>
        <time>2024-01-28T07:50:45Z</time>
      </trkpt>
      <trkpt lat="46.5115" lon="0.37949">
        <ele>155.2</ele>
        <time>2024-01-28T07:50:49Z</time>
      </trkpt>
      <trkpt lat="46.51161" lon="0.37951">
        <ele>155.6</ele>
        <time>2024-01-28T07:50:51Z</time>
      </trkpt>
      <trkpt lat="46.51176" lon="0.37955">
        <ele>155.8</ele>
        <time>2024-01-28T07:50:54Z</time>
      </trkpt>
      <trkpt lat="46.5118" lon="0.37957">
        <ele>155.8</ele>
        <time>2024-01-28T07:50:55Z</time>
      </trkpt>
      <trkpt lat="46.51189" lon="0.37962">
        <ele>155.8</ele>
        <time>2024-01-28T07:50:57Z</time>
      </trkpt>
      <trkpt lat="46.51198" lon="0.37967">
        <ele>156</ele>
        <time>2024-01-28T07:50:59Z</time>
      </trkpt>
      <trkpt lat="46.5121" lon="0.37972">
        <ele>156</ele>
        <time>2024-01-28T07:51:02Z</time>
      </trkpt>
      <trkpt lat="46.51213" lon="0.37973">
        <ele>156</ele>
        <time>2024-01-28T07:51:03Z</time>
      </trkpt>
      <trkpt lat="46.5122" lon="0.37978">
        <ele>156</ele>
        <time>2024-01-28T07:51:06Z</time>
      </trkpt>
      <trkpt lat="46.51224" lon="0.3798">
        <ele>156</ele>
        <time>2024-01-28T07:51:08Z</time>
      </trkpt>
      <trkpt lat="46.51232" lon="0.37984">
        <ele>156</ele>
        <time>2024-01-28T07:51:12Z</time>
      </trkpt>
      <trkpt lat="46.51239" lon="0.37991">
        <ele>156.2</ele>
        <time>2024-01-28T07:51:15Z</time>
      </trkpt>
      <trkpt lat="46.51245" lon="0.37995">
        <ele>156.2</ele>
        <time>2024-01-28T07:51:17Z</time>
      </trkpt>
      <trkpt lat="46.51253" lon="0.38002">
        <ele>156.4</ele>
        <time>2024-01-28T07:51:20Z</time>
      </trkpt>
      <trkpt lat="46.51256" lon="0.38005">
        <ele>156</ele>
        <time>2024-01-28T07:51:21Z</time>
      </trkpt>
      <trkpt lat="46.51262" lon="0.38012">
        <ele>155.6</ele>
        <time>2024-01-28T07:51:23Z</time>
      </trkpt>
      <trkpt lat="46.51272" lon="0.38022">
        <ele>155.2</ele>
        <time>2024-01-28T07:51:26Z</time>
      </trkpt>
      <trkpt lat="46.51276" lon="0.38025">
        <ele>155</ele>
        <time>2024-01-28T07:51:27Z</time>
      </trkpt>
      <trkpt lat="46.51279" lon="0.38027">
        <ele>154.6</ele>
        <time>2024-01-28T07:51:28Z</time>
      </trkpt>
      <trkpt lat="46.51286" lon="0.38028">
        <ele>154.2</ele>
        <time>2024-01-28T07:51:30Z</time>
      </trkpt>
      <trkpt lat="46.5129" lon="0.3803">
        <ele>154.2</ele>
        <time>2024-01-28T07:51:31Z</time>
      </trkpt>
      <trkpt lat="46.51298" lon="0.38031">
        <ele>154.2</ele>
        <time>2024-01-28T07:51:33Z</time>
      </trkpt>
      <trkpt lat="46.51315" lon="0.38031">
        <ele>154.8</ele>
        <time>2024-01-28T07:51:37Z</time>
      </trkpt>
      <trkpt lat="46.51348" lon="0.38033">
        <ele>155.6</ele>
        <time>2024-01-28T07:51:44Z</time>
      </trkpt>
      <trkpt lat="46.51352" lon="0.38034">
        <ele>155.6</ele>
        <time>2024-01-28T07:51:45Z</time>
      </trkpt>
      <trkpt lat="46.51359" lon="0.38036">
        <ele>155.6</ele>
        <time>2024-01-28T07:51:47Z</time>
      </trkpt>
      <trkpt lat="46.51366" lon="0.38039">
        <ele>155.2</ele>
        <time>2024-01-28T07:51:49Z</time>
      </trkpt>
      <trkpt lat="46.51369" lon="0.38041">
        <ele>154.8</ele>
        <time>2024-01-28T07:51:50Z</time>
      </trkpt>
      <trkpt lat="46.51371" lon="0.38042">
        <ele>154.4</ele>
        <time>2024-01-28T07:51:51Z</time>
      </trkpt>
      <trkpt lat="46.51374" lon="0.38044">
        <ele>153.8</ele>
        <time>2024-01-28T07:51:52Z</time>
      </trkpt>
      <trkpt lat="46.51376" lon="0.38045">
        <ele>153.2</ele>
        <time>2024-01-28T07:51:53Z</time>
      </trkpt>
      <trkpt lat="46.51381" lon="0.38048">
        <ele>152.4</ele>
        <time>2024-01-28T07:51:55Z</time>
      </trkpt>
      <trkpt lat="46.51384" lon="0.38048">
        <ele>151.8</ele>
        <time>2024-01-28T07:51:56Z</time>
      </trkpt>
      <trkpt lat="46.51391" lon="0.38049">
        <ele>150.8</ele>
        <time>2024-01-28T07:51:58Z</time>
      </trkpt>
      <trkpt lat="46.51395" lon="0.38051">
        <ele>150.2</ele>
        <time>2024-01-28T07:51:59Z</time>
      </trkpt>
      <trkpt lat="46.51398" lon="0.38053">
        <ele>149.8</ele>
        <time>2024-01-28T07:52:00Z</time>
      </trkpt>
      <trkpt lat="46.51399" lon="0.38057">
        <ele>149.6</ele>
        <time>2024-01-28T07:52:01Z</time>
      </trkpt>
      <trkpt lat="46.51402" lon="0.38064">
        <ele>149</ele>
        <time>2024-01-28T07:52:03Z</time>
      </trkpt>
      <trkpt lat="46.51406" lon="0.38071">
        <ele>148.4</ele>
        <time>2024-01-28T07:52:05Z</time>
      </trkpt>
      <trkpt lat="46.51408" lon="0.38074">
        <ele>147.8</ele>
        <time>2024-01-28T07:52:06Z</time>
      </trkpt>
      <trkpt lat="46.5141" lon="0.38075">
        <ele>147.2</ele>
        <time>2024-01-28T07:52:07Z</time>
      </trkpt>
      <trkpt lat="46.51426" lon="0.38084">
        <ele>146.2</ele>
        <time>2024-01-28T07:52:12Z</time>
      </trkpt>
      <trkpt lat="46.5144" lon="0.38091">
        <ele>146.6</ele>
        <time>2024-01-28T07:52:17Z</time>
      </trkpt>
      <trkpt lat="46.51449" lon="0.38095">
        <ele>147</ele>
        <time>2024-01-28T07:52:20Z</time>
      </trkpt>
      <trkpt lat="46.51457" lon="0.38097">
        <ele>147</ele>
        <time>2024-01-28T07:52:22Z</time>
      </trkpt>
      <trkpt lat="46.51462" lon="0.38097">
        <ele>147</ele>
        <time>2024-01-28T07:52:23Z</time>
      </trkpt>
      <trkpt lat="46.51465" lon="0.38098">
        <ele>147</ele>
        <time>2024-01-28T07:52:24Z</time>
      </trkpt>
      <trkpt lat="46.51473" lon="0.38102">
        <ele>147</ele>
        <time>2024-01-28T07:52:28Z</time>
      </trkpt>
      <trkpt lat="46.51491" lon="0.38105">
        <ele>147.6</ele>
        <time>2024-01-28T07:52:34Z</time>
      </trkpt>
      <trkpt lat="46.51509" lon="0.38107">
        <ele>148</ele>
        <time>2024-01-28T07:52:39Z</time>
      </trkpt>
      <trkpt lat="46.5152" lon="0.38109">
        <ele>148.4</ele>
        <time>2024-01-28T07:52:42Z</time>
      </trkpt>
      <trkpt lat="46.51535" lon="0.3811">
        <ele>148.6</ele>
        <time>2024-01-28T07:52:46Z</time>
      </trkpt>
      <trkpt lat="46.51541" lon="0.3811">
        <ele>148.8</ele>
        <time>2024-01-28T07:52:47Z</time>
      </trkpt>
      <trkpt lat="46.51573" lon="0.38111">
        <ele>149</ele>
        <time>2024-01-28T07:52:53Z</time>
      </trkpt>
      <trkpt lat="46.51587" lon="0.38109">
        <ele>149.4</ele>
        <time>2024-01-28T07:52:57Z</time>
      </trkpt>
      <trkpt lat="46.51593" lon="0.38111">
        <ele>149.4</ele>
        <time>2024-01-28T07:52:59Z</time>
      </trkpt>
      <trkpt lat="46.51604" lon="0.38111">
        <ele>149.4</ele>
        <time>2024-01-28T07:53:03Z</time>
      </trkpt>
      <trkpt lat="46.51605" lon="0.38111">
        <ele>149.4</ele>
        <time>2024-01-28T07:53:04Z</time>
      </trkpt>
      <trkpt lat="46.51619" lon="0.38111">
        <ele>149.6</ele>
        <time>2024-01-28T07:53:10Z</time>
      </trkpt>
      <trkpt lat="46.51621" lon="0.38108">
        <ele>150.2</ele>
        <time>2024-01-28T07:53:15Z</time>
      </trkpt>
      <trkpt lat="46.51617" lon="0.38112">
        <ele>150.2</ele>
        <time>2024-01-28T07:53:19Z</time>
      </trkpt>
      <trkpt lat="46.51614" lon="0.38111">
        <ele>150</ele>
        <time>2024-01-28T07:53:21Z</time>
      </trkpt>
      <trkpt lat="46.51611" lon="0.3811">
        <ele>149.6</ele>
        <time>2024-01-28T07:53:26Z</time>
      </trkpt>
      <trkpt lat="46.51611" lon="0.38113">
        <ele>149.6</ele>
        <time>2024-01-28T07:53:29Z</time>
      </trkpt>
      <trkpt lat="46.51611" lon="0.38116">
        <ele>149.4</ele>
        <time>2024-01-28T07:53:32Z</time>
      </trkpt>
      <trkpt lat="46.51611" lon="0.38122">
        <ele>149.4</ele>
        <time>2024-01-28T07:53:35Z</time>
      </trkpt>
      <trkpt lat="46.51612" lon="0.38127">
        <ele>149.2</ele>
        <time>2024-01-28T07:53:38Z</time>
      </trkpt>
      <trkpt lat="46.51612" lon="0.38131">
        <ele>148.8</ele>
        <time>2024-01-28T07:53:42Z</time>
      </trkpt>
      <trkpt lat="46.51616" lon="0.38133">
        <ele>148.4</ele>
        <time>2024-01-28T07:53:46Z</time>
      </trkpt>
      <trkpt lat="46.51616" lon="0.38136">
        <ele>148.4</ele>
        <time>2024-01-28T07:53:47Z</time>
      </trkpt>
      <trkpt lat="46.51618" lon="0.38145">
        <ele>148.2</ele>
        <time>2024-01-28T07:53:51Z</time>
      </trkpt>
      <trkpt lat="46.51623" lon="0.3815">
        <ele>147.8</ele>
        <time>2024-01-28T07:53:55Z</time>
      </trkpt>
      <trkpt lat="46.51624" lon="0.38151">
        <ele>147.6</ele>
        <time>2024-01-28T07:53:56Z</time>
      </trkpt>
      <trkpt lat="46.51628" lon="0.38159">
        <ele>147.8</ele>
        <time>2024-01-28T07:54:02Z</time>
      </trkpt>
      <trkpt lat="46.51628" lon="0.38165">
        <ele>147.8</ele>
        <time>2024-01-28T07:54:04Z</time>
      </trkpt>
      <trkpt lat="46.51629" lon="0.38167">
        <ele>147.6</ele>
        <time>2024-01-28T07:54:05Z</time>
      </trkpt>
      <trkpt lat="46.51634" lon="0.38176">
        <ele>147.2</ele>
        <time>2024-01-28T07:54:08Z</time>
      </trkpt>
      <trkpt lat="46.5164" lon="0.38193">
        <ele>146.2</ele>
        <time>2024-01-28T07:54:12Z</time>
      </trkpt>
      <trkpt lat="46.5164" lon="0.38197">
        <ele>145.8</ele>
        <time>2024-01-28T07:54:13Z</time>
      </trkpt>
      <trkpt lat="46.51639" lon="0.38212">
        <ele>144.8</ele>
        <time>2024-01-28T07:54:17Z</time>
      </trkpt>
      <trkpt lat="46.51638" lon="0.38214">
        <ele>144.6</ele>
        <time>2024-01-28T07:54:18Z</time>
      </trkpt>
      <trkpt lat="46.51631" lon="0.3822">
        <ele>144</ele>
        <time>2024-01-28T07:54:21Z</time>
      </trkpt>
      <trkpt lat="46.5162" lon="0.38228">
        <ele>143.6</ele>
        <time>2024-01-28T07:54:27Z</time>
      </trkpt>
      <trkpt lat="46.51604" lon="0.38224">
        <ele>144</ele>
        <time>2024-01-28T07:54:32Z</time>
      </trkpt>
      <trkpt lat="46.51587" lon="0.3822">
        <ele>144.2</ele>
        <time>2024-01-28T07:54:37Z</time>
      </trkpt>
      <trkpt lat="46.51584" lon="0.38219">
        <ele>144.2</ele>
        <time>2024-01-28T07:54:38Z</time>
      </trkpt>
      <trkpt lat="46.51578" lon="0.38218">
        <ele>144</ele>
        <time>2024-01-28T07:54:40Z</time>
      </trkpt>
      <trkpt lat="46.51565" lon="0.3821">
        <ele>144</ele>
        <time>2024-01-28T07:54:44Z</time>
      </trkpt>
      <trkpt lat="46.51559" lon="0.38205">
        <ele>144</ele>
        <time>2024-01-28T07:54:46Z</time>
      </trkpt>
      <trkpt lat="46.51555" lon="0.38202">
        <ele>144.2</ele>
        <time>2024-01-28T07:54:47Z</time>
      </trkpt>
      <trkpt lat="46.51552" lon="0.38202">
        <ele>144.2</ele>
        <time>2024-01-28T07:54:48Z</time>
      </trkpt>
      <trkpt lat="46.51542" lon="0.38199">
        <ele>144.2</ele>
        <time>2024-01-28T07:54:51Z</time>
      </trkpt>
      <trkpt lat="46.51535" lon="0.38194">
        <ele>144.4</ele>
        <time>2024-01-28T07:54:53Z</time>
      </trkpt>
      <trkpt lat="46.51528" lon="0.38193">
        <ele>144.2</ele>
        <time>2024-01-28T07:54:55Z</time>
      </trkpt>
      <trkpt lat="46.5152" lon="0.3819">
        <ele>144</ele>
        <time>2024-01-28T07:54:57Z</time>
      </trkpt>
      <trkpt lat="46.51516" lon="0.38185">
        <ele>144</ele>
        <time>2024-01-28T07:54:59Z</time>
      </trkpt>
      <trkpt lat="46.51512" lon="0.38182">
        <ele>144.2</ele>
        <time>2024-01-28T07:55:01Z</time>
      </trkpt>
      <trkpt lat="46.51502" lon="0.38171">
        <ele>144.2</ele>
        <time>2024-01-28T07:55:05Z</time>
      </trkpt>
      <trkpt lat="46.515" lon="0.38171">
        <ele>144</ele>
        <time>2024-01-28T07:55:06Z</time>
      </trkpt>
      <trkpt lat="46.51489" lon="0.38175">
        <ele>143.8</ele>
        <time>2024-01-28T07:55:11Z</time>
      </trkpt>
      <trkpt lat="46.51486" lon="0.38176">
        <ele>143.6</ele>
        <time>2024-01-28T07:55:12Z</time>
      </trkpt>
      <trkpt lat="46.51474" lon="0.38174">
        <ele>143.4</ele>
        <time>2024-01-28T07:55:15Z</time>
      </trkpt>
      <trkpt lat="46.51466" lon="0.38174">
        <ele>143</ele>
        <time>2024-01-28T07:55:17Z</time>
      </trkpt>
      <trkpt lat="46.51453" lon="0.38174">
        <ele>143.2</ele>
        <time>2024-01-28T07:55:20Z</time>
      </trkpt>
      <trkpt lat="46.51443" lon="0.3817">
        <ele>143.4</ele>
        <time>2024-01-28T07:55:23Z</time>
      </trkpt>
      <trkpt lat="46.51434" lon="0.38166">
        <ele>143.6</ele>
        <time>2024-01-28T07:55:25Z</time>
      </trkpt>
      <trkpt lat="46.51424" lon="0.38164">
        <ele>143.6</ele>
        <time>2024-01-28T07:55:27Z</time>
      </trkpt>
      <trkpt lat="46.51414" lon="0.38161">
        <ele>143.4</ele>
        <time>2024-01-28T07:55:29Z</time>
      </trkpt>
      <trkpt lat="46.51406" lon="0.38155">
        <ele>143.4</ele>
        <time>2024-01-28T07:55:31Z</time>
      </trkpt>
      <trkpt lat="46.51401" lon="0.38147">
        <ele>143.4</ele>
        <time>2024-01-28T07:55:33Z</time>
      </trkpt>
      <trkpt lat="46.51395" lon="0.38131">
        <ele>142.8</ele>
        <time>2024-01-28T07:55:38Z</time>
      </trkpt>
      <trkpt lat="46.51392" lon="0.38116">
        <ele>144</ele>
        <time>2024-01-28T07:55:44Z</time>
      </trkpt>
      <trkpt lat="46.51396" lon="0.38108">
        <ele>144.4</ele>
        <time>2024-01-28T07:55:48Z</time>
      </trkpt>
      <trkpt lat="46.51397" lon="0.38106">
        <ele>144.4</ele>
        <time>2024-01-28T07:55:49Z</time>
      </trkpt>
      <trkpt lat="46.51405" lon="0.38098">
        <ele>144.8</ele>
        <time>2024-01-28T07:55:56Z</time>
      </trkpt>
      <trkpt lat="46.51415" lon="0.38093">
        <ele>145.4</ele>
        <time>2024-01-28T07:56:02Z</time>
      </trkpt>
      <trkpt lat="46.51417" lon="0.38093">
        <ele>145.6</ele>
        <time>2024-01-28T07:56:03Z</time>
      </trkpt>
      <trkpt lat="46.51425" lon="0.38093">
        <ele>145.8</ele>
        <time>2024-01-28T07:56:10Z</time>
      </trkpt>
      <trkpt lat="46.51443" lon="0.38097">
        <ele>146.2</ele>
        <time>2024-01-28T07:56:19Z</time>
      </trkpt>
      <trkpt lat="46.51451" lon="0.38099">
        <ele>146.4</ele>
        <time>2024-01-28T07:56:23Z</time>
      </trkpt>
      <trkpt lat="46.51458" lon="0.38101">
        <ele>146.6</ele>
        <time>2024-01-28T07:56:26Z</time>
      </trkpt>
      <trkpt lat="46.51466" lon="0.38103">
        <ele>146.6</ele>
        <time>2024-01-28T07:56:29Z</time>
      </trkpt>
      <trkpt lat="46.51471" lon="0.38099">
        <ele>146.6</ele>
        <time>2024-01-28T07:56:32Z</time>
      </trkpt>
      <trkpt lat="46.51476" lon="0.38093">
        <ele>147.6</ele>
        <time>2024-01-28T07:56:35Z</time>
      </trkpt>
      <trkpt lat="46.51483" lon="0.38089">
        <ele>148.8</ele>
        <time>2024-01-28T07:56:38Z</time>
      </trkpt>
      <trkpt lat="46.51486" lon="0.38085">
        <ele>150</ele>
        <time>2024-01-28T07:56:40Z</time>
      </trkpt>
      <trkpt lat="46.5149" lon="0.38081">
        <ele>151.2</ele>
        <time>2024-01-28T07:56:42Z</time>
      </trkpt>
      <trkpt lat="46.51495" lon="0.38073">
        <ele>152.4</ele>
        <time>2024-01-28T07:56:45Z</time>
      </trkpt>
      <trkpt lat="46.51499" lon="0.38065">
        <ele>153.6</ele>
        <time>2024-01-28T07:56:48Z</time>
      </trkpt>
      <trkpt lat="46.51502" lon="0.38058">
        <ele>154.6</ele>
        <time>2024-01-28T07:56:51Z</time>
      </trkpt>
      <trkpt lat="46.51503" lon="0.38055">
        <ele>155.4</ele>
        <time>2024-01-28T07:56:52Z</time>
      </trkpt>
      <trkpt lat="46.51504" lon="0.38052">
        <ele>155.8</ele>
        <time>2024-01-28T07:56:53Z</time>
      </trkpt>
      <trkpt lat="46.51507" lon="0.38042">
        <ele>157</ele>
        <time>2024-01-28T07:56:56Z</time>
      </trkpt>
      <trkpt lat="46.5151" lon="0.38033">
        <ele>157.8</ele>
        <time>2024-01-28T07:56:59Z</time>
      </trkpt>
      <trkpt lat="46.51512" lon="0.38029">
        <ele>158.2</ele>
        <time>2024-01-28T07:57:00Z</time>
      </trkpt>
      <trkpt lat="46.51516" lon="0.38018">
        <ele>159.2</ele>
        <time>2024-01-28T07:57:04Z</time>
      </trkpt>
      <trkpt lat="46.51518" lon="0.38012">
        <ele>159.8</ele>
        <time>2024-01-28T07:57:06Z</time>
      </trkpt>
      <trkpt lat="46.51519" lon="0.38006">
        <ele>160.4</ele>
        <time>2024-01-28T07:57:08Z</time>
      </trkpt>
      <trkpt lat="46.51522" lon="0.37993">
        <ele>161.2</ele>
        <time>2024-01-28T07:57:13Z</time>
      </trkpt>
      <trkpt lat="46.51523" lon="0.3799">
        <ele>161.4</ele>
        <time>2024-01-28T07:57:14Z</time>
      </trkpt>
      <trkpt lat="46.51526" lon="0.37972">
        <ele>162.6</ele>
        <time>2024-01-28T07:57:20Z</time>
      </trkpt>
      <trkpt lat="46.51527" lon="0.37967">
        <ele>163.2</ele>
        <time>2024-01-28T07:57:22Z</time>
      </trkpt>
      <trkpt lat="46.5153" lon="0.37964">
        <ele>163.4</ele>
        <time>2024-01-28T07:57:24Z</time>
      </trkpt>
      <trkpt lat="46.51537" lon="0.3796">
        <ele>163.4</ele>
        <time>2024-01-28T07:57:30Z</time>
      </trkpt>
      <trkpt lat="46.5155" lon="0.37958">
        <ele>163.4</ele>
        <time>2024-01-28T07:57:36Z</time>
      </trkpt>
      <trkpt lat="46.51569" lon="0.3796">
        <ele>162.8</ele>
        <time>2024-01-28T07:57:43Z</time>
      </trkpt>
      <trkpt lat="46.5158" lon="0.37972">
        <ele>162</ele>
        <time>2024-01-28T07:57:47Z</time>
      </trkpt>
      <trkpt lat="46.51587" lon="0.3798">
        <ele>161.6</ele>
        <time>2024-01-28T07:57:50Z</time>
      </trkpt>
      <trkpt lat="46.51591" lon="0.37984">
        <ele>161.2</ele>
        <time>2024-01-28T07:57:52Z</time>
      </trkpt>
      <trkpt lat="46.516" lon="0.37982">
        <ele>160.6</ele>
        <time>2024-01-28T07:57:55Z</time>
      </trkpt>
      <trkpt lat="46.51603" lon="0.3798">
        <ele>160.6</ele>
        <time>2024-01-28T07:57:56Z</time>
      </trkpt>
      <trkpt lat="46.51605" lon="0.37978">
        <ele>160.6</ele>
        <time>2024-01-28T07:57:57Z</time>
      </trkpt>
      <trkpt lat="46.51611" lon="0.37965">
        <ele>160.2</ele>
        <time>2024-01-28T07:58:01Z</time>
      </trkpt>
      <trkpt lat="46.51617" lon="0.37947">
        <ele>160.6</ele>
        <time>2024-01-28T07:58:05Z</time>
      </trkpt>
      <trkpt lat="46.51619" lon="0.37942">
        <ele>160.8</ele>
        <time>2024-01-28T07:58:06Z</time>
      </trkpt>
      <trkpt lat="46.51622" lon="0.3793">
        <ele>161</ele>
        <time>2024-01-28T07:58:08Z</time>
      </trkpt>
      <trkpt lat="46.51627" lon="0.37918">
        <ele>160.6</ele>
        <time>2024-01-28T07:58:10Z</time>
      </trkpt>
      <trkpt lat="46.5163" lon="0.37911">
        <ele>160.6</ele>
        <time>2024-01-28T07:58:11Z</time>
      </trkpt>
      <trkpt lat="46.51633" lon="0.37903">
        <ele>160.4</ele>
        <time>2024-01-28T07:58:12Z</time>
      </trkpt>
      <trkpt lat="46.51645" lon="0.37871">
        <ele>159.4</ele>
        <time>2024-01-28T07:58:16Z</time>
      </trkpt>
      <trkpt lat="46.51648" lon="0.37866">
        <ele>159.8</ele>
        <time>2024-01-28T07:58:17Z</time>
      </trkpt>
      <trkpt lat="46.51652" lon="0.37856">
        <ele>160.8</ele>
        <time>2024-01-28T07:58:19Z</time>
      </trkpt>
      <trkpt lat="46.51655" lon="0.37851">
        <ele>161.4</ele>
        <time>2024-01-28T07:58:20Z</time>
      </trkpt>
      <trkpt lat="46.51656" lon="0.37847">
        <ele>161.6</ele>
        <time>2024-01-28T07:58:21Z</time>
      </trkpt>
      <trkpt lat="46.51662" lon="0.3783">
        <ele>162</ele>
        <time>2024-01-28T07:58:24Z</time>
      </trkpt>
      <trkpt lat="46.51664" lon="0.37824">
        <ele>162.2</ele>
        <time>2024-01-28T07:58:25Z</time>
      </trkpt>
      <trkpt lat="46.51673" lon="0.37793">
        <ele>163.2</ele>
        <time>2024-01-28T07:58:30Z</time>
      </trkpt>
      <trkpt lat="46.51674" lon="0.37787">
        <ele>163.4</ele>
        <time>2024-01-28T07:58:31Z</time>
      </trkpt>
      <trkpt lat="46.51679" lon="0.37774">
        <ele>163.4</ele>
        <time>2024-01-28T07:58:33Z</time>
      </trkpt>
      <trkpt lat="46.51688" lon="0.37744">
        <ele>163.6</ele>
        <time>2024-01-28T07:58:38Z</time>
      </trkpt>
      <trkpt lat="46.51689" lon="0.37731">
        <ele>163.6</ele>
        <time>2024-01-28T07:58:40Z</time>
      </trkpt>
      <trkpt lat="46.51694" lon="0.37711">
        <ele>163.2</ele>
        <time>2024-01-28T07:58:43Z</time>
      </trkpt>
      <trkpt lat="46.51699" lon="0.37694">
        <ele>163</ele>
        <time>2024-01-28T07:58:45Z</time>
      </trkpt>
      <trkpt lat="46.51712" lon="0.37653">
        <ele>162.2</ele>
        <time>2024-01-28T07:58:50Z</time>
      </trkpt>
      <trkpt lat="46.51719" lon="0.37637">
        <ele>161.4</ele>
        <time>2024-01-28T07:58:52Z</time>
      </trkpt>
      <trkpt lat="46.51726" lon="0.3762">
        <ele>161.2</ele>
        <time>2024-01-28T07:58:54Z</time>
      </trkpt>
      <trkpt lat="46.51733" lon="0.37601">
        <ele>159.6</ele>
        <time>2024-01-28T07:58:56Z</time>
      </trkpt>
      <trkpt lat="46.5174" lon="0.37573">
        <ele>157.4</ele>
        <time>2024-01-28T07:58:59Z</time>
      </trkpt>
      <trkpt lat="46.51742" lon="0.37567">
        <ele>156.2</ele>
        <time>2024-01-28T07:59:00Z</time>
      </trkpt>
      <trkpt lat="46.51744" lon="0.3756">
        <ele>155</ele>
        <time>2024-01-28T07:59:01Z</time>
      </trkpt>
      <trkpt lat="46.51744" lon="0.3756">
        <ele>153.2</ele>
        <time>2024-01-28T07:59:02Z</time>
      </trkpt>
      <trkpt lat="46.51749" lon="0.37549">
        <ele>153.2</ele>
        <time>2024-01-28T07:59:03Z</time>
      </trkpt>
      <trkpt lat="46.51751" lon="0.37544">
        <ele>152.2</ele>
        <time>2024-01-28T07:59:04Z</time>
      </trkpt>
      <trkpt lat="46.51752" lon="0.3754">
        <ele>150.8</ele>
        <time>2024-01-28T07:59:05Z</time>
      </trkpt>
      <trkpt lat="46.51754" lon="0.37532">
        <ele>149</ele>
        <time>2024-01-28T07:59:07Z</time>
      </trkpt>
      <trkpt lat="46.51752" lon="0.37527">
        <ele>148</ele>
        <time>2024-01-28T07:59:08Z</time>
      </trkpt>
      <trkpt lat="46.51751" lon="0.37523">
        <ele>147.4</ele>
        <time>2024-01-28T07:59:09Z</time>
      </trkpt>
      <trkpt lat="46.5175" lon="0.37519">
        <ele>146.2</ele>
        <time>2024-01-28T07:59:10Z</time>
      </trkpt>
      <trkpt lat="46.51749" lon="0.37515">
        <ele>145.4</ele>
        <time>2024-01-28T07:59:11Z</time>
      </trkpt>
      <trkpt lat="46.51748" lon="0.37511">
        <ele>144.8</ele>
        <time>2024-01-28T07:59:12Z</time>
      </trkpt>
      <trkpt lat="46.51747" lon="0.37507">
        <ele>144.2</ele>
        <time>2024-01-28T07:59:13Z</time>
      </trkpt>
      <trkpt lat="46.51744" lon="0.37504">
        <ele>143.6</ele>
        <time>2024-01-28T07:59:14Z</time>
      </trkpt>
      <trkpt lat="46.51728" lon="0.37492">
        <ele>142.6</ele>
        <time>2024-01-28T07:59:20Z</time>
      </trkpt>
      <trkpt lat="46.51715" lon="0.37479">
        <ele>142.2</ele>
        <time>2024-01-28T07:59:25Z</time>
      </trkpt>
      <trkpt lat="46.51697" lon="0.37462">
        <ele>143</ele>
        <time>2024-01-28T07:59:31Z</time>
      </trkpt>
      <trkpt lat="46.51676" lon="0.37448">
        <ele>142.8</ele>
        <time>2024-01-28T07:59:37Z</time>
      </trkpt>
      <trkpt lat="46.51652" lon="0.37426">
        <ele>142.6</ele>
        <time>2024-01-28T07:59:44Z</time>
      </trkpt>
      <trkpt lat="46.51632" lon="0.37403">
        <ele>142.8</ele>
        <time>2024-01-28T07:59:51Z</time>
      </trkpt>
      <trkpt lat="46.5161" lon="0.37382">
        <ele>142.4</ele>
        <time>2024-01-28T07:59:58Z</time>
      </trkpt>
      <trkpt lat="46.51591" lon="0.37356">
        <ele>142.2</ele>
        <time>2024-01-28T08:00:06Z</time>
      </trkpt>
      <trkpt lat="46.51577" lon="0.3733">
        <ele>141.8</ele>
        <time>2024-01-28T08:00:13Z</time>
      </trkpt>
      <trkpt lat="46.51573" lon="0.3733">
        <ele>142</ele>
        <time>2024-01-28T08:00:15Z</time>
      </trkpt>
      <trkpt lat="46.51569" lon="0.37329">
        <ele>142.2</ele>
        <time>2024-01-28T08:00:17Z</time>
      </trkpt>
      <trkpt lat="46.51559" lon="0.3733">
        <ele>143.8</ele>
        <time>2024-01-28T08:00:22Z</time>
      </trkpt>
      <trkpt lat="46.51557" lon="0.37331">
        <ele>144.8</ele>
        <time>2024-01-28T08:00:24Z</time>
      </trkpt>
      <trkpt lat="46.51553" lon="0.3733">
        <ele>146.4</ele>
        <time>2024-01-28T08:00:27Z</time>
      </trkpt>
      <trkpt lat="46.51549" lon="0.37331">
        <ele>147.8</ele>
        <time>2024-01-28T08:00:30Z</time>
      </trkpt>
      <trkpt lat="46.51546" lon="0.37332">
        <ele>148.2</ele>
        <time>2024-01-28T08:00:32Z</time>
      </trkpt>
      <trkpt lat="46.51543" lon="0.37332">
        <ele>149</ele>
        <time>2024-01-28T08:00:34Z</time>
      </trkpt>
      <trkpt lat="46.5154" lon="0.37334">
        <ele>150.2</ele>
        <time>2024-01-28T08:00:36Z</time>
      </trkpt>
      <trkpt lat="46.51537" lon="0.37336">
        <ele>151.4</ele>
        <time>2024-01-28T08:00:38Z</time>
      </trkpt>
      <trkpt lat="46.51537" lon="0.37336">
        <ele>151.8</ele>
        <time>2024-01-28T08:00:39Z</time>
      </trkpt>
      <trkpt lat="46.51533" lon="0.37338">
        <ele>152.4</ele>
        <time>2024-01-28T08:00:42Z</time>
      </trkpt>
      <trkpt lat="46.51529" lon="0.3734">
        <ele>153.6</ele>
        <time>2024-01-28T08:00:45Z</time>
      </trkpt>
      <trkpt lat="46.51528" lon="0.3734">
        <ele>153.8</ele>
        <time>2024-01-28T08:00:46Z</time>
      </trkpt>
      <trkpt lat="46.51527" lon="0.37342">
        <ele>154.6</ele>
        <time>2024-01-28T08:00:48Z</time>
      </trkpt>
      <trkpt lat="46.51525" lon="0.37343">
        <ele>155.8</ele>
        <time>2024-01-28T08:00:50Z</time>
      </trkpt>
      <trkpt lat="46.51523" lon="0.37344">
        <ele>157</ele>
        <time>2024-01-28T08:00:54Z</time>
      </trkpt>
      <trkpt lat="46.51522" lon="0.37344">
        <ele>157.6</ele>
        <time>2024-01-28T08:00:56Z</time>
      </trkpt>
      <trkpt lat="46.5152" lon="0.37344">
        <ele>158</ele>
        <time>2024-01-28T08:00:58Z</time>
      </trkpt>
      <trkpt lat="46.51519" lon="0.37344">
        <ele>158.4</ele>
        <time>2024-01-28T08:00:59Z</time>
      </trkpt>
      <trkpt lat="46.51518" lon="0.37345">
        <ele>158.6</ele>
        <time>2024-01-28T08:01:00Z</time>
      </trkpt>
      <trkpt lat="46.51514" lon="0.37344">
        <ele>159.2</ele>
        <time>2024-01-28T08:01:03Z</time>
      </trkpt>
      <trkpt lat="46.51512" lon="0.37345">
        <ele>159.4</ele>
        <time>2024-01-28T08:01:04Z</time>
      </trkpt>
      <trkpt lat="46.51505" lon="0.37347">
        <ele>160.6</ele>
        <time>2024-01-28T08:01:14Z</time>
      </trkpt>
      <trkpt lat="46.51505" lon="0.37347">
        <ele>160.6</ele>
        <time>2024-01-28T08:01:15Z</time>
      </trkpt>
      <trkpt lat="46.51502" lon="0.37345">
        <ele>161.6</ele>
        <time>2024-01-28T08:01:19Z</time>
      </trkpt>
      <trkpt lat="46.51498" lon="0.37344">
        <ele>162.6</ele>
        <time>2024-01-28T08:01:25Z</time>
      </trkpt>
      <trkpt lat="46.51497" lon="0.37344">
        <ele>162.8</ele>
        <time>2024-01-28T08:01:26Z</time>
      </trkpt>
      <trkpt lat="46.51495" lon="0.37343">
        <ele>163.4</ele>
        <time>2024-01-28T08:01:29Z</time>
      </trkpt>
      <trkpt lat="46.51494" lon="0.37342">
        <ele>163.6</ele>
        <time>2024-01-28T08:01:31Z</time>
      </trkpt>
      <trkpt lat="46.51487" lon="0.37339">
        <ele>164.8</ele>
        <time>2024-01-28T08:01:39Z</time>
      </trkpt>
      <trkpt lat="46.51484" lon="0.37338">
        <ele>165.6</ele>
        <time>2024-01-28T08:01:42Z</time>
      </trkpt>
      <trkpt lat="46.51482" lon="0.37338">
        <ele>165.8</ele>
        <time>2024-01-28T08:01:44Z</time>
      </trkpt>
      <trkpt lat="46.51479" lon="0.37338">
        <ele>167</ele>
        <time>2024-01-28T08:01:49Z</time>
      </trkpt>
      <trkpt lat="46.51476" lon="0.37339">
        <ele>167.6</ele>
        <time>2024-01-28T08:01:56Z</time>
      </trkpt>
      <trkpt lat="46.51475" lon="0.37339">
        <ele>167.8</ele>
        <time>2024-01-28T08:02:10Z</time>
      </trkpt>
      <trkpt lat="46.51474" lon="0.3734">
        <ele>167.8</ele>
        <time>2024-01-28T08:02:26Z</time>
      </trkpt>
      <trkpt lat="46.51467" lon="0.3734">
        <ele>168.2</ele>
        <time>2024-01-28T08:02:36Z</time>
      </trkpt>
      <trkpt lat="46.51465" lon="0.37339">
        <ele>168.4</ele>
        <time>2024-01-28T08:02:37Z</time>
      </trkpt>
      <trkpt lat="46.51457" lon="0.3734">
        <ele>169.4</ele>
        <time>2024-01-28T08:02:42Z</time>
      </trkpt>
      <trkpt lat="46.5145" lon="0.37342">
        <ele>170.4</ele>
        <time>2024-01-28T08:02:45Z</time>
      </trkpt>
      <trkpt lat="46.51445" lon="0.37342">
        <ele>171</ele>
        <time>2024-01-28T08:02:47Z</time>
      </trkpt>
      <trkpt lat="46.51441" lon="0.37342">
        <ele>171.6</ele>
        <time>2024-01-28T08:02:49Z</time>
      </trkpt>
      <trkpt lat="46.51431" lon="0.37342">
        <ele>172.6</ele>
        <time>2024-01-28T08:02:54Z</time>
      </trkpt>
      <trkpt lat="46.5143" lon="0.37341">
        <ele>172.6</ele>
        <time>2024-01-28T08:02:55Z</time>
      </trkpt>
      <trkpt lat="46.51426" lon="0.3734">
        <ele>173.4</ele>
        <time>2024-01-28T08:02:58Z</time>
      </trkpt>
      <trkpt lat="46.51421" lon="0.37339">
        <ele>173.8</ele>
        <time>2024-01-28T08:03:00Z</time>
      </trkpt>
      <trkpt lat="46.51418" lon="0.37331">
        <ele>174.2</ele>
        <time>2024-01-28T08:03:04Z</time>
      </trkpt>
      <trkpt lat="46.51418" lon="0.37329">
        <ele>174.2</ele>
        <time>2024-01-28T08:03:05Z</time>
      </trkpt>
      <trkpt lat="46.51417" lon="0.37315">
        <ele>174</ele>
        <time>2024-01-28T08:03:10Z</time>
      </trkpt>
      <trkpt lat="46.51415" lon="0.37305">
        <ele>173.8</ele>
        <time>2024-01-28T08:03:13Z</time>
      </trkpt>
      <trkpt lat="46.51413" lon="0.37289">
        <ele>173.2</ele>
        <time>2024-01-28T08:03:19Z</time>
      </trkpt>
      <trkpt lat="46.51414" lon="0.37286">
        <ele>173</ele>
        <time>2024-01-28T08:03:21Z</time>
      </trkpt>
      <trkpt lat="46.51415" lon="0.37281">
        <ele>172.6</ele>
        <time>2024-01-28T08:03:24Z</time>
      </trkpt>
      <trkpt lat="46.51419" lon="0.37262">
        <ele>172</ele>
        <time>2024-01-28T08:03:30Z</time>
      </trkpt>
      <trkpt lat="46.51419" lon="0.37244">
        <ele>171.6</ele>
        <time>2024-01-28T08:03:34Z</time>
      </trkpt>
      <trkpt lat="46.5142" lon="0.37238">
        <ele>171.6</ele>
        <time>2024-01-28T08:03:35Z</time>
      </trkpt>
      <trkpt lat="46.51422" lon="0.37226">
        <ele>171.2</ele>
        <time>2024-01-28T08:03:37Z</time>
      </trkpt>
      <trkpt lat="46.51427" lon="0.37216">
        <ele>170.4</ele>
        <time>2024-01-28T08:03:39Z</time>
      </trkpt>
      <trkpt lat="46.51432" lon="0.37206">
        <ele>169.4</ele>
        <time>2024-01-28T08:03:41Z</time>
      </trkpt>
      <trkpt lat="46.51435" lon="0.37201">
        <ele>168.6</ele>
        <time>2024-01-28T08:03:42Z</time>
      </trkpt>
      <trkpt lat="46.51442" lon="0.37195">
        <ele>167</ele>
        <time>2024-01-28T08:03:44Z</time>
      </trkpt>
      <trkpt lat="46.51447" lon="0.37192">
        <ele>165.8</ele>
        <time>2024-01-28T08:03:45Z</time>
      </trkpt>
      <trkpt lat="46.5145" lon="0.37189">
        <ele>164.8</ele>
        <time>2024-01-28T08:03:46Z</time>
      </trkpt>
      <trkpt lat="46.51453" lon="0.37186">
        <ele>164.2</ele>
        <time>2024-01-28T08:03:47Z</time>
      </trkpt>
      <trkpt lat="46.51456" lon="0.37184">
        <ele>163</ele>
        <time>2024-01-28T08:03:48Z</time>
      </trkpt>
      <trkpt lat="46.51458" lon="0.37181">
        <ele>162.4</ele>
        <time>2024-01-28T08:03:49Z</time>
      </trkpt>
      <trkpt lat="46.51462" lon="0.37177">
        <ele>161.8</ele>
        <time>2024-01-28T08:03:50Z</time>
      </trkpt>
      <trkpt lat="46.51466" lon="0.37173">
        <ele>161</ele>
        <time>2024-01-28T08:03:51Z</time>
      </trkpt>
      <trkpt lat="46.5147" lon="0.37169">
        <ele>159</ele>
        <time>2024-01-28T08:03:52Z</time>
      </trkpt>
      <trkpt lat="46.51473" lon="0.37165">
        <ele>157.6</ele>
        <time>2024-01-28T08:03:53Z</time>
      </trkpt>
      <trkpt lat="46.51476" lon="0.3716">
        <ele>156.6</ele>
        <time>2024-01-28T08:03:54Z</time>
      </trkpt>
      <trkpt lat="46.51482" lon="0.37153">
        <ele>154.8</ele>
        <time>2024-01-28T08:03:56Z</time>
      </trkpt>
      <trkpt lat="46.51485" lon="0.3715">
        <ele>153.6</ele>
        <time>2024-01-28T08:03:57Z</time>
      </trkpt>
      <trkpt lat="46.5149" lon="0.37145">
        <ele>152.4</ele>
        <time>2024-01-28T08:03:59Z</time>
      </trkpt>
      <trkpt lat="46.51495" lon="0.37145">
        <ele>150.6</ele>
        <time>2024-01-28T08:04:01Z</time>
      </trkpt>
      <trkpt lat="46.515" lon="0.37146">
        <ele>149</ele>
        <time>2024-01-28T08:04:03Z</time>
      </trkpt>
      <trkpt lat="46.51506" lon="0.37149">
        <ele>147.4</ele>
        <time>2024-01-28T08:04:05Z</time>
      </trkpt>
      <trkpt lat="46.51508" lon="0.37151">
        <ele>146</ele>
        <time>2024-01-28T08:04:06Z</time>
      </trkpt>
      <trkpt lat="46.51513" lon="0.37154">
        <ele>143.8</ele>
        <time>2024-01-28T08:04:08Z</time>
      </trkpt>
      <trkpt lat="46.51515" lon="0.37156">
        <ele>143</ele>
        <time>2024-01-28T08:04:09Z</time>
      </trkpt>
      <trkpt lat="46.51517" lon="0.37158">
        <ele>142.4</ele>
        <time>2024-01-28T08:04:10Z</time>
      </trkpt>
      <trkpt lat="46.51526" lon="0.37171">
        <ele>141.8</ele>
        <time>2024-01-28T08:04:17Z</time>
      </trkpt>
      <trkpt lat="46.51527" lon="0.37168">
        <ele>141.6</ele>
        <time>2024-01-28T08:04:20Z</time>
      </trkpt>
      <trkpt lat="46.51527" lon="0.37165">
        <ele>141.4</ele>
        <time>2024-01-28T08:04:22Z</time>
      </trkpt>
      <trkpt lat="46.51528" lon="0.37163">
        <ele>141.4</ele>
        <time>2024-01-28T08:04:23Z</time>
      </trkpt>
      <trkpt lat="46.51528" lon="0.37161">
        <ele>141.6</ele>
        <time>2024-01-28T08:04:24Z</time>
      </trkpt>
      <trkpt lat="46.51528" lon="0.37144">
        <ele>142.4</ele>
        <time>2024-01-28T08:04:32Z</time>
      </trkpt>
      <trkpt lat="46.51528" lon="0.37142">
        <ele>142.4</ele>
        <time>2024-01-28T08:04:33Z</time>
      </trkpt>
      <trkpt lat="46.51526" lon="0.37133">
        <ele>143.6</ele>
        <time>2024-01-28T08:04:37Z</time>
      </trkpt>
      <trkpt lat="46.51525" lon="0.37128">
        <ele>144</ele>
        <time>2024-01-28T08:04:39Z</time>
      </trkpt>
      <trkpt lat="46.51522" lon="0.37118">
        <ele>144.6</ele>
        <time>2024-01-28T08:04:43Z</time>
      </trkpt>
      <trkpt lat="46.5152" lon="0.37113">
        <ele>145.4</ele>
        <time>2024-01-28T08:04:45Z</time>
      </trkpt>
      <trkpt lat="46.51516" lon="0.37109">
        <ele>145.8</ele>
        <time>2024-01-28T08:04:47Z</time>
      </trkpt>
      <trkpt lat="46.5151" lon="0.37101">
        <ele>146.6</ele>
        <time>2024-01-28T08:04:51Z</time>
      </trkpt>
      <trkpt lat="46.51507" lon="0.37096">
        <ele>147</ele>
        <time>2024-01-28T08:04:54Z</time>
      </trkpt>
      <trkpt lat="46.51506" lon="0.37095">
        <ele>147</ele>
        <time>2024-01-28T08:04:56Z</time>
      </trkpt>
      <trkpt lat="46.51505" lon="0.37096">
        <ele>147</ele>
        <time>2024-01-28T08:04:57Z</time>
      </trkpt>
      <trkpt lat="46.51502" lon="0.37098">
        <ele>147.6</ele>
        <time>2024-01-28T08:05:01Z</time>
      </trkpt>
      <trkpt lat="46.51499" lon="0.37098">
        <ele>148</ele>
        <time>2024-01-28T08:05:03Z</time>
      </trkpt>
      <trkpt lat="46.51496" lon="0.37099">
        <ele>149</ele>
        <time>2024-01-28T08:05:05Z</time>
      </trkpt>
      <trkpt lat="46.51489" lon="0.37098">
        <ele>150.2</ele>
        <time>2024-01-28T08:05:10Z</time>
      </trkpt>
      <trkpt lat="46.51488" lon="0.37098">
        <ele>150.6</ele>
        <time>2024-01-28T08:05:11Z</time>
      </trkpt>
      <trkpt lat="46.51485" lon="0.37098">
        <ele>151.2</ele>
        <time>2024-01-28T08:05:13Z</time>
      </trkpt>
      <trkpt lat="46.51479" lon="0.37099">
        <ele>152.4</ele>
        <time>2024-01-28T08:05:17Z</time>
      </trkpt>
      <trkpt lat="46.51477" lon="0.37099">
        <ele>152.8</ele>
        <time>2024-01-28T08:05:19Z</time>
      </trkpt>
      <trkpt lat="46.51474" lon="0.37101">
        <ele>153.6</ele>
        <time>2024-01-28T08:05:21Z</time>
      </trkpt>
      <trkpt lat="46.51471" lon="0.37103">
        <ele>154.8</ele>
        <time>2024-01-28T08:05:24Z</time>
      </trkpt>
      <trkpt lat="46.51468" lon="0.37106">
        <ele>155</ele>
        <time>2024-01-28T08:05:26Z</time>
      </trkpt>
      <trkpt lat="46.51466" lon="0.37108">
        <ele>155.8</ele>
        <time>2024-01-28T08:05:28Z</time>
      </trkpt>
      <trkpt lat="46.5146" lon="0.37116">
        <ele>157</ele>
        <time>2024-01-28T08:05:34Z</time>
      </trkpt>
      <trkpt lat="46.51457" lon="0.3712">
        <ele>157.8</ele>
        <time>2024-01-28T08:05:38Z</time>
      </trkpt>
      <trkpt lat="46.51456" lon="0.37121">
        <ele>158</ele>
        <time>2024-01-28T08:05:39Z</time>
      </trkpt>
      <trkpt lat="46.51455" lon="0.37123">
        <ele>158.2</ele>
        <time>2024-01-28T08:05:40Z</time>
      </trkpt>
      <trkpt lat="46.51452" lon="0.37126">
        <ele>159.2</ele>
        <time>2024-01-28T08:05:43Z</time>
      </trkpt>
      <trkpt lat="46.51448" lon="0.37132">
        <ele>160.2</ele>
        <time>2024-01-28T08:05:47Z</time>
      </trkpt>
      <trkpt lat="46.51446" lon="0.37133">
        <ele>160.4</ele>
        <time>2024-01-28T08:05:48Z</time>
      </trkpt>
      <trkpt lat="46.51443" lon="0.37137">
        <ele>161</ele>
        <time>2024-01-28T08:05:51Z</time>
      </trkpt>
      <trkpt lat="46.51442" lon="0.37138">
        <ele>161.4</ele>
        <time>2024-01-28T08:05:52Z</time>
      </trkpt>
      <trkpt lat="46.51441" lon="0.37142">
        <ele>161.8</ele>
        <time>2024-01-28T08:05:54Z</time>
      </trkpt>
      <trkpt lat="46.5144" lon="0.37146">
        <ele>162.4</ele>
        <time>2024-01-28T08:05:57Z</time>
      </trkpt>
      <trkpt lat="46.51438" lon="0.37155">
        <ele>163.2</ele>
        <time>2024-01-28T08:06:03Z</time>
      </trkpt>
      <trkpt lat="46.51438" lon="0.37157">
        <ele>163.4</ele>
        <time>2024-01-28T08:06:04Z</time>
      </trkpt>
      <trkpt lat="46.51437" lon="0.37165">
        <ele>164.2</ele>
        <time>2024-01-28T08:06:08Z</time>
      </trkpt>
      <trkpt lat="46.51437" lon="0.37169">
        <ele>164.4</ele>
        <time>2024-01-28T08:06:10Z</time>
      </trkpt>
      <trkpt lat="46.51434" lon="0.37181">
        <ele>165.6</ele>
        <time>2024-01-28T08:06:17Z</time>
      </trkpt>
      <trkpt lat="46.51434" lon="0.37185">
        <ele>166.2</ele>
        <time>2024-01-28T08:06:21Z</time>
      </trkpt>
      <trkpt lat="46.51435" lon="0.37185">
        <ele>166.2</ele>
        <time>2024-01-28T08:06:22Z</time>
      </trkpt>
      <trkpt lat="46.51436" lon="0.37184">
        <ele>166.2</ele>
        <time>2024-01-28T08:06:23Z</time>
      </trkpt>
      <trkpt lat="46.51444" lon="0.37181">
        <ele>165</ele>
        <time>2024-01-28T08:06:27Z</time>
      </trkpt>
      <trkpt lat="46.51447" lon="0.3718">
        <ele>164.8</ele>
        <time>2024-01-28T08:06:28Z</time>
      </trkpt>
      <trkpt lat="46.51451" lon="0.37178">
        <ele>164</ele>
        <time>2024-01-28T08:06:29Z</time>
      </trkpt>
      <trkpt lat="46.51455" lon="0.37176">
        <ele>163.4</ele>
        <time>2024-01-28T08:06:30Z</time>
      </trkpt>
      <trkpt lat="46.51459" lon="0.37174">
        <ele>162.8</ele>
        <time>2024-01-28T08:06:31Z</time>
      </trkpt>
      <trkpt lat="46.51463" lon="0.37172">
        <ele>162.4</ele>
        <time>2024-01-28T08:06:32Z</time>
      </trkpt>
      <trkpt lat="46.51466" lon="0.37169">
        <ele>161.6</ele>
        <time>2024-01-28T08:06:33Z</time>
      </trkpt>
      <trkpt lat="46.51473" lon="0.37164">
        <ele>160.2</ele>
        <time>2024-01-28T08:06:35Z</time>
      </trkpt>
      <trkpt lat="46.51477" lon="0.37161">
        <ele>159.2</ele>
        <time>2024-01-28T08:06:36Z</time>
      </trkpt>
      <trkpt lat="46.5148" lon="0.37158">
        <ele>157.8</ele>
        <time>2024-01-28T08:06:37Z</time>
      </trkpt>
      <trkpt lat="46.51483" lon="0.37154">
        <ele>156.8</ele>
        <time>2024-01-28T08:06:38Z</time>
      </trkpt>
      <trkpt lat="46.51486" lon="0.37151">
        <ele>156.2</ele>
        <time>2024-01-28T08:06:39Z</time>
      </trkpt>
      <trkpt lat="46.51489" lon="0.37147">
        <ele>155</ele>
        <time>2024-01-28T08:06:40Z</time>
      </trkpt>
      <trkpt lat="46.51491" lon="0.37144">
        <ele>153.6</ele>
        <time>2024-01-28T08:06:41Z</time>
      </trkpt>
      <trkpt lat="46.51495" lon="0.37141">
        <ele>151.6</ele>
        <time>2024-01-28T08:06:43Z</time>
      </trkpt>
      <trkpt lat="46.51497" lon="0.37142">
        <ele>150.8</ele>
        <time>2024-01-28T08:06:44Z</time>
      </trkpt>
      <trkpt lat="46.51499" lon="0.37143">
        <ele>150.4</ele>
        <time>2024-01-28T08:06:45Z</time>
      </trkpt>
      <trkpt lat="46.51508" lon="0.37147">
        <ele>147.4</ele>
        <time>2024-01-28T08:06:48Z</time>
      </trkpt>
      <trkpt lat="46.51509" lon="0.3715">
        <ele>146</ele>
        <time>2024-01-28T08:06:49Z</time>
      </trkpt>
      <trkpt lat="46.51514" lon="0.37158">
        <ele>144.4</ele>
        <time>2024-01-28T08:06:51Z</time>
      </trkpt>
      <trkpt lat="46.51522" lon="0.37166">
        <ele>142.8</ele>
        <time>2024-01-28T08:06:53Z</time>
      </trkpt>
      <trkpt lat="46.51524" lon="0.37168">
        <ele>142.4</ele>
        <time>2024-01-28T08:06:54Z</time>
      </trkpt>
      <trkpt lat="46.51526" lon="0.37171">
        <ele>142</ele>
        <time>2024-01-28T08:06:55Z</time>
      </trkpt>
      <trkpt lat="46.51526" lon="0.37175">
        <ele>141.6</ele>
        <time>2024-01-28T08:06:56Z</time>
      </trkpt>
      <trkpt lat="46.51532" lon="0.37184">
        <ele>141.2</ele>
        <time>2024-01-28T08:07:00Z</time>
      </trkpt>
      <trkpt lat="46.51532" lon="0.37186">
        <ele>141</ele>
        <time>2024-01-28T08:07:02Z</time>
      </trkpt>
      <trkpt lat="46.51532" lon="0.37185">
        <ele>140.8</ele>
        <time>2024-01-28T08:07:05Z</time>
      </trkpt>
      <trkpt lat="46.51531" lon="0.37185">
        <ele>141</ele>
        <time>2024-01-28T08:07:07Z</time>
      </trkpt>
      <trkpt lat="46.51532" lon="0.37185">
        <ele>140.8</ele>
        <time>2024-01-28T08:07:17Z</time>
      </trkpt>
      <trkpt lat="46.51533" lon="0.37185">
        <ele>141</ele>
        <time>2024-01-28T08:07:33Z</time>
      </trkpt>
      <trkpt lat="46.51534" lon="0.37185">
        <ele>140.8</ele>
        <time>2024-01-28T08:07:48Z</time>
      </trkpt>
      <trkpt lat="46.51541" lon="0.37181">
        <ele>141</ele>
        <time>2024-01-28T08:08:06Z</time>
      </trkpt>
      <trkpt lat="46.51543" lon="0.37176">
        <ele>141</ele>
        <time>2024-01-28T08:08:22Z</time>
      </trkpt>
      <trkpt lat="46.51542" lon="0.37171">
        <ele>141</ele>
        <time>2024-01-28T08:08:26Z</time>
      </trkpt>
      <trkpt lat="46.51542" lon="0.37168">
        <ele>141</ele>
        <time>2024-01-28T08:08:28Z</time>
      </trkpt>
      <trkpt lat="46.5154" lon="0.37159">
        <ele>141</ele>
        <time>2024-01-28T08:08:32Z</time>
      </trkpt>
      <trkpt lat="46.51536" lon="0.37146">
        <ele>141.6</ele>
        <time>2024-01-28T08:08:39Z</time>
      </trkpt>
      <trkpt lat="46.5153" lon="0.37142">
        <ele>143.2</ele>
        <time>2024-01-28T08:08:45Z</time>
      </trkpt>
      <trkpt lat="46.51528" lon="0.37141">
        <ele>144</ele>
        <time>2024-01-28T08:08:47Z</time>
      </trkpt>
      <trkpt lat="46.51527" lon="0.37141">
        <ele>144.4</ele>
        <time>2024-01-28T08:08:48Z</time>
      </trkpt>
      <trkpt lat="46.51525" lon="0.37143">
        <ele>145.2</ele>
        <time>2024-01-28T08:08:50Z</time>
      </trkpt>
      <trkpt lat="46.51525" lon="0.37144">
        <ele>145.6</ele>
        <time>2024-01-28T08:08:51Z</time>
      </trkpt>
      <trkpt lat="46.51522" lon="0.37156">
        <ele>146.4</ele>
        <time>2024-01-28T08:08:58Z</time>
      </trkpt>
      <trkpt lat="46.51518" lon="0.37162">
        <ele>146.6</ele>
        <time>2024-01-28T08:09:04Z</time>
      </trkpt>
      <trkpt lat="46.51515" lon="0.37164">
        <ele>147.8</ele>
        <time>2024-01-28T08:09:09Z</time>
      </trkpt>
      <trkpt lat="46.51514" lon="0.37164">
        <ele>148</ele>
        <time>2024-01-28T08:09:10Z</time>
      </trkpt>
      <trkpt lat="46.51514" lon="0.37166">
        <ele>149.2</ele>
        <time>2024-01-28T08:09:14Z</time>
      </trkpt>
      <trkpt lat="46.51513" lon="0.37168">
        <ele>150</ele>
        <time>2024-01-28T08:09:18Z</time>
      </trkpt>
      <trkpt lat="46.51513" lon="0.3717">
        <ele>150.4</ele>
        <time>2024-01-28T08:09:20Z</time>
      </trkpt>
      <trkpt lat="46.5151" lon="0.37174">
        <ele>151.2</ele>
        <time>2024-01-28T08:09:25Z</time>
      </trkpt>
      <trkpt lat="46.51509" lon="0.37176">
        <ele>151.2</ele>
        <time>2024-01-28T08:09:27Z</time>
      </trkpt>
      <trkpt lat="46.51508" lon="0.37178">
        <ele>151.6</ele>
        <time>2024-01-28T08:09:29Z</time>
      </trkpt>
      <trkpt lat="46.51508" lon="0.37179">
        <ele>151.8</ele>
        <time>2024-01-28T08:09:30Z</time>
      </trkpt>
      <trkpt lat="46.51507" lon="0.3718">
        <ele>152</ele>
        <time>2024-01-28T08:09:31Z</time>
      </trkpt>
      <trkpt lat="46.51504" lon="0.37185">
        <ele>152.6</ele>
        <time>2024-01-28T08:09:34Z</time>
      </trkpt>
      <trkpt lat="46.51501" lon="0.37189">
        <ele>153.8</ele>
        <time>2024-01-28T08:09:38Z</time>
      </trkpt>
      <trkpt lat="46.515" lon="0.37193">
        <ele>154.8</ele>
        <time>2024-01-28T08:09:43Z</time>
      </trkpt>
      <trkpt lat="46.51499" lon="0.37194">
        <ele>155</ele>
        <time>2024-01-28T08:09:44Z</time>
      </trkpt>
      <trkpt lat="46.51499" lon="0.37195">
        <ele>155.6</ele>
        <time>2024-01-28T08:09:46Z</time>
      </trkpt>
      <trkpt lat="46.51498" lon="0.37198">
        <ele>156</ele>
        <time>2024-01-28T08:09:49Z</time>
      </trkpt>
      <trkpt lat="46.51497" lon="0.37199">
        <ele>156.2</ele>
        <time>2024-01-28T08:09:50Z</time>
      </trkpt>
      <trkpt lat="46.51495" lon="0.37203">
        <ele>156.4</ele>
        <time>2024-01-28T08:09:54Z</time>
      </trkpt>
      <trkpt lat="46.51494" lon="0.37205">
        <ele>157.2</ele>
        <time>2024-01-28T08:09:57Z</time>
      </trkpt>
      <trkpt lat="46.51492" lon="0.37209">
        <ele>157.8</ele>
        <time>2024-01-28T08:10:05Z</time>
      </trkpt>
      <trkpt lat="46.51486" lon="0.37215">
        <ele>158.2</ele>
        <time>2024-01-28T08:10:13Z</time>
      </trkpt>
      <trkpt lat="46.51484" lon="0.37218">
        <ele>159.2</ele>
        <time>2024-01-28T08:10:16Z</time>
      </trkpt>
      <trkpt lat="46.51483" lon="0.37219">
        <ele>159.6</ele>
        <time>2024-01-28T08:10:17Z</time>
      </trkpt>
      <trkpt lat="46.51482" lon="0.3722">
        <ele>159.8</ele>
        <time>2024-01-28T08:10:18Z</time>
      </trkpt>
      <trkpt lat="46.51479" lon="0.37225">
        <ele>160.6</ele>
        <time>2024-01-28T08:10:22Z</time>
      </trkpt>
      <trkpt lat="46.51474" lon="0.37231">
        <ele>161.6</ele>
        <time>2024-01-28T08:10:27Z</time>
      </trkpt>
      <trkpt lat="46.51472" lon="0.37233">
        <ele>162.8</ele>
        <time>2024-01-28T08:10:30Z</time>
      </trkpt>
      <trkpt lat="46.51468" lon="0.37239">
        <ele>163.4</ele>
        <time>2024-01-28T08:10:37Z</time>
      </trkpt>
      <trkpt lat="46.51466" lon="0.37243">
        <ele>164</ele>
        <time>2024-01-28T08:10:40Z</time>
      </trkpt>
      <trkpt lat="46.51466" lon="0.37245">
        <ele>164</ele>
        <time>2024-01-28T08:10:41Z</time>
      </trkpt>
      <trkpt lat="46.51461" lon="0.37249">
        <ele>164.8</ele>
        <time>2024-01-28T08:10:45Z</time>
      </trkpt>
      <trkpt lat="46.51459" lon="0.3725">
        <ele>165</ele>
        <time>2024-01-28T08:10:46Z</time>
      </trkpt>
      <trkpt lat="46.51454" lon="0.37257">
        <ele>166</ele>
        <time>2024-01-28T08:10:51Z</time>
      </trkpt>
      <trkpt lat="46.5145" lon="0.37263">
        <ele>167.2</ele>
        <time>2024-01-28T08:10:55Z</time>
      </trkpt>
      <trkpt lat="46.51445" lon="0.37268">
        <ele>168.4</ele>
        <time>2024-01-28T08:10:58Z</time>
      </trkpt>
      <trkpt lat="46.51438" lon="0.37273">
        <ele>169.4</ele>
        <time>2024-01-28T08:11:04Z</time>
      </trkpt>
      <trkpt lat="46.51437" lon="0.37273">
        <ele>169.8</ele>
        <time>2024-01-28T08:11:05Z</time>
      </trkpt>
      <trkpt lat="46.51432" lon="0.37274">
        <ele>170.6</ele>
        <time>2024-01-28T08:11:08Z</time>
      </trkpt>
      <trkpt lat="46.51423" lon="0.37269">
        <ele>171.2</ele>
        <time>2024-01-28T08:11:14Z</time>
      </trkpt>
      <trkpt lat="46.51423" lon="0.37254">
        <ele>171.2</ele>
        <time>2024-01-28T08:11:19Z</time>
      </trkpt>
      <trkpt lat="46.51423" lon="0.37241">
        <ele>170.6</ele>
        <time>2024-01-28T08:11:24Z</time>
      </trkpt>
      <trkpt lat="46.51423" lon="0.37226">
        <ele>169.6</ele>
        <time>2024-01-28T08:11:28Z</time>
      </trkpt>
      <trkpt lat="46.51425" lon="0.37218">
        <ele>168.8</ele>
        <time>2024-01-28T08:11:30Z</time>
      </trkpt>
      <trkpt lat="46.51429" lon="0.37209">
        <ele>168.4</ele>
        <time>2024-01-28T08:11:32Z</time>
      </trkpt>
      <trkpt lat="46.51432" lon="0.37205">
        <ele>168</ele>
        <time>2024-01-28T08:11:33Z</time>
      </trkpt>
      <trkpt lat="46.51436" lon="0.372">
        <ele>167.4</ele>
        <time>2024-01-28T08:11:34Z</time>
      </trkpt>
      <trkpt lat="46.5144" lon="0.37197">
        <ele>167</ele>
        <time>2024-01-28T08:11:35Z</time>
      </trkpt>
      <trkpt lat="46.51444" lon="0.37193">
        <ele>165.4</ele>
        <time>2024-01-28T08:11:36Z</time>
      </trkpt>
      <trkpt lat="46.51454" lon="0.37188">
        <ele>164</ele>
        <time>2024-01-28T08:11:38Z</time>
      </trkpt>
      <trkpt lat="46.51458" lon="0.37185">
        <ele>163.2</ele>
        <time>2024-01-28T08:11:39Z</time>
      </trkpt>
      <trkpt lat="46.51462" lon="0.37182">
        <ele>162.8</ele>
        <time>2024-01-28T08:11:40Z</time>
      </trkpt>
      <trkpt lat="46.51469" lon="0.37177">
        <ele>161</ele>
        <time>2024-01-28T08:11:42Z</time>
      </trkpt>
      <trkpt lat="46.51476" lon="0.37169">
        <ele>159.4</ele>
        <time>2024-01-28T08:11:44Z</time>
      </trkpt>
      <trkpt lat="46.5148" lon="0.37166">
        <ele>158</ele>
        <time>2024-01-28T08:11:45Z</time>
      </trkpt>
      <trkpt lat="46.51483" lon="0.37162">
        <ele>156.6</ele>
        <time>2024-01-28T08:11:46Z</time>
      </trkpt>
      <trkpt lat="46.51488" lon="0.37153">
        <ele>155.2</ele>
        <time>2024-01-28T08:11:48Z</time>
      </trkpt>
      <trkpt lat="46.51491" lon="0.37149">
        <ele>154.2</ele>
        <time>2024-01-28T08:11:49Z</time>
      </trkpt>
      <trkpt lat="46.51495" lon="0.37145">
        <ele>153.6</ele>
        <time>2024-01-28T08:11:50Z</time>
      </trkpt>
      <trkpt lat="46.51498" lon="0.37143">
        <ele>152.2</ele>
        <time>2024-01-28T08:11:51Z</time>
      </trkpt>
      <trkpt lat="46.515" lon="0.37142">
        <ele>151.2</ele>
        <time>2024-01-28T08:11:52Z</time>
      </trkpt>
      <trkpt lat="46.51502" lon="0.37142">
        <ele>149.8</ele>
        <time>2024-01-28T08:11:53Z</time>
      </trkpt>
      <trkpt lat="46.51508" lon="0.37143">
        <ele>148.2</ele>
        <time>2024-01-28T08:11:55Z</time>
      </trkpt>
      <trkpt lat="46.51512" lon="0.37144">
        <ele>146.8</ele>
        <time>2024-01-28T08:11:56Z</time>
      </trkpt>
      <trkpt lat="46.51514" lon="0.37146">
        <ele>145</ele>
        <time>2024-01-28T08:11:57Z</time>
      </trkpt>
      <trkpt lat="46.51515" lon="0.37149">
        <ele>143.4</ele>
        <time>2024-01-28T08:11:58Z</time>
      </trkpt>
      <trkpt lat="46.51518" lon="0.37151">
        <ele>142.4</ele>
        <time>2024-01-28T08:11:59Z</time>
      </trkpt>
      <trkpt lat="46.51519" lon="0.37155">
        <ele>141.2</ele>
        <time>2024-01-28T08:12:01Z</time>
      </trkpt>
      <trkpt lat="46.5152" lon="0.37154">
        <ele>141</ele>
        <time>2024-01-28T08:12:02Z</time>
      </trkpt>
      <trkpt lat="46.51522" lon="0.37153">
        <ele>140.8</ele>
        <time>2024-01-28T08:12:03Z</time>
      </trkpt>
      <trkpt lat="46.51524" lon="0.37143">
        <ele>141</ele>
        <time>2024-01-28T08:12:08Z</time>
      </trkpt>
      <trkpt lat="46.51523" lon="0.37141">
        <ele>141.2</ele>
        <time>2024-01-28T08:12:09Z</time>
      </trkpt>
      <trkpt lat="46.51524" lon="0.37135">
        <ele>142</ele>
        <time>2024-01-28T08:12:14Z</time>
      </trkpt>
      <trkpt lat="46.51523" lon="0.37134">
        <ele>142.4</ele>
        <time>2024-01-28T08:12:15Z</time>
      </trkpt>
      <trkpt lat="46.51519" lon="0.37126">
        <ele>143.6</ele>
        <time>2024-01-28T08:12:19Z</time>
      </trkpt>
      <trkpt lat="46.51515" lon="0.37118">
        <ele>144.2</ele>
        <time>2024-01-28T08:12:23Z</time>
      </trkpt>
      <trkpt lat="46.51514" lon="0.37114">
        <ele>144.8</ele>
        <time>2024-01-28T08:12:25Z</time>
      </trkpt>
      <trkpt lat="46.51512" lon="0.37107">
        <ele>145.4</ele>
        <time>2024-01-28T08:12:29Z</time>
      </trkpt>
      <trkpt lat="46.51509" lon="0.37099">
        <ele>145.8</ele>
        <time>2024-01-28T08:12:33Z</time>
      </trkpt>
      <trkpt lat="46.51508" lon="0.37096">
        <ele>147</ele>
        <time>2024-01-28T08:12:35Z</time>
      </trkpt>
      <trkpt lat="46.51507" lon="0.37094">
        <ele>147</ele>
        <time>2024-01-28T08:12:36Z</time>
      </trkpt>
      <trkpt lat="46.51502" lon="0.37097">
        <ele>147.4</ele>
        <time>2024-01-28T08:12:41Z</time>
      </trkpt>
      <trkpt lat="46.515" lon="0.37099">
        <ele>147.8</ele>
        <time>2024-01-28T08:12:43Z</time>
      </trkpt>
      <trkpt lat="46.51499" lon="0.37098">
        <ele>148</ele>
        <time>2024-01-28T08:12:44Z</time>
      </trkpt>
      <trkpt lat="46.51496" lon="0.37099">
        <ele>148.8</ele>
        <time>2024-01-28T08:12:46Z</time>
      </trkpt>
      <trkpt lat="46.51495" lon="0.37099">
        <ele>149</ele>
        <time>2024-01-28T08:12:47Z</time>
      </trkpt>
      <trkpt lat="46.51487" lon="0.37097">
        <ele>150.2</ele>
        <time>2024-01-28T08:12:52Z</time>
      </trkpt>
      <trkpt lat="46.51485" lon="0.37097">
        <ele>150.6</ele>
        <time>2024-01-28T08:12:53Z</time>
      </trkpt>
      <trkpt lat="46.51483" lon="0.37097">
        <ele>151.2</ele>
        <time>2024-01-28T08:12:55Z</time>
      </trkpt>
      <trkpt lat="46.51477" lon="0.37097">
        <ele>152.4</ele>
        <time>2024-01-28T08:12:59Z</time>
      </trkpt>
      <trkpt lat="46.51476" lon="0.37098">
        <ele>152.8</ele>
        <time>2024-01-28T08:13:00Z</time>
      </trkpt>
      <trkpt lat="46.51475" lon="0.37098">
        <ele>153.2</ele>
        <time>2024-01-28T08:13:01Z</time>
      </trkpt>
      <trkpt lat="46.51474" lon="0.37099">
        <ele>153.6</ele>
        <time>2024-01-28T08:13:02Z</time>
      </trkpt>
      <trkpt lat="46.51469" lon="0.37103">
        <ele>155</ele>
        <time>2024-01-28T08:13:06Z</time>
      </trkpt>
      <trkpt lat="46.51467" lon="0.37105">
        <ele>155.6</ele>
        <time>2024-01-28T08:13:08Z</time>
      </trkpt>
      <trkpt lat="46.51464" lon="0.37108">
        <ele>156</ele>
        <time>2024-01-28T08:13:10Z</time>
      </trkpt>
      <trkpt lat="46.51459" lon="0.37112">
        <ele>157.2</ele>
        <time>2024-01-28T08:13:14Z</time>
      </trkpt>
      <trkpt lat="46.51458" lon="0.37113">
        <ele>157.4</ele>
        <time>2024-01-28T08:13:15Z</time>
      </trkpt>
      <trkpt lat="46.51455" lon="0.37117">
        <ele>158</ele>
        <time>2024-01-28T08:13:18Z</time>
      </trkpt>
      <trkpt lat="46.51454" lon="0.3712">
        <ele>158.2</ele>
        <time>2024-01-28T08:13:20Z</time>
      </trkpt>
      <trkpt lat="46.51453" lon="0.37121">
        <ele>158.6</ele>
        <time>2024-01-28T08:13:21Z</time>
      </trkpt>
      <trkpt lat="46.51453" lon="0.37122">
        <ele>158.6</ele>
        <time>2024-01-28T08:13:22Z</time>
      </trkpt>
      <trkpt lat="46.51451" lon="0.37125">
        <ele>159.2</ele>
        <time>2024-01-28T08:13:24Z</time>
      </trkpt>
      <trkpt lat="46.51449" lon="0.3713">
        <ele>160.4</ele>
        <time>2024-01-28T08:13:28Z</time>
      </trkpt>
      <trkpt lat="46.51448" lon="0.37132">
        <ele>161</ele>
        <time>2024-01-28T08:13:30Z</time>
      </trkpt>
      <trkpt lat="46.51447" lon="0.37136">
        <ele>161.6</ele>
        <time>2024-01-28T08:13:32Z</time>
      </trkpt>
      <trkpt lat="46.51446" lon="0.37138">
        <ele>162</ele>
        <time>2024-01-28T08:13:33Z</time>
      </trkpt>
      <trkpt lat="46.51444" lon="0.37148">
        <ele>162.8</ele>
        <time>2024-01-28T08:13:38Z</time>
      </trkpt>
      <trkpt lat="46.51441" lon="0.37152">
        <ele>163.6</ele>
        <time>2024-01-28T08:13:42Z</time>
      </trkpt>
      <trkpt lat="46.51441" lon="0.37152">
        <ele>163.8</ele>
        <time>2024-01-28T08:13:43Z</time>
      </trkpt>
      <trkpt lat="46.51438" lon="0.37153">
        <ele>164.2</ele>
        <time>2024-01-28T08:13:44Z</time>
      </trkpt>
      <trkpt lat="46.51433" lon="0.3714">
        <ele>164</ele>
        <time>2024-01-28T08:13:50Z</time>
      </trkpt>
      <trkpt lat="46.51431" lon="0.37131">
        <ele>163.4</ele>
        <time>2024-01-28T08:13:52Z</time>
      </trkpt>
      <trkpt lat="46.51425" lon="0.37121">
        <ele>163</ele>
        <time>2024-01-28T08:13:54Z</time>
      </trkpt>
      <trkpt lat="46.51422" lon="0.37117">
        <ele>162.8</ele>
        <time>2024-01-28T08:13:55Z</time>
      </trkpt>
      <trkpt lat="46.51418" lon="0.37112">
        <ele>162</ele>
        <time>2024-01-28T08:13:56Z</time>
      </trkpt>
      <trkpt lat="46.51415" lon="0.37108">
        <ele>161.2</ele>
        <time>2024-01-28T08:13:57Z</time>
      </trkpt>
      <trkpt lat="46.51413" lon="0.37103">
        <ele>160.8</ele>
        <time>2024-01-28T08:13:58Z</time>
      </trkpt>
      <trkpt lat="46.51411" lon="0.37095">
        <ele>160</ele>
        <time>2024-01-28T08:14:00Z</time>
      </trkpt>
      <trkpt lat="46.51412" lon="0.37091">
        <ele>158.8</ele>
        <time>2024-01-28T08:14:01Z</time>
      </trkpt>
      <trkpt lat="46.51415" lon="0.37083">
        <ele>158.4</ele>
        <time>2024-01-28T08:14:03Z</time>
      </trkpt>
      <trkpt lat="46.51416" lon="0.37079">
        <ele>158</ele>
        <time>2024-01-28T08:14:04Z</time>
      </trkpt>
      <trkpt lat="46.51418" lon="0.37075">
        <ele>157.6</ele>
        <time>2024-01-28T08:14:05Z</time>
      </trkpt>
      <trkpt lat="46.5142" lon="0.37066">
        <ele>156.6</ele>
        <time>2024-01-28T08:14:08Z</time>
      </trkpt>
      <trkpt lat="46.51419" lon="0.37063">
        <ele>156.4</ele>
        <time>2024-01-28T08:14:09Z</time>
      </trkpt>
      <trkpt lat="46.51418" lon="0.37062">
        <ele>156.4</ele>
        <time>2024-01-28T08:14:10Z</time>
      </trkpt>
      <trkpt lat="46.51414" lon="0.37052">
        <ele>157.2</ele>
        <time>2024-01-28T08:14:15Z</time>
      </trkpt>
      <trkpt lat="46.51412" lon="0.37049">
        <ele>157.6</ele>
        <time>2024-01-28T08:14:17Z</time>
      </trkpt>
      <trkpt lat="46.51409" lon="0.37044">
        <ele>158.8</ele>
        <time>2024-01-28T08:14:20Z</time>
      </trkpt>
      <trkpt lat="46.51405" lon="0.37042">
        <ele>159.4</ele>
        <time>2024-01-28T08:14:22Z</time>
      </trkpt>
      <trkpt lat="46.51403" lon="0.3704">
        <ele>160</ele>
        <time>2024-01-28T08:14:24Z</time>
      </trkpt>
      <trkpt lat="46.51398" lon="0.37035">
        <ele>161.2</ele>
        <time>2024-01-28T08:14:28Z</time>
      </trkpt>
      <trkpt lat="46.51395" lon="0.37031">
        <ele>162.2</ele>
        <time>2024-01-28T08:14:31Z</time>
      </trkpt>
      <trkpt lat="46.51392" lon="0.37027">
        <ele>163.4</ele>
        <time>2024-01-28T08:14:35Z</time>
      </trkpt>
      <trkpt lat="46.5139" lon="0.37021">
        <ele>164.6</ele>
        <time>2024-01-28T08:14:40Z</time>
      </trkpt>
      <trkpt lat="46.51386" lon="0.37016">
        <ele>165.6</ele>
        <time>2024-01-28T08:14:45Z</time>
      </trkpt>
      <trkpt lat="46.51379" lon="0.37007">
        <ele>166.6</ele>
        <time>2024-01-28T08:14:52Z</time>
      </trkpt>
      <trkpt lat="46.5137" lon="0.37003">
        <ele>167.8</ele>
        <time>2024-01-28T08:14:57Z</time>
      </trkpt>
      <trkpt lat="46.51362" lon="0.36997">
        <ele>168.8</ele>
        <time>2024-01-28T08:15:02Z</time>
      </trkpt>
      <trkpt lat="46.51361" lon="0.36995">
        <ele>168.8</ele>
        <time>2024-01-28T08:15:03Z</time>
      </trkpt>
      <trkpt lat="46.51356" lon="0.36992">
        <ele>170</ele>
        <time>2024-01-28T08:15:06Z</time>
      </trkpt>
      <trkpt lat="46.51346" lon="0.36984">
        <ele>171.2</ele>
        <time>2024-01-28T08:15:14Z</time>
      </trkpt>
      <trkpt lat="46.51339" lon="0.36981">
        <ele>172.4</ele>
        <time>2024-01-28T08:15:20Z</time>
      </trkpt>
      <trkpt lat="46.51337" lon="0.36981">
        <ele>172.6</ele>
        <time>2024-01-28T08:15:21Z</time>
      </trkpt>
      <trkpt lat="46.51331" lon="0.36979">
        <ele>173</ele>
        <time>2024-01-28T08:15:24Z</time>
      </trkpt>
      <trkpt lat="46.51326" lon="0.36977">
        <ele>173.4</ele>
        <time>2024-01-28T08:15:27Z</time>
      </trkpt>
      <trkpt lat="46.51319" lon="0.3697">
        <ele>174.6</ele>
        <time>2024-01-28T08:15:32Z</time>
      </trkpt>
      <trkpt lat="46.51314" lon="0.36965">
        <ele>174.8</ele>
        <time>2024-01-28T08:15:35Z</time>
      </trkpt>
      <trkpt lat="46.51309" lon="0.36965">
        <ele>175.4</ele>
        <time>2024-01-28T08:15:38Z</time>
      </trkpt>
      <trkpt lat="46.51309" lon="0.36965">
        <ele>175.8</ele>
        <time>2024-01-28T08:15:39Z</time>
      </trkpt>
      <trkpt lat="46.51302" lon="0.36966">
        <ele>175.8</ele>
        <time>2024-01-28T08:15:41Z</time>
      </trkpt>
      <trkpt lat="46.51287" lon="0.36968">
        <ele>176.8</ele>
        <time>2024-01-28T08:15:49Z</time>
      </trkpt>
      <trkpt lat="46.51285" lon="0.36968">
        <ele>176.8</ele>
        <time>2024-01-28T08:15:50Z</time>
      </trkpt>
      <trkpt lat="46.5127" lon="0.36975">
        <ele>177.6</ele>
        <time>2024-01-28T08:15:57Z</time>
      </trkpt>
      <trkpt lat="46.51256" lon="0.36983">
        <ele>177.6</ele>
        <time>2024-01-28T08:16:04Z</time>
      </trkpt>
      <trkpt lat="46.51242" lon="0.36987">
        <ele>177.4</ele>
        <time>2024-01-28T08:16:10Z</time>
      </trkpt>
      <trkpt lat="46.51231" lon="0.36992">
        <ele>178</ele>
        <time>2024-01-28T08:16:14Z</time>
      </trkpt>
      <trkpt lat="46.51227" lon="0.36996">
        <ele>178.2</ele>
        <time>2024-01-28T08:16:16Z</time>
      </trkpt>
      <trkpt lat="46.5122" lon="0.37005">
        <ele>178.6</ele>
        <time>2024-01-28T08:16:20Z</time>
      </trkpt>
      <trkpt lat="46.51218" lon="0.37007">
        <ele>178.8</ele>
        <time>2024-01-28T08:16:21Z</time>
      </trkpt>
      <trkpt lat="46.51203" lon="0.37011">
        <ele>179</ele>
        <time>2024-01-28T08:16:26Z</time>
      </trkpt>
      <trkpt lat="46.512" lon="0.37012">
        <ele>179</ele>
        <time>2024-01-28T08:16:27Z</time>
      </trkpt>
      <trkpt lat="46.51181" lon="0.37019">
        <ele>180</ele>
        <time>2024-01-28T08:16:34Z</time>
      </trkpt>
      <trkpt lat="46.51177" lon="0.3702">
        <ele>180</ele>
        <time>2024-01-28T08:16:35Z</time>
      </trkpt>
      <trkpt lat="46.51164" lon="0.3702">
        <ele>180.8</ele>
        <time>2024-01-28T08:16:41Z</time>
      </trkpt>
      <trkpt lat="46.51153" lon="0.37018">
        <ele>181</ele>
        <time>2024-01-28T08:16:44Z</time>
      </trkpt>
      <trkpt lat="46.5115" lon="0.37015">
        <ele>181</ele>
        <time>2024-01-28T08:16:46Z</time>
      </trkpt>
      <trkpt lat="46.51148" lon="0.37013">
        <ele>181.2</ele>
        <time>2024-01-28T08:16:47Z</time>
      </trkpt>
      <trkpt lat="46.51141" lon="0.36991">
        <ele>181.2</ele>
        <time>2024-01-28T08:16:54Z</time>
      </trkpt>
      <trkpt lat="46.51135" lon="0.36964">
        <ele>181.4</ele>
        <time>2024-01-28T08:17:01Z</time>
      </trkpt>
      <trkpt lat="46.51129" lon="0.36939">
        <ele>181.4</ele>
        <time>2024-01-28T08:17:06Z</time>
      </trkpt>
      <trkpt lat="46.51127" lon="0.36925">
        <ele>181.4</ele>
        <time>2024-01-28T08:17:09Z</time>
      </trkpt>
      <trkpt lat="46.51126" lon="0.36915">
        <ele>181.6</ele>
        <time>2024-01-28T08:17:11Z</time>
      </trkpt>
      <trkpt lat="46.51125" lon="0.36907">
        <ele>181.6</ele>
        <time>2024-01-28T08:17:13Z</time>
      </trkpt>
      <trkpt lat="46.51126" lon="0.36897">
        <ele>181.6</ele>
        <time>2024-01-28T08:17:15Z</time>
      </trkpt>
      <trkpt lat="46.51127" lon="0.3689">
        <ele>181.6</ele>
        <time>2024-01-28T08:17:16Z</time>
      </trkpt>
      <trkpt lat="46.51127" lon="0.36868">
        <ele>180.6</ele>
        <time>2024-01-28T08:17:20Z</time>
      </trkpt>
      <trkpt lat="46.51127" lon="0.36863">
        <ele>180.2</ele>
        <time>2024-01-28T08:17:21Z</time>
      </trkpt>
      <trkpt lat="46.51127" lon="0.36861">
        <ele>180</ele>
        <time>2024-01-28T08:17:22Z</time>
      </trkpt>
      <trkpt lat="46.51127" lon="0.3686">
        <ele>179.8</ele>
        <time>2024-01-28T08:17:23Z</time>
      </trkpt>
      <trkpt lat="46.5113" lon="0.36843">
        <ele>179.6</ele>
        <time>2024-01-28T08:17:28Z</time>
      </trkpt>
      <trkpt lat="46.51132" lon="0.36841">
        <ele>179.6</ele>
        <time>2024-01-28T08:17:29Z</time>
      </trkpt>
      <trkpt lat="46.51137" lon="0.36838">
        <ele>179.4</ele>
        <time>2024-01-28T08:17:31Z</time>
      </trkpt>
      <trkpt lat="46.51139" lon="0.36836">
        <ele>179.4</ele>
        <time>2024-01-28T08:17:32Z</time>
      </trkpt>
      <trkpt lat="46.51141" lon="0.36834">
        <ele>179.4</ele>
        <time>2024-01-28T08:17:33Z</time>
      </trkpt>
      <trkpt lat="46.51148" lon="0.36823">
        <ele>179</ele>
        <time>2024-01-28T08:17:37Z</time>
      </trkpt>
      <trkpt lat="46.51151" lon="0.36821">
        <ele>179</ele>
        <time>2024-01-28T08:17:38Z</time>
      </trkpt>
      <trkpt lat="46.51153" lon="0.3682">
        <ele>178.8</ele>
        <time>2024-01-28T08:17:39Z</time>
      </trkpt>
      <trkpt lat="46.5116" lon="0.36818">
        <ele>178.6</ele>
        <time>2024-01-28T08:17:41Z</time>
      </trkpt>
      <trkpt lat="46.51162" lon="0.36818">
        <ele>178.4</ele>
        <time>2024-01-28T08:17:42Z</time>
      </trkpt>
      <trkpt lat="46.51168" lon="0.36818">
        <ele>178.4</ele>
        <time>2024-01-28T08:17:44Z</time>
      </trkpt>
      <trkpt lat="46.51174" lon="0.36818">
        <ele>178.2</ele>
        <time>2024-01-28T08:17:46Z</time>
      </trkpt>
      <trkpt lat="46.51182" lon="0.36815">
        <ele>177.8</ele>
        <time>2024-01-28T08:17:49Z</time>
      </trkpt>
      <trkpt lat="46.51186" lon="0.36812">
        <ele>177.6</ele>
        <time>2024-01-28T08:17:51Z</time>
      </trkpt>
      <trkpt lat="46.51191" lon="0.36812">
        <ele>177.4</ele>
        <time>2024-01-28T08:17:53Z</time>
      </trkpt>
      <trkpt lat="46.51196" lon="0.36811">
        <ele>177.2</ele>
        <time>2024-01-28T08:17:55Z</time>
      </trkpt>
      <trkpt lat="46.51202" lon="0.36812">
        <ele>177.2</ele>
        <time>2024-01-28T08:17:58Z</time>
      </trkpt>
      <trkpt lat="46.51206" lon="0.3681">
        <ele>177.2</ele>
        <time>2024-01-28T08:18:00Z</time>
      </trkpt>
      <trkpt lat="46.51215" lon="0.36811">
        <ele>177.2</ele>
        <time>2024-01-28T08:18:03Z</time>
      </trkpt>
      <trkpt lat="46.51218" lon="0.36811">
        <ele>177.2</ele>
        <time>2024-01-28T08:18:04Z</time>
      </trkpt>
      <trkpt lat="46.51225" lon="0.3681">
        <ele>177</ele>
        <time>2024-01-28T08:18:07Z</time>
      </trkpt>
      <trkpt lat="46.51228" lon="0.3681">
        <ele>176.8</ele>
        <time>2024-01-28T08:18:08Z</time>
      </trkpt>
      <trkpt lat="46.51233" lon="0.3681">
        <ele>176.6</ele>
        <time>2024-01-28T08:18:09Z</time>
      </trkpt>
      <trkpt lat="46.51243" lon="0.36811">
        <ele>176.2</ele>
        <time>2024-01-28T08:18:12Z</time>
      </trkpt>
      <trkpt lat="46.51261" lon="0.36813">
        <ele>176</ele>
        <time>2024-01-28T08:18:17Z</time>
      </trkpt>
      <trkpt lat="46.51267" lon="0.36813">
        <ele>176</ele>
        <time>2024-01-28T08:18:19Z</time>
      </trkpt>
      <trkpt lat="46.5127" lon="0.36812">
        <ele>175.6</ele>
        <time>2024-01-28T08:18:20Z</time>
      </trkpt>
      <trkpt lat="46.51275" lon="0.36812">
        <ele>175.2</ele>
        <time>2024-01-28T08:18:21Z</time>
      </trkpt>
      <trkpt lat="46.51279" lon="0.36812">
        <ele>174.6</ele>
        <time>2024-01-28T08:18:22Z</time>
      </trkpt>
      <trkpt lat="46.51282" lon="0.36814">
        <ele>174.4</ele>
        <time>2024-01-28T08:18:23Z</time>
      </trkpt>
      <trkpt lat="46.51285" lon="0.36815">
        <ele>173.8</ele>
        <time>2024-01-28T08:18:24Z</time>
      </trkpt>
      <trkpt lat="46.51288" lon="0.36816">
        <ele>173.2</ele>
        <time>2024-01-28T08:18:25Z</time>
      </trkpt>
      <trkpt lat="46.51291" lon="0.36817">
        <ele>172.8</ele>
        <time>2024-01-28T08:18:26Z</time>
      </trkpt>
      <trkpt lat="46.51295" lon="0.3682">
        <ele>172.2</ele>
        <time>2024-01-28T08:18:28Z</time>
      </trkpt>
      <trkpt lat="46.51301" lon="0.3682">
        <ele>171.4</ele>
        <time>2024-01-28T08:18:30Z</time>
      </trkpt>
      <trkpt lat="46.51306" lon="0.36821">
        <ele>171</ele>
        <time>2024-01-28T08:18:31Z</time>
      </trkpt>
      <trkpt lat="46.5131" lon="0.36822">
        <ele>170.8</ele>
        <time>2024-01-28T08:18:32Z</time>
      </trkpt>
      <trkpt lat="46.51318" lon="0.36824">
        <ele>169.8</ele>
        <time>2024-01-28T08:18:34Z</time>
      </trkpt>
      <trkpt lat="46.51326" lon="0.36827">
        <ele>169</ele>
        <time>2024-01-28T08:18:36Z</time>
      </trkpt>
      <trkpt lat="46.51329" lon="0.36829">
        <ele>168.6</ele>
        <time>2024-01-28T08:18:37Z</time>
      </trkpt>
      <trkpt lat="46.51333" lon="0.3683">
        <ele>168.4</ele>
        <time>2024-01-28T08:18:38Z</time>
      </trkpt>
      <trkpt lat="46.51346" lon="0.36833">
        <ele>167.6</ele>
        <time>2024-01-28T08:18:42Z</time>
      </trkpt>
      <trkpt lat="46.51349" lon="0.36834">
        <ele>167.4</ele>
        <time>2024-01-28T08:18:43Z</time>
      </trkpt>
      <trkpt lat="46.51351" lon="0.36836">
        <ele>167</ele>
        <time>2024-01-28T08:18:44Z</time>
      </trkpt>
      <trkpt lat="46.51357" lon="0.36839">
        <ele>166</ele>
        <time>2024-01-28T08:18:46Z</time>
      </trkpt>
      <trkpt lat="46.5136" lon="0.3684">
        <ele>165.6</ele>
        <time>2024-01-28T08:18:47Z</time>
      </trkpt>
      <trkpt lat="46.51366" lon="0.36843">
        <ele>164.4</ele>
        <time>2024-01-28T08:18:49Z</time>
      </trkpt>
      <trkpt lat="46.51369" lon="0.36844">
        <ele>163.4</ele>
        <time>2024-01-28T08:18:50Z</time>
      </trkpt>
      <trkpt lat="46.51375" lon="0.36845">
        <ele>162.2</ele>
        <time>2024-01-28T08:18:52Z</time>
      </trkpt>
      <trkpt lat="46.51387" lon="0.36847">
        <ele>160.4</ele>
        <time>2024-01-28T08:18:55Z</time>
      </trkpt>
      <trkpt lat="46.5139" lon="0.36849">
        <ele>159.6</ele>
        <time>2024-01-28T08:18:56Z</time>
      </trkpt>
      <trkpt lat="46.51395" lon="0.36852">
        <ele>159</ele>
        <time>2024-01-28T08:18:57Z</time>
      </trkpt>
      <trkpt lat="46.51399" lon="0.36858">
        <ele>157.4</ele>
        <time>2024-01-28T08:18:59Z</time>
      </trkpt>
      <trkpt lat="46.51401" lon="0.36861">
        <ele>156.8</ele>
        <time>2024-01-28T08:19:00Z</time>
      </trkpt>
      <trkpt lat="46.51403" lon="0.36864">
        <ele>156.4</ele>
        <time>2024-01-28T08:19:01Z</time>
      </trkpt>
      <trkpt lat="46.5141" lon="0.36875">
        <ele>155.2</ele>
        <time>2024-01-28T08:19:04Z</time>
      </trkpt>
      <trkpt lat="46.51413" lon="0.36879">
        <ele>154.8</ele>
        <time>2024-01-28T08:19:05Z</time>
      </trkpt>
      <trkpt lat="46.51415" lon="0.36882">
        <ele>154</ele>
        <time>2024-01-28T08:19:06Z</time>
      </trkpt>
      <trkpt lat="46.51418" lon="0.36885">
        <ele>153.2</ele>
        <time>2024-01-28T08:19:07Z</time>
      </trkpt>
      <trkpt lat="46.5142" lon="0.36887">
        <ele>152.8</ele>
        <time>2024-01-28T08:19:08Z</time>
      </trkpt>
      <trkpt lat="46.51423" lon="0.3689">
        <ele>152.2</ele>
        <time>2024-01-28T08:19:09Z</time>
      </trkpt>
      <trkpt lat="46.51429" lon="0.36897">
        <ele>151.2</ele>
        <time>2024-01-28T08:19:11Z</time>
      </trkpt>
      <trkpt lat="46.51434" lon="0.36902">
        <ele>150</ele>
        <time>2024-01-28T08:19:13Z</time>
      </trkpt>
      <trkpt lat="46.51436" lon="0.36903">
        <ele>149</ele>
        <time>2024-01-28T08:19:14Z</time>
      </trkpt>
      <trkpt lat="46.5144" lon="0.36902">
        <ele>148</ele>
        <time>2024-01-28T08:19:15Z</time>
      </trkpt>
      <trkpt lat="46.51451" lon="0.36898">
        <ele>146.8</ele>
        <time>2024-01-28T08:19:17Z</time>
      </trkpt>
      <trkpt lat="46.51457" lon="0.36893">
        <ele>146.4</ele>
        <time>2024-01-28T08:19:19Z</time>
      </trkpt>
      <trkpt lat="46.51467" lon="0.36881">
        <ele>146.4</ele>
        <time>2024-01-28T08:19:25Z</time>
      </trkpt>
      <trkpt lat="46.51473" lon="0.36872">
        <ele>146.6</ele>
        <time>2024-01-28T08:19:30Z</time>
      </trkpt>
      <trkpt lat="46.51475" lon="0.36865">
        <ele>146.8</ele>
        <time>2024-01-28T08:19:35Z</time>
      </trkpt>
      <trkpt lat="46.51474" lon="0.36863">
        <ele>147</ele>
        <time>2024-01-28T08:19:38Z</time>
      </trkpt>
      <trkpt lat="46.51473" lon="0.36863">
        <ele>147</ele>
        <time>2024-01-28T08:19:39Z</time>
      </trkpt>
      <trkpt lat="46.51473" lon="0.36863">
        <ele>147</ele>
        <time>2024-01-28T08:19:40Z</time>
      </trkpt>
      <trkpt lat="46.5147" lon="0.36866">
        <ele>148</ele>
        <time>2024-01-28T08:19:44Z</time>
      </trkpt>
      <trkpt lat="46.5147" lon="0.36867">
        <ele>148.2</ele>
        <time>2024-01-28T08:19:45Z</time>
      </trkpt>
      <trkpt lat="46.51469" lon="0.36868">
        <ele>148.4</ele>
        <time>2024-01-28T08:19:46Z</time>
      </trkpt>
      <trkpt lat="46.51466" lon="0.36875">
        <ele>149.2</ele>
        <time>2024-01-28T08:19:50Z</time>
      </trkpt>
      <trkpt lat="46.51464" lon="0.36882">
        <ele>150.2</ele>
        <time>2024-01-28T08:19:54Z</time>
      </trkpt>
      <trkpt lat="46.51462" lon="0.36887">
        <ele>151</ele>
        <time>2024-01-28T08:19:57Z</time>
      </trkpt>
      <trkpt lat="46.51461" lon="0.36889">
        <ele>151.2</ele>
        <time>2024-01-28T08:19:58Z</time>
      </trkpt>
      <trkpt lat="46.51456" lon="0.36893">
        <ele>152.4</ele>
        <time>2024-01-28T08:20:02Z</time>
      </trkpt>
      <trkpt lat="46.51452" lon="0.36894">
        <ele>153.6</ele>
        <time>2024-01-28T08:20:05Z</time>
      </trkpt>
      <trkpt lat="46.51451" lon="0.36893">
        <ele>154</ele>
        <time>2024-01-28T08:20:06Z</time>
      </trkpt>
      <trkpt lat="46.51448" lon="0.36891">
        <ele>154.8</ele>
        <time>2024-01-28T08:20:08Z</time>
      </trkpt>
      <trkpt lat="46.51446" lon="0.36885">
        <ele>156</ele>
        <time>2024-01-28T08:20:12Z</time>
      </trkpt>
      <trkpt lat="46.51445" lon="0.36883">
        <ele>156.4</ele>
        <time>2024-01-28T08:20:13Z</time>
      </trkpt>
      <trkpt lat="46.51442" lon="0.36879">
        <ele>157.2</ele>
        <time>2024-01-28T08:20:16Z</time>
      </trkpt>
      <trkpt lat="46.51436" lon="0.36876">
        <ele>158.4</ele>
        <time>2024-01-28T08:20:20Z</time>
      </trkpt>
      <trkpt lat="46.51434" lon="0.36875">
        <ele>159</ele>
        <time>2024-01-28T08:20:22Z</time>
      </trkpt>
      <trkpt lat="46.51432" lon="0.36875">
        <ele>159.6</ele>
        <time>2024-01-28T08:20:24Z</time>
      </trkpt>
      <trkpt lat="46.51427" lon="0.36877">
        <ele>160.8</ele>
        <time>2024-01-28T08:20:28Z</time>
      </trkpt>
      <trkpt lat="46.51425" lon="0.36877">
        <ele>161.4</ele>
        <time>2024-01-28T08:20:29Z</time>
      </trkpt>
      <trkpt lat="46.51421" lon="0.36879">
        <ele>162</ele>
        <time>2024-01-28T08:20:31Z</time>
      </trkpt>
      <trkpt lat="46.51418" lon="0.3688">
        <ele>162.6</ele>
        <time>2024-01-28T08:20:33Z</time>
      </trkpt>
      <trkpt lat="46.51415" lon="0.36882">
        <ele>163.2</ele>
        <time>2024-01-28T08:20:35Z</time>
      </trkpt>
      <trkpt lat="46.51409" lon="0.36885">
        <ele>164.4</ele>
        <time>2024-01-28T08:20:39Z</time>
      </trkpt>
      <trkpt lat="46.51403" lon="0.3689">
        <ele>165.8</ele>
        <time>2024-01-28T08:20:43Z</time>
      </trkpt>
      <trkpt lat="46.51399" lon="0.36892">
        <ele>166.6</ele>
        <time>2024-01-28T08:20:46Z</time>
      </trkpt>
      <trkpt lat="46.51397" lon="0.36893">
        <ele>166.8</ele>
        <time>2024-01-28T08:20:47Z</time>
      </trkpt>
      <trkpt lat="46.51389" lon="0.36898">
        <ele>167.8</ele>
        <time>2024-01-28T08:20:51Z</time>
      </trkpt>
      <trkpt lat="46.51382" lon="0.36898">
        <ele>168.8</ele>
        <time>2024-01-28T08:20:55Z</time>
      </trkpt>
      <trkpt lat="46.5138" lon="0.36898">
        <ele>169.2</ele>
        <time>2024-01-28T08:20:56Z</time>
      </trkpt>
      <trkpt lat="46.51369" lon="0.36895">
        <ele>170.4</ele>
        <time>2024-01-28T08:21:03Z</time>
      </trkpt>
      <trkpt lat="46.51361" lon="0.3689">
        <ele>171.4</ele>
        <time>2024-01-28T08:21:08Z</time>
      </trkpt>
      <trkpt lat="46.5135" lon="0.3688">
        <ele>172</ele>
        <time>2024-01-28T08:21:14Z</time>
      </trkpt>
      <trkpt lat="46.51344" lon="0.36876">
        <ele>172.6</ele>
        <time>2024-01-28T08:21:17Z</time>
      </trkpt>
      <trkpt lat="46.51335" lon="0.3687">
        <ele>173.4</ele>
        <time>2024-01-28T08:21:21Z</time>
      </trkpt>
      <trkpt lat="46.51328" lon="0.36868">
        <ele>173.8</ele>
        <time>2024-01-28T08:21:23Z</time>
      </trkpt>
      <trkpt lat="46.51316" lon="0.36866">
        <ele>174.4</ele>
        <time>2024-01-28T08:21:27Z</time>
      </trkpt>
      <trkpt lat="46.51309" lon="0.36869">
        <ele>174.8</ele>
        <time>2024-01-28T08:21:30Z</time>
      </trkpt>
      <trkpt lat="46.51308" lon="0.36871">
        <ele>175.4</ele>
        <time>2024-01-28T08:21:32Z</time>
      </trkpt>
      <trkpt lat="46.51301" lon="0.36875">
        <ele>176</ele>
        <time>2024-01-28T08:21:36Z</time>
      </trkpt>
      <trkpt lat="46.51299" lon="0.36876">
        <ele>176.4</ele>
        <time>2024-01-28T08:21:37Z</time>
      </trkpt>
      <trkpt lat="46.51287" lon="0.3688">
        <ele>177.2</ele>
        <time>2024-01-28T08:21:43Z</time>
      </trkpt>
      <trkpt lat="46.51267" lon="0.36881">
        <ele>177.8</ele>
        <time>2024-01-28T08:21:49Z</time>
      </trkpt>
      <trkpt lat="46.51258" lon="0.3688">
        <ele>178.2</ele>
        <time>2024-01-28T08:21:52Z</time>
      </trkpt>
      <trkpt lat="46.51252" lon="0.36881">
        <ele>178.4</ele>
        <time>2024-01-28T08:21:54Z</time>
      </trkpt>
      <trkpt lat="46.51236" lon="0.36882">
        <ele>179.4</ele>
        <time>2024-01-28T08:22:00Z</time>
      </trkpt>
      <trkpt lat="46.51233" lon="0.36882">
        <ele>179.4</ele>
        <time>2024-01-28T08:22:01Z</time>
      </trkpt>
      <trkpt lat="46.51213" lon="0.36877">
        <ele>179.8</ele>
        <time>2024-01-28T08:22:07Z</time>
      </trkpt>
      <trkpt lat="46.51193" lon="0.36863">
        <ele>180.2</ele>
        <time>2024-01-28T08:22:13Z</time>
      </trkpt>
      <trkpt lat="46.51185" lon="0.3686">
        <ele>180.2</ele>
        <time>2024-01-28T08:22:15Z</time>
      </trkpt>
      <trkpt lat="46.5117" lon="0.36851">
        <ele>180</ele>
        <time>2024-01-28T08:22:19Z</time>
      </trkpt>
      <trkpt lat="46.51141" lon="0.36842">
        <ele>180</ele>
        <time>2024-01-28T08:22:25Z</time>
      </trkpt>
      <trkpt lat="46.51124" lon="0.36835">
        <ele>179.6</ele>
        <time>2024-01-28T08:22:29Z</time>
      </trkpt>
      <trkpt lat="46.5112" lon="0.36835">
        <ele>179.4</ele>
        <time>2024-01-28T08:22:30Z</time>
      </trkpt>
      <trkpt lat="46.5111" lon="0.36833">
        <ele>179.2</ele>
        <time>2024-01-28T08:22:34Z</time>
      </trkpt>
      <trkpt lat="46.51106" lon="0.36833">
        <ele>179.2</ele>
        <time>2024-01-28T08:22:37Z</time>
      </trkpt>
      <trkpt lat="46.51105" lon="0.36831">
        <ele>179.2</ele>
        <time>2024-01-28T08:22:39Z</time>
      </trkpt>
      <trkpt lat="46.51105" lon="0.3683">
        <ele>179.2</ele>
        <time>2024-01-28T08:22:40Z</time>
      </trkpt>
      <trkpt lat="46.51107" lon="0.36829">
        <ele>179.4</ele>
        <time>2024-01-28T08:22:42Z</time>
      </trkpt>
      <trkpt lat="46.51115" lon="0.36828">
        <ele>179.2</ele>
        <time>2024-01-28T08:22:46Z</time>
      </trkpt>
      <trkpt lat="46.51121" lon="0.36832">
        <ele>179.6</ele>
        <time>2024-01-28T08:22:50Z</time>
      </trkpt>
      <trkpt lat="46.5112" lon="0.36835">
        <ele>179.6</ele>
        <time>2024-01-28T08:22:51Z</time>
      </trkpt>
      <trkpt lat="46.51121" lon="0.36851">
        <ele>180</ele>
        <time>2024-01-28T08:22:55Z</time>
      </trkpt>
      <trkpt lat="46.51121" lon="0.36856">
        <ele>180</ele>
        <time>2024-01-28T08:22:56Z</time>
      </trkpt>
      <trkpt lat="46.5112" lon="0.36862">
        <ele>180.2</ele>
        <time>2024-01-28T08:22:57Z</time>
      </trkpt>
      <trkpt lat="46.5112" lon="0.36867">
        <ele>180.4</ele>
        <time>2024-01-28T08:22:58Z</time>
      </trkpt>
      <trkpt lat="46.51121" lon="0.36882">
        <ele>180.6</ele>
        <time>2024-01-28T08:23:01Z</time>
      </trkpt>
      <trkpt lat="46.51127" lon="0.36922">
        <ele>180.8</ele>
        <time>2024-01-28T08:23:09Z</time>
      </trkpt>
      <trkpt lat="46.51131" lon="0.36938">
        <ele>180.8</ele>
        <time>2024-01-28T08:23:12Z</time>
      </trkpt>
      <trkpt lat="46.51133" lon="0.36948">
        <ele>180.6</ele>
        <time>2024-01-28T08:23:14Z</time>
      </trkpt>
      <trkpt lat="46.51135" lon="0.36961">
        <ele>180.8</ele>
        <time>2024-01-28T08:23:16Z</time>
      </trkpt>
      <trkpt lat="46.51134" lon="0.36978">
        <ele>180.6</ele>
        <time>2024-01-28T08:23:19Z</time>
      </trkpt>
      <trkpt lat="46.51132" lon="0.36985">
        <ele>180.4</ele>
        <time>2024-01-28T08:23:21Z</time>
      </trkpt>
      <trkpt lat="46.51128" lon="0.36989">
        <ele>180.4</ele>
        <time>2024-01-28T08:23:23Z</time>
      </trkpt>
      <trkpt lat="46.51118" lon="0.36996">
        <ele>180.8</ele>
        <time>2024-01-28T08:23:26Z</time>
      </trkpt>
      <trkpt lat="46.5111" lon="0.36996">
        <ele>181.2</ele>
        <time>2024-01-28T08:23:28Z</time>
      </trkpt>
      <trkpt lat="46.51106" lon="0.36995">
        <ele>181.2</ele>
        <time>2024-01-28T08:23:29Z</time>
      </trkpt>
      <trkpt lat="46.51101" lon="0.36991">
        <ele>181.4</ele>
        <time>2024-01-28T08:23:31Z</time>
      </trkpt>
      <trkpt lat="46.511" lon="0.36988">
        <ele>181.4</ele>
        <time>2024-01-28T08:23:32Z</time>
      </trkpt>
      <trkpt lat="46.51099" lon="0.36985">
        <ele>181.4</ele>
        <time>2024-01-28T08:23:33Z</time>
      </trkpt>
      <trkpt lat="46.51092" lon="0.36974">
        <ele>181</ele>
        <time>2024-01-28T08:23:36Z</time>
      </trkpt>
      <trkpt lat="46.51085" lon="0.3697">
        <ele>181.4</ele>
        <time>2024-01-28T08:23:38Z</time>
      </trkpt>
      <trkpt lat="46.51081" lon="0.36971">
        <ele>181.4</ele>
        <time>2024-01-28T08:23:39Z</time>
      </trkpt>
      <trkpt lat="46.5107" lon="0.36973">
        <ele>181.8</ele>
        <time>2024-01-28T08:23:42Z</time>
      </trkpt>
      <trkpt lat="46.51063" lon="0.36976">
        <ele>181.8</ele>
        <time>2024-01-28T08:23:44Z</time>
      </trkpt>
      <trkpt lat="46.51054" lon="0.36982">
        <ele>182.2</ele>
        <time>2024-01-28T08:23:47Z</time>
      </trkpt>
      <trkpt lat="46.5105" lon="0.36985">
        <ele>182.2</ele>
        <time>2024-01-28T08:23:49Z</time>
      </trkpt>
      <trkpt lat="46.51043" lon="0.36989">
        <ele>182.4</ele>
        <time>2024-01-28T08:23:51Z</time>
      </trkpt>
      <trkpt lat="46.5104" lon="0.36991">
        <ele>182.6</ele>
        <time>2024-01-28T08:23:52Z</time>
      </trkpt>
      <trkpt lat="46.51038" lon="0.36999">
        <ele>182.6</ele>
        <time>2024-01-28T08:23:54Z</time>
      </trkpt>
      <trkpt lat="46.51038" lon="0.37013">
        <ele>182.4</ele>
        <time>2024-01-28T08:23:57Z</time>
      </trkpt>
      <trkpt lat="46.5104" lon="0.37023">
        <ele>182.4</ele>
        <time>2024-01-28T08:23:59Z</time>
      </trkpt>
      <trkpt lat="46.51045" lon="0.37033">
        <ele>182.4</ele>
        <time>2024-01-28T08:24:01Z</time>
      </trkpt>
      <trkpt lat="46.51049" lon="0.37044">
        <ele>182.4</ele>
        <time>2024-01-28T08:24:03Z</time>
      </trkpt>
      <trkpt lat="46.5105" lon="0.3705">
        <ele>182.4</ele>
        <time>2024-01-28T08:24:04Z</time>
      </trkpt>
      <trkpt lat="46.51051" lon="0.37057">
        <ele>182.4</ele>
        <time>2024-01-28T08:24:05Z</time>
      </trkpt>
      <trkpt lat="46.51048" lon="0.37069">
        <ele>182.2</ele>
        <time>2024-01-28T08:24:07Z</time>
      </trkpt>
      <trkpt lat="46.51048" lon="0.37075">
        <ele>182.4</ele>
        <time>2024-01-28T08:24:08Z</time>
      </trkpt>
      <trkpt lat="46.51042" lon="0.37098">
        <ele>182.4</ele>
        <time>2024-01-28T08:24:12Z</time>
      </trkpt>
      <trkpt lat="46.51034" lon="0.37127">
        <ele>182.4</ele>
        <time>2024-01-28T08:24:17Z</time>
      </trkpt>
      <trkpt lat="46.51032" lon="0.3713">
        <ele>182.4</ele>
        <time>2024-01-28T08:24:18Z</time>
      </trkpt>
      <trkpt lat="46.51029" lon="0.37132">
        <ele>182.4</ele>
        <time>2024-01-28T08:24:19Z</time>
      </trkpt>
      <trkpt lat="46.51023" lon="0.37131">
        <ele>182.6</ele>
        <time>2024-01-28T08:24:21Z</time>
      </trkpt>
      <trkpt lat="46.5102" lon="0.3713">
        <ele>182.6</ele>
        <time>2024-01-28T08:24:22Z</time>
      </trkpt>
      <trkpt lat="46.51017" lon="0.37128">
        <ele>182.6</ele>
        <time>2024-01-28T08:24:23Z</time>
      </trkpt>
      <trkpt lat="46.51013" lon="0.37123">
        <ele>182.4</ele>
        <time>2024-01-28T08:24:25Z</time>
      </trkpt>
      <trkpt lat="46.51009" lon="0.37122">
        <ele>182.4</ele>
        <time>2024-01-28T08:24:26Z</time>
      </trkpt>
      <trkpt lat="46.51003" lon="0.37116">
        <ele>182.4</ele>
        <time>2024-01-28T08:24:28Z</time>
      </trkpt>
      <trkpt lat="46.50992" lon="0.3711">
        <ele>182.4</ele>
        <time>2024-01-28T08:24:31Z</time>
      </trkpt>
      <trkpt lat="46.50983" lon="0.3711">
        <ele>182.6</ele>
        <time>2024-01-28T08:24:33Z</time>
      </trkpt>
      <trkpt lat="46.50979" lon="0.37111">
        <ele>182.6</ele>
        <time>2024-01-28T08:24:34Z</time>
      </trkpt>
      <trkpt lat="46.50975" lon="0.37115">
        <ele>182.6</ele>
        <time>2024-01-28T08:24:35Z</time>
      </trkpt>
      <trkpt lat="46.50961" lon="0.37127">
        <ele>182.6</ele>
        <time>2024-01-28T08:24:39Z</time>
      </trkpt>
      <trkpt lat="46.50954" lon="0.37133">
        <ele>182.8</ele>
        <time>2024-01-28T08:24:41Z</time>
      </trkpt>
      <trkpt lat="46.50942" lon="0.37143">
        <ele>183.2</ele>
        <time>2024-01-28T08:24:44Z</time>
      </trkpt>
      <trkpt lat="46.50924" lon="0.37155">
        <ele>183</ele>
        <time>2024-01-28T08:24:48Z</time>
      </trkpt>
      <trkpt lat="46.50921" lon="0.37157">
        <ele>182.8</ele>
        <time>2024-01-28T08:24:49Z</time>
      </trkpt>
      <trkpt lat="46.50917" lon="0.37159">
        <ele>182.6</ele>
        <time>2024-01-28T08:24:50Z</time>
      </trkpt>
      <trkpt lat="46.50897" lon="0.37166">
        <ele>182.4</ele>
        <time>2024-01-28T08:24:54Z</time>
      </trkpt>
      <trkpt lat="46.5089" lon="0.37172">
        <ele>182.2</ele>
        <time>2024-01-28T08:24:56Z</time>
      </trkpt>
      <trkpt lat="46.50886" lon="0.37181">
        <ele>182</ele>
        <time>2024-01-28T08:24:58Z</time>
      </trkpt>
      <trkpt lat="46.50874" lon="0.37198">
        <ele>182</ele>
        <time>2024-01-28T08:25:03Z</time>
      </trkpt>
      <trkpt lat="46.50868" lon="0.37201">
        <ele>181.4</ele>
        <time>2024-01-28T08:25:06Z</time>
      </trkpt>
      <trkpt lat="46.50865" lon="0.37204">
        <ele>181.4</ele>
        <time>2024-01-28T08:25:08Z</time>
      </trkpt>
      <trkpt lat="46.50864" lon="0.37205">
        <ele>181.4</ele>
        <time>2024-01-28T08:25:09Z</time>
      </trkpt>
      <trkpt lat="46.50858" lon="0.37209">
        <ele>181.4</ele>
        <time>2024-01-28T08:25:13Z</time>
      </trkpt>
      <trkpt lat="46.50857" lon="0.37209">
        <ele>181.4</ele>
        <time>2024-01-28T08:25:14Z</time>
      </trkpt>
      <trkpt lat="46.50852" lon="0.37212">
        <ele>181.2</ele>
        <time>2024-01-28T08:25:17Z</time>
      </trkpt>
      <trkpt lat="46.50844" lon="0.37209">
        <ele>181.2</ele>
        <time>2024-01-28T08:25:19Z</time>
      </trkpt>
      <trkpt lat="46.50835" lon="0.37207">
        <ele>181.2</ele>
        <time>2024-01-28T08:25:21Z</time>
      </trkpt>
      <trkpt lat="46.50826" lon="0.37203">
        <ele>181</ele>
        <time>2024-01-28T08:25:23Z</time>
      </trkpt>
      <trkpt lat="46.50822" lon="0.372">
        <ele>181</ele>
        <time>2024-01-28T08:25:24Z</time>
      </trkpt>
      <trkpt lat="46.50819" lon="0.37197">
        <ele>181</ele>
        <time>2024-01-28T08:25:25Z</time>
      </trkpt>
      <trkpt lat="46.50811" lon="0.3719">
        <ele>181</ele>
        <time>2024-01-28T08:25:27Z</time>
      </trkpt>
      <trkpt lat="46.50802" lon="0.37184">
        <ele>181</ele>
        <time>2024-01-28T08:25:29Z</time>
      </trkpt>
      <trkpt lat="46.50791" lon="0.37178">
        <ele>181</ele>
        <time>2024-01-28T08:25:31Z</time>
      </trkpt>
      <trkpt lat="46.50782" lon="0.37172">
        <ele>180.8</ele>
        <time>2024-01-28T08:25:33Z</time>
      </trkpt>
      <trkpt lat="46.50776" lon="0.3717">
        <ele>180.6</ele>
        <time>2024-01-28T08:25:34Z</time>
      </trkpt>
      <trkpt lat="46.50749" lon="0.3715">
        <ele>180.6</ele>
        <time>2024-01-28T08:25:39Z</time>
      </trkpt>
      <trkpt lat="46.50741" lon="0.37149">
        <ele>180.4</ele>
        <time>2024-01-28T08:25:41Z</time>
      </trkpt>
      <trkpt lat="46.50736" lon="0.37149">
        <ele>180.2</ele>
        <time>2024-01-28T08:25:42Z</time>
      </trkpt>
      <trkpt lat="46.50733" lon="0.37149">
        <ele>180.2</ele>
        <time>2024-01-28T08:25:43Z</time>
      </trkpt>
      <trkpt lat="46.50728" lon="0.37149">
        <ele>180.2</ele>
        <time>2024-01-28T08:25:44Z</time>
      </trkpt>
      <trkpt lat="46.50721" lon="0.37151">
        <ele>180.2</ele>
        <time>2024-01-28T08:25:46Z</time>
      </trkpt>
      <trkpt lat="46.50712" lon="0.37155">
        <ele>180</ele>
        <time>2024-01-28T08:25:48Z</time>
      </trkpt>
      <trkpt lat="46.50707" lon="0.37156">
        <ele>179.8</ele>
        <time>2024-01-28T08:25:49Z</time>
      </trkpt>
      <trkpt lat="46.50699" lon="0.37155">
        <ele>179</ele>
        <time>2024-01-28T08:25:51Z</time>
      </trkpt>
      <trkpt lat="46.50695" lon="0.37154">
        <ele>178.6</ele>
        <time>2024-01-28T08:25:52Z</time>
      </trkpt>
      <trkpt lat="46.50688" lon="0.3715">
        <ele>178.4</ele>
        <time>2024-01-28T08:25:54Z</time>
      </trkpt>
      <trkpt lat="46.50681" lon="0.37145">
        <ele>178.6</ele>
        <time>2024-01-28T08:25:56Z</time>
      </trkpt>
      <trkpt lat="46.5068" lon="0.37142">
        <ele>178.8</ele>
        <time>2024-01-28T08:25:57Z</time>
      </trkpt>
      <trkpt lat="46.50678" lon="0.37138">
        <ele>179</ele>
        <time>2024-01-28T08:25:58Z</time>
      </trkpt>
      <trkpt lat="46.50675" lon="0.3713">
        <ele>179.4</ele>
        <time>2024-01-28T08:26:00Z</time>
      </trkpt>
      <trkpt lat="46.50673" lon="0.37122">
        <ele>179.6</ele>
        <time>2024-01-28T08:26:02Z</time>
      </trkpt>
      <trkpt lat="46.50673" lon="0.37118">
        <ele>179.8</ele>
        <time>2024-01-28T08:26:03Z</time>
      </trkpt>
      <trkpt lat="46.50673" lon="0.37114">
        <ele>180</ele>
        <time>2024-01-28T08:26:04Z</time>
      </trkpt>
      <trkpt lat="46.50676" lon="0.37107">
        <ele>180.2</ele>
        <time>2024-01-28T08:26:06Z</time>
      </trkpt>
      <trkpt lat="46.50686" lon="0.37095">
        <ele>181.2</ele>
        <time>2024-01-28T08:26:11Z</time>
      </trkpt>
      <trkpt lat="46.50688" lon="0.37092">
        <ele>181.2</ele>
        <time>2024-01-28T08:26:12Z</time>
      </trkpt>
      <trkpt lat="46.5069" lon="0.3709">
        <ele>181.2</ele>
        <time>2024-01-28T08:26:13Z</time>
      </trkpt>
      <trkpt lat="46.50698" lon="0.37086">
        <ele>181.4</ele>
        <time>2024-01-28T08:26:17Z</time>
      </trkpt>
      <trkpt lat="46.50704" lon="0.37083">
        <ele>181</ele>
        <time>2024-01-28T08:26:20Z</time>
      </trkpt>
      <trkpt lat="46.50707" lon="0.37082">
        <ele>181.2</ele>
        <time>2024-01-28T08:26:21Z</time>
      </trkpt>
      <trkpt lat="46.50712" lon="0.37077">
        <ele>181.4</ele>
        <time>2024-01-28T08:26:23Z</time>
      </trkpt>
      <trkpt lat="46.50713" lon="0.37064">
        <ele>181.4</ele>
        <time>2024-01-28T08:26:27Z</time>
      </trkpt>
      <trkpt lat="46.5071" lon="0.37054">
        <ele>181.8</ele>
        <time>2024-01-28T08:26:30Z</time>
      </trkpt>
      <trkpt lat="46.50703" lon="0.37052">
        <ele>181.8</ele>
        <time>2024-01-28T08:26:32Z</time>
      </trkpt>
      <trkpt lat="46.50694" lon="0.3705">
        <ele>182</ele>
        <time>2024-01-28T08:26:34Z</time>
      </trkpt>
      <trkpt lat="46.50689" lon="0.37047">
        <ele>182.2</ele>
        <time>2024-01-28T08:26:35Z</time>
      </trkpt>
      <trkpt lat="46.50685" lon="0.37044">
        <ele>182.2</ele>
        <time>2024-01-28T08:26:36Z</time>
      </trkpt>
      <trkpt lat="46.50682" lon="0.3704">
        <ele>182.4</ele>
        <time>2024-01-28T08:26:37Z</time>
      </trkpt>
      <trkpt lat="46.50669" lon="0.37027">
        <ele>182.8</ele>
        <time>2024-01-28T08:26:41Z</time>
      </trkpt>
      <trkpt lat="46.50662" lon="0.37021">
        <ele>182.4</ele>
        <time>2024-01-28T08:26:43Z</time>
      </trkpt>
      <trkpt lat="46.50634" lon="0.37007">
        <ele>182</ele>
        <time>2024-01-28T08:26:49Z</time>
      </trkpt>
      <trkpt lat="46.50625" lon="0.37004">
        <ele>182</ele>
        <time>2024-01-28T08:26:51Z</time>
      </trkpt>
      <trkpt lat="46.50617" lon="0.37">
        <ele>182</ele>
        <time>2024-01-28T08:26:53Z</time>
      </trkpt>
      <trkpt lat="46.50614" lon="0.36998">
        <ele>182</ele>
        <time>2024-01-28T08:26:54Z</time>
      </trkpt>
      <trkpt lat="46.50596" lon="0.36982">
        <ele>182.2</ele>
        <time>2024-01-28T08:26:59Z</time>
      </trkpt>
      <trkpt lat="46.50591" lon="0.36981">
        <ele>182.4</ele>
        <time>2024-01-28T08:27:00Z</time>
      </trkpt>
      <trkpt lat="46.50588" lon="0.36981">
        <ele>182.4</ele>
        <time>2024-01-28T08:27:01Z</time>
      </trkpt>
      <trkpt lat="46.50578" lon="0.36982">
        <ele>182.2</ele>
        <time>2024-01-28T08:27:04Z</time>
      </trkpt>
      <trkpt lat="46.50576" lon="0.3698">
        <ele>182.2</ele>
        <time>2024-01-28T08:27:05Z</time>
      </trkpt>
      <trkpt lat="46.50572" lon="0.36971">
        <ele>182</ele>
        <time>2024-01-28T08:27:08Z</time>
      </trkpt>
      <trkpt lat="46.5057" lon="0.36969">
        <ele>182</ele>
        <time>2024-01-28T08:27:09Z</time>
      </trkpt>
      <trkpt lat="46.50562" lon="0.36967">
        <ele>181.8</ele>
        <time>2024-01-28T08:27:12Z</time>
      </trkpt>
      <trkpt lat="46.50544" lon="0.36964">
        <ele>181.6</ele>
        <time>2024-01-28T08:27:17Z</time>
      </trkpt>
      <trkpt lat="46.5054" lon="0.36964">
        <ele>181.4</ele>
        <time>2024-01-28T08:27:18Z</time>
      </trkpt>
      <trkpt lat="46.50535" lon="0.36964">
        <ele>181.4</ele>
        <time>2024-01-28T08:27:19Z</time>
      </trkpt>
      <trkpt lat="46.50529" lon="0.36967">
        <ele>181.2</ele>
        <time>2024-01-28T08:27:21Z</time>
      </trkpt>
      <trkpt lat="46.50527" lon="0.36969">
        <ele>181.2</ele>
        <time>2024-01-28T08:27:22Z</time>
      </trkpt>
      <trkpt lat="46.50526" lon="0.36972">
        <ele>181</ele>
        <time>2024-01-28T08:27:23Z</time>
      </trkpt>
      <trkpt lat="46.50521" lon="0.36986">
        <ele>180.4</ele>
        <time>2024-01-28T08:27:27Z</time>
      </trkpt>
      <trkpt lat="46.50518" lon="0.36996">
        <ele>180</ele>
        <time>2024-01-28T08:27:29Z</time>
      </trkpt>
      <trkpt lat="46.50517" lon="0.37001">
        <ele>180</ele>
        <time>2024-01-28T08:27:30Z</time>
      </trkpt>
      <trkpt lat="46.50511" lon="0.3701">
        <ele>179.6</ele>
        <time>2024-01-28T08:27:32Z</time>
      </trkpt>
      <trkpt lat="46.50508" lon="0.37016">
        <ele>179</ele>
        <time>2024-01-28T08:27:33Z</time>
      </trkpt>
      <trkpt lat="46.50501" lon="0.37024">
        <ele>178.4</ele>
        <time>2024-01-28T08:27:35Z</time>
      </trkpt>
      <trkpt lat="46.50499" lon="0.37026">
        <ele>177.8</ele>
        <time>2024-01-28T08:27:36Z</time>
      </trkpt>
      <trkpt lat="46.50495" lon="0.37027">
        <ele>177.6</ele>
        <time>2024-01-28T08:27:37Z</time>
      </trkpt>
      <trkpt lat="46.50489" lon="0.37028">
        <ele>177.4</ele>
        <time>2024-01-28T08:27:39Z</time>
      </trkpt>
      <trkpt lat="46.50483" lon="0.37033">
        <ele>177.4</ele>
        <time>2024-01-28T08:27:41Z</time>
      </trkpt>
      <trkpt lat="46.50471" lon="0.37041">
        <ele>177.8</ele>
        <time>2024-01-28T08:27:45Z</time>
      </trkpt>
      <trkpt lat="46.50464" lon="0.37043">
        <ele>178</ele>
        <time>2024-01-28T08:27:47Z</time>
      </trkpt>
      <trkpt lat="46.5046" lon="0.37044">
        <ele>178.4</ele>
        <time>2024-01-28T08:27:48Z</time>
      </trkpt>
      <trkpt lat="46.50453" lon="0.37046">
        <ele>178.8</ele>
        <time>2024-01-28T08:27:50Z</time>
      </trkpt>
      <trkpt lat="46.50438" lon="0.37049">
        <ele>179.4</ele>
        <time>2024-01-28T08:27:54Z</time>
      </trkpt>
      <trkpt lat="46.50431" lon="0.37051">
        <ele>179.8</ele>
        <time>2024-01-28T08:27:56Z</time>
      </trkpt>
      <trkpt lat="46.50423" lon="0.37054">
        <ele>180</ele>
        <time>2024-01-28T08:27:58Z</time>
      </trkpt>
      <trkpt lat="46.50415" lon="0.37053">
        <ele>180.2</ele>
        <time>2024-01-28T08:28:00Z</time>
      </trkpt>
      <trkpt lat="46.50412" lon="0.37052">
        <ele>180.2</ele>
        <time>2024-01-28T08:28:01Z</time>
      </trkpt>
      <trkpt lat="46.50406" lon="0.37048">
        <ele>180.2</ele>
        <time>2024-01-28T08:28:03Z</time>
      </trkpt>
      <trkpt lat="46.50405" lon="0.37046">
        <ele>180.2</ele>
        <time>2024-01-28T08:28:04Z</time>
      </trkpt>
      <trkpt lat="46.50405" lon="0.37027">
        <ele>180.4</ele>
        <time>2024-01-28T08:28:09Z</time>
      </trkpt>
      <trkpt lat="46.50407" lon="0.36996">
        <ele>180.6</ele>
        <time>2024-01-28T08:28:15Z</time>
      </trkpt>
      <trkpt lat="46.5041" lon="0.36992">
        <ele>180.6</ele>
        <time>2024-01-28T08:28:16Z</time>
      </trkpt>
      <trkpt lat="46.50413" lon="0.36986">
        <ele>180.8</ele>
        <time>2024-01-28T08:28:17Z</time>
      </trkpt>
      <trkpt lat="46.50425" lon="0.3697">
        <ele>180.8</ele>
        <time>2024-01-28T08:28:20Z</time>
      </trkpt>
      <trkpt lat="46.50433" lon="0.36959">
        <ele>180.8</ele>
        <time>2024-01-28T08:28:23Z</time>
      </trkpt>
      <trkpt lat="46.50435" lon="0.36956">
        <ele>180.8</ele>
        <time>2024-01-28T08:28:24Z</time>
      </trkpt>
      <trkpt lat="46.50438" lon="0.36947">
        <ele>180.6</ele>
        <time>2024-01-28T08:28:29Z</time>
      </trkpt>
      <trkpt lat="46.50436" lon="0.36946">
        <ele>180.6</ele>
        <time>2024-01-28T08:28:30Z</time>
      </trkpt>
      <trkpt lat="46.50428" lon="0.3694">
        <ele>180.8</ele>
        <time>2024-01-28T08:28:34Z</time>
      </trkpt>
      <trkpt lat="46.50421" lon="0.36924">
        <ele>181</ele>
        <time>2024-01-28T08:28:39Z</time>
      </trkpt>
      <trkpt lat="46.5042" lon="0.36919">
        <ele>181</ele>
        <time>2024-01-28T08:28:40Z</time>
      </trkpt>
      <trkpt lat="46.50419" lon="0.36908">
        <ele>181.2</ele>
        <time>2024-01-28T08:28:42Z</time>
      </trkpt>
      <trkpt lat="46.5042" lon="0.36896">
        <ele>181.4</ele>
        <time>2024-01-28T08:28:44Z</time>
      </trkpt>
      <trkpt lat="46.50419" lon="0.36889">
        <ele>181.4</ele>
        <time>2024-01-28T08:28:45Z</time>
      </trkpt>
      <trkpt lat="46.50418" lon="0.36875">
        <ele>181.4</ele>
        <time>2024-01-28T08:28:47Z</time>
      </trkpt>
      <trkpt lat="46.50414" lon="0.36864">
        <ele>181.4</ele>
        <time>2024-01-28T08:28:49Z</time>
      </trkpt>
      <trkpt lat="46.50409" lon="0.36853">
        <ele>181.4</ele>
        <time>2024-01-28T08:28:51Z</time>
      </trkpt>
      <trkpt lat="46.50403" lon="0.36847">
        <ele>181.4</ele>
        <time>2024-01-28T08:28:53Z</time>
      </trkpt>
      <trkpt lat="46.50391" lon="0.36836">
        <ele>181.4</ele>
        <time>2024-01-28T08:28:57Z</time>
      </trkpt>
      <trkpt lat="46.5039" lon="0.36835">
        <ele>181.2</ele>
        <time>2024-01-28T08:28:58Z</time>
      </trkpt>
      <trkpt lat="46.50386" lon="0.3683">
        <ele>181.2</ele>
        <time>2024-01-28T08:29:01Z</time>
      </trkpt>
      <trkpt lat="46.50386" lon="0.36827">
        <ele>181.2</ele>
        <time>2024-01-28T08:29:02Z</time>
      </trkpt>
      <trkpt lat="46.50374" lon="0.36815">
        <ele>181.2</ele>
        <time>2024-01-28T08:29:06Z</time>
      </trkpt>
      <trkpt lat="46.5037" lon="0.36813">
        <ele>181.2</ele>
        <time>2024-01-28T08:29:07Z</time>
      </trkpt>
      <trkpt lat="46.50361" lon="0.36811">
        <ele>181.2</ele>
        <time>2024-01-28T08:29:09Z</time>
      </trkpt>
      <trkpt lat="46.50358" lon="0.36811">
        <ele>181.2</ele>
        <time>2024-01-28T08:29:10Z</time>
      </trkpt>
      <trkpt lat="46.50353" lon="0.36809">
        <ele>181.6</ele>
        <time>2024-01-28T08:29:11Z</time>
      </trkpt>
      <trkpt lat="46.50343" lon="0.36804">
        <ele>181.8</ele>
        <time>2024-01-28T08:29:13Z</time>
      </trkpt>
      <trkpt lat="46.50338" lon="0.36802">
        <ele>181.8</ele>
        <time>2024-01-28T08:29:14Z</time>
      </trkpt>
      <trkpt lat="46.50334" lon="0.36801">
        <ele>181.8</ele>
        <time>2024-01-28T08:29:15Z</time>
      </trkpt>
      <trkpt lat="46.5032" lon="0.368">
        <ele>181.8</ele>
        <time>2024-01-28T08:29:18Z</time>
      </trkpt>
      <trkpt lat="46.50315" lon="0.36801">
        <ele>181.8</ele>
        <time>2024-01-28T08:29:19Z</time>
      </trkpt>
      <trkpt lat="46.50306" lon="0.36802">
        <ele>181.8</ele>
        <time>2024-01-28T08:29:21Z</time>
      </trkpt>
      <trkpt lat="46.50302" lon="0.36801">
        <ele>181.8</ele>
        <time>2024-01-28T08:29:22Z</time>
      </trkpt>
      <trkpt lat="46.50299" lon="0.368">
        <ele>181.8</ele>
        <time>2024-01-28T08:29:23Z</time>
      </trkpt>
      <trkpt lat="46.50292" lon="0.368">
        <ele>181.8</ele>
        <time>2024-01-28T08:29:26Z</time>
      </trkpt>
      <trkpt lat="46.50277" lon="0.36797">
        <ele>181.6</ele>
        <time>2024-01-28T08:29:32Z</time>
      </trkpt>
      <trkpt lat="46.50268" lon="0.36794">
        <ele>181.4</ele>
        <time>2024-01-28T08:29:35Z</time>
      </trkpt>
      <trkpt lat="46.50265" lon="0.36792">
        <ele>181.2</ele>
        <time>2024-01-28T08:29:36Z</time>
      </trkpt>
      <trkpt lat="46.50258" lon="0.36788">
        <ele>181.2</ele>
        <time>2024-01-28T08:29:38Z</time>
      </trkpt>
      <trkpt lat="46.50252" lon="0.36788">
        <ele>181.6</ele>
        <time>2024-01-28T08:29:40Z</time>
      </trkpt>
      <trkpt lat="46.50245" lon="0.36785">
        <ele>181.6</ele>
        <time>2024-01-28T08:29:44Z</time>
      </trkpt>
      <trkpt lat="46.50242" lon="0.36779">
        <ele>181.6</ele>
        <time>2024-01-28T08:29:46Z</time>
      </trkpt>
      <trkpt lat="46.50239" lon="0.36775">
        <ele>181.4</ele>
        <time>2024-01-28T08:29:48Z</time>
      </trkpt>
      <trkpt lat="46.50236" lon="0.36772">
        <ele>181.4</ele>
        <time>2024-01-28T08:29:50Z</time>
      </trkpt>
      <trkpt lat="46.50232" lon="0.36767">
        <ele>181.4</ele>
        <time>2024-01-28T08:29:52Z</time>
      </trkpt>
      <trkpt lat="46.5023" lon="0.36765">
        <ele>181.2</ele>
        <time>2024-01-28T08:29:53Z</time>
      </trkpt>
      <trkpt lat="46.50226" lon="0.36761">
        <ele>181.2</ele>
        <time>2024-01-28T08:29:55Z</time>
      </trkpt>
      <trkpt lat="46.50221" lon="0.36752">
        <ele>181.2</ele>
        <time>2024-01-28T08:29:58Z</time>
      </trkpt>
      <trkpt lat="46.50219" lon="0.36749">
        <ele>181.2</ele>
        <time>2024-01-28T08:29:59Z</time>
      </trkpt>
      <trkpt lat="46.50212" lon="0.36749">
        <ele>181.2</ele>
        <time>2024-01-28T08:30:01Z</time>
      </trkpt>
      <trkpt lat="46.50198" lon="0.36744">
        <ele>181</ele>
        <time>2024-01-28T08:30:06Z</time>
      </trkpt>
      <trkpt lat="46.50187" lon="0.36734">
        <ele>181</ele>
        <time>2024-01-28T08:30:09Z</time>
      </trkpt>
      <trkpt lat="46.50182" lon="0.36726">
        <ele>181</ele>
        <time>2024-01-28T08:30:11Z</time>
      </trkpt>
      <trkpt lat="46.50179" lon="0.36717">
        <ele>180.8</ele>
        <time>2024-01-28T08:30:13Z</time>
      </trkpt>
      <trkpt lat="46.50174" lon="0.36709">
        <ele>181</ele>
        <time>2024-01-28T08:30:15Z</time>
      </trkpt>
      <trkpt lat="46.50166" lon="0.36698">
        <ele>181</ele>
        <time>2024-01-28T08:30:18Z</time>
      </trkpt>
      <trkpt lat="46.5016" lon="0.36695">
        <ele>181.2</ele>
        <time>2024-01-28T08:30:20Z</time>
      </trkpt>
      <trkpt lat="46.50155" lon="0.36689">
        <ele>181</ele>
        <time>2024-01-28T08:30:24Z</time>
      </trkpt>
      <trkpt lat="46.50145" lon="0.36681">
        <ele>181</ele>
        <time>2024-01-28T08:30:35Z</time>
      </trkpt>
      <trkpt lat="46.50143" lon="0.36678">
        <ele>181</ele>
        <time>2024-01-28T08:30:37Z</time>
      </trkpt>
      <trkpt lat="46.50137" lon="0.36671">
        <ele>180.8</ele>
        <time>2024-01-28T08:30:41Z</time>
      </trkpt>
      <trkpt lat="46.50133" lon="0.36667">
        <ele>180.6</ele>
        <time>2024-01-28T08:30:43Z</time>
      </trkpt>
      <trkpt lat="46.50126" lon="0.36667">
        <ele>180.8</ele>
        <time>2024-01-28T08:30:46Z</time>
      </trkpt>
      <trkpt lat="46.50125" lon="0.36668">
        <ele>181</ele>
        <time>2024-01-28T08:30:47Z</time>
      </trkpt>
      <trkpt lat="46.50118" lon="0.36674">
        <ele>181</ele>
        <time>2024-01-28T08:30:52Z</time>
      </trkpt>
      <trkpt lat="46.50116" lon="0.36676">
        <ele>181</ele>
        <time>2024-01-28T08:30:53Z</time>
      </trkpt>
      <trkpt lat="46.50115" lon="0.3669">
        <ele>181.6</ele>
        <time>2024-01-28T08:30:57Z</time>
      </trkpt>
      <trkpt lat="46.50114" lon="0.3671">
        <ele>181.6</ele>
        <time>2024-01-28T08:31:02Z</time>
      </trkpt>
      <trkpt lat="46.5012" lon="0.36731">
        <ele>181.6</ele>
        <time>2024-01-28T08:31:08Z</time>
      </trkpt>
      <trkpt lat="46.50125" lon="0.36736">
        <ele>181.6</ele>
        <time>2024-01-28T08:31:10Z</time>
      </trkpt>
      <trkpt lat="46.50128" lon="0.36738">
        <ele>181.6</ele>
        <time>2024-01-28T08:31:12Z</time>
      </trkpt>
      <trkpt lat="46.50131" lon="0.3674">
        <ele>181.4</ele>
        <time>2024-01-28T08:31:13Z</time>
      </trkpt>
      <trkpt lat="46.50135" lon="0.36743">
        <ele>181.2</ele>
        <time>2024-01-28T08:31:15Z</time>
      </trkpt>
      <trkpt lat="46.50137" lon="0.36743">
        <ele>181.4</ele>
        <time>2024-01-28T08:31:16Z</time>
      </trkpt>
      <trkpt lat="46.50141" lon="0.36743">
        <ele>181.6</ele>
        <time>2024-01-28T08:31:18Z</time>
      </trkpt>
      <trkpt lat="46.50146" lon="0.36748">
        <ele>181.8</ele>
        <time>2024-01-28T08:31:20Z</time>
      </trkpt>
      <trkpt lat="46.50151" lon="0.36755">
        <ele>182</ele>
        <time>2024-01-28T08:31:22Z</time>
      </trkpt>
      <trkpt lat="46.50156" lon="0.36762">
        <ele>181.8</ele>
        <time>2024-01-28T08:31:24Z</time>
      </trkpt>
      <trkpt lat="46.50163" lon="0.36764">
        <ele>181.6</ele>
        <time>2024-01-28T08:31:26Z</time>
      </trkpt>
      <trkpt lat="46.50166" lon="0.36764">
        <ele>181.6</ele>
        <time>2024-01-28T08:31:27Z</time>
      </trkpt>
      <trkpt lat="46.50168" lon="0.36764">
        <ele>181.4</ele>
        <time>2024-01-28T08:31:28Z</time>
      </trkpt>
      <trkpt lat="46.50172" lon="0.36768">
        <ele>181.4</ele>
        <time>2024-01-28T08:31:30Z</time>
      </trkpt>
      <trkpt lat="46.50174" lon="0.3677">
        <ele>181.4</ele>
        <time>2024-01-28T08:31:31Z</time>
      </trkpt>
      <trkpt lat="46.5018" lon="0.36773">
        <ele>181.6</ele>
        <time>2024-01-28T08:31:33Z</time>
      </trkpt>
      <trkpt lat="46.50184" lon="0.36773">
        <ele>181.8</ele>
        <time>2024-01-28T08:31:34Z</time>
      </trkpt>
      <trkpt lat="46.50187" lon="0.36773">
        <ele>181.8</ele>
        <time>2024-01-28T08:31:35Z</time>
      </trkpt>
      <trkpt lat="46.50193" lon="0.36776">
        <ele>181.6</ele>
        <time>2024-01-28T08:31:37Z</time>
      </trkpt>
      <trkpt lat="46.50194" lon="0.3678">
        <ele>181.8</ele>
        <time>2024-01-28T08:31:38Z</time>
      </trkpt>
      <trkpt lat="46.50201" lon="0.36799">
        <ele>182</ele>
        <time>2024-01-28T08:31:42Z</time>
      </trkpt>
      <trkpt lat="46.50203" lon="0.3681">
        <ele>182</ele>
        <time>2024-01-28T08:31:44Z</time>
      </trkpt>
      <trkpt lat="46.50204" lon="0.36818">
        <ele>182</ele>
        <time>2024-01-28T08:31:46Z</time>
      </trkpt>
      <trkpt lat="46.50204" lon="0.36821">
        <ele>182</ele>
        <time>2024-01-28T08:31:47Z</time>
      </trkpt>
      <trkpt lat="46.50205" lon="0.36826">
        <ele>182</ele>
        <time>2024-01-28T08:31:49Z</time>
      </trkpt>
      <trkpt lat="46.50206" lon="0.36831">
        <ele>181.8</ele>
        <time>2024-01-28T08:31:51Z</time>
      </trkpt>
      <trkpt lat="46.50208" lon="0.36842">
        <ele>181.8</ele>
        <time>2024-01-28T08:31:57Z</time>
      </trkpt>
      <trkpt lat="46.50201" lon="0.36848">
        <ele>181.8</ele>
        <time>2024-01-28T08:32:04Z</time>
      </trkpt>
      <trkpt lat="46.50192" lon="0.36854">
        <ele>182</ele>
        <time>2024-01-28T08:32:08Z</time>
      </trkpt>
      <trkpt lat="46.5019" lon="0.36856">
        <ele>182</ele>
        <time>2024-01-28T08:32:09Z</time>
      </trkpt>
      <trkpt lat="46.50188" lon="0.36858">
        <ele>182</ele>
        <time>2024-01-28T08:32:10Z</time>
      </trkpt>
      <trkpt lat="46.50182" lon="0.36862">
        <ele>182</ele>
        <time>2024-01-28T08:32:14Z</time>
      </trkpt>
      <trkpt lat="46.5017" lon="0.36869">
        <ele>181.8</ele>
        <time>2024-01-28T08:32:21Z</time>
      </trkpt>
      <trkpt lat="46.50164" lon="0.36874">
        <ele>181.8</ele>
        <time>2024-01-28T08:32:24Z</time>
      </trkpt>
      <trkpt lat="46.50164" lon="0.36885">
        <ele>182</ele>
        <time>2024-01-28T08:32:27Z</time>
      </trkpt>
      <trkpt lat="46.50166" lon="0.3691">
        <ele>182</ele>
        <time>2024-01-28T08:32:32Z</time>
      </trkpt>
      <trkpt lat="46.50169" lon="0.36925">
        <ele>181.8</ele>
        <time>2024-01-28T08:32:35Z</time>
      </trkpt>
      <trkpt lat="46.50172" lon="0.3694">
        <ele>181.6</ele>
        <time>2024-01-28T08:32:38Z</time>
      </trkpt>
      <trkpt lat="46.50172" lon="0.36947">
        <ele>181.8</ele>
        <time>2024-01-28T08:32:39Z</time>
      </trkpt>
      <trkpt lat="46.50174" lon="0.3696">
        <ele>182</ele>
        <time>2024-01-28T08:32:41Z</time>
      </trkpt>
      <trkpt lat="46.50176" lon="0.36966">
        <ele>182</ele>
        <time>2024-01-28T08:32:42Z</time>
      </trkpt>
      <trkpt lat="46.50178" lon="0.36978">
        <ele>181.8</ele>
        <time>2024-01-28T08:32:44Z</time>
      </trkpt>
      <trkpt lat="46.5018" lon="0.3699">
        <ele>181.6</ele>
        <time>2024-01-28T08:32:46Z</time>
      </trkpt>
      <trkpt lat="46.50185" lon="0.37021">
        <ele>181.6</ele>
        <time>2024-01-28T08:32:51Z</time>
      </trkpt>
      <trkpt lat="46.50187" lon="0.37027">
        <ele>181.6</ele>
        <time>2024-01-28T08:32:52Z</time>
      </trkpt>
      <trkpt lat="46.50189" lon="0.3704">
        <ele>181.6</ele>
        <time>2024-01-28T08:32:54Z</time>
      </trkpt>
      <trkpt lat="46.50192" lon="0.37051">
        <ele>181.2</ele>
        <time>2024-01-28T08:32:56Z</time>
      </trkpt>
      <trkpt lat="46.50192" lon="0.37056">
        <ele>181.2</ele>
        <time>2024-01-28T08:32:57Z</time>
      </trkpt>
      <trkpt lat="46.50192" lon="0.37061">
        <ele>180.8</ele>
        <time>2024-01-28T08:32:58Z</time>
      </trkpt>
      <trkpt lat="46.50192" lon="0.37064">
        <ele>180.6</ele>
        <time>2024-01-28T08:32:59Z</time>
      </trkpt>
      <trkpt lat="46.50192" lon="0.37066">
        <ele>180.6</ele>
        <time>2024-01-28T08:33:00Z</time>
      </trkpt>
      <trkpt lat="46.50186" lon="0.37075">
        <ele>180.2</ele>
        <time>2024-01-28T08:33:06Z</time>
      </trkpt>
      <trkpt lat="46.50185" lon="0.3709">
        <ele>180.2</ele>
        <time>2024-01-28T08:33:16Z</time>
      </trkpt>
      <trkpt lat="46.50184" lon="0.37099">
        <ele>180.4</ele>
        <time>2024-01-28T08:33:20Z</time>
      </trkpt>
      <trkpt lat="46.5018" lon="0.37112">
        <ele>180.2</ele>
        <time>2024-01-28T08:33:24Z</time>
      </trkpt>
      <trkpt lat="46.5017" lon="0.37136">
        <ele>180.2</ele>
        <time>2024-01-28T08:33:29Z</time>
      </trkpt>
      <trkpt lat="46.50167" lon="0.37141">
        <ele>180</ele>
        <time>2024-01-28T08:33:30Z</time>
      </trkpt>
      <trkpt lat="46.50151" lon="0.37171">
        <ele>180</ele>
        <time>2024-01-28T08:33:35Z</time>
      </trkpt>
      <trkpt lat="46.50141" lon="0.37188">
        <ele>180.2</ele>
        <time>2024-01-28T08:33:38Z</time>
      </trkpt>
      <trkpt lat="46.50135" lon="0.37201">
        <ele>180.6</ele>
        <time>2024-01-28T08:33:40Z</time>
      </trkpt>
      <trkpt lat="46.50132" lon="0.37208">
        <ele>180.6</ele>
        <time>2024-01-28T08:33:41Z</time>
      </trkpt>
      <trkpt lat="46.50124" lon="0.3722">
        <ele>180.4</ele>
        <time>2024-01-28T08:33:44Z</time>
      </trkpt>
      <trkpt lat="46.50115" lon="0.37239">
        <ele>180.2</ele>
        <time>2024-01-28T08:33:50Z</time>
      </trkpt>
      <trkpt lat="46.50101" lon="0.37266">
        <ele>181</ele>
        <time>2024-01-28T08:33:58Z</time>
      </trkpt>
      <trkpt lat="46.50088" lon="0.37293">
        <ele>181.2</ele>
        <time>2024-01-28T08:34:05Z</time>
      </trkpt>
      <trkpt lat="46.50073" lon="0.37316">
        <ele>181.4</ele>
        <time>2024-01-28T08:34:10Z</time>
      </trkpt>
      <trkpt lat="46.50067" lon="0.37325">
        <ele>181.4</ele>
        <time>2024-01-28T08:34:12Z</time>
      </trkpt>
      <trkpt lat="46.50059" lon="0.37339">
        <ele>181.6</ele>
        <time>2024-01-28T08:34:15Z</time>
      </trkpt>
      <trkpt lat="46.50058" lon="0.37344">
        <ele>181.6</ele>
        <time>2024-01-28T08:34:16Z</time>
      </trkpt>
      <trkpt lat="46.50055" lon="0.37349">
        <ele>181.6</ele>
        <time>2024-01-28T08:34:18Z</time>
      </trkpt>
      <trkpt lat="46.50054" lon="0.37351">
        <ele>181.6</ele>
        <time>2024-01-28T08:34:19Z</time>
      </trkpt>
      <trkpt lat="46.50052" lon="0.37353">
        <ele>181.6</ele>
        <time>2024-01-28T08:34:20Z</time>
      </trkpt>
      <trkpt lat="46.50042" lon="0.37357">
        <ele>181.6</ele>
        <time>2024-01-28T08:34:26Z</time>
      </trkpt>
      <trkpt lat="46.50033" lon="0.37352">
        <ele>181.8</ele>
        <time>2024-01-28T08:34:31Z</time>
      </trkpt>
      <trkpt lat="46.50028" lon="0.37347">
        <ele>182</ele>
        <time>2024-01-28T08:34:33Z</time>
      </trkpt>
      <trkpt lat="46.50024" lon="0.37345">
        <ele>182</ele>
        <time>2024-01-28T08:34:34Z</time>
      </trkpt>
      <trkpt lat="46.50013" lon="0.37337">
        <ele>182</ele>
        <time>2024-01-28T08:34:37Z</time>
      </trkpt>
      <trkpt lat="46.5001" lon="0.37335">
        <ele>182</ele>
        <time>2024-01-28T08:34:38Z</time>
      </trkpt>
      <trkpt lat="46.50007" lon="0.37332">
        <ele>182.2</ele>
        <time>2024-01-28T08:34:39Z</time>
      </trkpt>
      <trkpt lat="46.49993" lon="0.37327">
        <ele>182.8</ele>
        <time>2024-01-28T08:34:43Z</time>
      </trkpt>
      <trkpt lat="46.49986" lon="0.37324">
        <ele>182.8</ele>
        <time>2024-01-28T08:34:45Z</time>
      </trkpt>
      <trkpt lat="46.49981" lon="0.37318">
        <ele>182.8</ele>
        <time>2024-01-28T08:34:47Z</time>
      </trkpt>
      <trkpt lat="46.49978" lon="0.37315">
        <ele>182.8</ele>
        <time>2024-01-28T08:34:48Z</time>
      </trkpt>
      <trkpt lat="46.49969" lon="0.37307">
        <ele>182.8</ele>
        <time>2024-01-28T08:34:51Z</time>
      </trkpt>
      <trkpt lat="46.49963" lon="0.37301">
        <ele>182.6</ele>
        <time>2024-01-28T08:34:53Z</time>
      </trkpt>
      <trkpt lat="46.4996" lon="0.37298">
        <ele>182.4</ele>
        <time>2024-01-28T08:34:54Z</time>
      </trkpt>
      <trkpt lat="46.49952" lon="0.37288">
        <ele>182.4</ele>
        <time>2024-01-28T08:34:57Z</time>
      </trkpt>
      <trkpt lat="46.49935" lon="0.37275">
        <ele>182.6</ele>
        <time>2024-01-28T08:35:02Z</time>
      </trkpt>
      <trkpt lat="46.49925" lon="0.37265">
        <ele>182.8</ele>
        <time>2024-01-28T08:35:05Z</time>
      </trkpt>
      <trkpt lat="46.49917" lon="0.37257">
        <ele>182.8</ele>
        <time>2024-01-28T08:35:07Z</time>
      </trkpt>
      <trkpt lat="46.49912" lon="0.37254">
        <ele>182.8</ele>
        <time>2024-01-28T08:35:08Z</time>
      </trkpt>
      <trkpt lat="46.49908" lon="0.37251">
        <ele>182.8</ele>
        <time>2024-01-28T08:35:09Z</time>
      </trkpt>
      <trkpt lat="46.49905" lon="0.37248">
        <ele>183</ele>
        <time>2024-01-28T08:35:10Z</time>
      </trkpt>
      <trkpt lat="46.49899" lon="0.37241">
        <ele>183</ele>
        <time>2024-01-28T08:35:12Z</time>
      </trkpt>
      <trkpt lat="46.49885" lon="0.37226">
        <ele>183.2</ele>
        <time>2024-01-28T08:35:16Z</time>
      </trkpt>
      <trkpt lat="46.49885" lon="0.37226">
        <ele>183</ele>
        <time>2024-01-28T08:35:17Z</time>
      </trkpt>
      <trkpt lat="46.4988" lon="0.37219">
        <ele>183</ele>
        <time>2024-01-28T08:35:18Z</time>
      </trkpt>
      <trkpt lat="46.4988" lon="0.37214">
        <ele>182.8</ele>
        <time>2024-01-28T08:35:20Z</time>
      </trkpt>
      <trkpt lat="46.49883" lon="0.37203">
        <ele>182.6</ele>
        <time>2024-01-28T08:35:24Z</time>
      </trkpt>
      <trkpt lat="46.49883" lon="0.37199">
        <ele>182.6</ele>
        <time>2024-01-28T08:35:25Z</time>
      </trkpt>
      <trkpt lat="46.49886" lon="0.3719">
        <ele>182.8</ele>
        <time>2024-01-28T08:35:27Z</time>
      </trkpt>
      <trkpt lat="46.49887" lon="0.37184">
        <ele>182.8</ele>
        <time>2024-01-28T08:35:28Z</time>
      </trkpt>
      <trkpt lat="46.49889" lon="0.3718">
        <ele>183</ele>
        <time>2024-01-28T08:35:29Z</time>
      </trkpt>
      <trkpt lat="46.49895" lon="0.3717">
        <ele>183.2</ele>
        <time>2024-01-28T08:35:32Z</time>
      </trkpt>
      <trkpt lat="46.49897" lon="0.37166">
        <ele>183.2</ele>
        <time>2024-01-28T08:35:33Z</time>
      </trkpt>
      <trkpt lat="46.49897" lon="0.37162">
        <ele>183.2</ele>
        <time>2024-01-28T08:35:34Z</time>
      </trkpt>
      <trkpt lat="46.49899" lon="0.37153">
        <ele>183.2</ele>
        <time>2024-01-28T08:35:36Z</time>
      </trkpt>
      <trkpt lat="46.49901" lon="0.37148">
        <ele>183.2</ele>
        <time>2024-01-28T08:35:37Z</time>
      </trkpt>
      <trkpt lat="46.49905" lon="0.37137">
        <ele>183.2</ele>
        <time>2024-01-28T08:35:39Z</time>
      </trkpt>
      <trkpt lat="46.49911" lon="0.37129">
        <ele>183</ele>
        <time>2024-01-28T08:35:41Z</time>
      </trkpt>
      <trkpt lat="46.49915" lon="0.37125">
        <ele>182.6</ele>
        <time>2024-01-28T08:35:43Z</time>
      </trkpt>
      <trkpt lat="46.49919" lon="0.37119">
        <ele>182.2</ele>
        <time>2024-01-28T08:35:45Z</time>
      </trkpt>
      <trkpt lat="46.49928" lon="0.371">
        <ele>182.2</ele>
        <time>2024-01-28T08:35:49Z</time>
      </trkpt>
      <trkpt lat="46.49929" lon="0.37096">
        <ele>182.2</ele>
        <time>2024-01-28T08:35:50Z</time>
      </trkpt>
      <trkpt lat="46.49931" lon="0.37092">
        <ele>182.2</ele>
        <time>2024-01-28T08:35:51Z</time>
      </trkpt>
      <trkpt lat="46.49935" lon="0.37088">
        <ele>182.2</ele>
        <time>2024-01-28T08:35:53Z</time>
      </trkpt>
      <trkpt lat="46.49936" lon="0.37087">
        <ele>182.2</ele>
        <time>2024-01-28T08:35:54Z</time>
      </trkpt>
      <trkpt lat="46.49943" lon="0.37082">
        <ele>182.2</ele>
        <time>2024-01-28T08:35:59Z</time>
      </trkpt>
      <trkpt lat="46.49952" lon="0.37073">
        <ele>182.4</ele>
        <time>2024-01-28T08:36:04Z</time>
      </trkpt>
      <trkpt lat="46.49955" lon="0.37071">
        <ele>182.4</ele>
        <time>2024-01-28T08:36:05Z</time>
      </trkpt>
      <trkpt lat="46.49961" lon="0.37066">
        <ele>182.2</ele>
        <time>2024-01-28T08:36:08Z</time>
      </trkpt>
      <trkpt lat="46.49965" lon="0.37064">
        <ele>182</ele>
        <time>2024-01-28T08:36:09Z</time>
      </trkpt>
      <trkpt lat="46.49969" lon="0.3706">
        <ele>182</ele>
        <time>2024-01-28T08:36:11Z</time>
      </trkpt>
      <trkpt lat="46.49971" lon="0.3706">
        <ele>182</ele>
        <time>2024-01-28T08:36:12Z</time>
      </trkpt>
      <trkpt lat="46.49973" lon="0.37061">
        <ele>182</ele>
        <time>2024-01-28T08:36:14Z</time>
      </trkpt>
      <trkpt lat="46.49978" lon="0.37063">
        <ele>182</ele>
        <time>2024-01-28T08:36:17Z</time>
      </trkpt>
      <trkpt lat="46.49983" lon="0.37065">
        <ele>182.2</ele>
        <time>2024-01-28T08:36:19Z</time>
      </trkpt>
      <trkpt lat="46.4999" lon="0.37062">
        <ele>182</ele>
        <time>2024-01-28T08:36:22Z</time>
      </trkpt>
      <trkpt lat="46.49994" lon="0.37058">
        <ele>181.8</ele>
        <time>2024-01-28T08:36:24Z</time>
      </trkpt>
      <trkpt lat="46.50002" lon="0.37053">
        <ele>181.8</ele>
        <time>2024-01-28T08:36:27Z</time>
      </trkpt>
      <trkpt lat="46.50011" lon="0.37053">
        <ele>181.8</ele>
        <time>2024-01-28T08:36:31Z</time>
      </trkpt>
      <trkpt lat="46.50016" lon="0.37058">
        <ele>181.8</ele>
        <time>2024-01-28T08:36:33Z</time>
      </trkpt>
      <trkpt lat="46.50035" lon="0.37077">
        <ele>181.6</ele>
        <time>2024-01-28T08:36:40Z</time>
      </trkpt>
      <trkpt lat="46.50038" lon="0.3708">
        <ele>181.2</ele>
        <time>2024-01-28T08:36:43Z</time>
      </trkpt>
      <trkpt lat="46.50039" lon="0.37081">
        <ele>181</ele>
        <time>2024-01-28T08:36:45Z</time>
      </trkpt>
      <trkpt lat="46.50042" lon="0.37082">
        <ele>180.8</ele>
        <time>2024-01-28T08:36:48Z</time>
      </trkpt>
      <trkpt lat="46.50049" lon="0.37086">
        <ele>180.8</ele>
        <time>2024-01-28T08:36:55Z</time>
      </trkpt>
      <trkpt lat="46.5005" lon="0.37086">
        <ele>180.8</ele>
        <time>2024-01-28T08:36:56Z</time>
      </trkpt>
      <trkpt lat="46.50063" lon="0.37094">
        <ele>180.8</ele>
        <time>2024-01-28T08:37:04Z</time>
      </trkpt>
      <trkpt lat="46.50072" lon="0.37105">
        <ele>180.6</ele>
        <time>2024-01-28T08:37:09Z</time>
      </trkpt>
      <trkpt lat="46.50083" lon="0.37108">
        <ele>180.6</ele>
        <time>2024-01-28T08:37:15Z</time>
      </trkpt>
      <trkpt lat="46.50093" lon="0.371">
        <ele>180.2</ele>
        <time>2024-01-28T08:37:20Z</time>
      </trkpt>
      <trkpt lat="46.50106" lon="0.3708">
        <ele>180.4</ele>
        <time>2024-01-28T08:37:26Z</time>
      </trkpt>
      <trkpt lat="46.50115" lon="0.37066">
        <ele>180.6</ele>
        <time>2024-01-28T08:37:31Z</time>
      </trkpt>
      <trkpt lat="46.50122" lon="0.37066">
        <ele>180.6</ele>
        <time>2024-01-28T08:37:37Z</time>
      </trkpt>
      <trkpt lat="46.50127" lon="0.37066">
        <ele>180.4</ele>
        <time>2024-01-28T08:37:45Z</time>
      </trkpt>
      <trkpt lat="46.50127" lon="0.37066">
        <ele>180.4</ele>
        <time>2024-01-28T08:38:07Z</time>
      </trkpt>
      <trkpt lat="46.50127" lon="0.37066">
        <ele>180.4</ele>
        <time>2024-01-28T08:38:28Z</time>
      </trkpt>
      <trkpt lat="46.50127" lon="0.37066">
        <ele>180.2</ele>
        <time>2024-01-28T08:38:39Z</time>
      </trkpt>
      <trkpt lat="46.50127" lon="0.37064">
        <ele>180.2</ele>
        <time>2024-01-28T08:39:34Z</time>
      </trkpt>
      <trkpt lat="46.50127" lon="0.37064">
        <ele>180.2</ele>
        <time>2024-01-28T08:39:56Z</time>
      </trkpt>
      <trkpt lat="46.50127" lon="0.37064">
        <ele>180.2</ele>
        <time>2024-01-28T08:40:06Z</time>
      </trkpt>
      <trkpt lat="46.50128" lon="0.37064">
        <ele>180.2</ele>
        <time>2024-01-28T08:40:50Z</time>
      </trkpt>
      <trkpt lat="46.50128" lon="0.37064">
        <ele>180.2</ele>
        <time>2024-01-28T08:41:15Z</time>
      </trkpt>
      <trkpt lat="46.50128" lon="0.37064">
        <ele>180.2</ele>
        <time>2024-01-28T08:42:03Z</time>
      </trkpt>
      <trkpt lat="46.50128" lon="0.37064">
        <ele>180.2</ele>
        <time>2024-01-28T08:42:56Z</time>
      </trkpt>
      <trkpt lat="46.50128" lon="0.37063">
        <ele>180.2</ele>
        <time>2024-01-28T08:43:52Z</time>
      </trkpt>
      <trkpt lat="46.50128" lon="0.37063">
        <ele>180.2</ele>
        <time>2024-01-28T08:44:34Z</time>
      </trkpt>
      <trkpt lat="46.50128" lon="0.37062">
        <ele>180.2</ele>
        <time>2024-01-28T08:44:56Z</time>
      </trkpt>
      <trkpt lat="46.50134" lon="0.37065">
        <ele>180.2</ele>
        <time>2024-01-28T08:45:30Z</time>
      </trkpt>
      <trkpt lat="46.50152" lon="0.37076">
        <ele>180.2</ele>
        <time>2024-01-28T08:45:35Z</time>
      </trkpt>
      <trkpt lat="46.50175" lon="0.37087">
        <ele>180.4</ele>
        <time>2024-01-28T08:45:40Z</time>
      </trkpt>
      <trkpt lat="46.50181" lon="0.37092">
        <ele>180.2</ele>
        <time>2024-01-28T08:45:42Z</time>
      </trkpt>
      <trkpt lat="46.50185" lon="0.37091">
        <ele>180</ele>
        <time>2024-01-28T08:45:44Z</time>
      </trkpt>
      <trkpt lat="46.50185" lon="0.37087">
        <ele>180</ele>
        <time>2024-01-28T08:45:46Z</time>
      </trkpt>
      <trkpt lat="46.50186" lon="0.3707">
        <ele>180.6</ele>
        <time>2024-01-28T08:45:51Z</time>
      </trkpt>
      <trkpt lat="46.50184" lon="0.37057">
        <ele>181</ele>
        <time>2024-01-28T08:45:54Z</time>
      </trkpt>
      <trkpt lat="46.50181" lon="0.37049">
        <ele>181</ele>
        <time>2024-01-28T08:45:56Z</time>
      </trkpt>
      <trkpt lat="46.5018" lon="0.37044">
        <ele>181</ele>
        <time>2024-01-28T08:45:57Z</time>
      </trkpt>
      <trkpt lat="46.50179" lon="0.37039">
        <ele>181</ele>
        <time>2024-01-28T08:45:58Z</time>
      </trkpt>
      <trkpt lat="46.50176" lon="0.37028">
        <ele>181</ele>
        <time>2024-01-28T08:46:00Z</time>
      </trkpt>
      <trkpt lat="46.50174" lon="0.37022">
        <ele>181</ele>
        <time>2024-01-28T08:46:01Z</time>
      </trkpt>
      <trkpt lat="46.50174" lon="0.37017">
        <ele>181</ele>
        <time>2024-01-28T08:46:02Z</time>
      </trkpt>
      <trkpt lat="46.50173" lon="0.37001">
        <ele>181.2</ele>
        <time>2024-01-28T08:46:05Z</time>
      </trkpt>
      <trkpt lat="46.50173" lon="0.36996">
        <ele>181</ele>
        <time>2024-01-28T08:46:06Z</time>
      </trkpt>
      <trkpt lat="46.50172" lon="0.36986">
        <ele>181.2</ele>
        <time>2024-01-28T08:46:08Z</time>
      </trkpt>
      <trkpt lat="46.50172" lon="0.36975">
        <ele>181.2</ele>
        <time>2024-01-28T08:46:10Z</time>
      </trkpt>
      <trkpt lat="46.50171" lon="0.36964">
        <ele>181.2</ele>
        <time>2024-01-28T08:46:12Z</time>
      </trkpt>
      <trkpt lat="46.50169" lon="0.36929">
        <ele>181.6</ele>
        <time>2024-01-28T08:46:17Z</time>
      </trkpt>
      <trkpt lat="46.50169" lon="0.36909">
        <ele>181.8</ele>
        <time>2024-01-28T08:46:20Z</time>
      </trkpt>
      <trkpt lat="46.5017" lon="0.36904">
        <ele>181.8</ele>
        <time>2024-01-28T08:46:21Z</time>
      </trkpt>
      <trkpt lat="46.50179" lon="0.36888">
        <ele>181.4</ele>
        <time>2024-01-28T08:46:26Z</time>
      </trkpt>
      <trkpt lat="46.50193" lon="0.36874">
        <ele>181.4</ele>
        <time>2024-01-28T08:46:31Z</time>
      </trkpt>
      <trkpt lat="46.50198" lon="0.36869">
        <ele>181.4</ele>
        <time>2024-01-28T08:46:33Z</time>
      </trkpt>
      <trkpt lat="46.50201" lon="0.36864">
        <ele>181.4</ele>
        <time>2024-01-28T08:46:35Z</time>
      </trkpt>
      <trkpt lat="46.50201" lon="0.36851">
        <ele>181.4</ele>
        <time>2024-01-28T08:46:39Z</time>
      </trkpt>
      <trkpt lat="46.50205" lon="0.36839">
        <ele>181.4</ele>
        <time>2024-01-28T08:46:42Z</time>
      </trkpt>
      <trkpt lat="46.50206" lon="0.36832">
        <ele>181.4</ele>
        <time>2024-01-28T08:46:43Z</time>
      </trkpt>
      <trkpt lat="46.50209" lon="0.36813">
        <ele>181.2</ele>
        <time>2024-01-28T08:46:46Z</time>
      </trkpt>
      <trkpt lat="46.5021" lon="0.36804">
        <ele>181</ele>
        <time>2024-01-28T08:46:48Z</time>
      </trkpt>
      <trkpt lat="46.50206" lon="0.36801">
        <ele>181</ele>
        <time>2024-01-28T08:46:50Z</time>
      </trkpt>
      <trkpt lat="46.50203" lon="0.36801">
        <ele>181</ele>
        <time>2024-01-28T08:46:51Z</time>
      </trkpt>
      <trkpt lat="46.50197" lon="0.368">
        <ele>181</ele>
        <time>2024-01-28T08:46:53Z</time>
      </trkpt>
      <trkpt lat="46.50193" lon="0.36793">
        <ele>181</ele>
        <time>2024-01-28T08:46:55Z</time>
      </trkpt>
      <trkpt lat="46.50186" lon="0.36791">
        <ele>181</ele>
        <time>2024-01-28T08:46:58Z</time>
      </trkpt>
      <trkpt lat="46.50184" lon="0.36791">
        <ele>181</ele>
        <time>2024-01-28T08:46:59Z</time>
      </trkpt>
      <trkpt lat="46.50178" lon="0.36786">
        <ele>180.6</ele>
        <time>2024-01-28T08:47:01Z</time>
      </trkpt>
      <trkpt lat="46.50176" lon="0.36782">
        <ele>180.6</ele>
        <time>2024-01-28T08:47:02Z</time>
      </trkpt>
      <trkpt lat="46.5017" lon="0.36775">
        <ele>181</ele>
        <time>2024-01-28T08:47:04Z</time>
      </trkpt>
      <trkpt lat="46.50166" lon="0.36773">
        <ele>181.2</ele>
        <time>2024-01-28T08:47:05Z</time>
      </trkpt>
      <trkpt lat="46.50162" lon="0.36772">
        <ele>181.2</ele>
        <time>2024-01-28T08:47:06Z</time>
      </trkpt>
      <trkpt lat="46.50153" lon="0.36772">
        <ele>181.4</ele>
        <time>2024-01-28T08:47:08Z</time>
      </trkpt>
      <trkpt lat="46.5015" lon="0.36772">
        <ele>181.4</ele>
        <time>2024-01-28T08:47:09Z</time>
      </trkpt>
      <trkpt lat="46.50142" lon="0.36768">
        <ele>181.4</ele>
        <time>2024-01-28T08:47:11Z</time>
      </trkpt>
      <trkpt lat="46.50139" lon="0.36767">
        <ele>181.4</ele>
        <time>2024-01-28T08:47:12Z</time>
      </trkpt>
      <trkpt lat="46.50128" lon="0.36759">
        <ele>180.6</ele>
        <time>2024-01-28T08:47:16Z</time>
      </trkpt>
      <trkpt lat="46.50126" lon="0.36756">
        <ele>180.6</ele>
        <time>2024-01-28T08:47:17Z</time>
      </trkpt>
      <trkpt lat="46.5012" lon="0.36746">
        <ele>180.8</ele>
        <time>2024-01-28T08:47:20Z</time>
      </trkpt>
      <trkpt lat="46.50119" lon="0.36743">
        <ele>180.8</ele>
        <time>2024-01-28T08:47:21Z</time>
      </trkpt>
      <trkpt lat="46.50115" lon="0.36724">
        <ele>180.8</ele>
        <time>2024-01-28T08:47:26Z</time>
      </trkpt>
      <trkpt lat="46.50113" lon="0.36716">
        <ele>180.6</ele>
        <time>2024-01-28T08:47:28Z</time>
      </trkpt>
      <trkpt lat="46.50112" lon="0.36706">
        <ele>180.8</ele>
        <time>2024-01-28T08:47:31Z</time>
      </trkpt>
      <trkpt lat="46.50117" lon="0.36688">
        <ele>180.8</ele>
        <time>2024-01-28T08:47:36Z</time>
      </trkpt>
      <trkpt lat="46.50119" lon="0.36683">
        <ele>180.6</ele>
        <time>2024-01-28T08:47:37Z</time>
      </trkpt>
      <trkpt lat="46.50123" lon="0.36673">
        <ele>180.6</ele>
        <time>2024-01-28T08:47:39Z</time>
      </trkpt>
      <trkpt lat="46.50128" lon="0.36664">
        <ele>180.4</ele>
        <time>2024-01-28T08:47:41Z</time>
      </trkpt>
      <trkpt lat="46.50132" lon="0.36658">
        <ele>180</ele>
        <time>2024-01-28T08:47:43Z</time>
      </trkpt>
      <trkpt lat="46.50135" lon="0.36653">
        <ele>180</ele>
        <time>2024-01-28T08:47:45Z</time>
      </trkpt>
      <trkpt lat="46.50141" lon="0.36635">
        <ele>180</ele>
        <time>2024-01-28T08:47:50Z</time>
      </trkpt>
      <trkpt lat="46.5015" lon="0.36632">
        <ele>180.2</ele>
        <time>2024-01-28T08:47:54Z</time>
      </trkpt>
      <trkpt lat="46.50154" lon="0.36635">
        <ele>180.2</ele>
        <time>2024-01-28T08:47:57Z</time>
      </trkpt>
      <trkpt lat="46.50156" lon="0.36635">
        <ele>180.2</ele>
        <time>2024-01-28T08:47:58Z</time>
      </trkpt>
      <trkpt lat="46.50165" lon="0.36643">
        <ele>179.8</ele>
        <time>2024-01-28T08:48:02Z</time>
      </trkpt>
      <trkpt lat="46.50167" lon="0.36645">
        <ele>179.8</ele>
        <time>2024-01-28T08:48:03Z</time>
      </trkpt>
      <trkpt lat="46.5017" lon="0.36646">
        <ele>179.6</ele>
        <time>2024-01-28T08:48:04Z</time>
      </trkpt>
      <trkpt lat="46.50174" lon="0.36644">
        <ele>179.6</ele>
        <time>2024-01-28T08:48:06Z</time>
      </trkpt>
      <trkpt lat="46.50186" lon="0.36629">
        <ele>179.4</ele>
        <time>2024-01-28T08:48:11Z</time>
      </trkpt>
      <trkpt lat="46.50193" lon="0.36631">
        <ele>179.4</ele>
        <time>2024-01-28T08:48:14Z</time>
      </trkpt>
      <trkpt lat="46.50196" lon="0.36631">
        <ele>179.4</ele>
        <time>2024-01-28T08:48:15Z</time>
      </trkpt>
      <trkpt lat="46.50198" lon="0.36631">
        <ele>179.2</ele>
        <time>2024-01-28T08:48:16Z</time>
      </trkpt>
      <trkpt lat="46.50204" lon="0.36637">
        <ele>179.2</ele>
        <time>2024-01-28T08:48:19Z</time>
      </trkpt>
      <trkpt lat="46.50214" lon="0.36647">
        <ele>179.6</ele>
        <time>2024-01-28T08:48:22Z</time>
      </trkpt>
      <trkpt lat="46.50216" lon="0.36651">
        <ele>179.6</ele>
        <time>2024-01-28T08:48:23Z</time>
      </trkpt>
      <trkpt lat="46.50218" lon="0.36655">
        <ele>179.6</ele>
        <time>2024-01-28T08:48:24Z</time>
      </trkpt>
      <trkpt lat="46.50223" lon="0.36658">
        <ele>179.6</ele>
        <time>2024-01-28T08:48:26Z</time>
      </trkpt>
      <trkpt lat="46.50225" lon="0.36658">
        <ele>179.6</ele>
        <time>2024-01-28T08:48:27Z</time>
      </trkpt>
      <trkpt lat="46.50228" lon="0.36657">
        <ele>179.4</ele>
        <time>2024-01-28T08:48:28Z</time>
      </trkpt>
      <trkpt lat="46.50232" lon="0.36651">
        <ele>179.4</ele>
        <time>2024-01-28T08:48:30Z</time>
      </trkpt>
      <trkpt lat="46.50236" lon="0.36648">
        <ele>179.2</ele>
        <time>2024-01-28T08:48:31Z</time>
      </trkpt>
      <trkpt lat="46.5025" lon="0.3664">
        <ele>179</ele>
        <time>2024-01-28T08:48:35Z</time>
      </trkpt>
      <trkpt lat="46.50254" lon="0.36641">
        <ele>179</ele>
        <time>2024-01-28T08:48:36Z</time>
      </trkpt>
      <trkpt lat="46.50258" lon="0.36644">
        <ele>179.2</ele>
        <time>2024-01-28T08:48:37Z</time>
      </trkpt>
      <trkpt lat="46.50265" lon="0.36652">
        <ele>179.4</ele>
        <time>2024-01-28T08:48:39Z</time>
      </trkpt>
      <trkpt lat="46.50268" lon="0.36656">
        <ele>179.4</ele>
        <time>2024-01-28T08:48:40Z</time>
      </trkpt>
      <trkpt lat="46.50271" lon="0.36659">
        <ele>179.4</ele>
        <time>2024-01-28T08:48:41Z</time>
      </trkpt>
      <trkpt lat="46.50278" lon="0.36664">
        <ele>179.4</ele>
        <time>2024-01-28T08:48:43Z</time>
      </trkpt>
      <trkpt lat="46.50282" lon="0.36665">
        <ele>179.4</ele>
        <time>2024-01-28T08:48:44Z</time>
      </trkpt>
      <trkpt lat="46.50285" lon="0.36665">
        <ele>179.2</ele>
        <time>2024-01-28T08:48:45Z</time>
      </trkpt>
      <trkpt lat="46.5029" lon="0.36663">
        <ele>178.8</ele>
        <time>2024-01-28T08:48:47Z</time>
      </trkpt>
      <trkpt lat="46.50293" lon="0.36661">
        <ele>178.8</ele>
        <time>2024-01-28T08:48:48Z</time>
      </trkpt>
      <trkpt lat="46.50295" lon="0.36659">
        <ele>178.6</ele>
        <time>2024-01-28T08:48:49Z</time>
      </trkpt>
      <trkpt lat="46.50299" lon="0.36656">
        <ele>178.4</ele>
        <time>2024-01-28T08:48:51Z</time>
      </trkpt>
      <trkpt lat="46.50301" lon="0.36655">
        <ele>178.2</ele>
        <time>2024-01-28T08:48:52Z</time>
      </trkpt>
      <trkpt lat="46.50305" lon="0.36654">
        <ele>178</ele>
        <time>2024-01-28T08:48:54Z</time>
      </trkpt>
      <trkpt lat="46.50314" lon="0.36653">
        <ele>177.8</ele>
        <time>2024-01-28T08:48:57Z</time>
      </trkpt>
      <trkpt lat="46.50318" lon="0.36655">
        <ele>177.4</ele>
        <time>2024-01-28T08:48:58Z</time>
      </trkpt>
      <trkpt lat="46.50325" lon="0.36665">
        <ele>177.2</ele>
        <time>2024-01-28T08:49:01Z</time>
      </trkpt>
      <trkpt lat="46.50329" lon="0.36678">
        <ele>178</ele>
        <time>2024-01-28T08:49:05Z</time>
      </trkpt>
      <trkpt lat="46.50332" lon="0.36681">
        <ele>178.4</ele>
        <time>2024-01-28T08:49:07Z</time>
      </trkpt>
      <trkpt lat="46.50334" lon="0.36683">
        <ele>178.6</ele>
        <time>2024-01-28T08:49:08Z</time>
      </trkpt>
      <trkpt lat="46.50337" lon="0.36682">
        <ele>178.8</ele>
        <time>2024-01-28T08:49:09Z</time>
      </trkpt>
      <trkpt lat="46.50341" lon="0.36683">
        <ele>178.8</ele>
        <time>2024-01-28T08:49:10Z</time>
      </trkpt>
      <trkpt lat="46.50348" lon="0.36687">
        <ele>178.8</ele>
        <time>2024-01-28T08:49:12Z</time>
      </trkpt>
      <trkpt lat="46.50349" lon="0.36689">
        <ele>178.8</ele>
        <time>2024-01-28T08:49:13Z</time>
      </trkpt>
      <trkpt lat="46.50354" lon="0.36692">
        <ele>178.6</ele>
        <time>2024-01-28T08:49:16Z</time>
      </trkpt>
      <trkpt lat="46.50356" lon="0.36694">
        <ele>178.6</ele>
        <time>2024-01-28T08:49:18Z</time>
      </trkpt>
      <trkpt lat="46.50367" lon="0.367">
        <ele>178.2</ele>
        <time>2024-01-28T08:49:27Z</time>
      </trkpt>
      <trkpt lat="46.50376" lon="0.36706">
        <ele>178.6</ele>
        <time>2024-01-28T08:49:30Z</time>
      </trkpt>
      <trkpt lat="46.50385" lon="0.36707">
        <ele>178.4</ele>
        <time>2024-01-28T08:49:32Z</time>
      </trkpt>
      <trkpt lat="46.50389" lon="0.36707">
        <ele>178.4</ele>
        <time>2024-01-28T08:49:33Z</time>
      </trkpt>
      <trkpt lat="46.50401" lon="0.36707">
        <ele>178.2</ele>
        <time>2024-01-28T08:49:36Z</time>
      </trkpt>
      <trkpt lat="46.50406" lon="0.36706">
        <ele>178.2</ele>
        <time>2024-01-28T08:49:37Z</time>
      </trkpt>
      <trkpt lat="46.50415" lon="0.36706">
        <ele>178.2</ele>
        <time>2024-01-28T08:49:39Z</time>
      </trkpt>
      <trkpt lat="46.50426" lon="0.36709">
        <ele>177.8</ele>
        <time>2024-01-28T08:49:42Z</time>
      </trkpt>
      <trkpt lat="46.50431" lon="0.36713">
        <ele>177.6</ele>
        <time>2024-01-28T08:49:44Z</time>
      </trkpt>
      <trkpt lat="46.50441" lon="0.36717">
        <ele>177.4</ele>
        <time>2024-01-28T08:49:48Z</time>
      </trkpt>
      <trkpt lat="46.50454" lon="0.36723">
        <ele>177.6</ele>
        <time>2024-01-28T08:49:52Z</time>
      </trkpt>
      <trkpt lat="46.50466" lon="0.36735">
        <ele>178</ele>
        <time>2024-01-28T08:49:58Z</time>
      </trkpt>
      <trkpt lat="46.50468" lon="0.36737">
        <ele>178.2</ele>
        <time>2024-01-28T08:50:00Z</time>
      </trkpt>
      <trkpt lat="46.50478" lon="0.36742">
        <ele>178.4</ele>
        <time>2024-01-28T08:50:04Z</time>
      </trkpt>
      <trkpt lat="46.50483" lon="0.36743">
        <ele>178.4</ele>
        <time>2024-01-28T08:50:06Z</time>
      </trkpt>
      <trkpt lat="46.50489" lon="0.36747">
        <ele>178.6</ele>
        <time>2024-01-28T08:50:08Z</time>
      </trkpt>
      <trkpt lat="46.50491" lon="0.36748">
        <ele>178.8</ele>
        <time>2024-01-28T08:50:09Z</time>
      </trkpt>
      <trkpt lat="46.50495" lon="0.36751">
        <ele>179</ele>
        <time>2024-01-28T08:50:10Z</time>
      </trkpt>
      <trkpt lat="46.50503" lon="0.36764">
        <ele>179.6</ele>
        <time>2024-01-28T08:50:13Z</time>
      </trkpt>
      <trkpt lat="46.50506" lon="0.36766">
        <ele>179.8</ele>
        <time>2024-01-28T08:50:14Z</time>
      </trkpt>
      <trkpt lat="46.50511" lon="0.36773">
        <ele>180.2</ele>
        <time>2024-01-28T08:50:16Z</time>
      </trkpt>
      <trkpt lat="46.50514" lon="0.36777">
        <ele>180.2</ele>
        <time>2024-01-28T08:50:17Z</time>
      </trkpt>
      <trkpt lat="46.50522" lon="0.36795">
        <ele>180.8</ele>
        <time>2024-01-28T08:50:22Z</time>
      </trkpt>
      <trkpt lat="46.50523" lon="0.36798">
        <ele>180.8</ele>
        <time>2024-01-28T08:50:23Z</time>
      </trkpt>
      <trkpt lat="46.5053" lon="0.36806">
        <ele>181.2</ele>
        <time>2024-01-28T08:50:27Z</time>
      </trkpt>
      <trkpt lat="46.50544" lon="0.36815">
        <ele>181.2</ele>
        <time>2024-01-28T08:50:33Z</time>
      </trkpt>
      <trkpt lat="46.50547" lon="0.36816">
        <ele>181.2</ele>
        <time>2024-01-28T08:50:35Z</time>
      </trkpt>
      <trkpt lat="46.50557" lon="0.36814">
        <ele>181.2</ele>
        <time>2024-01-28T08:50:39Z</time>
      </trkpt>
      <trkpt lat="46.50573" lon="0.36803">
        <ele>180.8</ele>
        <time>2024-01-28T08:50:45Z</time>
      </trkpt>
      <trkpt lat="46.50584" lon="0.36793">
        <ele>180.6</ele>
        <time>2024-01-28T08:50:51Z</time>
      </trkpt>
      <trkpt lat="46.50596" lon="0.36787">
        <ele>180.2</ele>
        <time>2024-01-28T08:50:57Z</time>
      </trkpt>
      <trkpt lat="46.50609" lon="0.3678">
        <ele>179.8</ele>
        <time>2024-01-28T08:51:04Z</time>
      </trkpt>
      <trkpt lat="46.50611" lon="0.3678">
        <ele>179.8</ele>
        <time>2024-01-28T08:51:05Z</time>
      </trkpt>
      <trkpt lat="46.50616" lon="0.36777">
        <ele>179.6</ele>
        <time>2024-01-28T08:51:08Z</time>
      </trkpt>
      <trkpt lat="46.50618" lon="0.36774">
        <ele>179.6</ele>
        <time>2024-01-28T08:51:09Z</time>
      </trkpt>
      <trkpt lat="46.50625" lon="0.36757">
        <ele>179.6</ele>
        <time>2024-01-28T08:51:12Z</time>
      </trkpt>
      <trkpt lat="46.50633" lon="0.36753">
        <ele>179.6</ele>
        <time>2024-01-28T08:51:14Z</time>
      </trkpt>
      <trkpt lat="46.50637" lon="0.36754">
        <ele>179.4</ele>
        <time>2024-01-28T08:51:15Z</time>
      </trkpt>
      <trkpt lat="46.5064" lon="0.36757">
        <ele>179.2</ele>
        <time>2024-01-28T08:51:16Z</time>
      </trkpt>
      <trkpt lat="46.50643" lon="0.36767">
        <ele>179</ele>
        <time>2024-01-28T08:51:18Z</time>
      </trkpt>
      <trkpt lat="46.50643" lon="0.36773">
        <ele>178.8</ele>
        <time>2024-01-28T08:51:19Z</time>
      </trkpt>
      <trkpt lat="46.50643" lon="0.36787">
        <ele>178.8</ele>
        <time>2024-01-28T08:51:21Z</time>
      </trkpt>
      <trkpt lat="46.50642" lon="0.36792">
        <ele>178.8</ele>
        <time>2024-01-28T08:51:22Z</time>
      </trkpt>
      <trkpt lat="46.50641" lon="0.36797">
        <ele>179.4</ele>
        <time>2024-01-28T08:51:23Z</time>
      </trkpt>
      <trkpt lat="46.50639" lon="0.36801">
        <ele>179.8</ele>
        <time>2024-01-28T08:51:24Z</time>
      </trkpt>
      <trkpt lat="46.50639" lon="0.36805">
        <ele>180.2</ele>
        <time>2024-01-28T08:51:25Z</time>
      </trkpt>
      <trkpt lat="46.50639" lon="0.36809">
        <ele>180.2</ele>
        <time>2024-01-28T08:51:26Z</time>
      </trkpt>
      <trkpt lat="46.5064" lon="0.36813">
        <ele>180.2</ele>
        <time>2024-01-28T08:51:30Z</time>
      </trkpt>
      <trkpt lat="46.50642" lon="0.36813">
        <ele>180.2</ele>
        <time>2024-01-28T08:51:45Z</time>
      </trkpt>
      <trkpt lat="46.50642" lon="0.36813">
        <ele>180</ele>
        <time>2024-01-28T08:52:06Z</time>
      </trkpt>
      <trkpt lat="46.50642" lon="0.36814">
        <ele>179.8</ele>
        <time>2024-01-28T08:52:47Z</time>
      </trkpt>
      <trkpt lat="46.50642" lon="0.36814">
        <ele>179.6</ele>
        <time>2024-01-28T08:53:28Z</time>
      </trkpt>
      <trkpt lat="46.50643" lon="0.36813">
        <ele>179.6</ele>
        <time>2024-01-28T08:53:37Z</time>
      </trkpt>
      <trkpt lat="46.50644" lon="0.36813">
        <ele>179.6</ele>
        <time>2024-01-28T08:53:49Z</time>
      </trkpt>
      <trkpt lat="46.50646" lon="0.3681">
        <ele>179.4</ele>
        <time>2024-01-28T08:54:03Z</time>
      </trkpt>
      <trkpt lat="46.50645" lon="0.36793">
        <ele>179.2</ele>
        <time>2024-01-28T08:54:11Z</time>
      </trkpt>
      <trkpt lat="46.50644" lon="0.3678">
        <ele>178.8</ele>
        <time>2024-01-28T08:54:15Z</time>
      </trkpt>
      <trkpt lat="46.50644" lon="0.36769">
        <ele>178.6</ele>
        <time>2024-01-28T08:54:18Z</time>
      </trkpt>
      <trkpt lat="46.50642" lon="0.36747">
        <ele>177.8</ele>
        <time>2024-01-28T08:54:23Z</time>
      </trkpt>
      <trkpt lat="46.50641" lon="0.36742">
        <ele>177.6</ele>
        <time>2024-01-28T08:54:24Z</time>
      </trkpt>
      <trkpt lat="46.50641" lon="0.36717">
        <ele>176.8</ele>
        <time>2024-01-28T08:54:29Z</time>
      </trkpt>
      <trkpt lat="46.50646" lon="0.36673">
        <ele>175.2</ele>
        <time>2024-01-28T08:54:35Z</time>
      </trkpt>
      <trkpt lat="46.50647" lon="0.36664">
        <ele>174.6</ele>
        <time>2024-01-28T08:54:36Z</time>
      </trkpt>
      <trkpt lat="46.50648" lon="0.36655">
        <ele>174.4</ele>
        <time>2024-01-28T08:54:37Z</time>
      </trkpt>
      <trkpt lat="46.50653" lon="0.36639">
        <ele>173.4</ele>
        <time>2024-01-28T08:54:39Z</time>
      </trkpt>
      <trkpt lat="46.50657" lon="0.36632">
        <ele>172.8</ele>
        <time>2024-01-28T08:54:40Z</time>
      </trkpt>
      <trkpt lat="46.50657" lon="0.36632">
        <ele>171.8</ele>
        <time>2024-01-28T08:54:41Z</time>
      </trkpt>
      <trkpt lat="46.50669" lon="0.3662">
        <ele>171.8</ele>
        <time>2024-01-28T08:54:42Z</time>
      </trkpt>
      <trkpt lat="46.50681" lon="0.36609">
        <ele>171.2</ele>
        <time>2024-01-28T08:54:44Z</time>
      </trkpt>
      <trkpt lat="46.50686" lon="0.36602">
        <ele>170.8</ele>
        <time>2024-01-28T08:54:45Z</time>
      </trkpt>
      <trkpt lat="46.50693" lon="0.36585">
        <ele>170</ele>
        <time>2024-01-28T08:54:47Z</time>
      </trkpt>
      <trkpt lat="46.50695" lon="0.36574">
        <ele>169.8</ele>
        <time>2024-01-28T08:54:48Z</time>
      </trkpt>
      <trkpt lat="46.50696" lon="0.36564">
        <ele>169.6</ele>
        <time>2024-01-28T08:54:49Z</time>
      </trkpt>
      <trkpt lat="46.50702" lon="0.36514">
        <ele>169</ele>
        <time>2024-01-28T08:54:54Z</time>
      </trkpt>
      <trkpt lat="46.50712" lon="0.36448">
        <ele>170.4</ele>
        <time>2024-01-28T08:55:02Z</time>
      </trkpt>
      <trkpt lat="46.50718" lon="0.3642">
        <ele>171</ele>
        <time>2024-01-28T08:55:06Z</time>
      </trkpt>
      <trkpt lat="46.50721" lon="0.36404">
        <ele>171.6</ele>
        <time>2024-01-28T08:55:08Z</time>
      </trkpt>
      <trkpt lat="46.50722" lon="0.36388">
        <ele>172</ele>
        <time>2024-01-28T08:55:10Z</time>
      </trkpt>
      <trkpt lat="46.50727" lon="0.36346">
        <ele>173.4</ele>
        <time>2024-01-28T08:55:15Z</time>
      </trkpt>
      <trkpt lat="46.50733" lon="0.36296">
        <ele>174.4</ele>
        <time>2024-01-28T08:55:21Z</time>
      </trkpt>
      <trkpt lat="46.50735" lon="0.3628">
        <ele>174.6</ele>
        <time>2024-01-28T08:55:23Z</time>
      </trkpt>
      <trkpt lat="46.5074" lon="0.36254">
        <ele>175.4</ele>
        <time>2024-01-28T08:55:26Z</time>
      </trkpt>
      <trkpt lat="46.50741" lon="0.36246">
        <ele>175.6</ele>
        <time>2024-01-28T08:55:27Z</time>
      </trkpt>
      <trkpt lat="46.50747" lon="0.36205">
        <ele>176.6</ele>
        <time>2024-01-28T08:55:32Z</time>
      </trkpt>
      <trkpt lat="46.50748" lon="0.36197">
        <ele>176.8</ele>
        <time>2024-01-28T08:55:33Z</time>
      </trkpt>
      <trkpt lat="46.5076" lon="0.36136">
        <ele>177.4</ele>
        <time>2024-01-28T08:55:41Z</time>
      </trkpt>
      <trkpt lat="46.5076" lon="0.36136">
        <ele>177.6</ele>
        <time>2024-01-28T08:55:42Z</time>
      </trkpt>
      <trkpt lat="46.50766" lon="0.36124">
        <ele>177.6</ele>
        <time>2024-01-28T08:55:43Z</time>
      </trkpt>
      <trkpt lat="46.50775" lon="0.36112">
        <ele>177.6</ele>
        <time>2024-01-28T08:55:45Z</time>
      </trkpt>
      <trkpt lat="46.50779" lon="0.36106">
        <ele>177.4</ele>
        <time>2024-01-28T08:55:46Z</time>
      </trkpt>
      <trkpt lat="46.50783" lon="0.36091">
        <ele>177</ele>
        <time>2024-01-28T08:55:48Z</time>
      </trkpt>
      <trkpt lat="46.50785" lon="0.36071">
        <ele>175.8</ele>
        <time>2024-01-28T08:55:51Z</time>
      </trkpt>
      <trkpt lat="46.50784" lon="0.3606">
        <ele>175.2</ele>
        <time>2024-01-28T08:55:53Z</time>
      </trkpt>
      <trkpt lat="46.50783" lon="0.36027">
        <ele>176.4</ele>
        <time>2024-01-28T08:55:58Z</time>
      </trkpt>
      <trkpt lat="46.50782" lon="0.3602">
        <ele>176.8</ele>
        <time>2024-01-28T08:55:59Z</time>
      </trkpt>
      <trkpt lat="46.5078" lon="0.36002">
        <ele>177.8</ele>
        <time>2024-01-28T08:56:02Z</time>
      </trkpt>
      <trkpt lat="46.50777" lon="0.35978">
        <ele>178.8</ele>
        <time>2024-01-28T08:56:06Z</time>
      </trkpt>
      <trkpt lat="46.50777" lon="0.35971">
        <ele>179.4</ele>
        <time>2024-01-28T08:56:07Z</time>
      </trkpt>
      <trkpt lat="46.50775" lon="0.35958">
        <ele>180</ele>
        <time>2024-01-28T08:56:09Z</time>
      </trkpt>
      <trkpt lat="46.50771" lon="0.3593">
        <ele>180.6</ele>
        <time>2024-01-28T08:56:13Z</time>
      </trkpt>
      <trkpt lat="46.5077" lon="0.35923">
        <ele>180.8</ele>
        <time>2024-01-28T08:56:14Z</time>
      </trkpt>
      <trkpt lat="46.50764" lon="0.35901">
        <ele>181.2</ele>
        <time>2024-01-28T08:56:17Z</time>
      </trkpt>
      <trkpt lat="46.5076" lon="0.35882">
        <ele>181.4</ele>
        <time>2024-01-28T08:56:20Z</time>
      </trkpt>
      <trkpt lat="46.50757" lon="0.35869">
        <ele>181.8</ele>
        <time>2024-01-28T08:56:22Z</time>
      </trkpt>
      <trkpt lat="46.50757" lon="0.35855">
        <ele>182.4</ele>
        <time>2024-01-28T08:56:24Z</time>
      </trkpt>
      <trkpt lat="46.50758" lon="0.35848">
        <ele>182.6</ele>
        <time>2024-01-28T08:56:25Z</time>
      </trkpt>
      <trkpt lat="46.50765" lon="0.35822">
        <ele>183.4</ele>
        <time>2024-01-28T08:56:29Z</time>
      </trkpt>
      <trkpt lat="46.50774" lon="0.35797">
        <ele>183.6</ele>
        <time>2024-01-28T08:56:33Z</time>
      </trkpt>
      <trkpt lat="46.50796" lon="0.35761">
        <ele>183.6</ele>
        <time>2024-01-28T08:56:39Z</time>
      </trkpt>
      <trkpt lat="46.508" lon="0.35756">
        <ele>183.4</ele>
        <time>2024-01-28T08:56:40Z</time>
      </trkpt>
      <trkpt lat="46.50804" lon="0.35752">
        <ele>183.2</ele>
        <time>2024-01-28T08:56:41Z</time>
      </trkpt>
      <trkpt lat="46.50816" lon="0.35737">
        <ele>182.8</ele>
        <time>2024-01-28T08:56:44Z</time>
      </trkpt>
      <trkpt lat="46.50823" lon="0.35727">
        <ele>182.8</ele>
        <time>2024-01-28T08:56:46Z</time>
      </trkpt>
      <trkpt lat="46.50829" lon="0.35716">
        <ele>182.8</ele>
        <time>2024-01-28T08:56:48Z</time>
      </trkpt>
      <trkpt lat="46.50842" lon="0.35691">
        <ele>182.8</ele>
        <time>2024-01-28T08:56:52Z</time>
      </trkpt>
      <trkpt lat="46.50846" lon="0.35686">
        <ele>182.8</ele>
        <time>2024-01-28T08:56:53Z</time>
      </trkpt>
      <trkpt lat="46.5085" lon="0.35681">
        <ele>182.6</ele>
        <time>2024-01-28T08:56:54Z</time>
      </trkpt>
      <trkpt lat="46.50866" lon="0.35663">
        <ele>182.4</ele>
        <time>2024-01-28T08:56:58Z</time>
      </trkpt>
      <trkpt lat="46.50883" lon="0.35641">
        <ele>182.2</ele>
        <time>2024-01-28T08:57:02Z</time>
      </trkpt>
      <trkpt lat="46.5089" lon="0.35629">
        <ele>182</ele>
        <time>2024-01-28T08:57:04Z</time>
      </trkpt>
      <trkpt lat="46.50911" lon="0.35594">
        <ele>181</ele>
        <time>2024-01-28T08:57:10Z</time>
      </trkpt>
      <trkpt lat="46.50914" lon="0.35588">
        <ele>180.8</ele>
        <time>2024-01-28T08:57:11Z</time>
      </trkpt>
      <trkpt lat="46.50927" lon="0.35564">
        <ele>180</ele>
        <time>2024-01-28T08:57:16Z</time>
      </trkpt>
      <trkpt lat="46.50928" lon="0.35559">
        <ele>180</ele>
        <time>2024-01-28T08:57:17Z</time>
      </trkpt>
      <trkpt lat="46.50931" lon="0.35555">
        <ele>179.8</ele>
        <time>2024-01-28T08:57:18Z</time>
      </trkpt>
      <trkpt lat="46.50946" lon="0.35531">
        <ele>179.2</ele>
        <time>2024-01-28T08:57:25Z</time>
      </trkpt>
      <trkpt lat="46.50949" lon="0.35525">
        <ele>178.8</ele>
        <time>2024-01-28T08:57:27Z</time>
      </trkpt>
      <trkpt lat="46.5095" lon="0.35521">
        <ele>178.6</ele>
        <time>2024-01-28T08:57:29Z</time>
      </trkpt>
      <trkpt lat="46.50949" lon="0.35517">
        <ele>178.4</ele>
        <time>2024-01-28T08:57:31Z</time>
      </trkpt>
      <trkpt lat="46.50947" lon="0.35515">
        <ele>178.2</ele>
        <time>2024-01-28T08:57:33Z</time>
      </trkpt>
      <trkpt lat="46.50946" lon="0.35516">
        <ele>178.2</ele>
        <time>2024-01-28T08:57:34Z</time>
      </trkpt>
      <trkpt lat="46.50942" lon="0.35517">
        <ele>178.2</ele>
        <time>2024-01-28T08:57:36Z</time>
      </trkpt>
      <trkpt lat="46.50938" lon="0.35518">
        <ele>178.2</ele>
        <time>2024-01-28T08:57:38Z</time>
      </trkpt>
      <trkpt lat="46.50936" lon="0.35521">
        <ele>178.2</ele>
        <time>2024-01-28T08:57:39Z</time>
      </trkpt>
      <trkpt lat="46.50923" lon="0.3553">
        <ele>178.6</ele>
        <time>2024-01-28T08:57:43Z</time>
      </trkpt>
      <trkpt lat="46.50907" lon="0.35528">
        <ele>179.2</ele>
        <time>2024-01-28T08:57:47Z</time>
      </trkpt>
      <trkpt lat="46.509" lon="0.35522">
        <ele>179.2</ele>
        <time>2024-01-28T08:57:49Z</time>
      </trkpt>
      <trkpt lat="46.50895" lon="0.35515">
        <ele>179.4</ele>
        <time>2024-01-28T08:57:51Z</time>
      </trkpt>
      <trkpt lat="46.50881" lon="0.35495">
        <ele>179.8</ele>
        <time>2024-01-28T08:57:56Z</time>
      </trkpt>
      <trkpt lat="46.50861" lon="0.35471">
        <ele>180.2</ele>
        <time>2024-01-28T08:58:02Z</time>
      </trkpt>
      <trkpt lat="46.50853" lon="0.35467">
        <ele>180.4</ele>
        <time>2024-01-28T08:58:04Z</time>
      </trkpt>
      <trkpt lat="46.50846" lon="0.35468">
        <ele>180.6</ele>
        <time>2024-01-28T08:58:06Z</time>
      </trkpt>
      <trkpt lat="46.50843" lon="0.35467">
        <ele>180.6</ele>
        <time>2024-01-28T08:58:07Z</time>
      </trkpt>
      <trkpt lat="46.50838" lon="0.35461">
        <ele>181</ele>
        <time>2024-01-28T08:58:09Z</time>
      </trkpt>
      <trkpt lat="46.50834" lon="0.3544">
        <ele>181</ele>
        <time>2024-01-28T08:58:13Z</time>
      </trkpt>
      <trkpt lat="46.50834" lon="0.35408">
        <ele>180.4</ele>
        <time>2024-01-28T08:58:19Z</time>
      </trkpt>
      <trkpt lat="46.50832" lon="0.35401">
        <ele>180</ele>
        <time>2024-01-28T08:58:21Z</time>
      </trkpt>
      <trkpt lat="46.50833" lon="0.35381">
        <ele>179.8</ele>
        <time>2024-01-28T08:58:25Z</time>
      </trkpt>
      <trkpt lat="46.50834" lon="0.3537">
        <ele>179.6</ele>
        <time>2024-01-28T08:58:27Z</time>
      </trkpt>
      <trkpt lat="46.50834" lon="0.35364">
        <ele>178.8</ele>
        <time>2024-01-28T08:58:28Z</time>
      </trkpt>
      <trkpt lat="46.50835" lon="0.35352">
        <ele>178.2</ele>
        <time>2024-01-28T08:58:30Z</time>
      </trkpt>
      <trkpt lat="46.50835" lon="0.35343">
        <ele>178</ele>
        <time>2024-01-28T08:58:32Z</time>
      </trkpt>
      <trkpt lat="46.50838" lon="0.35338">
        <ele>178</ele>
        <time>2024-01-28T08:58:34Z</time>
      </trkpt>
      <trkpt lat="46.50845" lon="0.35324">
        <ele>177.8</ele>
        <time>2024-01-28T08:58:38Z</time>
      </trkpt>
      <trkpt lat="46.50846" lon="0.35321">
        <ele>177.8</ele>
        <time>2024-01-28T08:58:39Z</time>
      </trkpt>
      <trkpt lat="46.50847" lon="0.35314">
        <ele>177</ele>
        <time>2024-01-28T08:58:41Z</time>
      </trkpt>
      <trkpt lat="46.50843" lon="0.35311">
        <ele>176.8</ele>
        <time>2024-01-28T08:58:43Z</time>
      </trkpt>
      <trkpt lat="46.50841" lon="0.35311">
        <ele>176.8</ele>
        <time>2024-01-28T08:58:44Z</time>
      </trkpt>
      <trkpt lat="46.50833" lon="0.35311">
        <ele>176.6</ele>
        <time>2024-01-28T08:58:47Z</time>
      </trkpt>
      <trkpt lat="46.5083" lon="0.3531">
        <ele>176.6</ele>
        <time>2024-01-28T08:58:48Z</time>
      </trkpt>
      <trkpt lat="46.50821" lon="0.35309">
        <ele>176.4</ele>
        <time>2024-01-28T08:58:53Z</time>
      </trkpt>
      <trkpt lat="46.50812" lon="0.3531">
        <ele>176.4</ele>
        <time>2024-01-28T08:59:00Z</time>
      </trkpt>
      <trkpt lat="46.50803" lon="0.35311">
        <ele>176.6</ele>
        <time>2024-01-28T08:59:03Z</time>
      </trkpt>
      <trkpt lat="46.50797" lon="0.35312">
        <ele>177.2</ele>
        <time>2024-01-28T08:59:05Z</time>
      </trkpt>
      <trkpt lat="46.50793" lon="0.35312">
        <ele>177.4</ele>
        <time>2024-01-28T08:59:06Z</time>
      </trkpt>
      <trkpt lat="46.50786" lon="0.35311">
        <ele>177.4</ele>
        <time>2024-01-28T08:59:08Z</time>
      </trkpt>
      <trkpt lat="46.5078" lon="0.35309">
        <ele>177.2</ele>
        <time>2024-01-28T08:59:10Z</time>
      </trkpt>
      <trkpt lat="46.50777" lon="0.35308">
        <ele>177</ele>
        <time>2024-01-28T08:59:11Z</time>
      </trkpt>
      <trkpt lat="46.50772" lon="0.35309">
        <ele>177</ele>
        <time>2024-01-28T08:59:13Z</time>
      </trkpt>
      <trkpt lat="46.5077" lon="0.35315">
        <ele>176.8</ele>
        <time>2024-01-28T08:59:15Z</time>
      </trkpt>
      <trkpt lat="46.50765" lon="0.35328">
        <ele>177.4</ele>
        <time>2024-01-28T08:59:19Z</time>
      </trkpt>
      <trkpt lat="46.50763" lon="0.35329">
        <ele>177.6</ele>
        <time>2024-01-28T08:59:20Z</time>
      </trkpt>
      <trkpt lat="46.50761" lon="0.35329">
        <ele>177.8</ele>
        <time>2024-01-28T08:59:21Z</time>
      </trkpt>
      <trkpt lat="46.50754" lon="0.35327">
        <ele>178.4</ele>
        <time>2024-01-28T08:59:23Z</time>
      </trkpt>
      <trkpt lat="46.50752" lon="0.35325">
        <ele>178.4</ele>
        <time>2024-01-28T08:59:24Z</time>
      </trkpt>
      <trkpt lat="46.50751" lon="0.35323">
        <ele>178.6</ele>
        <time>2024-01-28T08:59:25Z</time>
      </trkpt>
      <trkpt lat="46.5075" lon="0.35313">
        <ele>178.6</ele>
        <time>2024-01-28T08:59:28Z</time>
      </trkpt>
      <trkpt lat="46.50747" lon="0.353">
        <ele>177.6</ele>
        <time>2024-01-28T08:59:32Z</time>
      </trkpt>
      <trkpt lat="46.50746" lon="0.35298">
        <ele>177.2</ele>
        <time>2024-01-28T08:59:33Z</time>
      </trkpt>
      <trkpt lat="46.50744" lon="0.35297">
        <ele>176.8</ele>
        <time>2024-01-28T08:59:34Z</time>
      </trkpt>
      <trkpt lat="46.50742" lon="0.35292">
        <ele>176.4</ele>
        <time>2024-01-28T08:59:36Z</time>
      </trkpt>
      <trkpt lat="46.5074" lon="0.35283">
        <ele>176</ele>
        <time>2024-01-28T08:59:39Z</time>
      </trkpt>
      <trkpt lat="46.50741" lon="0.3528">
        <ele>175.8</ele>
        <time>2024-01-28T08:59:40Z</time>
      </trkpt>
      <trkpt lat="46.50743" lon="0.35271">
        <ele>175.4</ele>
        <time>2024-01-28T08:59:43Z</time>
      </trkpt>
      <trkpt lat="46.50747" lon="0.35257">
        <ele>175</ele>
        <time>2024-01-28T08:59:47Z</time>
      </trkpt>
      <trkpt lat="46.50748" lon="0.35254">
        <ele>175</ele>
        <time>2024-01-28T08:59:48Z</time>
      </trkpt>
      <trkpt lat="46.50749" lon="0.35252">
        <ele>175</ele>
        <time>2024-01-28T08:59:50Z</time>
      </trkpt>
      <trkpt lat="46.50751" lon="0.35254">
        <ele>175</ele>
        <time>2024-01-28T08:59:52Z</time>
      </trkpt>
      <trkpt lat="46.50751" lon="0.35255">
        <ele>174.2</ele>
        <time>2024-01-28T08:59:53Z</time>
      </trkpt>
      <trkpt lat="46.50751" lon="0.35258">
        <ele>173</ele>
        <time>2024-01-28T08:59:56Z</time>
      </trkpt>
      <trkpt lat="46.50752" lon="0.35267">
        <ele>173.4</ele>
        <time>2024-01-28T08:59:59Z</time>
      </trkpt>
      <trkpt lat="46.5075" lon="0.35279">
        <ele>174.2</ele>
        <time>2024-01-28T09:00:03Z</time>
      </trkpt>
      <trkpt lat="46.50749" lon="0.35282">
        <ele>174.4</ele>
        <time>2024-01-28T09:00:04Z</time>
      </trkpt>
      <trkpt lat="46.50749" lon="0.3529">
        <ele>175.4</ele>
        <time>2024-01-28T09:00:08Z</time>
      </trkpt>
      <trkpt lat="46.5075" lon="0.35291">
        <ele>175.6</ele>
        <time>2024-01-28T09:00:09Z</time>
      </trkpt>
      <trkpt lat="46.50751" lon="0.35293">
        <ele>175.8</ele>
        <time>2024-01-28T09:00:10Z</time>
      </trkpt>
      <trkpt lat="46.50755" lon="0.35294">
        <ele>176.6</ele>
        <time>2024-01-28T09:00:14Z</time>
      </trkpt>
      <trkpt lat="46.50756" lon="0.35293">
        <ele>176.8</ele>
        <time>2024-01-28T09:00:16Z</time>
      </trkpt>
      <trkpt lat="46.50759" lon="0.3528">
        <ele>176.6</ele>
        <time>2024-01-28T09:00:21Z</time>
      </trkpt>
      <trkpt lat="46.50763" lon="0.35268">
        <ele>175.8</ele>
        <time>2024-01-28T09:00:26Z</time>
      </trkpt>
      <trkpt lat="46.50763" lon="0.35266">
        <ele>175.6</ele>
        <time>2024-01-28T09:00:27Z</time>
      </trkpt>
      <trkpt lat="46.50764" lon="0.35262">
        <ele>174.6</ele>
        <time>2024-01-28T09:00:30Z</time>
      </trkpt>
      <trkpt lat="46.50764" lon="0.35261">
        <ele>174.4</ele>
        <time>2024-01-28T09:00:31Z</time>
      </trkpt>
      <trkpt lat="46.50765" lon="0.35261">
        <ele>174.2</ele>
        <time>2024-01-28T09:00:32Z</time>
      </trkpt>
      <trkpt lat="46.50768" lon="0.35252">
        <ele>174</ele>
        <time>2024-01-28T09:00:38Z</time>
      </trkpt>
      <trkpt lat="46.50776" lon="0.35245">
        <ele>174</ele>
        <time>2024-01-28T09:00:43Z</time>
      </trkpt>
      <trkpt lat="46.50779" lon="0.35252">
        <ele>174</ele>
        <time>2024-01-28T09:00:48Z</time>
      </trkpt>
      <trkpt lat="46.50781" lon="0.35255">
        <ele>174.2</ele>
        <time>2024-01-28T09:00:50Z</time>
      </trkpt>
      <trkpt lat="46.50784" lon="0.35256">
        <ele>174.6</ele>
        <time>2024-01-28T09:00:52Z</time>
      </trkpt>
      <trkpt lat="46.50788" lon="0.35257">
        <ele>175</ele>
        <time>2024-01-28T09:00:55Z</time>
      </trkpt>
      <trkpt lat="46.50789" lon="0.3526">
        <ele>175.2</ele>
        <time>2024-01-28T09:00:57Z</time>
      </trkpt>
      <trkpt lat="46.5079" lon="0.35261">
        <ele>175.2</ele>
        <time>2024-01-28T09:00:58Z</time>
      </trkpt>
      <trkpt lat="46.5079" lon="0.35268">
        <ele>175.4</ele>
        <time>2024-01-28T09:01:02Z</time>
      </trkpt>
      <trkpt lat="46.50789" lon="0.3527">
        <ele>175.4</ele>
        <time>2024-01-28T09:01:03Z</time>
      </trkpt>
      <trkpt lat="46.50788" lon="0.35271">
        <ele>175.6</ele>
        <time>2024-01-28T09:01:04Z</time>
      </trkpt>
      <trkpt lat="46.50784" lon="0.35275">
        <ele>176</ele>
        <time>2024-01-28T09:01:08Z</time>
      </trkpt>
      <trkpt lat="46.50775" lon="0.35276">
        <ele>176</ele>
        <time>2024-01-28T09:01:13Z</time>
      </trkpt>
      <trkpt lat="46.50772" lon="0.35277">
        <ele>176</ele>
        <time>2024-01-28T09:01:15Z</time>
      </trkpt>
      <trkpt lat="46.5077" lon="0.35281">
        <ele>176</ele>
        <time>2024-01-28T09:01:17Z</time>
      </trkpt>
      <trkpt lat="46.50771" lon="0.35298">
        <ele>176.6</ele>
        <time>2024-01-28T09:01:22Z</time>
      </trkpt>
      <trkpt lat="46.50778" lon="0.35301">
        <ele>177.2</ele>
        <time>2024-01-28T09:01:26Z</time>
      </trkpt>
      <trkpt lat="46.50787" lon="0.35301">
        <ele>177.6</ele>
        <time>2024-01-28T09:01:30Z</time>
      </trkpt>
      <trkpt lat="46.50793" lon="0.35301">
        <ele>177.2</ele>
        <time>2024-01-28T09:01:32Z</time>
      </trkpt>
      <trkpt lat="46.50795" lon="0.35298">
        <ele>177</ele>
        <time>2024-01-28T09:01:34Z</time>
      </trkpt>
      <trkpt lat="46.50807" lon="0.35299">
        <ele>176.4</ele>
        <time>2024-01-28T09:01:39Z</time>
      </trkpt>
      <trkpt lat="46.50822" lon="0.35298">
        <ele>176.2</ele>
        <time>2024-01-28T09:01:44Z</time>
      </trkpt>
      <trkpt lat="46.50829" lon="0.35284">
        <ele>176.2</ele>
        <time>2024-01-28T09:01:49Z</time>
      </trkpt>
      <trkpt lat="46.50829" lon="0.35282">
        <ele>176.2</ele>
        <time>2024-01-28T09:01:50Z</time>
      </trkpt>
      <trkpt lat="46.50828" lon="0.35276">
        <ele>175.2</ele>
        <time>2024-01-28T09:01:52Z</time>
      </trkpt>
      <trkpt lat="46.50829" lon="0.35269">
        <ele>174.6</ele>
        <time>2024-01-28T09:01:54Z</time>
      </trkpt>
      <trkpt lat="46.50826" lon="0.35259">
        <ele>174.2</ele>
        <time>2024-01-28T09:01:57Z</time>
      </trkpt>
      <trkpt lat="46.50825" lon="0.35249">
        <ele>173.6</ele>
        <time>2024-01-28T09:02:00Z</time>
      </trkpt>
      <trkpt lat="46.50823" lon="0.35243">
        <ele>173</ele>
        <time>2024-01-28T09:02:02Z</time>
      </trkpt>
      <trkpt lat="46.50822" lon="0.3524">
        <ele>172.8</ele>
        <time>2024-01-28T09:02:03Z</time>
      </trkpt>
      <trkpt lat="46.50821" lon="0.35232">
        <ele>172.4</ele>
        <time>2024-01-28T09:02:05Z</time>
      </trkpt>
      <trkpt lat="46.50821" lon="0.35225">
        <ele>172</ele>
        <time>2024-01-28T09:02:07Z</time>
      </trkpt>
      <trkpt lat="46.50822" lon="0.35213">
        <ele>171.8</ele>
        <time>2024-01-28T09:02:10Z</time>
      </trkpt>
      <trkpt lat="46.50823" lon="0.3521">
        <ele>171.6</ele>
        <time>2024-01-28T09:02:11Z</time>
      </trkpt>
      <trkpt lat="46.50823" lon="0.35199">
        <ele>171</ele>
        <time>2024-01-28T09:02:14Z</time>
      </trkpt>
      <trkpt lat="46.50822" lon="0.35193">
        <ele>170.4</ele>
        <time>2024-01-28T09:02:16Z</time>
      </trkpt>
      <trkpt lat="46.50831" lon="0.35172">
        <ele>169.8</ele>
        <time>2024-01-28T09:02:21Z</time>
      </trkpt>
      <trkpt lat="46.50843" lon="0.35146">
        <ele>169.2</ele>
        <time>2024-01-28T09:02:25Z</time>
      </trkpt>
      <trkpt lat="46.50845" lon="0.3514">
        <ele>169.2</ele>
        <time>2024-01-28T09:02:26Z</time>
      </trkpt>
      <trkpt lat="46.50849" lon="0.35135">
        <ele>169.2</ele>
        <time>2024-01-28T09:02:27Z</time>
      </trkpt>
      <trkpt lat="46.50855" lon="0.35128">
        <ele>168.8</ele>
        <time>2024-01-28T09:02:29Z</time>
      </trkpt>
      <trkpt lat="46.50857" lon="0.35126">
        <ele>168.6</ele>
        <time>2024-01-28T09:02:30Z</time>
      </trkpt>
      <trkpt lat="46.5086" lon="0.35123">
        <ele>168.4</ele>
        <time>2024-01-28T09:02:32Z</time>
      </trkpt>
      <trkpt lat="46.50862" lon="0.35119">
        <ele>168.2</ele>
        <time>2024-01-28T09:02:34Z</time>
      </trkpt>
      <trkpt lat="46.50865" lon="0.35112">
        <ele>167.8</ele>
        <time>2024-01-28T09:02:38Z</time>
      </trkpt>
      <trkpt lat="46.5087" lon="0.35107">
        <ele>167.8</ele>
        <time>2024-01-28T09:02:42Z</time>
      </trkpt>
      <trkpt lat="46.50872" lon="0.35105">
        <ele>167.6</ele>
        <time>2024-01-28T09:02:46Z</time>
      </trkpt>
      <trkpt lat="46.50873" lon="0.35105">
        <ele>167.6</ele>
        <time>2024-01-28T09:02:47Z</time>
      </trkpt>
      <trkpt lat="46.50875" lon="0.35108">
        <ele>167.6</ele>
        <time>2024-01-28T09:02:50Z</time>
      </trkpt>
      <trkpt lat="46.50874" lon="0.35111">
        <ele>167.8</ele>
        <time>2024-01-28T09:02:54Z</time>
      </trkpt>
      <trkpt lat="46.50872" lon="0.35111">
        <ele>168</ele>
        <time>2024-01-28T09:02:56Z</time>
      </trkpt>
      <trkpt lat="46.50871" lon="0.35111">
        <ele>168</ele>
        <time>2024-01-28T09:02:57Z</time>
      </trkpt>
      <trkpt lat="46.50869" lon="0.35109">
        <ele>167.6</ele>
        <time>2024-01-28T09:03:03Z</time>
      </trkpt>
      <trkpt lat="46.50869" lon="0.35109">
        <ele>167.4</ele>
        <time>2024-01-28T09:03:25Z</time>
      </trkpt>
      <trkpt lat="46.50866" lon="0.35113">
        <ele>167.4</ele>
        <time>2024-01-28T09:03:30Z</time>
      </trkpt>
      <trkpt lat="46.50861" lon="0.3512">
        <ele>167.6</ele>
        <time>2024-01-28T09:03:38Z</time>
      </trkpt>
      <trkpt lat="46.50854" lon="0.35131">
        <ele>167.8</ele>
        <time>2024-01-28T09:03:47Z</time>
      </trkpt>
      <trkpt lat="46.50844" lon="0.35142">
        <ele>167.6</ele>
        <time>2024-01-28T09:03:56Z</time>
      </trkpt>
      <trkpt lat="46.50836" lon="0.35151">
        <ele>168.6</ele>
        <time>2024-01-28T09:04:05Z</time>
      </trkpt>
      <trkpt lat="46.50833" lon="0.35155">
        <ele>168.6</ele>
        <time>2024-01-28T09:04:09Z</time>
      </trkpt>
      <trkpt lat="46.50831" lon="0.35157">
        <ele>169</ele>
        <time>2024-01-28T09:04:13Z</time>
      </trkpt>
      <trkpt lat="46.50829" lon="0.35159">
        <ele>169</ele>
        <time>2024-01-28T09:04:28Z</time>
      </trkpt>
      <trkpt lat="46.50829" lon="0.35159">
        <ele>169.2</ele>
        <time>2024-01-28T09:05:00Z</time>
      </trkpt>
      <trkpt lat="46.5083" lon="0.35155">
        <ele>168.8</ele>
        <time>2024-01-28T09:05:13Z</time>
      </trkpt>
      <trkpt lat="46.50834" lon="0.35151">
        <ele>168.4</ele>
        <time>2024-01-28T09:05:17Z</time>
      </trkpt>
      <trkpt lat="46.50844" lon="0.35137">
        <ele>168</ele>
        <time>2024-01-28T09:05:26Z</time>
      </trkpt>
      <trkpt lat="46.50847" lon="0.35134">
        <ele>167.6</ele>
        <time>2024-01-28T09:05:29Z</time>
      </trkpt>
      <trkpt lat="46.50847" lon="0.35132">
        <ele>167.6</ele>
        <time>2024-01-28T09:05:30Z</time>
      </trkpt>
      <trkpt lat="46.50848" lon="0.35128">
        <ele>167.4</ele>
        <time>2024-01-28T09:05:32Z</time>
      </trkpt>
      <trkpt lat="46.5085" lon="0.35125">
        <ele>167.6</ele>
        <time>2024-01-28T09:05:34Z</time>
      </trkpt>
      <trkpt lat="46.50853" lon="0.35122">
        <ele>167.6</ele>
        <time>2024-01-28T09:05:36Z</time>
      </trkpt>
      <trkpt lat="46.50859" lon="0.35111">
        <ele>167.4</ele>
        <time>2024-01-28T09:05:42Z</time>
      </trkpt>
      <trkpt lat="46.50871" lon="0.35097">
        <ele>167.4</ele>
        <time>2024-01-28T09:05:50Z</time>
      </trkpt>
      <trkpt lat="46.50893" lon="0.35088">
        <ele>167</ele>
        <time>2024-01-28T09:06:00Z</time>
      </trkpt>
      <trkpt lat="46.50909" lon="0.35083">
        <ele>166.6</ele>
        <time>2024-01-28T09:06:08Z</time>
      </trkpt>
      <trkpt lat="46.50923" lon="0.35078">
        <ele>166.6</ele>
        <time>2024-01-28T09:06:15Z</time>
      </trkpt>
      <trkpt lat="46.50926" lon="0.35078">
        <ele>166.6</ele>
        <time>2024-01-28T09:06:16Z</time>
      </trkpt>
      <trkpt lat="46.50939" lon="0.35073">
        <ele>166.2</ele>
        <time>2024-01-28T09:06:22Z</time>
      </trkpt>
      <trkpt lat="46.50953" lon="0.35066">
        <ele>166.2</ele>
        <time>2024-01-28T09:06:28Z</time>
      </trkpt>
      <trkpt lat="46.50967" lon="0.35064">
        <ele>166.4</ele>
        <time>2024-01-28T09:06:35Z</time>
      </trkpt>
      <trkpt lat="46.50971" lon="0.35064">
        <ele>166.4</ele>
        <time>2024-01-28T09:06:37Z</time>
      </trkpt>
      <trkpt lat="46.50972" lon="0.35067">
        <ele>166.4</ele>
        <time>2024-01-28T09:06:39Z</time>
      </trkpt>
      <trkpt lat="46.50973" lon="0.35076">
        <ele>166.8</ele>
        <time>2024-01-28T09:06:43Z</time>
      </trkpt>
      <trkpt lat="46.50975" lon="0.35077">
        <ele>166.8</ele>
        <time>2024-01-28T09:06:44Z</time>
      </trkpt>
      <trkpt lat="46.50982" lon="0.35078">
        <ele>167.8</ele>
        <time>2024-01-28T09:06:48Z</time>
      </trkpt>
      <trkpt lat="46.50985" lon="0.35077">
        <ele>168.2</ele>
        <time>2024-01-28T09:06:49Z</time>
      </trkpt>
      <trkpt lat="46.50999" lon="0.35074">
        <ele>168.8</ele>
        <time>2024-01-28T09:06:54Z</time>
      </trkpt>
      <trkpt lat="46.51004" lon="0.35072">
        <ele>168.8</ele>
        <time>2024-01-28T09:06:56Z</time>
      </trkpt>
      <trkpt lat="46.51013" lon="0.35071">
        <ele>168.8</ele>
        <time>2024-01-28T09:07:00Z</time>
      </trkpt>
      <trkpt lat="46.51016" lon="0.35067">
        <ele>168.8</ele>
        <time>2024-01-28T09:07:02Z</time>
      </trkpt>
      <trkpt lat="46.51018" lon="0.35065">
        <ele>168.8</ele>
        <time>2024-01-28T09:07:03Z</time>
      </trkpt>
      <trkpt lat="46.51028" lon="0.35067">
        <ele>168.6</ele>
        <time>2024-01-28T09:07:06Z</time>
      </trkpt>
      <trkpt lat="46.5103" lon="0.35066">
        <ele>168.4</ele>
        <time>2024-01-28T09:07:07Z</time>
      </trkpt>
      <trkpt lat="46.51033" lon="0.35061">
        <ele>168.2</ele>
        <time>2024-01-28T09:07:09Z</time>
      </trkpt>
      <trkpt lat="46.51035" lon="0.35059">
        <ele>168.2</ele>
        <time>2024-01-28T09:07:10Z</time>
      </trkpt>
      <trkpt lat="46.51036" lon="0.35058">
        <ele>167.6</ele>
        <time>2024-01-28T09:07:11Z</time>
      </trkpt>
      <trkpt lat="46.51041" lon="0.35058">
        <ele>167</ele>
        <time>2024-01-28T09:07:13Z</time>
      </trkpt>
      <trkpt lat="46.51044" lon="0.35057">
        <ele>166.6</ele>
        <time>2024-01-28T09:07:14Z</time>
      </trkpt>
      <trkpt lat="46.51045" lon="0.35054">
        <ele>166.4</ele>
        <time>2024-01-28T09:07:15Z</time>
      </trkpt>
      <trkpt lat="46.51048" lon="0.35051">
        <ele>166.2</ele>
        <time>2024-01-28T09:07:17Z</time>
      </trkpt>
      <trkpt lat="46.5105" lon="0.35051">
        <ele>166</ele>
        <time>2024-01-28T09:07:18Z</time>
      </trkpt>
      <trkpt lat="46.51053" lon="0.35051">
        <ele>165.2</ele>
        <time>2024-01-28T09:07:20Z</time>
      </trkpt>
      <trkpt lat="46.51056" lon="0.35049">
        <ele>164.8</ele>
        <time>2024-01-28T09:07:22Z</time>
      </trkpt>
      <trkpt lat="46.51063" lon="0.35048">
        <ele>164.6</ele>
        <time>2024-01-28T09:07:25Z</time>
      </trkpt>
      <trkpt lat="46.51066" lon="0.35045">
        <ele>164.6</ele>
        <time>2024-01-28T09:07:27Z</time>
      </trkpt>
      <trkpt lat="46.51071" lon="0.35028">
        <ele>164</ele>
        <time>2024-01-28T09:07:33Z</time>
      </trkpt>
      <trkpt lat="46.51075" lon="0.35013">
        <ele>163.2</ele>
        <time>2024-01-28T09:07:38Z</time>
      </trkpt>
      <trkpt lat="46.51076" lon="0.35011">
        <ele>163</ele>
        <time>2024-01-28T09:07:39Z</time>
      </trkpt>
      <trkpt lat="46.51079" lon="0.35009">
        <ele>162.8</ele>
        <time>2024-01-28T09:07:40Z</time>
      </trkpt>
      <trkpt lat="46.51082" lon="0.35008">
        <ele>162.6</ele>
        <time>2024-01-28T09:07:41Z</time>
      </trkpt>
      <trkpt lat="46.5109" lon="0.35006">
        <ele>162.2</ele>
        <time>2024-01-28T09:07:44Z</time>
      </trkpt>
      <trkpt lat="46.51097" lon="0.35006">
        <ele>162</ele>
        <time>2024-01-28T09:07:47Z</time>
      </trkpt>
      <trkpt lat="46.51109" lon="0.35007">
        <ele>162</ele>
        <time>2024-01-28T09:07:52Z</time>
      </trkpt>
      <trkpt lat="46.51123" lon="0.35002">
        <ele>162</ele>
        <time>2024-01-28T09:07:57Z</time>
      </trkpt>
      <trkpt lat="46.51132" lon="0.34987">
        <ele>161.6</ele>
        <time>2024-01-28T09:08:01Z</time>
      </trkpt>
      <trkpt lat="46.51137" lon="0.34976">
        <ele>162.2</ele>
        <time>2024-01-28T09:08:05Z</time>
      </trkpt>
      <trkpt lat="46.51143" lon="0.34969">
        <ele>162.6</ele>
        <time>2024-01-28T09:08:09Z</time>
      </trkpt>
      <trkpt lat="46.51144" lon="0.34966">
        <ele>162.8</ele>
        <time>2024-01-28T09:08:10Z</time>
      </trkpt>
      <trkpt lat="46.51145" lon="0.34962">
        <ele>163.2</ele>
        <time>2024-01-28T09:08:11Z</time>
      </trkpt>
      <trkpt lat="46.51145" lon="0.34942">
        <ele>164.2</ele>
        <time>2024-01-28T09:08:15Z</time>
      </trkpt>
      <trkpt lat="46.51147" lon="0.34923">
        <ele>165.8</ele>
        <time>2024-01-28T09:08:20Z</time>
      </trkpt>
      <trkpt lat="46.51146" lon="0.34913">
        <ele>165.8</ele>
        <time>2024-01-28T09:08:21Z</time>
      </trkpt>
      <trkpt lat="46.51146" lon="0.34898">
        <ele>167.2</ele>
        <time>2024-01-28T09:08:24Z</time>
      </trkpt>
      <trkpt lat="46.51147" lon="0.34888">
        <ele>167.6</ele>
        <time>2024-01-28T09:08:26Z</time>
      </trkpt>
      <trkpt lat="46.51149" lon="0.34884">
        <ele>167.8</ele>
        <time>2024-01-28T09:08:27Z</time>
      </trkpt>
      <trkpt lat="46.51151" lon="0.34882">
        <ele>168</ele>
        <time>2024-01-28T09:08:28Z</time>
      </trkpt>
      <trkpt lat="46.51157" lon="0.3488">
        <ele>168.2</ele>
        <time>2024-01-28T09:08:30Z</time>
      </trkpt>
      <trkpt lat="46.5116" lon="0.34879">
        <ele>168.2</ele>
        <time>2024-01-28T09:08:31Z</time>
      </trkpt>
      <trkpt lat="46.51169" lon="0.34873">
        <ele>168.4</ele>
        <time>2024-01-28T09:08:34Z</time>
      </trkpt>
      <trkpt lat="46.51175" lon="0.34867">
        <ele>168.8</ele>
        <time>2024-01-28T09:08:37Z</time>
      </trkpt>
      <trkpt lat="46.51188" lon="0.34857">
        <ele>168.8</ele>
        <time>2024-01-28T09:08:42Z</time>
      </trkpt>
      <trkpt lat="46.51202" lon="0.34832">
        <ele>169</ele>
        <time>2024-01-28T09:08:49Z</time>
      </trkpt>
      <trkpt lat="46.51206" lon="0.34812">
        <ele>169.2</ele>
        <time>2024-01-28T09:08:54Z</time>
      </trkpt>
      <trkpt lat="46.51206" lon="0.34803">
        <ele>169.4</ele>
        <time>2024-01-28T09:08:56Z</time>
      </trkpt>
      <trkpt lat="46.51208" lon="0.34781">
        <ele>169.4</ele>
        <time>2024-01-28T09:09:02Z</time>
      </trkpt>
      <trkpt lat="46.51218" lon="0.3477">
        <ele>169.4</ele>
        <time>2024-01-28T09:09:07Z</time>
      </trkpt>
      <trkpt lat="46.51239" lon="0.34766">
        <ele>169</ele>
        <time>2024-01-28T09:09:13Z</time>
      </trkpt>
      <trkpt lat="46.51263" lon="0.34768">
        <ele>169</ele>
        <time>2024-01-28T09:09:19Z</time>
      </trkpt>
      <trkpt lat="46.51282" lon="0.34775">
        <ele>168.4</ele>
        <time>2024-01-28T09:09:25Z</time>
      </trkpt>
      <trkpt lat="46.51286" lon="0.34782">
        <ele>168.2</ele>
        <time>2024-01-28T09:09:27Z</time>
      </trkpt>
      <trkpt lat="46.51291" lon="0.34791">
        <ele>167.8</ele>
        <time>2024-01-28T09:09:30Z</time>
      </trkpt>
      <trkpt lat="46.51293" lon="0.34802">
        <ele>167.4</ele>
        <time>2024-01-28T09:09:34Z</time>
      </trkpt>
      <trkpt lat="46.51294" lon="0.34803">
        <ele>167.2</ele>
        <time>2024-01-28T09:09:35Z</time>
      </trkpt>
      <trkpt lat="46.51295" lon="0.34803">
        <ele>167</ele>
        <time>2024-01-28T09:09:36Z</time>
      </trkpt>
      <trkpt lat="46.51298" lon="0.34802">
        <ele>167</ele>
        <time>2024-01-28T09:09:38Z</time>
      </trkpt>
      <trkpt lat="46.513" lon="0.34803">
        <ele>167</ele>
        <time>2024-01-28T09:09:39Z</time>
      </trkpt>
      <trkpt lat="46.51306" lon="0.34807">
        <ele>166.8</ele>
        <time>2024-01-28T09:09:43Z</time>
      </trkpt>
      <trkpt lat="46.51308" lon="0.34814">
        <ele>166.4</ele>
        <time>2024-01-28T09:09:46Z</time>
      </trkpt>
      <trkpt lat="46.51312" lon="0.34818">
        <ele>166.4</ele>
        <time>2024-01-28T09:09:48Z</time>
      </trkpt>
      <trkpt lat="46.51315" lon="0.34819">
        <ele>166.2</ele>
        <time>2024-01-28T09:09:49Z</time>
      </trkpt>
      <trkpt lat="46.51321" lon="0.3482">
        <ele>165.4</ele>
        <time>2024-01-28T09:09:52Z</time>
      </trkpt>
      <trkpt lat="46.51324" lon="0.34819">
        <ele>165.2</ele>
        <time>2024-01-28T09:09:54Z</time>
      </trkpt>
      <trkpt lat="46.51331" lon="0.34822">
        <ele>164.8</ele>
        <time>2024-01-28T09:09:58Z</time>
      </trkpt>
      <trkpt lat="46.51333" lon="0.34823">
        <ele>164.6</ele>
        <time>2024-01-28T09:09:59Z</time>
      </trkpt>
      <trkpt lat="46.51342" lon="0.34831">
        <ele>164</ele>
        <time>2024-01-28T09:10:03Z</time>
      </trkpt>
      <trkpt lat="46.51346" lon="0.34833">
        <ele>163.4</ele>
        <time>2024-01-28T09:10:05Z</time>
      </trkpt>
      <trkpt lat="46.51351" lon="0.34836">
        <ele>162.8</ele>
        <time>2024-01-28T09:10:07Z</time>
      </trkpt>
      <trkpt lat="46.51353" lon="0.34837">
        <ele>162.6</ele>
        <time>2024-01-28T09:10:08Z</time>
      </trkpt>
      <trkpt lat="46.51358" lon="0.34841">
        <ele>161.4</ele>
        <time>2024-01-28T09:10:11Z</time>
      </trkpt>
      <trkpt lat="46.51363" lon="0.34844">
        <ele>160.2</ele>
        <time>2024-01-28T09:10:14Z</time>
      </trkpt>
      <trkpt lat="46.51365" lon="0.34845">
        <ele>159.6</ele>
        <time>2024-01-28T09:10:15Z</time>
      </trkpt>
      <trkpt lat="46.51367" lon="0.34845">
        <ele>159.4</ele>
        <time>2024-01-28T09:10:16Z</time>
      </trkpt>
      <trkpt lat="46.5137" lon="0.34844">
        <ele>159.2</ele>
        <time>2024-01-28T09:10:17Z</time>
      </trkpt>
      <trkpt lat="46.51375" lon="0.34843">
        <ele>157.8</ele>
        <time>2024-01-28T09:10:19Z</time>
      </trkpt>
      <trkpt lat="46.51375" lon="0.34843">
        <ele>157.6</ele>
        <time>2024-01-28T09:10:20Z</time>
      </trkpt>
      <trkpt lat="46.51377" lon="0.3484">
        <ele>157.4</ele>
        <time>2024-01-28T09:10:21Z</time>
      </trkpt>
      <trkpt lat="46.5138" lon="0.34834">
        <ele>157.6</ele>
        <time>2024-01-28T09:10:24Z</time>
      </trkpt>
      <trkpt lat="46.51385" lon="0.34825">
        <ele>158.4</ele>
        <time>2024-01-28T09:10:30Z</time>
      </trkpt>
      <trkpt lat="46.5139" lon="0.34812">
        <ele>157.8</ele>
        <time>2024-01-28T09:10:36Z</time>
      </trkpt>
      <trkpt lat="46.51394" lon="0.34797">
        <ele>157.6</ele>
        <time>2024-01-28T09:10:41Z</time>
      </trkpt>
      <trkpt lat="46.51397" lon="0.34779">
        <ele>156.6</ele>
        <time>2024-01-28T09:10:46Z</time>
      </trkpt>
      <trkpt lat="46.51399" lon="0.34777">
        <ele>156.6</ele>
        <time>2024-01-28T09:10:47Z</time>
      </trkpt>
      <trkpt lat="46.51404" lon="0.3477">
        <ele>155.6</ele>
        <time>2024-01-28T09:10:52Z</time>
      </trkpt>
      <trkpt lat="46.51404" lon="0.3477">
        <ele>155.6</ele>
        <time>2024-01-28T09:10:53Z</time>
      </trkpt>
      <trkpt lat="46.51407" lon="0.34764">
        <ele>155</ele>
        <time>2024-01-28T09:11:05Z</time>
      </trkpt>
      <trkpt lat="46.51409" lon="0.34762">
        <ele>154.6</ele>
        <time>2024-01-28T09:11:07Z</time>
      </trkpt>
      <trkpt lat="46.5141" lon="0.34757">
        <ele>154</ele>
        <time>2024-01-28T09:11:11Z</time>
      </trkpt>
      <trkpt lat="46.51412" lon="0.34752">
        <ele>153.6</ele>
        <time>2024-01-28T09:11:15Z</time>
      </trkpt>
      <trkpt lat="46.51412" lon="0.34751">
        <ele>153.4</ele>
        <time>2024-01-28T09:11:16Z</time>
      </trkpt>
      <trkpt lat="46.51412" lon="0.34748">
        <ele>152.8</ele>
        <time>2024-01-28T09:11:18Z</time>
      </trkpt>
      <trkpt lat="46.51416" lon="0.34737">
        <ele>152.4</ele>
        <time>2024-01-28T09:11:24Z</time>
      </trkpt>
      <trkpt lat="46.51418" lon="0.34729">
        <ele>152.2</ele>
        <time>2024-01-28T09:11:27Z</time>
      </trkpt>
      <trkpt lat="46.5142" lon="0.34709">
        <ele>152.2</ele>
        <time>2024-01-28T09:11:34Z</time>
      </trkpt>
      <trkpt lat="46.51421" lon="0.34704">
        <ele>152.6</ele>
        <time>2024-01-28T09:11:36Z</time>
      </trkpt>
      <trkpt lat="46.51421" lon="0.34696">
        <ele>153</ele>
        <time>2024-01-28T09:11:39Z</time>
      </trkpt>
      <trkpt lat="46.51425" lon="0.34683">
        <ele>153.2</ele>
        <time>2024-01-28T09:11:44Z</time>
      </trkpt>
      <trkpt lat="46.51426" lon="0.34682">
        <ele>153.2</ele>
        <time>2024-01-28T09:11:45Z</time>
      </trkpt>
      <trkpt lat="46.51428" lon="0.34678">
        <ele>153.2</ele>
        <time>2024-01-28T09:11:47Z</time>
      </trkpt>
      <trkpt lat="46.51431" lon="0.34675">
        <ele>153.2</ele>
        <time>2024-01-28T09:11:49Z</time>
      </trkpt>
      <trkpt lat="46.51437" lon="0.34673">
        <ele>152.8</ele>
        <time>2024-01-28T09:11:51Z</time>
      </trkpt>
      <trkpt lat="46.51443" lon="0.34669">
        <ele>151.2</ele>
        <time>2024-01-28T09:11:53Z</time>
      </trkpt>
      <trkpt lat="46.51444" lon="0.34667">
        <ele>150.2</ele>
        <time>2024-01-28T09:11:54Z</time>
      </trkpt>
      <trkpt lat="46.51445" lon="0.34664">
        <ele>148.8</ele>
        <time>2024-01-28T09:11:55Z</time>
      </trkpt>
      <trkpt lat="46.51445" lon="0.34658">
        <ele>147.6</ele>
        <time>2024-01-28T09:11:57Z</time>
      </trkpt>
      <trkpt lat="46.51448" lon="0.34655">
        <ele>146.8</ele>
        <time>2024-01-28T09:11:59Z</time>
      </trkpt>
      <trkpt lat="46.51449" lon="0.34654">
        <ele>146.6</ele>
        <time>2024-01-28T09:12:01Z</time>
      </trkpt>
      <trkpt lat="46.5145" lon="0.34653">
        <ele>146.6</ele>
        <time>2024-01-28T09:12:02Z</time>
      </trkpt>
      <trkpt lat="46.51453" lon="0.34651">
        <ele>146.4</ele>
        <time>2024-01-28T09:12:14Z</time>
      </trkpt>
      <trkpt lat="46.51456" lon="0.34644">
        <ele>146.2</ele>
        <time>2024-01-28T09:12:23Z</time>
      </trkpt>
      <trkpt lat="46.51458" lon="0.3464">
        <ele>146.2</ele>
        <time>2024-01-28T09:12:25Z</time>
      </trkpt>
      <trkpt lat="46.51465" lon="0.34618">
        <ele>146.2</ele>
        <time>2024-01-28T09:12:33Z</time>
      </trkpt>
      <trkpt lat="46.51471" lon="0.34594">
        <ele>145.8</ele>
        <time>2024-01-28T09:12:39Z</time>
      </trkpt>
      <trkpt lat="46.51472" lon="0.34583">
        <ele>145.4</ele>
        <time>2024-01-28T09:12:41Z</time>
      </trkpt>
      <trkpt lat="46.51473" lon="0.34578">
        <ele>145</ele>
        <time>2024-01-28T09:12:42Z</time>
      </trkpt>
      <trkpt lat="46.51476" lon="0.34568">
        <ele>144.6</ele>
        <time>2024-01-28T09:12:44Z</time>
      </trkpt>
      <trkpt lat="46.51479" lon="0.3456">
        <ele>144.4</ele>
        <time>2024-01-28T09:12:46Z</time>
      </trkpt>
      <trkpt lat="46.51486" lon="0.34546">
        <ele>144.8</ele>
        <time>2024-01-28T09:12:50Z</time>
      </trkpt>
      <trkpt lat="46.51493" lon="0.34534">
        <ele>145.8</ele>
        <time>2024-01-28T09:12:55Z</time>
      </trkpt>
      <trkpt lat="46.51498" lon="0.34531">
        <ele>145.6</ele>
        <time>2024-01-28T09:13:00Z</time>
      </trkpt>
      <trkpt lat="46.51501" lon="0.34528">
        <ele>145.8</ele>
        <time>2024-01-28T09:13:11Z</time>
      </trkpt>
      <trkpt lat="46.51508" lon="0.34517">
        <ele>145.8</ele>
        <time>2024-01-28T09:13:15Z</time>
      </trkpt>
      <trkpt lat="46.51517" lon="0.34503">
        <ele>145.8</ele>
        <time>2024-01-28T09:13:20Z</time>
      </trkpt>
      <trkpt lat="46.5153" lon="0.34483">
        <ele>145.2</ele>
        <time>2024-01-28T09:13:25Z</time>
      </trkpt>
      <trkpt lat="46.51537" lon="0.34473">
        <ele>145</ele>
        <time>2024-01-28T09:13:27Z</time>
      </trkpt>
      <trkpt lat="46.51553" lon="0.34453">
        <ele>144.2</ele>
        <time>2024-01-28T09:13:31Z</time>
      </trkpt>
      <trkpt lat="46.51583" lon="0.34419">
        <ele>143.2</ele>
        <time>2024-01-28T09:13:37Z</time>
      </trkpt>
      <trkpt lat="46.51612" lon="0.34384">
        <ele>142.2</ele>
        <time>2024-01-28T09:13:43Z</time>
      </trkpt>
      <trkpt lat="46.51633" lon="0.34359">
        <ele>140.8</ele>
        <time>2024-01-28T09:13:47Z</time>
      </trkpt>
      <trkpt lat="46.5164" lon="0.34353">
        <ele>140</ele>
        <time>2024-01-28T09:13:48Z</time>
      </trkpt>
      <trkpt lat="46.51646" lon="0.34346">
        <ele>139</ele>
        <time>2024-01-28T09:13:49Z</time>
      </trkpt>
      <trkpt lat="46.51652" lon="0.34339">
        <ele>137.8</ele>
        <time>2024-01-28T09:13:50Z</time>
      </trkpt>
      <trkpt lat="46.51657" lon="0.34331">
        <ele>137.2</ele>
        <time>2024-01-28T09:13:51Z</time>
      </trkpt>
      <trkpt lat="46.5166" lon="0.34323">
        <ele>136.2</ele>
        <time>2024-01-28T09:13:52Z</time>
      </trkpt>
      <trkpt lat="46.51663" lon="0.34316">
        <ele>135.6</ele>
        <time>2024-01-28T09:13:53Z</time>
      </trkpt>
      <trkpt lat="46.51664" lon="0.34309">
        <ele>134.8</ele>
        <time>2024-01-28T09:13:54Z</time>
      </trkpt>
      <trkpt lat="46.51665" lon="0.34302">
        <ele>133.8</ele>
        <time>2024-01-28T09:13:55Z</time>
      </trkpt>
      <trkpt lat="46.51665" lon="0.34295">
        <ele>132.8</ele>
        <time>2024-01-28T09:13:56Z</time>
      </trkpt>
      <trkpt lat="46.51665" lon="0.34291">
        <ele>131.6</ele>
        <time>2024-01-28T09:13:57Z</time>
      </trkpt>
      <trkpt lat="46.51665" lon="0.34287">
        <ele>130.8</ele>
        <time>2024-01-28T09:13:58Z</time>
      </trkpt>
      <trkpt lat="46.51665" lon="0.34285">
        <ele>130.4</ele>
        <time>2024-01-28T09:13:59Z</time>
      </trkpt>
      <trkpt lat="46.51667" lon="0.34283">
        <ele>130.2</ele>
        <time>2024-01-28T09:14:00Z</time>
      </trkpt>
      <trkpt lat="46.51673" lon="0.34282">
        <ele>129.8</ele>
        <time>2024-01-28T09:14:02Z</time>
      </trkpt>
      <trkpt lat="46.51676" lon="0.34285">
        <ele>129.6</ele>
        <time>2024-01-28T09:14:03Z</time>
      </trkpt>
      <trkpt lat="46.51683" lon="0.3429">
        <ele>129.4</ele>
        <time>2024-01-28T09:14:05Z</time>
      </trkpt>
      <trkpt lat="46.51697" lon="0.343">
        <ele>130</ele>
        <time>2024-01-28T09:14:09Z</time>
      </trkpt>
      <trkpt lat="46.51708" lon="0.34304">
        <ele>130.6</ele>
        <time>2024-01-28T09:14:12Z</time>
      </trkpt>
      <trkpt lat="46.51718" lon="0.34305">
        <ele>131</ele>
        <time>2024-01-28T09:14:15Z</time>
      </trkpt>
      <trkpt lat="46.51732" lon="0.34305">
        <ele>131.2</ele>
        <time>2024-01-28T09:14:20Z</time>
      </trkpt>
      <trkpt lat="46.51735" lon="0.34306">
        <ele>131</ele>
        <time>2024-01-28T09:14:21Z</time>
      </trkpt>
      <trkpt lat="46.51755" lon="0.34313">
        <ele>129.6</ele>
        <time>2024-01-28T09:14:27Z</time>
      </trkpt>
      <trkpt lat="46.51758" lon="0.34314">
        <ele>129.2</ele>
        <time>2024-01-28T09:14:28Z</time>
      </trkpt>
      <trkpt lat="46.51767" lon="0.34317">
        <ele>128.4</ele>
        <time>2024-01-28T09:14:30Z</time>
      </trkpt>
      <trkpt lat="46.51779" lon="0.34323">
        <ele>127.2</ele>
        <time>2024-01-28T09:14:33Z</time>
      </trkpt>
      <trkpt lat="46.51788" lon="0.34324">
        <ele>127</ele>
        <time>2024-01-28T09:14:35Z</time>
      </trkpt>
      <trkpt lat="46.51805" lon="0.34321">
        <ele>126</ele>
        <time>2024-01-28T09:14:39Z</time>
      </trkpt>
      <trkpt lat="46.51814" lon="0.34319">
        <ele>125.4</ele>
        <time>2024-01-28T09:14:41Z</time>
      </trkpt>
      <trkpt lat="46.51818" lon="0.34317">
        <ele>125.2</ele>
        <time>2024-01-28T09:14:42Z</time>
      </trkpt>
      <trkpt lat="46.51834" lon="0.34306">
        <ele>125</ele>
        <time>2024-01-28T09:14:46Z</time>
      </trkpt>
      <trkpt lat="46.51846" lon="0.34296">
        <ele>124.6</ele>
        <time>2024-01-28T09:14:49Z</time>
      </trkpt>
      <trkpt lat="46.51864" lon="0.34283">
        <ele>123.8</ele>
        <time>2024-01-28T09:14:53Z</time>
      </trkpt>
      <trkpt lat="46.51884" lon="0.3427">
        <ele>123.6</ele>
        <time>2024-01-28T09:14:57Z</time>
      </trkpt>
      <trkpt lat="46.51908" lon="0.3426">
        <ele>122.8</ele>
        <time>2024-01-28T09:15:02Z</time>
      </trkpt>
      <trkpt lat="46.51912" lon="0.34259">
        <ele>122.6</ele>
        <time>2024-01-28T09:15:03Z</time>
      </trkpt>
      <trkpt lat="46.51937" lon="0.34254">
        <ele>122.4</ele>
        <time>2024-01-28T09:15:09Z</time>
      </trkpt>
      <trkpt lat="46.51949" lon="0.34253">
        <ele>122.4</ele>
        <time>2024-01-28T09:15:12Z</time>
      </trkpt>
      <trkpt lat="46.51958" lon="0.34253">
        <ele>122.2</ele>
        <time>2024-01-28T09:15:14Z</time>
      </trkpt>
      <trkpt lat="46.51967" lon="0.34253">
        <ele>122.4</ele>
        <time>2024-01-28T09:15:16Z</time>
      </trkpt>
      <trkpt lat="46.51976" lon="0.34255">
        <ele>122.2</ele>
        <time>2024-01-28T09:15:18Z</time>
      </trkpt>
      <trkpt lat="46.51979" lon="0.3426">
        <ele>122.4</ele>
        <time>2024-01-28T09:15:19Z</time>
      </trkpt>
      <trkpt lat="46.5198" lon="0.34264">
        <ele>122.4</ele>
        <time>2024-01-28T09:15:20Z</time>
      </trkpt>
      <trkpt lat="46.5198" lon="0.34277">
        <ele>122.6</ele>
        <time>2024-01-28T09:15:23Z</time>
      </trkpt>
      <trkpt lat="46.51984" lon="0.3429">
        <ele>124.2</ele>
        <time>2024-01-28T09:15:26Z</time>
      </trkpt>
      <trkpt lat="46.51989" lon="0.34298">
        <ele>125.2</ele>
        <time>2024-01-28T09:15:28Z</time>
      </trkpt>
      <trkpt lat="46.51993" lon="0.34305">
        <ele>126.4</ele>
        <time>2024-01-28T09:15:30Z</time>
      </trkpt>
      <trkpt lat="46.51997" lon="0.34311">
        <ele>128.2</ele>
        <time>2024-01-28T09:15:32Z</time>
      </trkpt>
      <trkpt lat="46.52001" lon="0.34318">
        <ele>129.2</ele>
        <time>2024-01-28T09:15:34Z</time>
      </trkpt>
      <trkpt lat="46.52003" lon="0.34322">
        <ele>129.6</ele>
        <time>2024-01-28T09:15:35Z</time>
      </trkpt>
      <trkpt lat="46.52009" lon="0.34324">
        <ele>130.8</ele>
        <time>2024-01-28T09:15:37Z</time>
      </trkpt>
      <trkpt lat="46.52032" lon="0.34321">
        <ele>131.6</ele>
        <time>2024-01-28T09:15:42Z</time>
      </trkpt>
      <trkpt lat="46.52041" lon="0.3432">
        <ele>131.8</ele>
        <time>2024-01-28T09:15:44Z</time>
      </trkpt>
      <trkpt lat="46.52056" lon="0.34316">
        <ele>133</ele>
        <time>2024-01-28T09:15:48Z</time>
      </trkpt>
      <trkpt lat="46.52067" lon="0.34313">
        <ele>134</ele>
        <time>2024-01-28T09:15:51Z</time>
      </trkpt>
      <trkpt lat="46.52078" lon="0.34314">
        <ele>135.2</ele>
        <time>2024-01-28T09:15:54Z</time>
      </trkpt>
      <trkpt lat="46.52091" lon="0.34311">
        <ele>136.2</ele>
        <time>2024-01-28T09:15:58Z</time>
      </trkpt>
      <trkpt lat="46.52097" lon="0.34308">
        <ele>136.6</ele>
        <time>2024-01-28T09:16:00Z</time>
      </trkpt>
      <trkpt lat="46.52109" lon="0.34308">
        <ele>137.2</ele>
        <time>2024-01-28T09:16:04Z</time>
      </trkpt>
      <trkpt lat="46.52111" lon="0.34308">
        <ele>137.2</ele>
        <time>2024-01-28T09:16:05Z</time>
      </trkpt>
      <trkpt lat="46.52123" lon="0.34304">
        <ele>137.2</ele>
        <time>2024-01-28T09:16:09Z</time>
      </trkpt>
      <trkpt lat="46.52127" lon="0.34304">
        <ele>136.8</ele>
        <time>2024-01-28T09:16:10Z</time>
      </trkpt>
      <trkpt lat="46.52131" lon="0.34305">
        <ele>136</ele>
        <time>2024-01-28T09:16:11Z</time>
      </trkpt>
      <trkpt lat="46.5214" lon="0.3431">
        <ele>134.8</ele>
        <time>2024-01-28T09:16:13Z</time>
      </trkpt>
      <trkpt lat="46.52144" lon="0.34313">
        <ele>134.2</ele>
        <time>2024-01-28T09:16:14Z</time>
      </trkpt>
      <trkpt lat="46.52148" lon="0.34315">
        <ele>133.8</ele>
        <time>2024-01-28T09:16:15Z</time>
      </trkpt>
      <trkpt lat="46.52155" lon="0.3432">
        <ele>133.6</ele>
        <time>2024-01-28T09:16:17Z</time>
      </trkpt>
      <trkpt lat="46.52161" lon="0.34323">
        <ele>133.8</ele>
        <time>2024-01-28T09:16:19Z</time>
      </trkpt>
      <trkpt lat="46.52171" lon="0.34327">
        <ele>134.8</ele>
        <time>2024-01-28T09:16:22Z</time>
      </trkpt>
      <trkpt lat="46.52187" lon="0.34332">
        <ele>135</ele>
        <time>2024-01-28T09:16:26Z</time>
      </trkpt>
      <trkpt lat="46.52199" lon="0.34335">
        <ele>135</ele>
        <time>2024-01-28T09:16:30Z</time>
      </trkpt>
      <trkpt lat="46.52202" lon="0.34334">
        <ele>135</ele>
        <time>2024-01-28T09:16:31Z</time>
      </trkpt>
      <trkpt lat="46.52206" lon="0.34334">
        <ele>135.2</ele>
        <time>2024-01-28T09:16:32Z</time>
      </trkpt>
      <trkpt lat="46.52219" lon="0.3433">
        <ele>136.2</ele>
        <time>2024-01-28T09:16:36Z</time>
      </trkpt>
      <trkpt lat="46.52222" lon="0.3433">
        <ele>136.4</ele>
        <time>2024-01-28T09:16:37Z</time>
      </trkpt>
      <trkpt lat="46.52241" lon="0.34329">
        <ele>137.2</ele>
        <time>2024-01-28T09:16:42Z</time>
      </trkpt>
      <trkpt lat="46.52265" lon="0.34321">
        <ele>137.4</ele>
        <time>2024-01-28T09:16:48Z</time>
      </trkpt>
      <trkpt lat="46.52287" lon="0.34313">
        <ele>138.4</ele>
        <time>2024-01-28T09:16:53Z</time>
      </trkpt>
      <trkpt lat="46.52293" lon="0.34308">
        <ele>139.8</ele>
        <time>2024-01-28T09:16:56Z</time>
      </trkpt>
      <trkpt lat="46.52294" lon="0.34307">
        <ele>140.4</ele>
        <time>2024-01-28T09:16:57Z</time>
      </trkpt>
      <trkpt lat="46.52295" lon="0.34306">
        <ele>140.8</ele>
        <time>2024-01-28T09:16:59Z</time>
      </trkpt>
      <trkpt lat="46.52297" lon="0.34305">
        <ele>140.8</ele>
        <time>2024-01-28T09:17:00Z</time>
      </trkpt>
      <trkpt lat="46.52305" lon="0.34302">
        <ele>141.8</ele>
        <time>2024-01-28T09:17:07Z</time>
      </trkpt>
      <trkpt lat="46.52306" lon="0.34301">
        <ele>142</ele>
        <time>2024-01-28T09:17:08Z</time>
      </trkpt>
      <trkpt lat="46.52312" lon="0.343">
        <ele>142.6</ele>
        <time>2024-01-28T09:17:17Z</time>
      </trkpt>
      <trkpt lat="46.52326" lon="0.34302">
        <ele>143.2</ele>
        <time>2024-01-28T09:17:26Z</time>
      </trkpt>
      <trkpt lat="46.52335" lon="0.34302">
        <ele>144</ele>
        <time>2024-01-28T09:17:32Z</time>
      </trkpt>
      <trkpt lat="46.52341" lon="0.34299">
        <ele>144.6</ele>
        <time>2024-01-28T09:17:35Z</time>
      </trkpt>
      <trkpt lat="46.52348" lon="0.34296">
        <ele>145.8</ele>
        <time>2024-01-28T09:17:38Z</time>
      </trkpt>
      <trkpt lat="46.5235" lon="0.34295">
        <ele>146</ele>
        <time>2024-01-28T09:17:39Z</time>
      </trkpt>
      <trkpt lat="46.52361" lon="0.34286">
        <ele>146.4</ele>
        <time>2024-01-28T09:17:45Z</time>
      </trkpt>
      <trkpt lat="46.52364" lon="0.34285">
        <ele>146.8</ele>
        <time>2024-01-28T09:17:46Z</time>
      </trkpt>
      <trkpt lat="46.5237" lon="0.34283">
        <ele>148</ele>
        <time>2024-01-28T09:17:49Z</time>
      </trkpt>
      <trkpt lat="46.52372" lon="0.34281">
        <ele>148.2</ele>
        <time>2024-01-28T09:17:50Z</time>
      </trkpt>
      <trkpt lat="46.52378" lon="0.34278">
        <ele>149.2</ele>
        <time>2024-01-28T09:17:53Z</time>
      </trkpt>
      <trkpt lat="46.52387" lon="0.34273">
        <ele>150.4</ele>
        <time>2024-01-28T09:17:58Z</time>
      </trkpt>
      <trkpt lat="46.52396" lon="0.34271">
        <ele>151.4</ele>
        <time>2024-01-28T09:18:03Z</time>
      </trkpt>
      <trkpt lat="46.52397" lon="0.34269">
        <ele>151.8</ele>
        <time>2024-01-28T09:18:04Z</time>
      </trkpt>
      <trkpt lat="46.52402" lon="0.34267">
        <ele>152.6</ele>
        <time>2024-01-28T09:18:07Z</time>
      </trkpt>
      <trkpt lat="46.52414" lon="0.34263">
        <ele>154</ele>
        <time>2024-01-28T09:18:13Z</time>
      </trkpt>
      <trkpt lat="46.52417" lon="0.34263">
        <ele>154.6</ele>
        <time>2024-01-28T09:18:15Z</time>
      </trkpt>
      <trkpt lat="46.5242" lon="0.34256">
        <ele>154.8</ele>
        <time>2024-01-28T09:18:18Z</time>
      </trkpt>
      <trkpt lat="46.52424" lon="0.34248">
        <ele>155</ele>
        <time>2024-01-28T09:18:21Z</time>
      </trkpt>
      <trkpt lat="46.5243" lon="0.34237">
        <ele>155.2</ele>
        <time>2024-01-28T09:18:24Z</time>
      </trkpt>
      <trkpt lat="46.52437" lon="0.34219">
        <ele>154.6</ele>
        <time>2024-01-28T09:18:30Z</time>
      </trkpt>
      <trkpt lat="46.52445" lon="0.34192">
        <ele>154</ele>
        <time>2024-01-28T09:18:35Z</time>
      </trkpt>
      <trkpt lat="46.52459" lon="0.34165">
        <ele>152.6</ele>
        <time>2024-01-28T09:18:40Z</time>
      </trkpt>
      <trkpt lat="46.52469" lon="0.34142">
        <ele>151.4</ele>
        <time>2024-01-28T09:18:43Z</time>
      </trkpt>
      <trkpt lat="46.52476" lon="0.34124">
        <ele>150.2</ele>
        <time>2024-01-28T09:18:45Z</time>
      </trkpt>
      <trkpt lat="46.5248" lon="0.34113">
        <ele>149</ele>
        <time>2024-01-28T09:18:46Z</time>
      </trkpt>
      <trkpt lat="46.52488" lon="0.34091">
        <ele>147.4</ele>
        <time>2024-01-28T09:18:48Z</time>
      </trkpt>
      <trkpt lat="46.52495" lon="0.34073">
        <ele>145.8</ele>
        <time>2024-01-28T09:18:50Z</time>
      </trkpt>
      <trkpt lat="46.52505" lon="0.3406">
        <ele>143.8</ele>
        <time>2024-01-28T09:18:52Z</time>
      </trkpt>
      <trkpt lat="46.5251" lon="0.34056">
        <ele>143</ele>
        <time>2024-01-28T09:18:53Z</time>
      </trkpt>
      <trkpt lat="46.52515" lon="0.34052">
        <ele>142.4</ele>
        <time>2024-01-28T09:18:54Z</time>
      </trkpt>
      <trkpt lat="46.52519" lon="0.34049">
        <ele>141.8</ele>
        <time>2024-01-28T09:18:55Z</time>
      </trkpt>
      <trkpt lat="46.52524" lon="0.34047">
        <ele>141.2</ele>
        <time>2024-01-28T09:18:56Z</time>
      </trkpt>
      <trkpt lat="46.52528" lon="0.34046">
        <ele>140.6</ele>
        <time>2024-01-28T09:18:57Z</time>
      </trkpt>
      <trkpt lat="46.52533" lon="0.34044">
        <ele>139.8</ele>
        <time>2024-01-28T09:18:58Z</time>
      </trkpt>
      <trkpt lat="46.52547" lon="0.3404">
        <ele>138.4</ele>
        <time>2024-01-28T09:19:01Z</time>
      </trkpt>
      <trkpt lat="46.52563" lon="0.34037">
        <ele>137</ele>
        <time>2024-01-28T09:19:04Z</time>
      </trkpt>
      <trkpt lat="46.52574" lon="0.34035">
        <ele>135.8</ele>
        <time>2024-01-28T09:19:06Z</time>
      </trkpt>
      <trkpt lat="46.52591" lon="0.34032">
        <ele>134.8</ele>
        <time>2024-01-28T09:19:09Z</time>
      </trkpt>
      <trkpt lat="46.52611" lon="0.3403">
        <ele>133.4</ele>
        <time>2024-01-28T09:19:12Z</time>
      </trkpt>
      <trkpt lat="46.52637" lon="0.34031">
        <ele>132.4</ele>
        <time>2024-01-28T09:19:16Z</time>
      </trkpt>
      <trkpt lat="46.52643" lon="0.34032">
        <ele>132.2</ele>
        <time>2024-01-28T09:19:17Z</time>
      </trkpt>
      <trkpt lat="46.52675" lon="0.34034">
        <ele>131.8</ele>
        <time>2024-01-28T09:19:22Z</time>
      </trkpt>
      <trkpt lat="46.5269" lon="0.34035">
        <ele>131.2</ele>
        <time>2024-01-28T09:19:24Z</time>
      </trkpt>
      <trkpt lat="46.52697" lon="0.34035">
        <ele>131.2</ele>
        <time>2024-01-28T09:19:25Z</time>
      </trkpt>
      <trkpt lat="46.52711" lon="0.34032">
        <ele>131</ele>
        <time>2024-01-28T09:19:27Z</time>
      </trkpt>
      <trkpt lat="46.52726" lon="0.34028">
        <ele>130.8</ele>
        <time>2024-01-28T09:19:30Z</time>
      </trkpt>
      <trkpt lat="46.5273" lon="0.34027">
        <ele>130</ele>
        <time>2024-01-28T09:19:31Z</time>
      </trkpt>
      <trkpt lat="46.52739" lon="0.34024">
        <ele>128.8</ele>
        <time>2024-01-28T09:19:33Z</time>
      </trkpt>
      <trkpt lat="46.5275" lon="0.34022">
        <ele>127.8</ele>
        <time>2024-01-28T09:19:35Z</time>
      </trkpt>
      <trkpt lat="46.52754" lon="0.34018">
        <ele>127.4</ele>
        <time>2024-01-28T09:19:36Z</time>
      </trkpt>
      <trkpt lat="46.52758" lon="0.34012">
        <ele>127</ele>
        <time>2024-01-28T09:19:37Z</time>
      </trkpt>
      <trkpt lat="46.52762" lon="0.34004">
        <ele>126.8</ele>
        <time>2024-01-28T09:19:38Z</time>
      </trkpt>
      <trkpt lat="46.52764" lon="0.33994">
        <ele>126.4</ele>
        <time>2024-01-28T09:19:39Z</time>
      </trkpt>
      <trkpt lat="46.52768" lon="0.33972">
        <ele>125.4</ele>
        <time>2024-01-28T09:19:41Z</time>
      </trkpt>
      <trkpt lat="46.52771" lon="0.33949">
        <ele>123.8</ele>
        <time>2024-01-28T09:19:43Z</time>
      </trkpt>
      <trkpt lat="46.52772" lon="0.33938">
        <ele>123</ele>
        <time>2024-01-28T09:19:44Z</time>
      </trkpt>
      <trkpt lat="46.52775" lon="0.3393">
        <ele>122.4</ele>
        <time>2024-01-28T09:19:45Z</time>
      </trkpt>
      <trkpt lat="46.52781" lon="0.33919">
        <ele>121.8</ele>
        <time>2024-01-28T09:19:47Z</time>
      </trkpt>
      <trkpt lat="46.52785" lon="0.33916">
        <ele>121.4</ele>
        <time>2024-01-28T09:19:48Z</time>
      </trkpt>
      <trkpt lat="46.52789" lon="0.33915">
        <ele>121</ele>
        <time>2024-01-28T09:19:49Z</time>
      </trkpt>
      <trkpt lat="46.52793" lon="0.33914">
        <ele>120.8</ele>
        <time>2024-01-28T09:19:50Z</time>
      </trkpt>
      <trkpt lat="46.52829" lon="0.33912">
        <ele>120.6</ele>
        <time>2024-01-28T09:19:57Z</time>
      </trkpt>
      <trkpt lat="46.5284" lon="0.33909">
        <ele>120.6</ele>
        <time>2024-01-28T09:20:00Z</time>
      </trkpt>
      <trkpt lat="46.5285" lon="0.33908">
        <ele>120.6</ele>
        <time>2024-01-28T09:20:03Z</time>
      </trkpt>
      <trkpt lat="46.52871" lon="0.33907">
        <ele>120.4</ele>
        <time>2024-01-28T09:20:09Z</time>
      </trkpt>
      <trkpt lat="46.52899" lon="0.33904">
        <ele>120.6</ele>
        <time>2024-01-28T09:20:16Z</time>
      </trkpt>
      <trkpt lat="46.52907" lon="0.33904">
        <ele>120.6</ele>
        <time>2024-01-28T09:20:18Z</time>
      </trkpt>
      <trkpt lat="46.52916" lon="0.33909">
        <ele>120.6</ele>
        <time>2024-01-28T09:20:20Z</time>
      </trkpt>
      <trkpt lat="46.5292" lon="0.33912">
        <ele>120.6</ele>
        <time>2024-01-28T09:20:21Z</time>
      </trkpt>
      <trkpt lat="46.52926" lon="0.33919">
        <ele>120.8</ele>
        <time>2024-01-28T09:20:23Z</time>
      </trkpt>
      <trkpt lat="46.5293" lon="0.33928">
        <ele>121</ele>
        <time>2024-01-28T09:20:25Z</time>
      </trkpt>
      <trkpt lat="46.52934" lon="0.33939">
        <ele>121.2</ele>
        <time>2024-01-28T09:20:27Z</time>
      </trkpt>
      <trkpt lat="46.5294" lon="0.33966">
        <ele>121.6</ele>
        <time>2024-01-28T09:20:32Z</time>
      </trkpt>
      <trkpt lat="46.52944" lon="0.34">
        <ele>122.2</ele>
        <time>2024-01-28T09:20:38Z</time>
      </trkpt>
      <trkpt lat="46.52945" lon="0.34012">
        <ele>122.4</ele>
        <time>2024-01-28T09:20:40Z</time>
      </trkpt>
      <trkpt lat="46.52949" lon="0.34038">
        <ele>123.2</ele>
        <time>2024-01-28T09:20:45Z</time>
      </trkpt>
      <trkpt lat="46.52953" lon="0.34047">
        <ele>123.4</ele>
        <time>2024-01-28T09:20:47Z</time>
      </trkpt>
      <trkpt lat="46.52961" lon="0.34054">
        <ele>124.2</ele>
        <time>2024-01-28T09:20:50Z</time>
      </trkpt>
      <trkpt lat="46.52963" lon="0.34055">
        <ele>124.4</ele>
        <time>2024-01-28T09:20:51Z</time>
      </trkpt>
      <trkpt lat="46.52978" lon="0.34063">
        <ele>125.6</ele>
        <time>2024-01-28T09:20:56Z</time>
      </trkpt>
      <trkpt lat="46.52984" lon="0.34083">
        <ele>126.2</ele>
        <time>2024-01-28T09:21:00Z</time>
      </trkpt>
      <trkpt lat="46.52983" lon="0.34094">
        <ele>126.6</ele>
        <time>2024-01-28T09:21:02Z</time>
      </trkpt>
      <trkpt lat="46.5298" lon="0.34116">
        <ele>127.2</ele>
        <time>2024-01-28T09:21:06Z</time>
      </trkpt>
      <trkpt lat="46.52976" lon="0.3413">
        <ele>127.6</ele>
        <time>2024-01-28T09:21:09Z</time>
      </trkpt>
      <trkpt lat="46.52974" lon="0.34141">
        <ele>128</ele>
        <time>2024-01-28T09:21:11Z</time>
      </trkpt>
      <trkpt lat="46.52971" lon="0.34157">
        <ele>128.6</ele>
        <time>2024-01-28T09:21:14Z</time>
      </trkpt>
      <trkpt lat="46.52964" lon="0.34183">
        <ele>129.6</ele>
        <time>2024-01-28T09:21:19Z</time>
      </trkpt>
      <trkpt lat="46.52963" lon="0.34188">
        <ele>129.6</ele>
        <time>2024-01-28T09:21:20Z</time>
      </trkpt>
      <trkpt lat="46.52957" lon="0.34212">
        <ele>130.6</ele>
        <time>2024-01-28T09:21:25Z</time>
      </trkpt>
      <trkpt lat="46.52956" lon="0.34217">
        <ele>130.8</ele>
        <time>2024-01-28T09:21:26Z</time>
      </trkpt>
      <trkpt lat="46.52951" lon="0.34246">
        <ele>131.8</ele>
        <time>2024-01-28T09:21:32Z</time>
      </trkpt>
      <trkpt lat="46.52958" lon="0.34273">
        <ele>132.4</ele>
        <time>2024-01-28T09:21:37Z</time>
      </trkpt>
      <trkpt lat="46.52969" lon="0.3429">
        <ele>132.8</ele>
        <time>2024-01-28T09:21:41Z</time>
      </trkpt>
      <trkpt lat="46.52977" lon="0.34305">
        <ele>133.2</ele>
        <time>2024-01-28T09:21:44Z</time>
      </trkpt>
      <trkpt lat="46.52989" lon="0.34329">
        <ele>133.8</ele>
        <time>2024-01-28T09:21:49Z</time>
      </trkpt>
      <trkpt lat="46.52992" lon="0.34332">
        <ele>134</ele>
        <time>2024-01-28T09:21:50Z</time>
      </trkpt>
      <trkpt lat="46.52995" lon="0.34334">
        <ele>134</ele>
        <time>2024-01-28T09:21:51Z</time>
      </trkpt>
      <trkpt lat="46.53011" lon="0.34335">
        <ele>134.8</ele>
        <time>2024-01-28T09:21:55Z</time>
      </trkpt>
      <trkpt lat="46.53015" lon="0.34335">
        <ele>135</ele>
        <time>2024-01-28T09:21:56Z</time>
      </trkpt>
      <trkpt lat="46.53039" lon="0.34339">
        <ele>135.8</ele>
        <time>2024-01-28T09:22:02Z</time>
      </trkpt>
      <trkpt lat="46.53043" lon="0.34341">
        <ele>135.8</ele>
        <time>2024-01-28T09:22:03Z</time>
      </trkpt>
      <trkpt lat="46.53047" lon="0.34342">
        <ele>136</ele>
        <time>2024-01-28T09:22:04Z</time>
      </trkpt>
      <trkpt lat="46.53064" lon="0.34347">
        <ele>136.4</ele>
        <time>2024-01-28T09:22:08Z</time>
      </trkpt>
      <trkpt lat="46.53067" lon="0.34346">
        <ele>136.4</ele>
        <time>2024-01-28T09:22:09Z</time>
      </trkpt>
      <trkpt lat="46.53089" lon="0.3434">
        <ele>136.8</ele>
        <time>2024-01-28T09:22:15Z</time>
      </trkpt>
      <trkpt lat="46.53093" lon="0.34339">
        <ele>137</ele>
        <time>2024-01-28T09:22:16Z</time>
      </trkpt>
      <trkpt lat="46.53118" lon="0.34333">
        <ele>136.2</ele>
        <time>2024-01-28T09:22:22Z</time>
      </trkpt>
      <trkpt lat="46.53134" lon="0.34337">
        <ele>136.2</ele>
        <time>2024-01-28T09:22:26Z</time>
      </trkpt>
      <trkpt lat="46.53143" lon="0.34341">
        <ele>136.4</ele>
        <time>2024-01-28T09:22:28Z</time>
      </trkpt>
      <trkpt lat="46.53151" lon="0.34345">
        <ele>136.2</ele>
        <time>2024-01-28T09:22:30Z</time>
      </trkpt>
      <trkpt lat="46.53164" lon="0.34352">
        <ele>136</ele>
        <time>2024-01-28T09:22:33Z</time>
      </trkpt>
      <trkpt lat="46.53168" lon="0.34354">
        <ele>136</ele>
        <time>2024-01-28T09:22:34Z</time>
      </trkpt>
      <trkpt lat="46.53172" lon="0.34357">
        <ele>136</ele>
        <time>2024-01-28T09:22:35Z</time>
      </trkpt>
      <trkpt lat="46.53179" lon="0.34362">
        <ele>136</ele>
        <time>2024-01-28T09:22:37Z</time>
      </trkpt>
      <trkpt lat="46.53186" lon="0.34366">
        <ele>136</ele>
        <time>2024-01-28T09:22:39Z</time>
      </trkpt>
      <trkpt lat="46.53202" lon="0.34373">
        <ele>136</ele>
        <time>2024-01-28T09:22:43Z</time>
      </trkpt>
      <trkpt lat="46.53206" lon="0.34374">
        <ele>136</ele>
        <time>2024-01-28T09:22:44Z</time>
      </trkpt>
      <trkpt lat="46.53224" lon="0.34381">
        <ele>135</ele>
        <time>2024-01-28T09:22:49Z</time>
      </trkpt>
      <trkpt lat="46.53227" lon="0.34382">
        <ele>135</ele>
        <time>2024-01-28T09:22:50Z</time>
      </trkpt>
      <trkpt lat="46.53231" lon="0.34383">
        <ele>135</ele>
        <time>2024-01-28T09:22:51Z</time>
      </trkpt>
      <trkpt lat="46.5325" lon="0.34386">
        <ele>134.2</ele>
        <time>2024-01-28T09:22:55Z</time>
      </trkpt>
      <trkpt lat="46.53256" lon="0.34386">
        <ele>134</ele>
        <time>2024-01-28T09:22:56Z</time>
      </trkpt>
      <trkpt lat="46.53266" lon="0.34386">
        <ele>133.6</ele>
        <time>2024-01-28T09:22:58Z</time>
      </trkpt>
      <trkpt lat="46.53283" lon="0.34382">
        <ele>132.8</ele>
        <time>2024-01-28T09:23:02Z</time>
      </trkpt>
      <trkpt lat="46.53292" lon="0.34381">
        <ele>132.6</ele>
        <time>2024-01-28T09:23:04Z</time>
      </trkpt>
      <trkpt lat="46.53297" lon="0.34381">
        <ele>132.4</ele>
        <time>2024-01-28T09:23:05Z</time>
      </trkpt>
      <trkpt lat="46.53307" lon="0.3438">
        <ele>132.2</ele>
        <time>2024-01-28T09:23:07Z</time>
      </trkpt>
      <trkpt lat="46.53337" lon="0.34372">
        <ele>131.8</ele>
        <time>2024-01-28T09:23:13Z</time>
      </trkpt>
      <trkpt lat="46.53342" lon="0.34368">
        <ele>131.8</ele>
        <time>2024-01-28T09:23:14Z</time>
      </trkpt>
      <trkpt lat="46.53346" lon="0.34364">
        <ele>131.8</ele>
        <time>2024-01-28T09:23:15Z</time>
      </trkpt>
      <trkpt lat="46.53359" lon="0.34345">
        <ele>131.8</ele>
        <time>2024-01-28T09:23:19Z</time>
      </trkpt>
      <trkpt lat="46.53366" lon="0.34338">
        <ele>131.4</ele>
        <time>2024-01-28T09:23:21Z</time>
      </trkpt>
      <trkpt lat="46.53376" lon="0.34338">
        <ele>130.8</ele>
        <time>2024-01-28T09:23:23Z</time>
      </trkpt>
      <trkpt lat="46.53408" lon="0.34346">
        <ele>131.2</ele>
        <time>2024-01-28T09:23:29Z</time>
      </trkpt>
      <trkpt lat="46.53442" lon="0.34344">
        <ele>131.8</ele>
        <time>2024-01-28T09:23:35Z</time>
      </trkpt>
      <trkpt lat="46.53468" lon="0.34352">
        <ele>131.4</ele>
        <time>2024-01-28T09:23:40Z</time>
      </trkpt>
      <trkpt lat="46.53506" lon="0.34365">
        <ele>130.4</ele>
        <time>2024-01-28T09:23:47Z</time>
      </trkpt>
      <trkpt lat="46.53545" lon="0.34385">
        <ele>129.8</ele>
        <time>2024-01-28T09:23:54Z</time>
      </trkpt>
      <trkpt lat="46.53567" lon="0.34404">
        <ele>129.4</ele>
        <time>2024-01-28T09:23:58Z</time>
      </trkpt>
      <trkpt lat="46.53573" lon="0.34407">
        <ele>129.2</ele>
        <time>2024-01-28T09:23:59Z</time>
      </trkpt>
      <trkpt lat="46.53579" lon="0.3441">
        <ele>129.2</ele>
        <time>2024-01-28T09:24:00Z</time>
      </trkpt>
      <trkpt lat="46.53604" lon="0.34411">
        <ele>128.2</ele>
        <time>2024-01-28T09:24:04Z</time>
      </trkpt>
      <trkpt lat="46.53639" lon="0.34415">
        <ele>128.4</ele>
        <time>2024-01-28T09:24:10Z</time>
      </trkpt>
      <trkpt lat="46.53677" lon="0.34432">
        <ele>129.4</ele>
        <time>2024-01-28T09:24:17Z</time>
      </trkpt>
      <trkpt lat="46.53682" lon="0.34435">
        <ele>129.6</ele>
        <time>2024-01-28T09:24:18Z</time>
      </trkpt>
      <trkpt lat="46.53725" lon="0.34458">
        <ele>129.8</ele>
        <time>2024-01-28T09:24:26Z</time>
      </trkpt>
      <trkpt lat="46.53752" lon="0.3447">
        <ele>130.2</ele>
        <time>2024-01-28T09:24:32Z</time>
      </trkpt>
      <trkpt lat="46.53785" lon="0.34482">
        <ele>130.4</ele>
        <time>2024-01-28T09:24:39Z</time>
      </trkpt>
      <trkpt lat="46.53789" lon="0.34483">
        <ele>130.4</ele>
        <time>2024-01-28T09:24:40Z</time>
      </trkpt>
      <trkpt lat="46.53816" lon="0.34491">
        <ele>130.4</ele>
        <time>2024-01-28T09:24:46Z</time>
      </trkpt>
      <trkpt lat="46.53821" lon="0.34493">
        <ele>130.4</ele>
        <time>2024-01-28T09:24:47Z</time>
      </trkpt>
      <trkpt lat="46.53844" lon="0.34503">
        <ele>130.8</ele>
        <time>2024-01-28T09:24:52Z</time>
      </trkpt>
      <trkpt lat="46.53854" lon="0.34503">
        <ele>131</ele>
        <time>2024-01-28T09:24:54Z</time>
      </trkpt>
      <trkpt lat="46.53881" lon="0.34502">
        <ele>130.4</ele>
        <time>2024-01-28T09:24:59Z</time>
      </trkpt>
      <trkpt lat="46.53912" lon="0.34494">
        <ele>129.4</ele>
        <time>2024-01-28T09:25:05Z</time>
      </trkpt>
      <trkpt lat="46.53916" lon="0.34491">
        <ele>129.6</ele>
        <time>2024-01-28T09:25:06Z</time>
      </trkpt>
      <trkpt lat="46.53919" lon="0.34487">
        <ele>129.6</ele>
        <time>2024-01-28T09:25:07Z</time>
      </trkpt>
      <trkpt lat="46.53923" lon="0.34478">
        <ele>129.8</ele>
        <time>2024-01-28T09:25:09Z</time>
      </trkpt>
      <trkpt lat="46.53924" lon="0.34473">
        <ele>129.8</ele>
        <time>2024-01-28T09:25:10Z</time>
      </trkpt>
      <trkpt lat="46.5393" lon="0.34448">
        <ele>130.2</ele>
        <time>2024-01-28T09:25:15Z</time>
      </trkpt>
      <trkpt lat="46.53932" lon="0.34444">
        <ele>130.4</ele>
        <time>2024-01-28T09:25:16Z</time>
      </trkpt>
      <trkpt lat="46.53934" lon="0.3444">
        <ele>131</ele>
        <time>2024-01-28T09:25:17Z</time>
      </trkpt>
      <trkpt lat="46.53937" lon="0.34435">
        <ele>131.6</ele>
        <time>2024-01-28T09:25:19Z</time>
      </trkpt>
      <trkpt lat="46.5394" lon="0.34431">
        <ele>132.6</ele>
        <time>2024-01-28T09:25:21Z</time>
      </trkpt>
      <trkpt lat="46.53941" lon="0.34429">
        <ele>132.8</ele>
        <time>2024-01-28T09:25:22Z</time>
      </trkpt>
      <trkpt lat="46.53943" lon="0.34427">
        <ele>133</ele>
        <time>2024-01-28T09:25:23Z</time>
      </trkpt>
      <trkpt lat="46.53948" lon="0.34423">
        <ele>134</ele>
        <time>2024-01-28T09:25:26Z</time>
      </trkpt>
      <trkpt lat="46.5395" lon="0.34422">
        <ele>134.8</ele>
        <time>2024-01-28T09:25:27Z</time>
      </trkpt>
      <trkpt lat="46.53952" lon="0.34421">
        <ele>135.4</ele>
        <time>2024-01-28T09:25:28Z</time>
      </trkpt>
      <trkpt lat="46.53965" lon="0.34413">
        <ele>136.8</ele>
        <time>2024-01-28T09:25:33Z</time>
      </trkpt>
      <trkpt lat="46.53967" lon="0.34412">
        <ele>137</ele>
        <time>2024-01-28T09:25:34Z</time>
      </trkpt>
      <trkpt lat="46.53976" lon="0.34407">
        <ele>138</ele>
        <time>2024-01-28T09:25:38Z</time>
      </trkpt>
      <trkpt lat="46.53981" lon="0.34405">
        <ele>138.4</ele>
        <time>2024-01-28T09:25:40Z</time>
      </trkpt>
      <trkpt lat="46.53985" lon="0.34403">
        <ele>139</ele>
        <time>2024-01-28T09:25:42Z</time>
      </trkpt>
      <trkpt lat="46.53993" lon="0.34397">
        <ele>140</ele>
        <time>2024-01-28T09:25:47Z</time>
      </trkpt>
      <trkpt lat="46.53997" lon="0.34394">
        <ele>140.6</ele>
        <time>2024-01-28T09:25:49Z</time>
      </trkpt>
      <trkpt lat="46.54002" lon="0.34387">
        <ele>140.8</ele>
        <time>2024-01-28T09:25:52Z</time>
      </trkpt>
      <trkpt lat="46.54008" lon="0.34378">
        <ele>138.8</ele>
        <time>2024-01-28T09:25:56Z</time>
      </trkpt>
      <trkpt lat="46.54009" lon="0.34375">
        <ele>137.2</ele>
        <time>2024-01-28T09:25:58Z</time>
      </trkpt>
      <trkpt lat="46.54011" lon="0.34372">
        <ele>136.8</ele>
        <time>2024-01-28T09:26:00Z</time>
      </trkpt>
      <trkpt lat="46.54011" lon="0.34367">
        <ele>136.4</ele>
        <time>2024-01-28T09:26:03Z</time>
      </trkpt>
      <trkpt lat="46.5401" lon="0.34365">
        <ele>136</ele>
        <time>2024-01-28T09:26:04Z</time>
      </trkpt>
      <trkpt lat="46.54009" lon="0.34362">
        <ele>134.8</ele>
        <time>2024-01-28T09:26:05Z</time>
      </trkpt>
      <trkpt lat="46.54008" lon="0.3436">
        <ele>133.4</ele>
        <time>2024-01-28T09:26:06Z</time>
      </trkpt>
      <trkpt lat="46.54006" lon="0.34358">
        <ele>131.8</ele>
        <time>2024-01-28T09:26:07Z</time>
      </trkpt>
      <trkpt lat="46.54005" lon="0.34356">
        <ele>130.4</ele>
        <time>2024-01-28T09:26:08Z</time>
      </trkpt>
      <trkpt lat="46.54003" lon="0.34354">
        <ele>129.2</ele>
        <time>2024-01-28T09:26:09Z</time>
      </trkpt>
      <trkpt lat="46.54002" lon="0.34351">
        <ele>128</ele>
        <time>2024-01-28T09:26:10Z</time>
      </trkpt>
      <trkpt lat="46.54001" lon="0.34349">
        <ele>126.8</ele>
        <time>2024-01-28T09:26:11Z</time>
      </trkpt>
      <trkpt lat="46.53998" lon="0.34346">
        <ele>124.2</ele>
        <time>2024-01-28T09:26:13Z</time>
      </trkpt>
      <trkpt lat="46.53997" lon="0.34345">
        <ele>123</ele>
        <time>2024-01-28T09:26:14Z</time>
      </trkpt>
      <trkpt lat="46.53995" lon="0.34343">
        <ele>121.4</ele>
        <time>2024-01-28T09:26:15Z</time>
      </trkpt>
      <trkpt lat="46.53993" lon="0.34338">
        <ele>119.6</ele>
        <time>2024-01-28T09:26:17Z</time>
      </trkpt>
      <trkpt lat="46.53992" lon="0.34336">
        <ele>119</ele>
        <time>2024-01-28T09:26:18Z</time>
      </trkpt>
      <trkpt lat="46.53991" lon="0.34334">
        <ele>118.4</ele>
        <time>2024-01-28T09:26:19Z</time>
      </trkpt>
      <trkpt lat="46.5399" lon="0.34331">
        <ele>117.2</ele>
        <time>2024-01-28T09:26:21Z</time>
      </trkpt>
      <trkpt lat="46.5399" lon="0.34327">
        <ele>116.6</ele>
        <time>2024-01-28T09:26:23Z</time>
      </trkpt>
      <trkpt lat="46.53986" lon="0.34329">
        <ele>116.6</ele>
        <time>2024-01-28T09:26:30Z</time>
      </trkpt>
      <trkpt lat="46.53976" lon="0.34339">
        <ele>116.8</ele>
        <time>2024-01-28T09:26:36Z</time>
      </trkpt>
      <trkpt lat="46.53963" lon="0.34352">
        <ele>118</ele>
        <time>2024-01-28T09:26:42Z</time>
      </trkpt>
      <trkpt lat="46.53958" lon="0.34355">
        <ele>118.6</ele>
        <time>2024-01-28T09:26:44Z</time>
      </trkpt>
      <trkpt lat="46.53947" lon="0.34363">
        <ele>119.6</ele>
        <time>2024-01-28T09:26:49Z</time>
      </trkpt>
      <trkpt lat="46.53945" lon="0.34364">
        <ele>119.8</ele>
        <time>2024-01-28T09:26:50Z</time>
      </trkpt>
      <trkpt lat="46.53937" lon="0.34373">
        <ele>120.8</ele>
        <time>2024-01-28T09:26:54Z</time>
      </trkpt>
      <trkpt lat="46.53931" lon="0.34381">
        <ele>121.2</ele>
        <time>2024-01-28T09:26:57Z</time>
      </trkpt>
      <trkpt lat="46.53927" lon="0.34389">
        <ele>121.8</ele>
        <time>2024-01-28T09:27:00Z</time>
      </trkpt>
      <trkpt lat="46.5392" lon="0.34405">
        <ele>122.6</ele>
        <time>2024-01-28T09:27:05Z</time>
      </trkpt>
      <trkpt lat="46.53919" lon="0.34408">
        <ele>122.8</ele>
        <time>2024-01-28T09:27:06Z</time>
      </trkpt>
      <trkpt lat="46.53918" lon="0.34422">
        <ele>124</ele>
        <time>2024-01-28T09:27:10Z</time>
      </trkpt>
      <trkpt lat="46.53918" lon="0.34425">
        <ele>124.2</ele>
        <time>2024-01-28T09:27:11Z</time>
      </trkpt>
      <trkpt lat="46.53918" lon="0.34432">
        <ele>125</ele>
        <time>2024-01-28T09:27:13Z</time>
      </trkpt>
      <trkpt lat="46.5392" lon="0.34445">
        <ele>126</ele>
        <time>2024-01-28T09:27:17Z</time>
      </trkpt>
      <trkpt lat="46.53921" lon="0.34448">
        <ele>126.2</ele>
        <time>2024-01-28T09:27:18Z</time>
      </trkpt>
      <trkpt lat="46.53923" lon="0.34463">
        <ele>127.4</ele>
        <time>2024-01-28T09:27:24Z</time>
      </trkpt>
      <trkpt lat="46.53924" lon="0.34465">
        <ele>127.6</ele>
        <time>2024-01-28T09:27:25Z</time>
      </trkpt>
      <trkpt lat="46.53928" lon="0.34467">
        <ele>128</ele>
        <time>2024-01-28T09:27:28Z</time>
      </trkpt>
      <trkpt lat="46.53929" lon="0.34465">
        <ele>128.4</ele>
        <time>2024-01-28T09:27:30Z</time>
      </trkpt>
      <trkpt lat="46.53929" lon="0.34463">
        <ele>128.8</ele>
        <time>2024-01-28T09:27:31Z</time>
      </trkpt>
      <trkpt lat="46.53929" lon="0.34461">
        <ele>129</ele>
        <time>2024-01-28T09:27:32Z</time>
      </trkpt>
      <trkpt lat="46.5393" lon="0.34455">
        <ele>129.6</ele>
        <time>2024-01-28T09:27:35Z</time>
      </trkpt>
      <trkpt lat="46.53932" lon="0.34446">
        <ele>130.6</ele>
        <time>2024-01-28T09:27:40Z</time>
      </trkpt>
      <trkpt lat="46.53939" lon="0.34436">
        <ele>131.8</ele>
        <time>2024-01-28T09:27:46Z</time>
      </trkpt>
      <trkpt lat="46.53944" lon="0.34429">
        <ele>132.8</ele>
        <time>2024-01-28T09:27:51Z</time>
      </trkpt>
      <trkpt lat="46.53949" lon="0.34422">
        <ele>133.6</ele>
        <time>2024-01-28T09:27:55Z</time>
      </trkpt>
      <trkpt lat="46.53952" lon="0.34419">
        <ele>133.8</ele>
        <time>2024-01-28T09:27:57Z</time>
      </trkpt>
      <trkpt lat="46.53956" lon="0.34415">
        <ele>134.6</ele>
        <time>2024-01-28T09:28:01Z</time>
      </trkpt>
      <trkpt lat="46.53958" lon="0.34414">
        <ele>135</ele>
        <time>2024-01-28T09:28:02Z</time>
      </trkpt>
      <trkpt lat="46.53965" lon="0.34408">
        <ele>136.2</ele>
        <time>2024-01-28T09:28:07Z</time>
      </trkpt>
      <trkpt lat="46.53968" lon="0.34406">
        <ele>136.4</ele>
        <time>2024-01-28T09:28:09Z</time>
      </trkpt>
      <trkpt lat="46.53974" lon="0.34402">
        <ele>137.2</ele>
        <time>2024-01-28T09:28:13Z</time>
      </trkpt>
      <trkpt lat="46.53979" lon="0.34399">
        <ele>138</ele>
        <time>2024-01-28T09:28:17Z</time>
      </trkpt>
      <trkpt lat="46.53985" lon="0.34397">
        <ele>138.2</ele>
        <time>2024-01-28T09:28:20Z</time>
      </trkpt>
      <trkpt lat="46.53992" lon="0.34395">
        <ele>139.6</ele>
        <time>2024-01-28T09:28:24Z</time>
      </trkpt>
      <trkpt lat="46.54" lon="0.34393">
        <ele>140.8</ele>
        <time>2024-01-28T09:28:28Z</time>
      </trkpt>
      <trkpt lat="46.54005" lon="0.34394">
        <ele>141.4</ele>
        <time>2024-01-28T09:28:31Z</time>
      </trkpt>
      <trkpt lat="46.54016" lon="0.34397">
        <ele>141.8</ele>
        <time>2024-01-28T09:28:37Z</time>
      </trkpt>
      <trkpt lat="46.54021" lon="0.34397">
        <ele>141.8</ele>
        <time>2024-01-28T09:28:39Z</time>
      </trkpt>
      <trkpt lat="46.54026" lon="0.34394">
        <ele>141.8</ele>
        <time>2024-01-28T09:28:42Z</time>
      </trkpt>
      <trkpt lat="46.54034" lon="0.34386">
        <ele>142</ele>
        <time>2024-01-28T09:28:48Z</time>
      </trkpt>
      <trkpt lat="46.54036" lon="0.34383">
        <ele>142</ele>
        <time>2024-01-28T09:28:50Z</time>
      </trkpt>
      <trkpt lat="46.54036" lon="0.34379">
        <ele>141.8</ele>
        <time>2024-01-28T09:28:52Z</time>
      </trkpt>
      <trkpt lat="46.54039" lon="0.34374">
        <ele>141</ele>
        <time>2024-01-28T09:28:54Z</time>
      </trkpt>
      <trkpt lat="46.5404" lon="0.34371">
        <ele>140.8</ele>
        <time>2024-01-28T09:28:55Z</time>
      </trkpt>
      <trkpt lat="46.54047" lon="0.34362">
        <ele>140.8</ele>
        <time>2024-01-28T09:28:59Z</time>
      </trkpt>
      <trkpt lat="46.54053" lon="0.34354">
        <ele>142</ele>
        <time>2024-01-28T09:29:03Z</time>
      </trkpt>
      <trkpt lat="46.54056" lon="0.34347">
        <ele>143.2</ele>
        <time>2024-01-28T09:29:06Z</time>
      </trkpt>
      <trkpt lat="46.54057" lon="0.34344">
        <ele>143.6</ele>
        <time>2024-01-28T09:29:07Z</time>
      </trkpt>
      <trkpt lat="46.54058" lon="0.34342">
        <ele>143.8</ele>
        <time>2024-01-28T09:29:08Z</time>
      </trkpt>
      <trkpt lat="46.54061" lon="0.34337">
        <ele>144.4</ele>
        <time>2024-01-28T09:29:10Z</time>
      </trkpt>
      <trkpt lat="46.54065" lon="0.34332">
        <ele>145.6</ele>
        <time>2024-01-28T09:29:13Z</time>
      </trkpt>
      <trkpt lat="46.54067" lon="0.34326">
        <ele>146.6</ele>
        <time>2024-01-28T09:29:16Z</time>
      </trkpt>
      <trkpt lat="46.5407" lon="0.34321">
        <ele>147.8</ele>
        <time>2024-01-28T09:29:19Z</time>
      </trkpt>
      <trkpt lat="46.54072" lon="0.34319">
        <ele>148</ele>
        <time>2024-01-28T09:29:20Z</time>
      </trkpt>
      <trkpt lat="46.54073" lon="0.34317">
        <ele>148.8</ele>
        <time>2024-01-28T09:29:22Z</time>
      </trkpt>
      <trkpt lat="46.54079" lon="0.3431">
        <ele>149.6</ele>
        <time>2024-01-28T09:29:27Z</time>
      </trkpt>
      <trkpt lat="46.5408" lon="0.34308">
        <ele>150</ele>
        <time>2024-01-28T09:29:28Z</time>
      </trkpt>
      <trkpt lat="46.54081" lon="0.34306">
        <ele>150.2</ele>
        <time>2024-01-28T09:29:29Z</time>
      </trkpt>
      <trkpt lat="46.54084" lon="0.343">
        <ele>151.2</ele>
        <time>2024-01-28T09:29:33Z</time>
      </trkpt>
      <trkpt lat="46.54086" lon="0.34294">
        <ele>151.8</ele>
        <time>2024-01-28T09:29:36Z</time>
      </trkpt>
      <trkpt lat="46.54086" lon="0.34293">
        <ele>151.8</ele>
        <time>2024-01-28T09:29:37Z</time>
      </trkpt>
      <trkpt lat="46.54093" lon="0.34282">
        <ele>152.4</ele>
        <time>2024-01-28T09:29:43Z</time>
      </trkpt>
      <trkpt lat="46.54097" lon="0.34278">
        <ele>153.2</ele>
        <time>2024-01-28T09:29:46Z</time>
      </trkpt>
      <trkpt lat="46.54097" lon="0.34276">
        <ele>153.4</ele>
        <time>2024-01-28T09:29:47Z</time>
      </trkpt>
      <trkpt lat="46.54105" lon="0.34262">
        <ele>154.6</ele>
        <time>2024-01-28T09:29:54Z</time>
      </trkpt>
      <trkpt lat="46.54111" lon="0.34245">
        <ele>155.8</ele>
        <time>2024-01-28T09:30:01Z</time>
      </trkpt>
      <trkpt lat="46.54119" lon="0.34226">
        <ele>155.6</ele>
        <time>2024-01-28T09:30:06Z</time>
      </trkpt>
      <trkpt lat="46.54123" lon="0.34212">
        <ele>154.8</ele>
        <time>2024-01-28T09:30:09Z</time>
      </trkpt>
      <trkpt lat="46.54124" lon="0.34208">
        <ele>154.6</ele>
        <time>2024-01-28T09:30:10Z</time>
      </trkpt>
      <trkpt lat="46.54125" lon="0.34205">
        <ele>154.4</ele>
        <time>2024-01-28T09:30:11Z</time>
      </trkpt>
      <trkpt lat="46.54131" lon="0.34186">
        <ele>154.8</ele>
        <time>2024-01-28T09:30:16Z</time>
      </trkpt>
      <trkpt lat="46.5414" lon="0.34168">
        <ele>156</ele>
        <time>2024-01-28T09:30:22Z</time>
      </trkpt>
      <trkpt lat="46.54145" lon="0.34154">
        <ele>157.2</ele>
        <time>2024-01-28T09:30:26Z</time>
      </trkpt>
      <trkpt lat="46.54148" lon="0.34146">
        <ele>157.6</ele>
        <time>2024-01-28T09:30:28Z</time>
      </trkpt>
      <trkpt lat="46.54157" lon="0.3413">
        <ele>157.6</ele>
        <time>2024-01-28T09:30:33Z</time>
      </trkpt>
      <trkpt lat="46.54162" lon="0.34112">
        <ele>157.2</ele>
        <time>2024-01-28T09:30:38Z</time>
      </trkpt>
      <trkpt lat="46.54167" lon="0.34102">
        <ele>157.2</ele>
        <time>2024-01-28T09:30:42Z</time>
      </trkpt>
      <trkpt lat="46.54169" lon="0.34095">
        <ele>157.2</ele>
        <time>2024-01-28T09:30:44Z</time>
      </trkpt>
      <trkpt lat="46.54177" lon="0.34073">
        <ele>156.2</ele>
        <time>2024-01-28T09:30:50Z</time>
      </trkpt>
      <trkpt lat="46.54177" lon="0.34069">
        <ele>156.2</ele>
        <time>2024-01-28T09:30:51Z</time>
      </trkpt>
      <trkpt lat="46.54181" lon="0.3406">
        <ele>156.2</ele>
        <time>2024-01-28T09:30:54Z</time>
      </trkpt>
      <trkpt lat="46.54185" lon="0.34057">
        <ele>156.6</ele>
        <time>2024-01-28T09:30:57Z</time>
      </trkpt>
      <trkpt lat="46.54186" lon="0.34056">
        <ele>156.8</ele>
        <time>2024-01-28T09:30:59Z</time>
      </trkpt>
      <trkpt lat="46.54188" lon="0.34058">
        <ele>156.6</ele>
        <time>2024-01-28T09:31:13Z</time>
      </trkpt>
      <trkpt lat="46.54191" lon="0.3407">
        <ele>157.2</ele>
        <time>2024-01-28T09:31:17Z</time>
      </trkpt>
      <trkpt lat="46.54195" lon="0.34087">
        <ele>158.2</ele>
        <time>2024-01-28T09:31:22Z</time>
      </trkpt>
      <trkpt lat="46.54196" lon="0.3409">
        <ele>158.4</ele>
        <time>2024-01-28T09:31:23Z</time>
      </trkpt>
      <trkpt lat="46.54198" lon="0.34094">
        <ele>158.4</ele>
        <time>2024-01-28T09:31:25Z</time>
      </trkpt>
      <trkpt lat="46.54201" lon="0.34094">
        <ele>158.6</ele>
        <time>2024-01-28T09:31:27Z</time>
      </trkpt>
      <trkpt lat="46.54205" lon="0.34093">
        <ele>158.8</ele>
        <time>2024-01-28T09:31:29Z</time>
      </trkpt>
      <trkpt lat="46.54207" lon="0.34094">
        <ele>158.8</ele>
        <time>2024-01-28T09:31:30Z</time>
      </trkpt>
      <trkpt lat="46.54209" lon="0.34097">
        <ele>159</ele>
        <time>2024-01-28T09:31:32Z</time>
      </trkpt>
      <trkpt lat="46.54212" lon="0.34103">
        <ele>159.2</ele>
        <time>2024-01-28T09:31:35Z</time>
      </trkpt>
      <trkpt lat="46.54216" lon="0.34109">
        <ele>159.2</ele>
        <time>2024-01-28T09:31:38Z</time>
      </trkpt>
      <trkpt lat="46.54224" lon="0.34123">
        <ele>159.4</ele>
        <time>2024-01-28T09:31:43Z</time>
      </trkpt>
      <trkpt lat="46.54227" lon="0.34131">
        <ele>159.4</ele>
        <time>2024-01-28T09:31:45Z</time>
      </trkpt>
      <trkpt lat="46.54226" lon="0.34137">
        <ele>159.6</ele>
        <time>2024-01-28T09:31:47Z</time>
      </trkpt>
      <trkpt lat="46.54226" lon="0.3414">
        <ele>159.6</ele>
        <time>2024-01-28T09:31:48Z</time>
      </trkpt>
      <trkpt lat="46.54228" lon="0.34155">
        <ele>159.8</ele>
        <time>2024-01-28T09:31:52Z</time>
      </trkpt>
      <trkpt lat="46.54226" lon="0.34168">
        <ele>159.8</ele>
        <time>2024-01-28T09:31:56Z</time>
      </trkpt>
      <trkpt lat="46.54227" lon="0.3417">
        <ele>159.8</ele>
        <time>2024-01-28T09:31:57Z</time>
      </trkpt>
      <trkpt lat="46.54237" lon="0.34177">
        <ele>159.6</ele>
        <time>2024-01-28T09:32:02Z</time>
      </trkpt>
      <trkpt lat="46.54248" lon="0.34193">
        <ele>160</ele>
        <time>2024-01-28T09:32:07Z</time>
      </trkpt>
      <trkpt lat="46.54251" lon="0.34206">
        <ele>159.8</ele>
        <time>2024-01-28T09:32:10Z</time>
      </trkpt>
      <trkpt lat="46.54254" lon="0.34213">
        <ele>159.6</ele>
        <time>2024-01-28T09:32:12Z</time>
      </trkpt>
      <trkpt lat="46.54261" lon="0.34238">
        <ele>159.6</ele>
        <time>2024-01-28T09:32:18Z</time>
      </trkpt>
      <trkpt lat="46.54265" lon="0.34264">
        <ele>159.6</ele>
        <time>2024-01-28T09:32:25Z</time>
      </trkpt>
      <trkpt lat="46.54267" lon="0.34269">
        <ele>159.8</ele>
        <time>2024-01-28T09:32:27Z</time>
      </trkpt>
      <trkpt lat="46.54269" lon="0.34272">
        <ele>160</ele>
        <time>2024-01-28T09:32:29Z</time>
      </trkpt>
      <trkpt lat="46.54287" lon="0.34287">
        <ele>159.8</ele>
        <time>2024-01-28T09:32:35Z</time>
      </trkpt>
      <trkpt lat="46.54309" lon="0.34292">
        <ele>159.6</ele>
        <time>2024-01-28T09:32:41Z</time>
      </trkpt>
      <trkpt lat="46.54323" lon="0.34302">
        <ele>159</ele>
        <time>2024-01-28T09:32:45Z</time>
      </trkpt>
      <trkpt lat="46.54326" lon="0.34307">
        <ele>158.8</ele>
        <time>2024-01-28T09:32:46Z</time>
      </trkpt>
      <trkpt lat="46.54342" lon="0.34339">
        <ele>158.8</ele>
        <time>2024-01-28T09:32:53Z</time>
      </trkpt>
      <trkpt lat="46.54355" lon="0.34372">
        <ele>158.6</ele>
        <time>2024-01-28T09:33:00Z</time>
      </trkpt>
      <trkpt lat="46.54365" lon="0.34391">
        <ele>158.6</ele>
        <time>2024-01-28T09:33:05Z</time>
      </trkpt>
      <trkpt lat="46.54368" lon="0.34397">
        <ele>158.6</ele>
        <time>2024-01-28T09:33:07Z</time>
      </trkpt>
      <trkpt lat="46.54369" lon="0.34398">
        <ele>158.6</ele>
        <time>2024-01-28T09:33:09Z</time>
      </trkpt>
      <trkpt lat="46.54373" lon="0.34405">
        <ele>158.6</ele>
        <time>2024-01-28T09:33:20Z</time>
      </trkpt>
      <trkpt lat="46.54377" lon="0.34415">
        <ele>158.6</ele>
        <time>2024-01-28T09:33:25Z</time>
      </trkpt>
      <trkpt lat="46.54385" lon="0.34438">
        <ele>158.8</ele>
        <time>2024-01-28T09:33:31Z</time>
      </trkpt>
      <trkpt lat="46.54396" lon="0.34462">
        <ele>158.8</ele>
        <time>2024-01-28T09:33:36Z</time>
      </trkpt>
      <trkpt lat="46.54405" lon="0.34493">
        <ele>158.8</ele>
        <time>2024-01-28T09:33:42Z</time>
      </trkpt>
      <trkpt lat="46.54406" lon="0.34499">
        <ele>159</ele>
        <time>2024-01-28T09:33:43Z</time>
      </trkpt>
      <trkpt lat="46.54404" lon="0.34512">
        <ele>159.2</ele>
        <time>2024-01-28T09:33:45Z</time>
      </trkpt>
      <trkpt lat="46.54403" lon="0.34517">
        <ele>159.2</ele>
        <time>2024-01-28T09:33:46Z</time>
      </trkpt>
      <trkpt lat="46.544" lon="0.34522">
        <ele>159.2</ele>
        <time>2024-01-28T09:33:47Z</time>
      </trkpt>
      <trkpt lat="46.54394" lon="0.3453">
        <ele>159.4</ele>
        <time>2024-01-28T09:33:49Z</time>
      </trkpt>
      <trkpt lat="46.54388" lon="0.34536">
        <ele>159.4</ele>
        <time>2024-01-28T09:33:51Z</time>
      </trkpt>
      <trkpt lat="46.54384" lon="0.34543">
        <ele>159.6</ele>
        <time>2024-01-28T09:33:53Z</time>
      </trkpt>
      <trkpt lat="46.54381" lon="0.34557">
        <ele>160</ele>
        <time>2024-01-28T09:33:56Z</time>
      </trkpt>
      <trkpt lat="46.54384" lon="0.34573">
        <ele>160.2</ele>
        <time>2024-01-28T09:33:59Z</time>
      </trkpt>
      <trkpt lat="46.54384" lon="0.34578">
        <ele>160.4</ele>
        <time>2024-01-28T09:34:00Z</time>
      </trkpt>
      <trkpt lat="46.54381" lon="0.34584">
        <ele>160.4</ele>
        <time>2024-01-28T09:34:02Z</time>
      </trkpt>
      <trkpt lat="46.54378" lon="0.34586">
        <ele>160.4</ele>
        <time>2024-01-28T09:34:03Z</time>
      </trkpt>
      <trkpt lat="46.54372" lon="0.34589">
        <ele>160.6</ele>
        <time>2024-01-28T09:34:05Z</time>
      </trkpt>
      <trkpt lat="46.54366" lon="0.34592">
        <ele>160.4</ele>
        <time>2024-01-28T09:34:07Z</time>
      </trkpt>
      <trkpt lat="46.5436" lon="0.34593">
        <ele>160.4</ele>
        <time>2024-01-28T09:34:09Z</time>
      </trkpt>
      <trkpt lat="46.54356" lon="0.34598">
        <ele>160.2</ele>
        <time>2024-01-28T09:34:11Z</time>
      </trkpt>
      <trkpt lat="46.54353" lon="0.34605">
        <ele>160.2</ele>
        <time>2024-01-28T09:34:13Z</time>
      </trkpt>
      <trkpt lat="46.54349" lon="0.34612">
        <ele>160</ele>
        <time>2024-01-28T09:34:15Z</time>
      </trkpt>
      <trkpt lat="46.54346" lon="0.34615">
        <ele>160</ele>
        <time>2024-01-28T09:34:16Z</time>
      </trkpt>
      <trkpt lat="46.54343" lon="0.34617">
        <ele>159.8</ele>
        <time>2024-01-28T09:34:17Z</time>
      </trkpt>
      <trkpt lat="46.5433" lon="0.34627">
        <ele>159.4</ele>
        <time>2024-01-28T09:34:21Z</time>
      </trkpt>
      <trkpt lat="46.54327" lon="0.3463">
        <ele>159.2</ele>
        <time>2024-01-28T09:34:22Z</time>
      </trkpt>
      <trkpt lat="46.54317" lon="0.3464">
        <ele>159</ele>
        <time>2024-01-28T09:34:25Z</time>
      </trkpt>
      <trkpt lat="46.5431" lon="0.34648">
        <ele>159</ele>
        <time>2024-01-28T09:34:27Z</time>
      </trkpt>
      <trkpt lat="46.54302" lon="0.3466">
        <ele>158.6</ele>
        <time>2024-01-28T09:34:30Z</time>
      </trkpt>
      <trkpt lat="46.54299" lon="0.34664">
        <ele>158.6</ele>
        <time>2024-01-28T09:34:31Z</time>
      </trkpt>
      <trkpt lat="46.54284" lon="0.3468">
        <ele>158.8</ele>
        <time>2024-01-28T09:34:36Z</time>
      </trkpt>
      <trkpt lat="46.54273" lon="0.34684">
        <ele>159.6</ele>
        <time>2024-01-28T09:34:39Z</time>
      </trkpt>
      <trkpt lat="46.54267" lon="0.3469">
        <ele>159.8</ele>
        <time>2024-01-28T09:34:41Z</time>
      </trkpt>
      <trkpt lat="46.54263" lon="0.34707">
        <ele>159.2</ele>
        <time>2024-01-28T09:34:45Z</time>
      </trkpt>
      <trkpt lat="46.54261" lon="0.34726">
        <ele>159.6</ele>
        <time>2024-01-28T09:34:49Z</time>
      </trkpt>
      <trkpt lat="46.54262" lon="0.34735">
        <ele>159.8</ele>
        <time>2024-01-28T09:34:51Z</time>
      </trkpt>
      <trkpt lat="46.54263" lon="0.34738">
        <ele>160</ele>
        <time>2024-01-28T09:34:52Z</time>
      </trkpt>
      <trkpt lat="46.54263" lon="0.34747">
        <ele>160</ele>
        <time>2024-01-28T09:34:55Z</time>
      </trkpt>
      <trkpt lat="46.54263" lon="0.34749">
        <ele>160</ele>
        <time>2024-01-28T09:34:56Z</time>
      </trkpt>
      <trkpt lat="46.5426" lon="0.34764">
        <ele>160.2</ele>
        <time>2024-01-28T09:35:01Z</time>
      </trkpt>
      <trkpt lat="46.54258" lon="0.34773">
        <ele>160.2</ele>
        <time>2024-01-28T09:35:03Z</time>
      </trkpt>
      <trkpt lat="46.54256" lon="0.34777">
        <ele>160.2</ele>
        <time>2024-01-28T09:35:04Z</time>
      </trkpt>
      <trkpt lat="46.54255" lon="0.3478">
        <ele>160.2</ele>
        <time>2024-01-28T09:35:05Z</time>
      </trkpt>
      <trkpt lat="46.5425" lon="0.34805">
        <ele>160.6</ele>
        <time>2024-01-28T09:35:10Z</time>
      </trkpt>
      <trkpt lat="46.54248" lon="0.34823">
        <ele>160.6</ele>
        <time>2024-01-28T09:35:13Z</time>
      </trkpt>
      <trkpt lat="46.54247" lon="0.34833">
        <ele>160.6</ele>
        <time>2024-01-28T09:35:15Z</time>
      </trkpt>
      <trkpt lat="46.54248" lon="0.34842">
        <ele>160.4</ele>
        <time>2024-01-28T09:35:17Z</time>
      </trkpt>
      <trkpt lat="46.5425" lon="0.34849">
        <ele>160.2</ele>
        <time>2024-01-28T09:35:19Z</time>
      </trkpt>
      <trkpt lat="46.54253" lon="0.34851">
        <ele>160.2</ele>
        <time>2024-01-28T09:35:20Z</time>
      </trkpt>
      <trkpt lat="46.54257" lon="0.34855">
        <ele>160</ele>
        <time>2024-01-28T09:35:21Z</time>
      </trkpt>
      <trkpt lat="46.54265" lon="0.34864">
        <ele>160</ele>
        <time>2024-01-28T09:35:24Z</time>
      </trkpt>
      <trkpt lat="46.54269" lon="0.34876">
        <ele>159.8</ele>
        <time>2024-01-28T09:35:27Z</time>
      </trkpt>
      <trkpt lat="46.54272" lon="0.34887">
        <ele>159.6</ele>
        <time>2024-01-28T09:35:29Z</time>
      </trkpt>
      <trkpt lat="46.54277" lon="0.34901">
        <ele>159.2</ele>
        <time>2024-01-28T09:35:32Z</time>
      </trkpt>
      <trkpt lat="46.54283" lon="0.34909">
        <ele>159.2</ele>
        <time>2024-01-28T09:35:34Z</time>
      </trkpt>
      <trkpt lat="46.54285" lon="0.34917">
        <ele>159.2</ele>
        <time>2024-01-28T09:35:36Z</time>
      </trkpt>
      <trkpt lat="46.54293" lon="0.3494">
        <ele>159.2</ele>
        <time>2024-01-28T09:35:41Z</time>
      </trkpt>
      <trkpt lat="46.54293" lon="0.34945">
        <ele>159</ele>
        <time>2024-01-28T09:35:43Z</time>
      </trkpt>
      <trkpt lat="46.54295" lon="0.34949">
        <ele>159</ele>
        <time>2024-01-28T09:35:46Z</time>
      </trkpt>
      <trkpt lat="46.54297" lon="0.34964">
        <ele>159.4</ele>
        <time>2024-01-28T09:35:55Z</time>
      </trkpt>
      <trkpt lat="46.54296" lon="0.34965">
        <ele>159.4</ele>
        <time>2024-01-28T09:35:56Z</time>
      </trkpt>
      <trkpt lat="46.54294" lon="0.34966">
        <ele>159.4</ele>
        <time>2024-01-28T09:35:57Z</time>
      </trkpt>
      <trkpt lat="46.54287" lon="0.34971">
        <ele>159.2</ele>
        <time>2024-01-28T09:36:00Z</time>
      </trkpt>
      <trkpt lat="46.54277" lon="0.34979">
        <ele>158.4</ele>
        <time>2024-01-28T09:36:05Z</time>
      </trkpt>
      <trkpt lat="46.54275" lon="0.3498">
        <ele>158.2</ele>
        <time>2024-01-28T09:36:06Z</time>
      </trkpt>
      <trkpt lat="46.54271" lon="0.34979">
        <ele>157.8</ele>
        <time>2024-01-28T09:36:08Z</time>
      </trkpt>
      <trkpt lat="46.54267" lon="0.34976">
        <ele>157.6</ele>
        <time>2024-01-28T09:36:10Z</time>
      </trkpt>
      <trkpt lat="46.54265" lon="0.34976">
        <ele>157.4</ele>
        <time>2024-01-28T09:36:11Z</time>
      </trkpt>
      <trkpt lat="46.54261" lon="0.3498">
        <ele>157.2</ele>
        <time>2024-01-28T09:36:14Z</time>
      </trkpt>
      <trkpt lat="46.54259" lon="0.34985">
        <ele>157.2</ele>
        <time>2024-01-28T09:36:16Z</time>
      </trkpt>
      <trkpt lat="46.54253" lon="0.34996">
        <ele>156.6</ele>
        <time>2024-01-28T09:36:20Z</time>
      </trkpt>
      <trkpt lat="46.54252" lon="0.35002">
        <ele>156.4</ele>
        <time>2024-01-28T09:36:24Z</time>
      </trkpt>
      <trkpt lat="46.54251" lon="0.35003">
        <ele>156.4</ele>
        <time>2024-01-28T09:36:26Z</time>
      </trkpt>
      <trkpt lat="46.54251" lon="0.35011">
        <ele>156.8</ele>
        <time>2024-01-28T09:36:34Z</time>
      </trkpt>
      <trkpt lat="46.54251" lon="0.35013">
        <ele>157</ele>
        <time>2024-01-28T09:36:35Z</time>
      </trkpt>
      <trkpt lat="46.54258" lon="0.35023">
        <ele>158.4</ele>
        <time>2024-01-28T09:36:40Z</time>
      </trkpt>
      <trkpt lat="46.54263" lon="0.35027">
        <ele>159</ele>
        <time>2024-01-28T09:36:42Z</time>
      </trkpt>
      <trkpt lat="46.54273" lon="0.35036">
        <ele>159.6</ele>
        <time>2024-01-28T09:36:46Z</time>
      </trkpt>
      <trkpt lat="46.54276" lon="0.35037">
        <ele>159.6</ele>
        <time>2024-01-28T09:36:47Z</time>
      </trkpt>
      <trkpt lat="46.54281" lon="0.35039">
        <ele>159.8</ele>
        <time>2024-01-28T09:36:49Z</time>
      </trkpt>
      <trkpt lat="46.54292" lon="0.35042">
        <ele>159.8</ele>
        <time>2024-01-28T09:36:53Z</time>
      </trkpt>
      <trkpt lat="46.54307" lon="0.35043">
        <ele>160</ele>
        <time>2024-01-28T09:36:58Z</time>
      </trkpt>
      <trkpt lat="46.54317" lon="0.35056">
        <ele>160.8</ele>
        <time>2024-01-28T09:37:02Z</time>
      </trkpt>
      <trkpt lat="46.54318" lon="0.3506">
        <ele>160.8</ele>
        <time>2024-01-28T09:37:03Z</time>
      </trkpt>
      <trkpt lat="46.54323" lon="0.35072">
        <ele>161</ele>
        <time>2024-01-28T09:37:06Z</time>
      </trkpt>
      <trkpt lat="46.54324" lon="0.35078">
        <ele>161</ele>
        <time>2024-01-28T09:37:07Z</time>
      </trkpt>
      <trkpt lat="46.54334" lon="0.35092">
        <ele>161.2</ele>
        <time>2024-01-28T09:37:11Z</time>
      </trkpt>
      <trkpt lat="46.54348" lon="0.351">
        <ele>161</ele>
        <time>2024-01-28T09:37:16Z</time>
      </trkpt>
      <trkpt lat="46.5435" lon="0.35103">
        <ele>161</ele>
        <time>2024-01-28T09:37:17Z</time>
      </trkpt>
      <trkpt lat="46.5436" lon="0.35119">
        <ele>161.4</ele>
        <time>2024-01-28T09:37:21Z</time>
      </trkpt>
      <trkpt lat="46.54365" lon="0.35128">
        <ele>161.4</ele>
        <time>2024-01-28T09:37:23Z</time>
      </trkpt>
      <trkpt lat="46.5437" lon="0.35137">
        <ele>161.4</ele>
        <time>2024-01-28T09:37:25Z</time>
      </trkpt>
      <trkpt lat="46.54374" lon="0.35142">
        <ele>161.4</ele>
        <time>2024-01-28T09:37:26Z</time>
      </trkpt>
      <trkpt lat="46.54387" lon="0.35155">
        <ele>161.4</ele>
        <time>2024-01-28T09:37:29Z</time>
      </trkpt>
      <trkpt lat="46.54396" lon="0.35167">
        <ele>161</ele>
        <time>2024-01-28T09:37:32Z</time>
      </trkpt>
      <trkpt lat="46.54405" lon="0.35175">
        <ele>160.8</ele>
        <time>2024-01-28T09:37:34Z</time>
      </trkpt>
      <trkpt lat="46.54418" lon="0.35183">
        <ele>160.4</ele>
        <time>2024-01-28T09:37:37Z</time>
      </trkpt>
      <trkpt lat="46.54425" lon="0.35185">
        <ele>160.2</ele>
        <time>2024-01-28T09:37:39Z</time>
      </trkpt>
      <trkpt lat="46.54431" lon="0.35184">
        <ele>160.2</ele>
        <time>2024-01-28T09:37:41Z</time>
      </trkpt>
      <trkpt lat="46.54438" lon="0.35184">
        <ele>160.4</ele>
        <time>2024-01-28T09:37:43Z</time>
      </trkpt>
      <trkpt lat="46.54445" lon="0.35185">
        <ele>160.2</ele>
        <time>2024-01-28T09:37:45Z</time>
      </trkpt>
      <trkpt lat="46.54454" lon="0.35185">
        <ele>160.2</ele>
        <time>2024-01-28T09:37:47Z</time>
      </trkpt>
      <trkpt lat="46.54462" lon="0.35186">
        <ele>160.2</ele>
        <time>2024-01-28T09:37:49Z</time>
      </trkpt>
      <trkpt lat="46.54475" lon="0.35186">
        <ele>159.6</ele>
        <time>2024-01-28T09:37:52Z</time>
      </trkpt>
      <trkpt lat="46.54478" lon="0.35185">
        <ele>159.6</ele>
        <time>2024-01-28T09:37:53Z</time>
      </trkpt>
      <trkpt lat="46.54481" lon="0.35184">
        <ele>159.6</ele>
        <time>2024-01-28T09:37:54Z</time>
      </trkpt>
      <trkpt lat="46.54485" lon="0.35182">
        <ele>159.6</ele>
        <time>2024-01-28T09:37:55Z</time>
      </trkpt>
      <trkpt lat="46.54492" lon="0.35179">
        <ele>159.6</ele>
        <time>2024-01-28T09:37:57Z</time>
      </trkpt>
      <trkpt lat="46.54496" lon="0.35179">
        <ele>159.6</ele>
        <time>2024-01-28T09:37:58Z</time>
      </trkpt>
      <trkpt lat="46.545" lon="0.35178">
        <ele>159.6</ele>
        <time>2024-01-28T09:37:59Z</time>
      </trkpt>
      <trkpt lat="46.54507" lon="0.35176">
        <ele>159.4</ele>
        <time>2024-01-28T09:38:01Z</time>
      </trkpt>
      <trkpt lat="46.54513" lon="0.35175">
        <ele>159.2</ele>
        <time>2024-01-28T09:38:03Z</time>
      </trkpt>
      <trkpt lat="46.54525" lon="0.35179">
        <ele>158.8</ele>
        <time>2024-01-28T09:38:06Z</time>
      </trkpt>
      <trkpt lat="46.54528" lon="0.35181">
        <ele>158.6</ele>
        <time>2024-01-28T09:38:07Z</time>
      </trkpt>
      <trkpt lat="46.54531" lon="0.35181">
        <ele>158.4</ele>
        <time>2024-01-28T09:38:08Z</time>
      </trkpt>
      <trkpt lat="46.54539" lon="0.35181">
        <ele>158</ele>
        <time>2024-01-28T09:38:10Z</time>
      </trkpt>
      <trkpt lat="46.54543" lon="0.35182">
        <ele>157.8</ele>
        <time>2024-01-28T09:38:11Z</time>
      </trkpt>
      <trkpt lat="46.54549" lon="0.3518">
        <ele>157.6</ele>
        <time>2024-01-28T09:38:13Z</time>
      </trkpt>
      <trkpt lat="46.54559" lon="0.35175">
        <ele>157.2</ele>
        <time>2024-01-28T09:38:17Z</time>
      </trkpt>
      <trkpt lat="46.54566" lon="0.35171">
        <ele>156.8</ele>
        <time>2024-01-28T09:38:19Z</time>
      </trkpt>
      <trkpt lat="46.54574" lon="0.35166">
        <ele>156.8</ele>
        <time>2024-01-28T09:38:21Z</time>
      </trkpt>
      <trkpt lat="46.54577" lon="0.35165">
        <ele>156.6</ele>
        <time>2024-01-28T09:38:22Z</time>
      </trkpt>
      <trkpt lat="46.54583" lon="0.35166">
        <ele>156.6</ele>
        <time>2024-01-28T09:38:24Z</time>
      </trkpt>
      <trkpt lat="46.54587" lon="0.35169">
        <ele>156.2</ele>
        <time>2024-01-28T09:38:26Z</time>
      </trkpt>
      <trkpt lat="46.5459" lon="0.35181">
        <ele>155.6</ele>
        <time>2024-01-28T09:38:29Z</time>
      </trkpt>
      <trkpt lat="46.54591" lon="0.35185">
        <ele>155.6</ele>
        <time>2024-01-28T09:38:30Z</time>
      </trkpt>
      <trkpt lat="46.54592" lon="0.352">
        <ele>154.8</ele>
        <time>2024-01-28T09:38:33Z</time>
      </trkpt>
      <trkpt lat="46.54592" lon="0.35208">
        <ele>154.4</ele>
        <time>2024-01-28T09:38:35Z</time>
      </trkpt>
      <trkpt lat="46.54592" lon="0.35216">
        <ele>154.2</ele>
        <time>2024-01-28T09:38:37Z</time>
      </trkpt>
      <trkpt lat="46.54587" lon="0.35234">
        <ele>153.8</ele>
        <time>2024-01-28T09:38:41Z</time>
      </trkpt>
      <trkpt lat="46.54584" lon="0.35256">
        <ele>153.6</ele>
        <time>2024-01-28T09:38:45Z</time>
      </trkpt>
      <trkpt lat="46.54583" lon="0.35264">
        <ele>153.4</ele>
        <time>2024-01-28T09:38:47Z</time>
      </trkpt>
      <trkpt lat="46.54581" lon="0.35269">
        <ele>153.2</ele>
        <time>2024-01-28T09:38:48Z</time>
      </trkpt>
      <trkpt lat="46.54573" lon="0.35283">
        <ele>152.8</ele>
        <time>2024-01-28T09:38:51Z</time>
      </trkpt>
      <trkpt lat="46.54561" lon="0.35305">
        <ele>153</ele>
        <time>2024-01-28T09:38:56Z</time>
      </trkpt>
      <trkpt lat="46.54559" lon="0.3531">
        <ele>153</ele>
        <time>2024-01-28T09:38:57Z</time>
      </trkpt>
      <trkpt lat="46.54558" lon="0.35322">
        <ele>153.4</ele>
        <time>2024-01-28T09:39:00Z</time>
      </trkpt>
      <trkpt lat="46.54558" lon="0.35329">
        <ele>153.6</ele>
        <time>2024-01-28T09:39:02Z</time>
      </trkpt>
      <trkpt lat="46.54563" lon="0.35333">
        <ele>153.4</ele>
        <time>2024-01-28T09:39:04Z</time>
      </trkpt>
      <trkpt lat="46.5457" lon="0.35336">
        <ele>152</ele>
        <time>2024-01-28T09:39:07Z</time>
      </trkpt>
      <trkpt lat="46.54576" lon="0.35338">
        <ele>151.2</ele>
        <time>2024-01-28T09:39:09Z</time>
      </trkpt>
      <trkpt lat="46.54577" lon="0.35339">
        <ele>150.8</ele>
        <time>2024-01-28T09:39:10Z</time>
      </trkpt>
      <trkpt lat="46.54583" lon="0.35342">
        <ele>149.6</ele>
        <time>2024-01-28T09:39:12Z</time>
      </trkpt>
      <trkpt lat="46.54587" lon="0.35346">
        <ele>148.2</ele>
        <time>2024-01-28T09:39:14Z</time>
      </trkpt>
      <trkpt lat="46.54591" lon="0.35347">
        <ele>146.8</ele>
        <time>2024-01-28T09:39:15Z</time>
      </trkpt>
      <trkpt lat="46.54598" lon="0.35349">
        <ele>144.2</ele>
        <time>2024-01-28T09:39:17Z</time>
      </trkpt>
      <trkpt lat="46.54601" lon="0.35351">
        <ele>143</ele>
        <time>2024-01-28T09:39:18Z</time>
      </trkpt>
      <trkpt lat="46.54608" lon="0.35357">
        <ele>141.6</ele>
        <time>2024-01-28T09:39:20Z</time>
      </trkpt>
      <trkpt lat="46.54612" lon="0.35359">
        <ele>140.4</ele>
        <time>2024-01-28T09:39:21Z</time>
      </trkpt>
      <trkpt lat="46.54616" lon="0.35361">
        <ele>139.4</ele>
        <time>2024-01-28T09:39:22Z</time>
      </trkpt>
      <trkpt lat="46.54621" lon="0.35365">
        <ele>138.8</ele>
        <time>2024-01-28T09:39:23Z</time>
      </trkpt>
      <trkpt lat="46.54625" lon="0.3537">
        <ele>138</ele>
        <time>2024-01-28T09:39:24Z</time>
      </trkpt>
      <trkpt lat="46.54632" lon="0.3538">
        <ele>136.6</ele>
        <time>2024-01-28T09:39:26Z</time>
      </trkpt>
      <trkpt lat="46.54641" lon="0.35391">
        <ele>136</ele>
        <time>2024-01-28T09:39:28Z</time>
      </trkpt>
      <trkpt lat="46.54647" lon="0.35396">
        <ele>135.6</ele>
        <time>2024-01-28T09:39:29Z</time>
      </trkpt>
      <trkpt lat="46.54657" lon="0.35404">
        <ele>134.8</ele>
        <time>2024-01-28T09:39:31Z</time>
      </trkpt>
      <trkpt lat="46.54662" lon="0.35409">
        <ele>134.6</ele>
        <time>2024-01-28T09:39:32Z</time>
      </trkpt>
      <trkpt lat="46.54668" lon="0.35414">
        <ele>134.2</ele>
        <time>2024-01-28T09:39:33Z</time>
      </trkpt>
      <trkpt lat="46.54672" lon="0.35419">
        <ele>133.2</ele>
        <time>2024-01-28T09:39:34Z</time>
      </trkpt>
      <trkpt lat="46.54676" lon="0.35428">
        <ele>132.6</ele>
        <time>2024-01-28T09:39:36Z</time>
      </trkpt>
      <trkpt lat="46.54678" lon="0.35443">
        <ele>132.2</ele>
        <time>2024-01-28T09:39:39Z</time>
      </trkpt>
      <trkpt lat="46.54679" lon="0.35449">
        <ele>132.2</ele>
        <time>2024-01-28T09:39:40Z</time>
      </trkpt>
      <trkpt lat="46.54681" lon="0.35456">
        <ele>132.2</ele>
        <time>2024-01-28T09:39:41Z</time>
      </trkpt>
      <trkpt lat="46.54686" lon="0.35471">
        <ele>132.4</ele>
        <time>2024-01-28T09:39:43Z</time>
      </trkpt>
      <trkpt lat="46.5469" lon="0.35493">
        <ele>131.8</ele>
        <time>2024-01-28T09:39:46Z</time>
      </trkpt>
      <trkpt lat="46.54692" lon="0.35508">
        <ele>131</ele>
        <time>2024-01-28T09:39:48Z</time>
      </trkpt>
      <trkpt lat="46.54693" lon="0.35513">
        <ele>130.4</ele>
        <time>2024-01-28T09:39:49Z</time>
      </trkpt>
      <trkpt lat="46.54694" lon="0.35516">
        <ele>129.2</ele>
        <time>2024-01-28T09:39:50Z</time>
      </trkpt>
      <trkpt lat="46.54697" lon="0.35523">
        <ele>127.8</ele>
        <time>2024-01-28T09:39:52Z</time>
      </trkpt>
      <trkpt lat="46.54699" lon="0.35526">
        <ele>127.2</ele>
        <time>2024-01-28T09:39:53Z</time>
      </trkpt>
      <trkpt lat="46.547" lon="0.35529">
        <ele>126.6</ele>
        <time>2024-01-28T09:39:54Z</time>
      </trkpt>
      <trkpt lat="46.54702" lon="0.35536">
        <ele>125.6</ele>
        <time>2024-01-28T09:39:57Z</time>
      </trkpt>
      <trkpt lat="46.54703" lon="0.35542">
        <ele>125</ele>
        <time>2024-01-28T09:39:59Z</time>
      </trkpt>
      <trkpt lat="46.54707" lon="0.35557">
        <ele>125.4</ele>
        <time>2024-01-28T09:40:09Z</time>
      </trkpt>
      <trkpt lat="46.54706" lon="0.35568">
        <ele>127</ele>
        <time>2024-01-28T09:40:18Z</time>
      </trkpt>
      <trkpt lat="46.54707" lon="0.35569">
        <ele>127.8</ele>
        <time>2024-01-28T09:40:21Z</time>
      </trkpt>
      <trkpt lat="46.54707" lon="0.3557">
        <ele>128</ele>
        <time>2024-01-28T09:40:23Z</time>
      </trkpt>
      <trkpt lat="46.54707" lon="0.35579">
        <ele>129.2</ele>
        <time>2024-01-28T09:40:32Z</time>
      </trkpt>
      <trkpt lat="46.54708" lon="0.3558">
        <ele>129.2</ele>
        <time>2024-01-28T09:40:33Z</time>
      </trkpt>
      <trkpt lat="46.54709" lon="0.35583">
        <ele>129.2</ele>
        <time>2024-01-28T09:40:36Z</time>
      </trkpt>
      <trkpt lat="46.5471" lon="0.35586">
        <ele>129.2</ele>
        <time>2024-01-28T09:40:38Z</time>
      </trkpt>
      <trkpt lat="46.54712" lon="0.3559">
        <ele>128.8</ele>
        <time>2024-01-28T09:40:42Z</time>
      </trkpt>
      <trkpt lat="46.54714" lon="0.35594">
        <ele>128.8</ele>
        <time>2024-01-28T09:40:44Z</time>
      </trkpt>
      <trkpt lat="46.54715" lon="0.35596">
        <ele>129</ele>
        <time>2024-01-28T09:40:45Z</time>
      </trkpt>
      <trkpt lat="46.54718" lon="0.35613">
        <ele>129.6</ele>
        <time>2024-01-28T09:40:53Z</time>
      </trkpt>
      <trkpt lat="46.54722" lon="0.35636">
        <ele>129.8</ele>
        <time>2024-01-28T09:41:02Z</time>
      </trkpt>
      <trkpt lat="46.54723" lon="0.35642">
        <ele>129.6</ele>
        <time>2024-01-28T09:41:04Z</time>
      </trkpt>
      <trkpt lat="46.54724" lon="0.3565">
        <ele>129.6</ele>
        <time>2024-01-28T09:41:07Z</time>
      </trkpt>
      <trkpt lat="46.54724" lon="0.35652">
        <ele>129.8</ele>
        <time>2024-01-28T09:41:08Z</time>
      </trkpt>
      <trkpt lat="46.54724" lon="0.35655">
        <ele>129.8</ele>
        <time>2024-01-28T09:41:09Z</time>
      </trkpt>
      <trkpt lat="46.54725" lon="0.35662">
        <ele>130</ele>
        <time>2024-01-28T09:41:12Z</time>
      </trkpt>
      <trkpt lat="46.54725" lon="0.35667">
        <ele>130.4</ele>
        <time>2024-01-28T09:41:15Z</time>
      </trkpt>
      <trkpt lat="46.54724" lon="0.35669">
        <ele>131</ele>
        <time>2024-01-28T09:41:17Z</time>
      </trkpt>
      <trkpt lat="46.54723" lon="0.35673">
        <ele>131.6</ele>
        <time>2024-01-28T09:41:19Z</time>
      </trkpt>
      <trkpt lat="46.54723" lon="0.35679">
        <ele>132.8</ele>
        <time>2024-01-28T09:41:22Z</time>
      </trkpt>
      <trkpt lat="46.54721" lon="0.35685">
        <ele>134</ele>
        <time>2024-01-28T09:41:25Z</time>
      </trkpt>
      <trkpt lat="46.54717" lon="0.3569">
        <ele>135.4</ele>
        <time>2024-01-28T09:41:29Z</time>
      </trkpt>
      <trkpt lat="46.54714" lon="0.35696">
        <ele>136.6</ele>
        <time>2024-01-28T09:41:34Z</time>
      </trkpt>
      <trkpt lat="46.54711" lon="0.357">
        <ele>137.6</ele>
        <time>2024-01-28T09:41:38Z</time>
      </trkpt>
      <trkpt lat="46.54708" lon="0.35704">
        <ele>138.6</ele>
        <time>2024-01-28T09:41:41Z</time>
      </trkpt>
      <trkpt lat="46.54702" lon="0.3571">
        <ele>139.6</ele>
        <time>2024-01-28T09:41:46Z</time>
      </trkpt>
      <trkpt lat="46.547" lon="0.35712">
        <ele>140.4</ele>
        <time>2024-01-28T09:41:48Z</time>
      </trkpt>
      <trkpt lat="46.54698" lon="0.35713">
        <ele>140.6</ele>
        <time>2024-01-28T09:41:50Z</time>
      </trkpt>
      <trkpt lat="46.54697" lon="0.35714">
        <ele>140.8</ele>
        <time>2024-01-28T09:41:51Z</time>
      </trkpt>
      <trkpt lat="46.54696" lon="0.35716">
        <ele>141.2</ele>
        <time>2024-01-28T09:41:53Z</time>
      </trkpt>
      <trkpt lat="46.54694" lon="0.35719">
        <ele>141.8</ele>
        <time>2024-01-28T09:41:55Z</time>
      </trkpt>
      <trkpt lat="46.54693" lon="0.35721">
        <ele>142</ele>
        <time>2024-01-28T09:41:56Z</time>
      </trkpt>
      <trkpt lat="46.5469" lon="0.35725">
        <ele>142.8</ele>
        <time>2024-01-28T09:42:00Z</time>
      </trkpt>
      <trkpt lat="46.5469" lon="0.35728">
        <ele>143</ele>
        <time>2024-01-28T09:42:02Z</time>
      </trkpt>
      <trkpt lat="46.54689" lon="0.35736">
        <ele>144.2</ele>
        <time>2024-01-28T09:42:07Z</time>
      </trkpt>
      <trkpt lat="46.54688" lon="0.35741">
        <ele>144.8</ele>
        <time>2024-01-28T09:42:10Z</time>
      </trkpt>
      <trkpt lat="46.54687" lon="0.35743">
        <ele>145</ele>
        <time>2024-01-28T09:42:11Z</time>
      </trkpt>
      <trkpt lat="46.54687" lon="0.35748">
        <ele>145.2</ele>
        <time>2024-01-28T09:42:13Z</time>
      </trkpt>
      <trkpt lat="46.54689" lon="0.35756">
        <ele>145.4</ele>
        <time>2024-01-28T09:42:16Z</time>
      </trkpt>
      <trkpt lat="46.54694" lon="0.35772">
        <ele>145.6</ele>
        <time>2024-01-28T09:42:21Z</time>
      </trkpt>
      <trkpt lat="46.54696" lon="0.35782">
        <ele>146.4</ele>
        <time>2024-01-28T09:42:25Z</time>
      </trkpt>
      <trkpt lat="46.54697" lon="0.35788">
        <ele>146.8</ele>
        <time>2024-01-28T09:42:28Z</time>
      </trkpt>
      <trkpt lat="46.54699" lon="0.35795">
        <ele>147.4</ele>
        <time>2024-01-28T09:42:33Z</time>
      </trkpt>
      <trkpt lat="46.54699" lon="0.35795">
        <ele>147.4</ele>
        <time>2024-01-28T09:42:34Z</time>
      </trkpt>
      <trkpt lat="46.54699" lon="0.35797">
        <ele>147.4</ele>
        <time>2024-01-28T09:42:35Z</time>
      </trkpt>
      <trkpt lat="46.547" lon="0.35797">
        <ele>147.4</ele>
        <time>2024-01-28T09:42:36Z</time>
      </trkpt>
      <trkpt lat="46.54702" lon="0.35797">
        <ele>147.4</ele>
        <time>2024-01-28T09:42:39Z</time>
      </trkpt>
      <trkpt lat="46.54705" lon="0.35794">
        <ele>147</ele>
        <time>2024-01-28T09:42:43Z</time>
      </trkpt>
      <trkpt lat="46.54707" lon="0.35793">
        <ele>146.6</ele>
        <time>2024-01-28T09:42:44Z</time>
      </trkpt>
      <trkpt lat="46.54707" lon="0.35791">
        <ele>145.8</ele>
        <time>2024-01-28T09:42:45Z</time>
      </trkpt>
      <trkpt lat="46.5471" lon="0.35789">
        <ele>144.2</ele>
        <time>2024-01-28T09:42:47Z</time>
      </trkpt>
      <trkpt lat="46.54712" lon="0.35788">
        <ele>143</ele>
        <time>2024-01-28T09:42:49Z</time>
      </trkpt>
      <trkpt lat="46.54713" lon="0.35786">
        <ele>141.8</ele>
        <time>2024-01-28T09:42:52Z</time>
      </trkpt>
      <trkpt lat="46.54714" lon="0.35786">
        <ele>141.4</ele>
        <time>2024-01-28T09:42:53Z</time>
      </trkpt>
      <trkpt lat="46.54715" lon="0.35786">
        <ele>140.8</ele>
        <time>2024-01-28T09:42:54Z</time>
      </trkpt>
      <trkpt lat="46.54716" lon="0.35787">
        <ele>140.4</ele>
        <time>2024-01-28T09:42:55Z</time>
      </trkpt>
      <trkpt lat="46.54719" lon="0.35785">
        <ele>139.4</ele>
        <time>2024-01-28T09:43:00Z</time>
      </trkpt>
      <trkpt lat="46.5472" lon="0.35784">
        <ele>138.4</ele>
        <time>2024-01-28T09:43:03Z</time>
      </trkpt>
      <trkpt lat="46.54721" lon="0.35784">
        <ele>138</ele>
        <time>2024-01-28T09:43:04Z</time>
      </trkpt>
      <trkpt lat="46.54722" lon="0.35783">
        <ele>137.8</ele>
        <time>2024-01-28T09:43:05Z</time>
      </trkpt>
      <trkpt lat="46.54723" lon="0.35781">
        <ele>137.6</ele>
        <time>2024-01-28T09:43:07Z</time>
      </trkpt>
      <trkpt lat="46.54724" lon="0.35779">
        <ele>137</ele>
        <time>2024-01-28T09:43:08Z</time>
      </trkpt>
      <trkpt lat="46.54724" lon="0.35778">
        <ele>136.6</ele>
        <time>2024-01-28T09:43:09Z</time>
      </trkpt>
      <trkpt lat="46.54728" lon="0.35772">
        <ele>136</ele>
        <time>2024-01-28T09:43:15Z</time>
      </trkpt>
      <trkpt lat="46.54728" lon="0.35771">
        <ele>136</ele>
        <time>2024-01-28T09:43:16Z</time>
      </trkpt>
      <trkpt lat="46.54729" lon="0.35769">
        <ele>135.8</ele>
        <time>2024-01-28T09:43:17Z</time>
      </trkpt>
      <trkpt lat="46.54729" lon="0.35763">
        <ele>135</ele>
        <time>2024-01-28T09:43:21Z</time>
      </trkpt>
      <trkpt lat="46.5473" lon="0.35762">
        <ele>134.6</ele>
        <time>2024-01-28T09:43:22Z</time>
      </trkpt>
      <trkpt lat="46.54731" lon="0.3576">
        <ele>133.4</ele>
        <time>2024-01-28T09:43:24Z</time>
      </trkpt>
      <trkpt lat="46.54731" lon="0.3576">
        <ele>133.2</ele>
        <time>2024-01-28T09:43:25Z</time>
      </trkpt>
      <trkpt lat="46.54732" lon="0.35757">
        <ele>132.4</ele>
        <time>2024-01-28T09:43:28Z</time>
      </trkpt>
      <trkpt lat="46.54733" lon="0.35756">
        <ele>131.8</ele>
        <time>2024-01-28T09:43:39Z</time>
      </trkpt>
      <trkpt lat="46.54733" lon="0.35757">
        <ele>131.2</ele>
        <time>2024-01-28T09:43:46Z</time>
      </trkpt>
      <trkpt lat="46.54735" lon="0.35755">
        <ele>130</ele>
        <time>2024-01-28T09:43:52Z</time>
      </trkpt>
      <trkpt lat="46.54738" lon="0.35753">
        <ele>129</ele>
        <time>2024-01-28T09:44:01Z</time>
      </trkpt>
      <trkpt lat="46.54739" lon="0.35752">
        <ele>128.8</ele>
        <time>2024-01-28T09:44:03Z</time>
      </trkpt>
      <trkpt lat="46.5474" lon="0.35749">
        <ele>128</ele>
        <time>2024-01-28T09:44:08Z</time>
      </trkpt>
      <trkpt lat="46.54741" lon="0.35746">
        <ele>127</ele>
        <time>2024-01-28T09:44:12Z</time>
      </trkpt>
      <trkpt lat="46.54741" lon="0.35745">
        <ele>126.2</ele>
        <time>2024-01-28T09:44:14Z</time>
      </trkpt>
      <trkpt lat="46.54741" lon="0.35745">
        <ele>125.8</ele>
        <time>2024-01-28T09:44:15Z</time>
      </trkpt>
      <trkpt lat="46.54742" lon="0.35745">
        <ele>125.6</ele>
        <time>2024-01-28T09:44:16Z</time>
      </trkpt>
      <trkpt lat="46.54741" lon="0.35742">
        <ele>124.6</ele>
        <time>2024-01-28T09:44:20Z</time>
      </trkpt>
      <trkpt lat="46.54742" lon="0.35741">
        <ele>123.6</ele>
        <time>2024-01-28T09:44:24Z</time>
      </trkpt>
      <trkpt lat="46.54742" lon="0.35741">
        <ele>123</ele>
        <time>2024-01-28T09:44:27Z</time>
      </trkpt>
      <trkpt lat="46.54742" lon="0.3574">
        <ele>122.4</ele>
        <time>2024-01-28T09:44:32Z</time>
      </trkpt>
      <trkpt lat="46.54742" lon="0.3574">
        <ele>121.4</ele>
        <time>2024-01-28T09:44:38Z</time>
      </trkpt>
      <trkpt lat="46.54743" lon="0.35738">
        <ele>121.2</ele>
        <time>2024-01-28T09:44:44Z</time>
      </trkpt>
      <trkpt lat="46.54748" lon="0.35737">
        <ele>120.8</ele>
        <time>2024-01-28T09:44:57Z</time>
      </trkpt>
      <trkpt lat="46.54751" lon="0.35738">
        <ele>120.8</ele>
        <time>2024-01-28T09:45:11Z</time>
      </trkpt>
      <trkpt lat="46.54752" lon="0.35738">
        <ele>120.8</ele>
        <time>2024-01-28T09:45:28Z</time>
      </trkpt>
      <trkpt lat="46.54751" lon="0.35739">
        <ele>120.6</ele>
        <time>2024-01-28T09:45:43Z</time>
      </trkpt>
      <trkpt lat="46.54751" lon="0.35741">
        <ele>120.4</ele>
        <time>2024-01-28T09:45:54Z</time>
      </trkpt>
      <trkpt lat="46.54751" lon="0.35741">
        <ele>120.4</ele>
        <time>2024-01-28T09:45:58Z</time>
      </trkpt>
      <trkpt lat="46.54751" lon="0.35741">
        <ele>120.6</ele>
        <time>2024-01-28T09:46:12Z</time>
      </trkpt>
      <trkpt lat="46.5475" lon="0.3574">
        <ele>120.6</ele>
        <time>2024-01-28T09:46:31Z</time>
      </trkpt>
      <trkpt lat="46.54751" lon="0.35742">
        <ele>120.6</ele>
        <time>2024-01-28T09:46:47Z</time>
      </trkpt>
      <trkpt lat="46.54752" lon="0.35737">
        <ele>120.6</ele>
        <time>2024-01-28T09:47:04Z</time>
      </trkpt>
      <trkpt lat="46.54752" lon="0.35738">
        <ele>120.6</ele>
        <time>2024-01-28T09:47:20Z</time>
      </trkpt>
      <trkpt lat="46.54752" lon="0.35738">
        <ele>120.6</ele>
        <time>2024-01-28T09:47:34Z</time>
      </trkpt>
      <trkpt lat="46.54752" lon="0.35739">
        <ele>120.6</ele>
        <time>2024-01-28T09:47:52Z</time>
      </trkpt>
      <trkpt lat="46.54752" lon="0.35738">
        <ele>120.6</ele>
        <time>2024-01-28T09:48:09Z</time>
      </trkpt>
      <trkpt lat="46.54752" lon="0.35738">
        <ele>120.6</ele>
        <time>2024-01-28T09:48:19Z</time>
      </trkpt>
      <trkpt lat="46.54753" lon="0.35738">
        <ele>120.6</ele>
        <time>2024-01-28T09:48:36Z</time>
      </trkpt>
      <trkpt lat="46.54755" lon="0.35738">
        <ele>120.6</ele>
        <time>2024-01-28T09:48:53Z</time>
      </trkpt>
      <trkpt lat="46.54754" lon="0.35738">
        <ele>120.6</ele>
        <time>2024-01-28T09:49:10Z</time>
      </trkpt>
      <trkpt lat="46.54752" lon="0.35741">
        <ele>120.6</ele>
        <time>2024-01-28T09:49:25Z</time>
      </trkpt>
      <trkpt lat="46.54751" lon="0.35738">
        <ele>120.6</ele>
        <time>2024-01-28T09:49:43Z</time>
      </trkpt>
      <trkpt lat="46.54752" lon="0.35734">
        <ele>120.6</ele>
        <time>2024-01-28T09:49:57Z</time>
      </trkpt>
      <trkpt lat="46.54752" lon="0.35734">
        <ele>120.6</ele>
        <time>2024-01-28T09:50:14Z</time>
      </trkpt>
      <trkpt lat="46.54753" lon="0.35736">
        <ele>120.6</ele>
        <time>2024-01-28T09:50:30Z</time>
      </trkpt>
      <trkpt lat="46.54753" lon="0.35736">
        <ele>120.6</ele>
        <time>2024-01-28T09:50:48Z</time>
      </trkpt>
      <trkpt lat="46.54754" lon="0.35735">
        <ele>120.6</ele>
        <time>2024-01-28T09:51:05Z</time>
      </trkpt>
      <trkpt lat="46.54753" lon="0.35735">
        <ele>120.6</ele>
        <time>2024-01-28T09:51:23Z</time>
      </trkpt>
      <trkpt lat="46.54753" lon="0.35737">
        <ele>120.6</ele>
        <time>2024-01-28T09:51:41Z</time>
      </trkpt>
      <trkpt lat="46.54752" lon="0.35736">
        <ele>120.6</ele>
        <time>2024-01-28T09:51:54Z</time>
      </trkpt>
      <trkpt lat="46.54753" lon="0.35735">
        <ele>120.6</ele>
        <time>2024-01-28T09:52:14Z</time>
      </trkpt>
      <trkpt lat="46.54753" lon="0.35735">
        <ele>120.6</ele>
        <time>2024-01-28T09:52:35Z</time>
      </trkpt>
      <trkpt lat="46.54752" lon="0.35736">
        <ele>120.6</ele>
        <time>2024-01-28T09:52:51Z</time>
      </trkpt>
      <trkpt lat="46.54753" lon="0.35736">
        <ele>120.6</ele>
        <time>2024-01-28T09:53:10Z</time>
      </trkpt>
      <trkpt lat="46.54753" lon="0.35739">
        <ele>120.6</ele>
        <time>2024-01-28T09:53:26Z</time>
      </trkpt>
      <trkpt lat="46.54753" lon="0.35738">
        <ele>120.6</ele>
        <time>2024-01-28T09:53:43Z</time>
      </trkpt>
      <trkpt lat="46.54751" lon="0.35737">
        <ele>120.6</ele>
        <time>2024-01-28T09:53:59Z</time>
      </trkpt>
      <trkpt lat="46.54752" lon="0.35737">
        <ele>120.6</ele>
        <time>2024-01-28T09:54:19Z</time>
      </trkpt>
      <trkpt lat="46.54753" lon="0.35738">
        <ele>120.6</ele>
        <time>2024-01-28T09:54:38Z</time>
      </trkpt>
      <trkpt lat="46.54752" lon="0.35738">
        <ele>120.6</ele>
        <time>2024-01-28T09:54:56Z</time>
      </trkpt>
      <trkpt lat="46.54751" lon="0.35738">
        <ele>120.6</ele>
        <time>2024-01-28T09:55:09Z</time>
      </trkpt>
      <trkpt lat="46.54751" lon="0.35742">
        <ele>120.6</ele>
        <time>2024-01-28T09:55:18Z</time>
      </trkpt>
      <trkpt lat="46.5475" lon="0.35759">
        <ele>120.6</ele>
        <time>2024-01-28T09:55:25Z</time>
      </trkpt>
      <trkpt lat="46.54751" lon="0.35775">
        <ele>120.6</ele>
        <time>2024-01-28T09:55:30Z</time>
      </trkpt>
      <trkpt lat="46.54754" lon="0.35794">
        <ele>120.4</ele>
        <time>2024-01-28T09:55:36Z</time>
      </trkpt>
      <trkpt lat="46.54757" lon="0.35816">
        <ele>120.2</ele>
        <time>2024-01-28T09:55:41Z</time>
      </trkpt>
      <trkpt lat="46.54764" lon="0.35844">
        <ele>120</ele>
        <time>2024-01-28T09:55:47Z</time>
      </trkpt>
      <trkpt lat="46.54768" lon="0.35857">
        <ele>120.4</ele>
        <time>2024-01-28T09:55:50Z</time>
      </trkpt>
      <trkpt lat="46.5477" lon="0.3587">
        <ele>120.6</ele>
        <time>2024-01-28T09:55:53Z</time>
      </trkpt>
      <trkpt lat="46.54771" lon="0.35875">
        <ele>120.6</ele>
        <time>2024-01-28T09:55:54Z</time>
      </trkpt>
      <trkpt lat="46.54772" lon="0.35879">
        <ele>120.6</ele>
        <time>2024-01-28T09:55:55Z</time>
      </trkpt>
      <trkpt lat="46.54781" lon="0.35897">
        <ele>120.8</ele>
        <time>2024-01-28T09:56:00Z</time>
      </trkpt>
      <trkpt lat="46.54784" lon="0.35905">
        <ele>120.6</ele>
        <time>2024-01-28T09:56:02Z</time>
      </trkpt>
      <trkpt lat="46.54789" lon="0.35912">
        <ele>120.6</ele>
        <time>2024-01-28T09:56:04Z</time>
      </trkpt>
      <trkpt lat="46.54792" lon="0.35917">
        <ele>120.6</ele>
        <time>2024-01-28T09:56:06Z</time>
      </trkpt>
      <trkpt lat="46.54794" lon="0.3592">
        <ele>120.8</ele>
        <time>2024-01-28T09:56:07Z</time>
      </trkpt>
      <trkpt lat="46.5481" lon="0.35945">
        <ele>120.8</ele>
        <time>2024-01-28T09:56:13Z</time>
      </trkpt>
      <trkpt lat="46.54821" lon="0.35963">
        <ele>120.8</ele>
        <time>2024-01-28T09:56:17Z</time>
      </trkpt>
      <trkpt lat="46.54826" lon="0.3597">
        <ele>121</ele>
        <time>2024-01-28T09:56:19Z</time>
      </trkpt>
      <trkpt lat="46.54834" lon="0.3598">
        <ele>120.8</ele>
        <time>2024-01-28T09:56:22Z</time>
      </trkpt>
      <trkpt lat="46.54839" lon="0.35986">
        <ele>120.8</ele>
        <time>2024-01-28T09:56:24Z</time>
      </trkpt>
      <trkpt lat="46.54843" lon="0.3599">
        <ele>120.8</ele>
        <time>2024-01-28T09:56:25Z</time>
      </trkpt>
      <trkpt lat="46.54856" lon="0.36011">
        <ele>121</ele>
        <time>2024-01-28T09:56:30Z</time>
      </trkpt>
      <trkpt lat="46.54859" lon="0.36015">
        <ele>121</ele>
        <time>2024-01-28T09:56:31Z</time>
      </trkpt>
      <trkpt lat="46.54862" lon="0.36021">
        <ele>120.8</ele>
        <time>2024-01-28T09:56:33Z</time>
      </trkpt>
      <trkpt lat="46.54868" lon="0.36029">
        <ele>120.8</ele>
        <time>2024-01-28T09:56:35Z</time>
      </trkpt>
      <trkpt lat="46.54873" lon="0.36037">
        <ele>120.6</ele>
        <time>2024-01-28T09:56:37Z</time>
      </trkpt>
      <trkpt lat="46.54877" lon="0.36042">
        <ele>120.6</ele>
        <time>2024-01-28T09:56:38Z</time>
      </trkpt>
      <trkpt lat="46.54887" lon="0.36054">
        <ele>120.6</ele>
        <time>2024-01-28T09:56:41Z</time>
      </trkpt>
      <trkpt lat="46.54904" lon="0.36076">
        <ele>120.8</ele>
        <time>2024-01-28T09:56:46Z</time>
      </trkpt>
      <trkpt lat="46.54913" lon="0.36094">
        <ele>121.4</ele>
        <time>2024-01-28T09:56:50Z</time>
      </trkpt>
      <trkpt lat="46.54918" lon="0.36102">
        <ele>121.8</ele>
        <time>2024-01-28T09:56:52Z</time>
      </trkpt>
      <trkpt lat="46.5492" lon="0.36106">
        <ele>121.8</ele>
        <time>2024-01-28T09:56:53Z</time>
      </trkpt>
      <trkpt lat="46.54927" lon="0.3612">
        <ele>122</ele>
        <time>2024-01-28T09:56:56Z</time>
      </trkpt>
      <trkpt lat="46.54933" lon="0.36131">
        <ele>122</ele>
        <time>2024-01-28T09:56:58Z</time>
      </trkpt>
      <trkpt lat="46.54943" lon="0.36148">
        <ele>121.4</ele>
        <time>2024-01-28T09:57:02Z</time>
      </trkpt>
      <trkpt lat="46.54946" lon="0.36152">
        <ele>121.4</ele>
        <time>2024-01-28T09:57:04Z</time>
      </trkpt>
      <trkpt lat="46.54953" lon="0.36159">
        <ele>121.6</ele>
        <time>2024-01-28T09:57:05Z</time>
      </trkpt>
      <trkpt lat="46.5496" lon="0.36164">
        <ele>121.6</ele>
        <time>2024-01-28T09:57:07Z</time>
      </trkpt>
      <trkpt lat="46.54971" lon="0.3617">
        <ele>121.8</ele>
        <time>2024-01-28T09:57:10Z</time>
      </trkpt>
      <trkpt lat="46.55005" lon="0.36186">
        <ele>121.4</ele>
        <time>2024-01-28T09:57:19Z</time>
      </trkpt>
      <trkpt lat="46.55035" lon="0.36199">
        <ele>121</ele>
        <time>2024-01-28T09:57:26Z</time>
      </trkpt>
      <trkpt lat="46.55052" lon="0.3621">
        <ele>121</ele>
        <time>2024-01-28T09:57:31Z</time>
      </trkpt>
      <trkpt lat="46.55066" lon="0.36217">
        <ele>121.2</ele>
        <time>2024-01-28T09:57:36Z</time>
      </trkpt>
      <trkpt lat="46.55068" lon="0.36219">
        <ele>121.2</ele>
        <time>2024-01-28T09:57:37Z</time>
      </trkpt>
      <trkpt lat="46.5508" lon="0.36232">
        <ele>121.4</ele>
        <time>2024-01-28T09:57:42Z</time>
      </trkpt>
      <trkpt lat="46.55089" lon="0.36235">
        <ele>121.2</ele>
        <time>2024-01-28T09:57:45Z</time>
      </trkpt>
      <trkpt lat="46.55092" lon="0.36237">
        <ele>121.2</ele>
        <time>2024-01-28T09:57:46Z</time>
      </trkpt>
      <trkpt lat="46.55107" lon="0.36256">
        <ele>121.6</ele>
        <time>2024-01-28T09:57:51Z</time>
      </trkpt>
      <trkpt lat="46.55121" lon="0.3628">
        <ele>121.4</ele>
        <time>2024-01-28T09:57:57Z</time>
      </trkpt>
      <trkpt lat="46.55123" lon="0.36291">
        <ele>121.6</ele>
        <time>2024-01-28T09:58:00Z</time>
      </trkpt>
      <trkpt lat="46.55121" lon="0.36297">
        <ele>121.2</ele>
        <time>2024-01-28T09:58:02Z</time>
      </trkpt>
      <trkpt lat="46.55116" lon="0.363">
        <ele>121.6</ele>
        <time>2024-01-28T09:58:06Z</time>
      </trkpt>
      <trkpt lat="46.55107" lon="0.36311">
        <ele>121.8</ele>
        <time>2024-01-28T09:58:11Z</time>
      </trkpt>
      <trkpt lat="46.55104" lon="0.36313">
        <ele>122</ele>
        <time>2024-01-28T09:58:13Z</time>
      </trkpt>
      <trkpt lat="46.551" lon="0.36313">
        <ele>122</ele>
        <time>2024-01-28T09:58:15Z</time>
      </trkpt>
      <trkpt lat="46.5509" lon="0.36311">
        <ele>122</ele>
        <time>2024-01-28T09:58:20Z</time>
      </trkpt>
      <trkpt lat="46.55088" lon="0.36311">
        <ele>122.2</ele>
        <time>2024-01-28T09:58:21Z</time>
      </trkpt>
      <trkpt lat="46.5508" lon="0.36313">
        <ele>122.2</ele>
        <time>2024-01-28T09:58:24Z</time>
      </trkpt>
      <trkpt lat="46.55066" lon="0.3631">
        <ele>121.8</ele>
        <time>2024-01-28T09:58:30Z</time>
      </trkpt>
      <trkpt lat="46.55064" lon="0.36306">
        <ele>122.4</ele>
        <time>2024-01-28T09:58:36Z</time>
      </trkpt>
      <trkpt lat="46.55063" lon="0.36306">
        <ele>122.6</ele>
        <time>2024-01-28T09:58:37Z</time>
      </trkpt>
      <trkpt lat="46.55061" lon="0.36302">
        <ele>122.6</ele>
        <time>2024-01-28T09:58:45Z</time>
      </trkpt>
      <trkpt lat="46.5506" lon="0.363">
        <ele>123</ele>
        <time>2024-01-28T09:58:47Z</time>
      </trkpt>
      <trkpt lat="46.55059" lon="0.36298">
        <ele>124</ele>
        <time>2024-01-28T09:58:49Z</time>
      </trkpt>
      <trkpt lat="46.55058" lon="0.36296">
        <ele>125</ele>
        <time>2024-01-28T09:58:51Z</time>
      </trkpt>
      <trkpt lat="46.55059" lon="0.36294">
        <ele>125.2</ele>
        <time>2024-01-28T09:58:52Z</time>
      </trkpt>
      <trkpt lat="46.55058" lon="0.36292">
        <ele>126</ele>
        <time>2024-01-28T09:58:54Z</time>
      </trkpt>
      <trkpt lat="46.55058" lon="0.36291">
        <ele>126.4</ele>
        <time>2024-01-28T09:58:55Z</time>
      </trkpt>
      <trkpt lat="46.55057" lon="0.36289">
        <ele>126.6</ele>
        <time>2024-01-28T09:58:56Z</time>
      </trkpt>
      <trkpt lat="46.55054" lon="0.36287">
        <ele>126.8</ele>
        <time>2024-01-28T09:58:59Z</time>
      </trkpt>
      <trkpt lat="46.55049" lon="0.36282">
        <ele>127</ele>
        <time>2024-01-28T09:59:03Z</time>
      </trkpt>
      <trkpt lat="46.55038" lon="0.36271">
        <ele>126.4</ele>
        <time>2024-01-28T09:59:10Z</time>
      </trkpt>
      <trkpt lat="46.55038" lon="0.36268">
        <ele>126.2</ele>
        <time>2024-01-28T09:59:11Z</time>
      </trkpt>
      <trkpt lat="46.55037" lon="0.36258">
        <ele>125.2</ele>
        <time>2024-01-28T09:59:14Z</time>
      </trkpt>
      <trkpt lat="46.55037" lon="0.36251">
        <ele>124</ele>
        <time>2024-01-28T09:59:16Z</time>
      </trkpt>
      <trkpt lat="46.55038" lon="0.36243">
        <ele>122.2</ele>
        <time>2024-01-28T09:59:18Z</time>
      </trkpt>
      <trkpt lat="46.55036" lon="0.3624">
        <ele>121.4</ele>
        <time>2024-01-28T09:59:20Z</time>
      </trkpt>
      <trkpt lat="46.55034" lon="0.36238">
        <ele>121.4</ele>
        <time>2024-01-28T09:59:21Z</time>
      </trkpt>
      <trkpt lat="46.55032" lon="0.36236">
        <ele>121.2</ele>
        <time>2024-01-28T09:59:22Z</time>
      </trkpt>
      <trkpt lat="46.55022" lon="0.36229">
        <ele>121.2</ele>
        <time>2024-01-28T09:59:27Z</time>
      </trkpt>
      <trkpt lat="46.55005" lon="0.36217">
        <ele>121.2</ele>
        <time>2024-01-28T09:59:34Z</time>
      </trkpt>
      <trkpt lat="46.54988" lon="0.36202">
        <ele>121.4</ele>
        <time>2024-01-28T09:59:41Z</time>
      </trkpt>
      <trkpt lat="46.54976" lon="0.36187">
        <ele>121.6</ele>
        <time>2024-01-28T09:59:47Z</time>
      </trkpt>
      <trkpt lat="46.54964" lon="0.36169">
        <ele>121.6</ele>
        <time>2024-01-28T09:59:53Z</time>
      </trkpt>
      <trkpt lat="46.54956" lon="0.36155">
        <ele>122</ele>
        <time>2024-01-28T09:59:57Z</time>
      </trkpt>
      <trkpt lat="46.54954" lon="0.36149">
        <ele>122</ele>
        <time>2024-01-28T09:59:59Z</time>
      </trkpt>
      <trkpt lat="46.54952" lon="0.36144">
        <ele>121.8</ele>
        <time>2024-01-28T10:00:01Z</time>
      </trkpt>
      <trkpt lat="46.54948" lon="0.36139">
        <ele>121.8</ele>
        <time>2024-01-28T10:00:03Z</time>
      </trkpt>
      <trkpt lat="46.54945" lon="0.36136">
        <ele>122</ele>
        <time>2024-01-28T10:00:05Z</time>
      </trkpt>
      <trkpt lat="46.54945" lon="0.36135">
        <ele>122.4</ele>
        <time>2024-01-28T10:00:06Z</time>
      </trkpt>
      <trkpt lat="46.54939" lon="0.36125">
        <ele>123</ele>
        <time>2024-01-28T10:00:11Z</time>
      </trkpt>
      <trkpt lat="46.54934" lon="0.36113">
        <ele>121.8</ele>
        <time>2024-01-28T10:00:15Z</time>
      </trkpt>
      <trkpt lat="46.54926" lon="0.36102">
        <ele>121.2</ele>
        <time>2024-01-28T10:00:19Z</time>
      </trkpt>
      <trkpt lat="46.5492" lon="0.36096">
        <ele>121</ele>
        <time>2024-01-28T10:00:21Z</time>
      </trkpt>
      <trkpt lat="46.54912" lon="0.36088">
        <ele>121.4</ele>
        <time>2024-01-28T10:00:24Z</time>
      </trkpt>
      <trkpt lat="46.54907" lon="0.36082">
        <ele>121.4</ele>
        <time>2024-01-28T10:00:26Z</time>
      </trkpt>
      <trkpt lat="46.54905" lon="0.36077">
        <ele>121.4</ele>
        <time>2024-01-28T10:00:27Z</time>
      </trkpt>
      <trkpt lat="46.54896" lon="0.36067">
        <ele>121.4</ele>
        <time>2024-01-28T10:00:30Z</time>
      </trkpt>
      <trkpt lat="46.54888" lon="0.36056">
        <ele>121.4</ele>
        <time>2024-01-28T10:00:33Z</time>
      </trkpt>
      <trkpt lat="46.54885" lon="0.36052">
        <ele>121.4</ele>
        <time>2024-01-28T10:00:34Z</time>
      </trkpt>
      <trkpt lat="46.54881" lon="0.36048">
        <ele>121.2</ele>
        <time>2024-01-28T10:00:35Z</time>
      </trkpt>
      <trkpt lat="46.54868" lon="0.36034">
        <ele>121.2</ele>
        <time>2024-01-28T10:00:39Z</time>
      </trkpt>
      <trkpt lat="46.54861" lon="0.36026">
        <ele>121.4</ele>
        <time>2024-01-28T10:00:41Z</time>
      </trkpt>
      <trkpt lat="46.54854" lon="0.36017">
        <ele>121.4</ele>
        <time>2024-01-28T10:00:43Z</time>
      </trkpt>
      <trkpt lat="46.54843" lon="0.36002">
        <ele>121.8</ele>
        <time>2024-01-28T10:00:46Z</time>
      </trkpt>
      <trkpt lat="46.54839" lon="0.35997">
        <ele>121.8</ele>
        <time>2024-01-28T10:00:47Z</time>
      </trkpt>
      <trkpt lat="46.54835" lon="0.35993">
        <ele>121.8</ele>
        <time>2024-01-28T10:00:48Z</time>
      </trkpt>
      <trkpt lat="46.54821" lon="0.35981">
        <ele>121.2</ele>
        <time>2024-01-28T10:00:52Z</time>
      </trkpt>
      <trkpt lat="46.54805" lon="0.35961">
        <ele>121.6</ele>
        <time>2024-01-28T10:00:56Z</time>
      </trkpt>
      <trkpt lat="46.54802" lon="0.35957">
        <ele>121.6</ele>
        <time>2024-01-28T10:00:57Z</time>
      </trkpt>
      <trkpt lat="46.5479" lon="0.35928">
        <ele>121.6</ele>
        <time>2024-01-28T10:01:02Z</time>
      </trkpt>
      <trkpt lat="46.54788" lon="0.35922">
        <ele>121.6</ele>
        <time>2024-01-28T10:01:03Z</time>
      </trkpt>
      <trkpt lat="46.54785" lon="0.35911">
        <ele>121.2</ele>
        <time>2024-01-28T10:01:05Z</time>
      </trkpt>
      <trkpt lat="46.54782" lon="0.35896">
        <ele>121.6</ele>
        <time>2024-01-28T10:01:08Z</time>
      </trkpt>
      <trkpt lat="46.54781" lon="0.35891">
        <ele>121.8</ele>
        <time>2024-01-28T10:01:09Z</time>
      </trkpt>
      <trkpt lat="46.54779" lon="0.35882">
        <ele>121.6</ele>
        <time>2024-01-28T10:01:11Z</time>
      </trkpt>
      <trkpt lat="46.54778" lon="0.35873">
        <ele>121.6</ele>
        <time>2024-01-28T10:01:13Z</time>
      </trkpt>
      <trkpt lat="46.54774" lon="0.35858">
        <ele>121.4</ele>
        <time>2024-01-28T10:01:15Z</time>
      </trkpt>
      <trkpt lat="46.54773" lon="0.35847">
        <ele>121.4</ele>
        <time>2024-01-28T10:01:17Z</time>
      </trkpt>
      <trkpt lat="46.54773" lon="0.35841">
        <ele>121.4</ele>
        <time>2024-01-28T10:01:18Z</time>
      </trkpt>
      <trkpt lat="46.54772" lon="0.3583">
        <ele>121.6</ele>
        <time>2024-01-28T10:01:19Z</time>
      </trkpt>
      <trkpt lat="46.54768" lon="0.35804">
        <ele>121.6</ele>
        <time>2024-01-28T10:01:22Z</time>
      </trkpt>
      <trkpt lat="46.54765" lon="0.35785">
        <ele>121.8</ele>
        <time>2024-01-28T10:01:25Z</time>
      </trkpt>
      <trkpt lat="46.54762" lon="0.35772">
        <ele>121.8</ele>
        <time>2024-01-28T10:01:27Z</time>
      </trkpt>
      <trkpt lat="46.54757" lon="0.35744">
        <ele>122</ele>
        <time>2024-01-28T10:01:29Z</time>
      </trkpt>
      <trkpt lat="46.54754" lon="0.35727">
        <ele>122</ele>
        <time>2024-01-28T10:01:31Z</time>
      </trkpt>
      <trkpt lat="46.54751" lon="0.35714">
        <ele>121.8</ele>
        <time>2024-01-28T10:01:32Z</time>
      </trkpt>
      <trkpt lat="46.5475" lon="0.35705">
        <ele>121.8</ele>
        <time>2024-01-28T10:01:33Z</time>
      </trkpt>
      <trkpt lat="46.54746" lon="0.35671">
        <ele>121.6</ele>
        <time>2024-01-28T10:01:37Z</time>
      </trkpt>
      <trkpt lat="46.54742" lon="0.35644">
        <ele>121.6</ele>
        <time>2024-01-28T10:01:41Z</time>
      </trkpt>
      <trkpt lat="46.54739" lon="0.35632">
        <ele>121.6</ele>
        <time>2024-01-28T10:01:43Z</time>
      </trkpt>
      <trkpt lat="46.5473" lon="0.3561">
        <ele>122</ele>
        <time>2024-01-28T10:01:48Z</time>
      </trkpt>
      <trkpt lat="46.54728" lon="0.35608">
        <ele>122.2</ele>
        <time>2024-01-28T10:01:49Z</time>
      </trkpt>
      <trkpt lat="46.54727" lon="0.35603">
        <ele>122.4</ele>
        <time>2024-01-28T10:01:51Z</time>
      </trkpt>
      <trkpt lat="46.54726" lon="0.35594">
        <ele>123</ele>
        <time>2024-01-28T10:01:53Z</time>
      </trkpt>
      <trkpt lat="46.54725" lon="0.35587">
        <ele>123.6</ele>
        <time>2024-01-28T10:01:55Z</time>
      </trkpt>
      <trkpt lat="46.54724" lon="0.35582">
        <ele>124.6</ele>
        <time>2024-01-28T10:01:57Z</time>
      </trkpt>
      <trkpt lat="46.54724" lon="0.3558">
        <ele>124.8</ele>
        <time>2024-01-28T10:01:58Z</time>
      </trkpt>
      <trkpt lat="46.54724" lon="0.35578">
        <ele>125.2</ele>
        <time>2024-01-28T10:02:00Z</time>
      </trkpt>
      <trkpt lat="46.54724" lon="0.35577">
        <ele>125.2</ele>
        <time>2024-01-28T10:02:01Z</time>
      </trkpt>
      <trkpt lat="46.54722" lon="0.35569">
        <ele>126.2</ele>
        <time>2024-01-28T10:02:07Z</time>
      </trkpt>
      <trkpt lat="46.54723" lon="0.35566">
        <ele>126.6</ele>
        <time>2024-01-28T10:02:09Z</time>
      </trkpt>
      <trkpt lat="46.54721" lon="0.35563">
        <ele>126.8</ele>
        <time>2024-01-28T10:02:11Z</time>
      </trkpt>
      <trkpt lat="46.5472" lon="0.35562">
        <ele>127</ele>
        <time>2024-01-28T10:02:12Z</time>
      </trkpt>
      <trkpt lat="46.54718" lon="0.35559">
        <ele>127</ele>
        <time>2024-01-28T10:02:14Z</time>
      </trkpt>
      <trkpt lat="46.54715" lon="0.35557">
        <ele>127.2</ele>
        <time>2024-01-28T10:02:16Z</time>
      </trkpt>
      <trkpt lat="46.54708" lon="0.35551">
        <ele>128.2</ele>
        <time>2024-01-28T10:02:20Z</time>
      </trkpt>
      <trkpt lat="46.54707" lon="0.35549">
        <ele>128.4</ele>
        <time>2024-01-28T10:02:21Z</time>
      </trkpt>
      <trkpt lat="46.54704" lon="0.35538">
        <ele>129.2</ele>
        <time>2024-01-28T10:02:25Z</time>
      </trkpt>
      <trkpt lat="46.54703" lon="0.3553">
        <ele>129.8</ele>
        <time>2024-01-28T10:02:28Z</time>
      </trkpt>
      <trkpt lat="46.54702" lon="0.35524">
        <ele>130.4</ele>
        <time>2024-01-28T10:02:30Z</time>
      </trkpt>
      <trkpt lat="46.547" lon="0.35514">
        <ele>131.4</ele>
        <time>2024-01-28T10:02:34Z</time>
      </trkpt>
      <trkpt lat="46.54698" lon="0.35502">
        <ele>131.6</ele>
        <time>2024-01-28T10:02:36Z</time>
      </trkpt>
      <trkpt lat="46.54699" lon="0.35485">
        <ele>131.6</ele>
        <time>2024-01-28T10:02:39Z</time>
      </trkpt>
      <trkpt lat="46.54701" lon="0.35472">
        <ele>131.6</ele>
        <time>2024-01-28T10:02:43Z</time>
      </trkpt>
      <trkpt lat="46.54707" lon="0.35455">
        <ele>131</ele>
        <time>2024-01-28T10:02:48Z</time>
      </trkpt>
      <trkpt lat="46.54709" lon="0.35444">
        <ele>130.6</ele>
        <time>2024-01-28T10:02:50Z</time>
      </trkpt>
      <trkpt lat="46.54712" lon="0.35434">
        <ele>130.4</ele>
        <time>2024-01-28T10:02:52Z</time>
      </trkpt>
      <trkpt lat="46.54714" lon="0.35425">
        <ele>130</ele>
        <time>2024-01-28T10:02:54Z</time>
      </trkpt>
      <trkpt lat="46.54717" lon="0.3542">
        <ele>129.6</ele>
        <time>2024-01-28T10:02:56Z</time>
      </trkpt>
      <trkpt lat="46.54721" lon="0.35416">
        <ele>129.2</ele>
        <time>2024-01-28T10:02:58Z</time>
      </trkpt>
      <trkpt lat="46.54725" lon="0.35413">
        <ele>127.8</ele>
        <time>2024-01-28T10:03:01Z</time>
      </trkpt>
      <trkpt lat="46.54729" lon="0.35411">
        <ele>126.6</ele>
        <time>2024-01-28T10:03:03Z</time>
      </trkpt>
      <trkpt lat="46.54732" lon="0.3541">
        <ele>125</ele>
        <time>2024-01-28T10:03:04Z</time>
      </trkpt>
      <trkpt lat="46.54735" lon="0.35409">
        <ele>123.4</ele>
        <time>2024-01-28T10:03:05Z</time>
      </trkpt>
      <trkpt lat="46.54738" lon="0.35407">
        <ele>122</ele>
        <time>2024-01-28T10:03:06Z</time>
      </trkpt>
      <trkpt lat="46.54741" lon="0.35404">
        <ele>120.6</ele>
        <time>2024-01-28T10:03:08Z</time>
      </trkpt>
      <trkpt lat="46.54742" lon="0.35403">
        <ele>120.4</ele>
        <time>2024-01-28T10:03:09Z</time>
      </trkpt>
      <trkpt lat="46.54752" lon="0.35382">
        <ele>119.6</ele>
        <time>2024-01-28T10:03:14Z</time>
      </trkpt>
      <trkpt lat="46.54758" lon="0.35363">
        <ele>119.6</ele>
        <time>2024-01-28T10:03:18Z</time>
      </trkpt>
      <trkpt lat="46.54759" lon="0.3536">
        <ele>119.6</ele>
        <time>2024-01-28T10:03:19Z</time>
      </trkpt>
      <trkpt lat="46.54766" lon="0.35339">
        <ele>119.8</ele>
        <time>2024-01-28T10:03:25Z</time>
      </trkpt>
      <trkpt lat="46.54776" lon="0.35314">
        <ele>119.6</ele>
        <time>2024-01-28T10:03:32Z</time>
      </trkpt>
      <trkpt lat="46.54783" lon="0.35296">
        <ele>119.8</ele>
        <time>2024-01-28T10:03:37Z</time>
      </trkpt>
      <trkpt lat="46.54785" lon="0.35291">
        <ele>120</ele>
        <time>2024-01-28T10:03:39Z</time>
      </trkpt>
      <trkpt lat="46.54787" lon="0.35285">
        <ele>120.6</ele>
        <time>2024-01-28T10:03:42Z</time>
      </trkpt>
      <trkpt lat="46.54789" lon="0.35279">
        <ele>121.4</ele>
        <time>2024-01-28T10:03:45Z</time>
      </trkpt>
      <trkpt lat="46.5479" lon="0.35276">
        <ele>121.6</ele>
        <time>2024-01-28T10:03:46Z</time>
      </trkpt>
      <trkpt lat="46.54799" lon="0.35256">
        <ele>122.2</ele>
        <time>2024-01-28T10:03:52Z</time>
      </trkpt>
      <trkpt lat="46.54808" lon="0.35237">
        <ele>121.8</ele>
        <time>2024-01-28T10:03:58Z</time>
      </trkpt>
      <trkpt lat="46.54819" lon="0.35216">
        <ele>121.8</ele>
        <time>2024-01-28T10:04:05Z</time>
      </trkpt>
      <trkpt lat="46.54822" lon="0.35212">
        <ele>121.6</ele>
        <time>2024-01-28T10:04:07Z</time>
      </trkpt>
      <trkpt lat="46.5483" lon="0.35212">
        <ele>121.4</ele>
        <time>2024-01-28T10:04:11Z</time>
      </trkpt>
      <trkpt lat="46.54837" lon="0.35206">
        <ele>120.2</ele>
        <time>2024-01-28T10:04:15Z</time>
      </trkpt>
      <trkpt lat="46.54838" lon="0.35204">
        <ele>120</ele>
        <time>2024-01-28T10:04:16Z</time>
      </trkpt>
      <trkpt lat="46.5484" lon="0.352">
        <ele>119.8</ele>
        <time>2024-01-28T10:04:17Z</time>
      </trkpt>
      <trkpt lat="46.5485" lon="0.35183">
        <ele>121.4</ele>
        <time>2024-01-28T10:04:25Z</time>
      </trkpt>
      <trkpt lat="46.54852" lon="0.35181">
        <ele>121.4</ele>
        <time>2024-01-28T10:04:26Z</time>
      </trkpt>
      <trkpt lat="46.5487" lon="0.35164">
        <ele>121.6</ele>
        <time>2024-01-28T10:04:32Z</time>
      </trkpt>
      <trkpt lat="46.54877" lon="0.3516">
        <ele>121.8</ele>
        <time>2024-01-28T10:04:34Z</time>
      </trkpt>
      <trkpt lat="46.54883" lon="0.35156">
        <ele>121.6</ele>
        <time>2024-01-28T10:04:36Z</time>
      </trkpt>
      <trkpt lat="46.54887" lon="0.35154">
        <ele>121.6</ele>
        <time>2024-01-28T10:04:37Z</time>
      </trkpt>
      <trkpt lat="46.54902" lon="0.35146">
        <ele>121.2</ele>
        <time>2024-01-28T10:04:41Z</time>
      </trkpt>
      <trkpt lat="46.54906" lon="0.35145">
        <ele>121.2</ele>
        <time>2024-01-28T10:04:42Z</time>
      </trkpt>
      <trkpt lat="46.5492" lon="0.35142">
        <ele>121.4</ele>
        <time>2024-01-28T10:04:47Z</time>
      </trkpt>
      <trkpt lat="46.54941" lon="0.35135">
        <ele>121.8</ele>
        <time>2024-01-28T10:04:54Z</time>
      </trkpt>
      <trkpt lat="46.54959" lon="0.35131">
        <ele>121.6</ele>
        <time>2024-01-28T10:04:59Z</time>
      </trkpt>
      <trkpt lat="46.54978" lon="0.35128">
        <ele>121.6</ele>
        <time>2024-01-28T10:05:03Z</time>
      </trkpt>
      <trkpt lat="46.54983" lon="0.35127">
        <ele>121.6</ele>
        <time>2024-01-28T10:05:04Z</time>
      </trkpt>
      <trkpt lat="46.54989" lon="0.35126">
        <ele>121.6</ele>
        <time>2024-01-28T10:05:05Z</time>
      </trkpt>
      <trkpt lat="46.55006" lon="0.35124">
        <ele>121.6</ele>
        <time>2024-01-28T10:05:08Z</time>
      </trkpt>
      <trkpt lat="46.5501" lon="0.35124">
        <ele>121.6</ele>
        <time>2024-01-28T10:05:09Z</time>
      </trkpt>
      <trkpt lat="46.55017" lon="0.35124">
        <ele>121.6</ele>
        <time>2024-01-28T10:05:11Z</time>
      </trkpt>
      <trkpt lat="46.5503" lon="0.35126">
        <ele>121.4</ele>
        <time>2024-01-28T10:05:14Z</time>
      </trkpt>
      <trkpt lat="46.55038" lon="0.35128">
        <ele>121.4</ele>
        <time>2024-01-28T10:05:16Z</time>
      </trkpt>
      <trkpt lat="46.55047" lon="0.35132">
        <ele>121.4</ele>
        <time>2024-01-28T10:05:18Z</time>
      </trkpt>
      <trkpt lat="46.55052" lon="0.35133">
        <ele>121.4</ele>
        <time>2024-01-28T10:05:19Z</time>
      </trkpt>
      <trkpt lat="46.55056" lon="0.35136">
        <ele>121.4</ele>
        <time>2024-01-28T10:05:20Z</time>
      </trkpt>
      <trkpt lat="46.55074" lon="0.35143">
        <ele>121.4</ele>
        <time>2024-01-28T10:05:24Z</time>
      </trkpt>
      <trkpt lat="46.55087" lon="0.35148">
        <ele>121.8</ele>
        <time>2024-01-28T10:05:27Z</time>
      </trkpt>
      <trkpt lat="46.55094" lon="0.35151">
        <ele>121.6</ele>
        <time>2024-01-28T10:05:29Z</time>
      </trkpt>
      <trkpt lat="46.55098" lon="0.35152">
        <ele>121.6</ele>
        <time>2024-01-28T10:05:30Z</time>
      </trkpt>
      <trkpt lat="46.55109" lon="0.35158">
        <ele>121.6</ele>
        <time>2024-01-28T10:05:33Z</time>
      </trkpt>
      <trkpt lat="46.55121" lon="0.35165">
        <ele>121.6</ele>
        <time>2024-01-28T10:05:36Z</time>
      </trkpt>
      <trkpt lat="46.55124" lon="0.35167">
        <ele>121.6</ele>
        <time>2024-01-28T10:05:37Z</time>
      </trkpt>
      <trkpt lat="46.55128" lon="0.35169">
        <ele>121.6</ele>
        <time>2024-01-28T10:05:38Z</time>
      </trkpt>
      <trkpt lat="46.55141" lon="0.35182">
        <ele>121.4</ele>
        <time>2024-01-28T10:05:42Z</time>
      </trkpt>
      <trkpt lat="46.55144" lon="0.35186">
        <ele>121.4</ele>
        <time>2024-01-28T10:05:43Z</time>
      </trkpt>
      <trkpt lat="46.55154" lon="0.35199">
        <ele>121.6</ele>
        <time>2024-01-28T10:05:46Z</time>
      </trkpt>
      <trkpt lat="46.55169" lon="0.35216">
        <ele>121.6</ele>
        <time>2024-01-28T10:05:49Z</time>
      </trkpt>
      <trkpt lat="46.55191" lon="0.35237">
        <ele>121.2</ele>
        <time>2024-01-28T10:05:54Z</time>
      </trkpt>
      <trkpt lat="46.55217" lon="0.35254">
        <ele>121.4</ele>
        <time>2024-01-28T10:06:00Z</time>
      </trkpt>
      <trkpt lat="46.55221" lon="0.35255">
        <ele>121.2</ele>
        <time>2024-01-28T10:06:01Z</time>
      </trkpt>
      <trkpt lat="46.55223" lon="0.35258">
        <ele>121.2</ele>
        <time>2024-01-28T10:06:02Z</time>
      </trkpt>
      <trkpt lat="46.5523" lon="0.35263">
        <ele>120.8</ele>
        <time>2024-01-28T10:06:04Z</time>
      </trkpt>
      <trkpt lat="46.55233" lon="0.35264">
        <ele>120.2</ele>
        <time>2024-01-28T10:06:05Z</time>
      </trkpt>
      <trkpt lat="46.55236" lon="0.35264">
        <ele>120</ele>
        <time>2024-01-28T10:06:06Z</time>
      </trkpt>
      <trkpt lat="46.55244" lon="0.35262">
        <ele>120.2</ele>
        <time>2024-01-28T10:06:09Z</time>
      </trkpt>
      <trkpt lat="46.5526" lon="0.35264">
        <ele>121.8</ele>
        <time>2024-01-28T10:06:13Z</time>
      </trkpt>
      <trkpt lat="46.55275" lon="0.35262">
        <ele>122.2</ele>
        <time>2024-01-28T10:06:16Z</time>
      </trkpt>
      <trkpt lat="46.55284" lon="0.35259">
        <ele>122</ele>
        <time>2024-01-28T10:06:18Z</time>
      </trkpt>
      <trkpt lat="46.55311" lon="0.35243">
        <ele>121.2</ele>
        <time>2024-01-28T10:06:24Z</time>
      </trkpt>
      <trkpt lat="46.55316" lon="0.35238">
        <ele>120.6</ele>
        <time>2024-01-28T10:06:26Z</time>
      </trkpt>
      <trkpt lat="46.55322" lon="0.35228">
        <ele>120</ele>
        <time>2024-01-28T10:06:29Z</time>
      </trkpt>
      <trkpt lat="46.55322" lon="0.35223">
        <ele>119.8</ele>
        <time>2024-01-28T10:06:30Z</time>
      </trkpt>
      <trkpt lat="46.55321" lon="0.35216">
        <ele>119.4</ele>
        <time>2024-01-28T10:06:32Z</time>
      </trkpt>
      <trkpt lat="46.5532" lon="0.35211">
        <ele>119</ele>
        <time>2024-01-28T10:06:33Z</time>
      </trkpt>
      <trkpt lat="46.5532" lon="0.35202">
        <ele>118.6</ele>
        <time>2024-01-28T10:06:35Z</time>
      </trkpt>
      <trkpt lat="46.55319" lon="0.35198">
        <ele>118.2</ele>
        <time>2024-01-28T10:06:36Z</time>
      </trkpt>
      <trkpt lat="46.55318" lon="0.35193">
        <ele>118</ele>
        <time>2024-01-28T10:06:37Z</time>
      </trkpt>
      <trkpt lat="46.55314" lon="0.35175">
        <ele>117.2</ele>
        <time>2024-01-28T10:06:41Z</time>
      </trkpt>
      <trkpt lat="46.55311" lon="0.35167">
        <ele>117.2</ele>
        <time>2024-01-28T10:06:43Z</time>
      </trkpt>
      <trkpt lat="46.5531" lon="0.35162">
        <ele>117.2</ele>
        <time>2024-01-28T10:06:44Z</time>
      </trkpt>
      <trkpt lat="46.55308" lon="0.35158">
        <ele>117.2</ele>
        <time>2024-01-28T10:06:45Z</time>
      </trkpt>
      <trkpt lat="46.55302" lon="0.35134">
        <ele>117.4</ele>
        <time>2024-01-28T10:06:50Z</time>
      </trkpt>
      <trkpt lat="46.55286" lon="0.35091">
        <ele>117.6</ele>
        <time>2024-01-28T10:06:56Z</time>
      </trkpt>
      <trkpt lat="46.55268" lon="0.35038">
        <ele>117.8</ele>
        <time>2024-01-28T10:07:03Z</time>
      </trkpt>
      <trkpt lat="46.55256" lon="0.34992">
        <ele>118.2</ele>
        <time>2024-01-28T10:07:10Z</time>
      </trkpt>
      <trkpt lat="46.55255" lon="0.34986">
        <ele>118.2</ele>
        <time>2024-01-28T10:07:11Z</time>
      </trkpt>
      <trkpt lat="46.55254" lon="0.34979">
        <ele>118.2</ele>
        <time>2024-01-28T10:07:12Z</time>
      </trkpt>
      <trkpt lat="46.55252" lon="0.34959">
        <ele>118.2</ele>
        <time>2024-01-28T10:07:15Z</time>
      </trkpt>
      <trkpt lat="46.5525" lon="0.34943">
        <ele>118.2</ele>
        <time>2024-01-28T10:07:17Z</time>
      </trkpt>
      <trkpt lat="46.55248" lon="0.34916">
        <ele>118.2</ele>
        <time>2024-01-28T10:07:20Z</time>
      </trkpt>
      <trkpt lat="46.5525" lon="0.34882">
        <ele>118.2</ele>
        <time>2024-01-28T10:07:24Z</time>
      </trkpt>
      <trkpt lat="46.55253" lon="0.34869">
        <ele>118.2</ele>
        <time>2024-01-28T10:07:26Z</time>
      </trkpt>
      <trkpt lat="46.55265" lon="0.34827">
        <ele>117.4</ele>
        <time>2024-01-28T10:07:32Z</time>
      </trkpt>
      <trkpt lat="46.55267" lon="0.34821">
        <ele>117.2</ele>
        <time>2024-01-28T10:07:33Z</time>
      </trkpt>
      <trkpt lat="46.55276" lon="0.34796">
        <ele>117</ele>
        <time>2024-01-28T10:07:37Z</time>
      </trkpt>
      <trkpt lat="46.55286" lon="0.34769">
        <ele>117.8</ele>
        <time>2024-01-28T10:07:42Z</time>
      </trkpt>
      <trkpt lat="46.55301" lon="0.34734">
        <ele>117.6</ele>
        <time>2024-01-28T10:07:48Z</time>
      </trkpt>
      <trkpt lat="46.55309" lon="0.34719">
        <ele>117.2</ele>
        <time>2024-01-28T10:07:51Z</time>
      </trkpt>
      <trkpt lat="46.55311" lon="0.34709">
        <ele>117</ele>
        <time>2024-01-28T10:07:53Z</time>
      </trkpt>
      <trkpt lat="46.55312" lon="0.34704">
        <ele>117</ele>
        <time>2024-01-28T10:07:54Z</time>
      </trkpt>
      <trkpt lat="46.55313" lon="0.34699">
        <ele>117</ele>
        <time>2024-01-28T10:07:55Z</time>
      </trkpt>
      <trkpt lat="46.55313" lon="0.34684">
        <ele>118.2</ele>
        <time>2024-01-28T10:07:59Z</time>
      </trkpt>
      <trkpt lat="46.55313" lon="0.34681">
        <ele>118.4</ele>
        <time>2024-01-28T10:08:00Z</time>
      </trkpt>
      <trkpt lat="46.55313" lon="0.34674">
        <ele>119.8</ele>
        <time>2024-01-28T10:08:02Z</time>
      </trkpt>
      <trkpt lat="46.55313" lon="0.34664">
        <ele>120.4</ele>
        <time>2024-01-28T10:08:04Z</time>
      </trkpt>
      <trkpt lat="46.55313" lon="0.34659">
        <ele>120.6</ele>
        <time>2024-01-28T10:08:05Z</time>
      </trkpt>
      <trkpt lat="46.55312" lon="0.34653">
        <ele>121</ele>
        <time>2024-01-28T10:08:06Z</time>
      </trkpt>
      <trkpt lat="46.55311" lon="0.34641">
        <ele>121.2</ele>
        <time>2024-01-28T10:08:08Z</time>
      </trkpt>
      <trkpt lat="46.55307" lon="0.34625">
        <ele>121.2</ele>
        <time>2024-01-28T10:08:11Z</time>
      </trkpt>
      <trkpt lat="46.55305" lon="0.34621">
        <ele>121.2</ele>
        <time>2024-01-28T10:08:12Z</time>
      </trkpt>
      <trkpt lat="46.55303" lon="0.3461">
        <ele>121.2</ele>
        <time>2024-01-28T10:08:14Z</time>
      </trkpt>
      <trkpt lat="46.55297" lon="0.34601">
        <ele>121.2</ele>
        <time>2024-01-28T10:08:16Z</time>
      </trkpt>
      <trkpt lat="46.55283" lon="0.34573">
        <ele>121</ele>
        <time>2024-01-28T10:08:22Z</time>
      </trkpt>
      <trkpt lat="46.55281" lon="0.3457">
        <ele>120.8</ele>
        <time>2024-01-28T10:08:23Z</time>
      </trkpt>
      <trkpt lat="46.55274" lon="0.34561">
        <ele>120.4</ele>
        <time>2024-01-28T10:08:27Z</time>
      </trkpt>
      <trkpt lat="46.55264" lon="0.34552">
        <ele>119.6</ele>
        <time>2024-01-28T10:08:30Z</time>
      </trkpt>
      <trkpt lat="46.5526" lon="0.34549">
        <ele>119.4</ele>
        <time>2024-01-28T10:08:31Z</time>
      </trkpt>
      <trkpt lat="46.55252" lon="0.34546">
        <ele>118.6</ele>
        <time>2024-01-28T10:08:33Z</time>
      </trkpt>
      <trkpt lat="46.55238" lon="0.3454">
        <ele>118</ele>
        <time>2024-01-28T10:08:36Z</time>
      </trkpt>
      <trkpt lat="46.55228" lon="0.34535">
        <ele>117.8</ele>
        <time>2024-01-28T10:08:38Z</time>
      </trkpt>
      <trkpt lat="46.55212" lon="0.34529">
        <ele>118.2</ele>
        <time>2024-01-28T10:08:41Z</time>
      </trkpt>
      <trkpt lat="46.55193" lon="0.34519">
        <ele>118</ele>
        <time>2024-01-28T10:08:45Z</time>
      </trkpt>
      <trkpt lat="46.5519" lon="0.34517">
        <ele>117.8</ele>
        <time>2024-01-28T10:08:46Z</time>
      </trkpt>
      <trkpt lat="46.55184" lon="0.34511">
        <ele>117.4</ele>
        <time>2024-01-28T10:08:48Z</time>
      </trkpt>
      <trkpt lat="46.55173" lon="0.34507">
        <ele>117</ele>
        <time>2024-01-28T10:08:51Z</time>
      </trkpt>
      <trkpt lat="46.55168" lon="0.34506">
        <ele>116.8</ele>
        <time>2024-01-28T10:08:52Z</time>
      </trkpt>
      <trkpt lat="46.55148" lon="0.34503">
        <ele>117.2</ele>
        <time>2024-01-28T10:08:56Z</time>
      </trkpt>
      <trkpt lat="46.55114" lon="0.34495">
        <ele>118</ele>
        <time>2024-01-28T10:09:02Z</time>
      </trkpt>
      <trkpt lat="46.55109" lon="0.34494">
        <ele>118.2</ele>
        <time>2024-01-28T10:09:03Z</time>
      </trkpt>
      <trkpt lat="46.55096" lon="0.34491">
        <ele>118.4</ele>
        <time>2024-01-28T10:09:06Z</time>
      </trkpt>
      <trkpt lat="46.55087" lon="0.34489">
        <ele>119</ele>
        <time>2024-01-28T10:09:08Z</time>
      </trkpt>
      <trkpt lat="46.55078" lon="0.34487">
        <ele>119.2</ele>
        <time>2024-01-28T10:09:10Z</time>
      </trkpt>
      <trkpt lat="46.55066" lon="0.34479">
        <ele>119</ele>
        <time>2024-01-28T10:09:13Z</time>
      </trkpt>
      <trkpt lat="46.55064" lon="0.34474">
        <ele>118.8</ele>
        <time>2024-01-28T10:09:14Z</time>
      </trkpt>
      <trkpt lat="46.55061" lon="0.34468">
        <ele>118.4</ele>
        <time>2024-01-28T10:09:15Z</time>
      </trkpt>
      <trkpt lat="46.55062" lon="0.34449">
        <ele>117.6</ele>
        <time>2024-01-28T10:09:17Z</time>
      </trkpt>
      <trkpt lat="46.55063" lon="0.3444">
        <ele>117.2</ele>
        <time>2024-01-28T10:09:18Z</time>
      </trkpt>
      <trkpt lat="46.55065" lon="0.34416">
        <ele>116.2</ele>
        <time>2024-01-28T10:09:21Z</time>
      </trkpt>
      <trkpt lat="46.55063" lon="0.3441">
        <ele>116</ele>
        <time>2024-01-28T10:09:22Z</time>
      </trkpt>
      <trkpt lat="46.55058" lon="0.34401">
        <ele>115.8</ele>
        <time>2024-01-28T10:09:24Z</time>
      </trkpt>
      <trkpt lat="46.55053" lon="0.34394">
        <ele>115.8</ele>
        <time>2024-01-28T10:09:26Z</time>
      </trkpt>
      <trkpt lat="46.55052" lon="0.34387">
        <ele>116</ele>
        <time>2024-01-28T10:09:28Z</time>
      </trkpt>
      <trkpt lat="46.55054" lon="0.3438">
        <ele>116</ele>
        <time>2024-01-28T10:09:30Z</time>
      </trkpt>
      <trkpt lat="46.55056" lon="0.34372">
        <ele>116.2</ele>
        <time>2024-01-28T10:09:32Z</time>
      </trkpt>
      <trkpt lat="46.55054" lon="0.34368">
        <ele>116.2</ele>
        <time>2024-01-28T10:09:33Z</time>
      </trkpt>
      <trkpt lat="46.55051" lon="0.34364">
        <ele>116.2</ele>
        <time>2024-01-28T10:09:34Z</time>
      </trkpt>
      <trkpt lat="46.55044" lon="0.34355">
        <ele>116.6</ele>
        <time>2024-01-28T10:09:38Z</time>
      </trkpt>
      <trkpt lat="46.55043" lon="0.3435">
        <ele>116.8</ele>
        <time>2024-01-28T10:09:40Z</time>
      </trkpt>
      <trkpt lat="46.55047" lon="0.34349">
        <ele>117.2</ele>
        <time>2024-01-28T10:09:42Z</time>
      </trkpt>
      <trkpt lat="46.55062" lon="0.34349">
        <ele>118.2</ele>
        <time>2024-01-28T10:09:48Z</time>
      </trkpt>
      <trkpt lat="46.55064" lon="0.34349">
        <ele>118.2</ele>
        <time>2024-01-28T10:09:49Z</time>
      </trkpt>
      <trkpt lat="46.5508" lon="0.34351">
        <ele>119</ele>
        <time>2024-01-28T10:09:57Z</time>
      </trkpt>
      <trkpt lat="46.55084" lon="0.34352">
        <ele>119.2</ele>
        <time>2024-01-28T10:09:59Z</time>
      </trkpt>
      <trkpt lat="46.55093" lon="0.34355">
        <ele>119.4</ele>
        <time>2024-01-28T10:10:04Z</time>
      </trkpt>
      <trkpt lat="46.55103" lon="0.34362">
        <ele>119.8</ele>
        <time>2024-01-28T10:10:10Z</time>
      </trkpt>
      <trkpt lat="46.55116" lon="0.34368">
        <ele>119.8</ele>
        <time>2024-01-28T10:10:16Z</time>
      </trkpt>
      <trkpt lat="46.55135" lon="0.34377">
        <ele>119.6</ele>
        <time>2024-01-28T10:10:23Z</time>
      </trkpt>
      <trkpt lat="46.55151" lon="0.34382">
        <ele>119.6</ele>
        <time>2024-01-28T10:10:29Z</time>
      </trkpt>
      <trkpt lat="46.55167" lon="0.34389">
        <ele>119.4</ele>
        <time>2024-01-28T10:10:36Z</time>
      </trkpt>
      <trkpt lat="46.55176" lon="0.34389">
        <ele>119.4</ele>
        <time>2024-01-28T10:10:42Z</time>
      </trkpt>
      <trkpt lat="46.55168" lon="0.34385">
        <ele>119.8</ele>
        <time>2024-01-28T10:10:47Z</time>
      </trkpt>
      <trkpt lat="46.55161" lon="0.34383">
        <ele>120.6</ele>
        <time>2024-01-28T10:10:50Z</time>
      </trkpt>
      <trkpt lat="46.55155" lon="0.34381">
        <ele>121.6</ele>
        <time>2024-01-28T10:10:53Z</time>
      </trkpt>
      <trkpt lat="46.55153" lon="0.3438">
        <ele>122.2</ele>
        <time>2024-01-28T10:10:54Z</time>
      </trkpt>
      <trkpt lat="46.5514" lon="0.34373">
        <ele>123.2</ele>
        <time>2024-01-28T10:10:59Z</time>
      </trkpt>
      <trkpt lat="46.55137" lon="0.34371">
        <ele>123.4</ele>
        <time>2024-01-28T10:11:00Z</time>
      </trkpt>
      <trkpt lat="46.55126" lon="0.34365">
        <ele>124.4</ele>
        <time>2024-01-28T10:11:04Z</time>
      </trkpt>
      <trkpt lat="46.55122" lon="0.34363">
        <ele>124.6</ele>
        <time>2024-01-28T10:11:05Z</time>
      </trkpt>
      <trkpt lat="46.5511" lon="0.34352">
        <ele>125.8</ele>
        <time>2024-01-28T10:11:09Z</time>
      </trkpt>
      <trkpt lat="46.55105" lon="0.34348">
        <ele>126</ele>
        <time>2024-01-28T10:11:11Z</time>
      </trkpt>
      <trkpt lat="46.55094" lon="0.34341">
        <ele>126.8</ele>
        <time>2024-01-28T10:11:15Z</time>
      </trkpt>
      <trkpt lat="46.55088" lon="0.34335">
        <ele>127.6</ele>
        <time>2024-01-28T10:11:18Z</time>
      </trkpt>
      <trkpt lat="46.55087" lon="0.34333">
        <ele>127.8</ele>
        <time>2024-01-28T10:11:19Z</time>
      </trkpt>
      <trkpt lat="46.55086" lon="0.34331">
        <ele>127.8</ele>
        <time>2024-01-28T10:11:20Z</time>
      </trkpt>
      <trkpt lat="46.55087" lon="0.34329">
        <ele>128</ele>
        <time>2024-01-28T10:11:22Z</time>
      </trkpt>
      <trkpt lat="46.55088" lon="0.34329">
        <ele>128.2</ele>
        <time>2024-01-28T10:11:23Z</time>
      </trkpt>
      <trkpt lat="46.5509" lon="0.34327">
        <ele>128.8</ele>
        <time>2024-01-28T10:11:25Z</time>
      </trkpt>
      <trkpt lat="46.55091" lon="0.34327">
        <ele>129.2</ele>
        <time>2024-01-28T10:11:26Z</time>
      </trkpt>
      <trkpt lat="46.55094" lon="0.34325">
        <ele>130.2</ele>
        <time>2024-01-28T10:11:28Z</time>
      </trkpt>
      <trkpt lat="46.55095" lon="0.34325">
        <ele>130.6</ele>
        <time>2024-01-28T10:11:29Z</time>
      </trkpt>
      <trkpt lat="46.55098" lon="0.34325">
        <ele>131.6</ele>
        <time>2024-01-28T10:11:32Z</time>
      </trkpt>
      <trkpt lat="46.55102" lon="0.34324">
        <ele>132.4</ele>
        <time>2024-01-28T10:11:36Z</time>
      </trkpt>
      <trkpt lat="46.55105" lon="0.34324">
        <ele>133</ele>
        <time>2024-01-28T10:11:38Z</time>
      </trkpt>
      <trkpt lat="46.55109" lon="0.34323">
        <ele>134.2</ele>
        <time>2024-01-28T10:11:42Z</time>
      </trkpt>
      <trkpt lat="46.5511" lon="0.34322">
        <ele>134.6</ele>
        <time>2024-01-28T10:11:43Z</time>
      </trkpt>
      <trkpt lat="46.55112" lon="0.34321">
        <ele>135.6</ele>
        <time>2024-01-28T10:11:46Z</time>
      </trkpt>
      <trkpt lat="46.55119" lon="0.34318">
        <ele>136.8</ele>
        <time>2024-01-28T10:11:52Z</time>
      </trkpt>
      <trkpt lat="46.55122" lon="0.34315">
        <ele>138.2</ele>
        <time>2024-01-28T10:11:55Z</time>
      </trkpt>
      <trkpt lat="46.55123" lon="0.34314">
        <ele>138.4</ele>
        <time>2024-01-28T10:11:56Z</time>
      </trkpt>
      <trkpt lat="46.5513" lon="0.34313">
        <ele>139.2</ele>
        <time>2024-01-28T10:12:01Z</time>
      </trkpt>
      <trkpt lat="46.55136" lon="0.34316">
        <ele>139.8</ele>
        <time>2024-01-28T10:12:04Z</time>
      </trkpt>
      <trkpt lat="46.55148" lon="0.34325">
        <ele>140</ele>
        <time>2024-01-28T10:12:10Z</time>
      </trkpt>
      <trkpt lat="46.5516" lon="0.34329">
        <ele>139.6</ele>
        <time>2024-01-28T10:12:14Z</time>
      </trkpt>
      <trkpt lat="46.55167" lon="0.34331">
        <ele>139.4</ele>
        <time>2024-01-28T10:12:16Z</time>
      </trkpt>
      <trkpt lat="46.55186" lon="0.34331">
        <ele>140</ele>
        <time>2024-01-28T10:12:22Z</time>
      </trkpt>
      <trkpt lat="46.55192" lon="0.34331">
        <ele>140.4</ele>
        <time>2024-01-28T10:12:24Z</time>
      </trkpt>
      <trkpt lat="46.55202" lon="0.34333">
        <ele>140.6</ele>
        <time>2024-01-28T10:12:27Z</time>
      </trkpt>
      <trkpt lat="46.55213" lon="0.34335">
        <ele>141</ele>
        <time>2024-01-28T10:12:32Z</time>
      </trkpt>
      <trkpt lat="46.55215" lon="0.34337">
        <ele>141</ele>
        <time>2024-01-28T10:12:33Z</time>
      </trkpt>
      <trkpt lat="46.55224" lon="0.34341">
        <ele>141.4</ele>
        <time>2024-01-28T10:12:36Z</time>
      </trkpt>
      <trkpt lat="46.55232" lon="0.34342">
        <ele>141.6</ele>
        <time>2024-01-28T10:12:38Z</time>
      </trkpt>
      <trkpt lat="46.55247" lon="0.34346">
        <ele>141.8</ele>
        <time>2024-01-28T10:12:42Z</time>
      </trkpt>
      <trkpt lat="46.55256" lon="0.34347">
        <ele>142.2</ele>
        <time>2024-01-28T10:12:44Z</time>
      </trkpt>
      <trkpt lat="46.55264" lon="0.34347">
        <ele>142.6</ele>
        <time>2024-01-28T10:12:46Z</time>
      </trkpt>
      <trkpt lat="46.55283" lon="0.34347">
        <ele>143.8</ele>
        <time>2024-01-28T10:12:51Z</time>
      </trkpt>
      <trkpt lat="46.55293" lon="0.34347">
        <ele>145</ele>
        <time>2024-01-28T10:12:54Z</time>
      </trkpt>
      <trkpt lat="46.55303" lon="0.34347">
        <ele>145.8</ele>
        <time>2024-01-28T10:12:57Z</time>
      </trkpt>
      <trkpt lat="46.55306" lon="0.34347">
        <ele>146</ele>
        <time>2024-01-28T10:12:58Z</time>
      </trkpt>
      <trkpt lat="46.55316" lon="0.34347">
        <ele>147.4</ele>
        <time>2024-01-28T10:13:01Z</time>
      </trkpt>
      <trkpt lat="46.55325" lon="0.34348">
        <ele>148.2</ele>
        <time>2024-01-28T10:13:04Z</time>
      </trkpt>
      <trkpt lat="46.55329" lon="0.34348">
        <ele>148.4</ele>
        <time>2024-01-28T10:13:05Z</time>
      </trkpt>
      <trkpt lat="46.55346" lon="0.3435">
        <ele>149.6</ele>
        <time>2024-01-28T10:13:11Z</time>
      </trkpt>
      <trkpt lat="46.55362" lon="0.3435">
        <ele>148.8</ele>
        <time>2024-01-28T10:13:17Z</time>
      </trkpt>
      <trkpt lat="46.5537" lon="0.34348">
        <ele>148.2</ele>
        <time>2024-01-28T10:13:19Z</time>
      </trkpt>
      <trkpt lat="46.55376" lon="0.34344">
        <ele>148</ele>
        <time>2024-01-28T10:13:21Z</time>
      </trkpt>
      <trkpt lat="46.55382" lon="0.3434">
        <ele>147.8</ele>
        <time>2024-01-28T10:13:23Z</time>
      </trkpt>
      <trkpt lat="46.55385" lon="0.34338">
        <ele>147.8</ele>
        <time>2024-01-28T10:13:24Z</time>
      </trkpt>
      <trkpt lat="46.55399" lon="0.3433">
        <ele>148.6</ele>
        <time>2024-01-28T10:13:29Z</time>
      </trkpt>
      <trkpt lat="46.55405" lon="0.34328">
        <ele>149.6</ele>
        <time>2024-01-28T10:13:32Z</time>
      </trkpt>
      <trkpt lat="46.5541" lon="0.34326">
        <ele>149.8</ele>
        <time>2024-01-28T10:13:34Z</time>
      </trkpt>
      <trkpt lat="46.55419" lon="0.34323">
        <ele>150.6</ele>
        <time>2024-01-28T10:13:38Z</time>
      </trkpt>
      <trkpt lat="46.55422" lon="0.34322">
        <ele>150.8</ele>
        <time>2024-01-28T10:13:40Z</time>
      </trkpt>
      <trkpt lat="46.55437" lon="0.3432">
        <ele>151.4</ele>
        <time>2024-01-28T10:13:49Z</time>
      </trkpt>
      <trkpt lat="46.55439" lon="0.34321">
        <ele>151.2</ele>
        <time>2024-01-28T10:13:51Z</time>
      </trkpt>
      <trkpt lat="46.55446" lon="0.3432">
        <ele>150.6</ele>
        <time>2024-01-28T10:14:00Z</time>
      </trkpt>
      <trkpt lat="46.55447" lon="0.3432">
        <ele>150.6</ele>
        <time>2024-01-28T10:14:01Z</time>
      </trkpt>
      <trkpt lat="46.5546" lon="0.34319">
        <ele>151.2</ele>
        <time>2024-01-28T10:14:05Z</time>
      </trkpt>
      <trkpt lat="46.55471" lon="0.34321">
        <ele>151.8</ele>
        <time>2024-01-28T10:14:08Z</time>
      </trkpt>
      <trkpt lat="46.55488" lon="0.34325">
        <ele>152.6</ele>
        <time>2024-01-28T10:14:13Z</time>
      </trkpt>
      <trkpt lat="46.55491" lon="0.34327">
        <ele>152.8</ele>
        <time>2024-01-28T10:14:14Z</time>
      </trkpt>
      <trkpt lat="46.55501" lon="0.34342">
        <ele>152.8</ele>
        <time>2024-01-28T10:14:18Z</time>
      </trkpt>
      <trkpt lat="46.55511" lon="0.34369">
        <ele>152.4</ele>
        <time>2024-01-28T10:14:24Z</time>
      </trkpt>
      <trkpt lat="46.55523" lon="0.34402">
        <ele>152.4</ele>
        <time>2024-01-28T10:14:30Z</time>
      </trkpt>
      <trkpt lat="46.55543" lon="0.34444">
        <ele>152.6</ele>
        <time>2024-01-28T10:14:38Z</time>
      </trkpt>
      <trkpt lat="46.55551" lon="0.34459">
        <ele>152.8</ele>
        <time>2024-01-28T10:14:41Z</time>
      </trkpt>
      <trkpt lat="46.55558" lon="0.34475">
        <ele>153.2</ele>
        <time>2024-01-28T10:14:44Z</time>
      </trkpt>
      <trkpt lat="46.5556" lon="0.34488">
        <ele>153.6</ele>
        <time>2024-01-28T10:14:46Z</time>
      </trkpt>
      <trkpt lat="46.5556" lon="0.34502">
        <ele>153.6</ele>
        <time>2024-01-28T10:14:48Z</time>
      </trkpt>
      <trkpt lat="46.55559" lon="0.34524">
        <ele>153.6</ele>
        <time>2024-01-28T10:14:51Z</time>
      </trkpt>
      <trkpt lat="46.55558" lon="0.34545">
        <ele>153.2</ele>
        <time>2024-01-28T10:14:54Z</time>
      </trkpt>
      <trkpt lat="46.5556" lon="0.34598">
        <ele>152.2</ele>
        <time>2024-01-28T10:15:01Z</time>
      </trkpt>
      <trkpt lat="46.55563" lon="0.34616">
        <ele>152.2</ele>
        <time>2024-01-28T10:15:04Z</time>
      </trkpt>
      <trkpt lat="46.55566" lon="0.34626">
        <ele>152.2</ele>
        <time>2024-01-28T10:15:06Z</time>
      </trkpt>
      <trkpt lat="46.55568" lon="0.34631">
        <ele>152.2</ele>
        <time>2024-01-28T10:15:07Z</time>
      </trkpt>
      <trkpt lat="46.55571" lon="0.34641">
        <ele>152.6</ele>
        <time>2024-01-28T10:15:09Z</time>
      </trkpt>
      <trkpt lat="46.55573" lon="0.34654">
        <ele>152.8</ele>
        <time>2024-01-28T10:15:11Z</time>
      </trkpt>
      <trkpt lat="46.55581" lon="0.34696">
        <ele>153</ele>
        <time>2024-01-28T10:15:17Z</time>
      </trkpt>
      <trkpt lat="46.55584" lon="0.34704">
        <ele>152.8</ele>
        <time>2024-01-28T10:15:18Z</time>
      </trkpt>
      <trkpt lat="46.55598" lon="0.34738">
        <ele>152.8</ele>
        <time>2024-01-28T10:15:23Z</time>
      </trkpt>
      <trkpt lat="46.55601" lon="0.34745">
        <ele>152.8</ele>
        <time>2024-01-28T10:15:24Z</time>
      </trkpt>
      <trkpt lat="46.55623" lon="0.34783">
        <ele>153.2</ele>
        <time>2024-01-28T10:15:30Z</time>
      </trkpt>
      <trkpt lat="46.55646" lon="0.34813">
        <ele>154</ele>
        <time>2024-01-28T10:15:36Z</time>
      </trkpt>
      <trkpt lat="46.5565" lon="0.34819">
        <ele>154</ele>
        <time>2024-01-28T10:15:37Z</time>
      </trkpt>
      <trkpt lat="46.55662" lon="0.34855">
        <ele>154.6</ele>
        <time>2024-01-28T10:15:42Z</time>
      </trkpt>
      <trkpt lat="46.55671" lon="0.34902">
        <ele>154</ele>
        <time>2024-01-28T10:15:48Z</time>
      </trkpt>
      <trkpt lat="46.55689" lon="0.3495">
        <ele>153.6</ele>
        <time>2024-01-28T10:15:55Z</time>
      </trkpt>
      <trkpt lat="46.55695" lon="0.34962">
        <ele>153.4</ele>
        <time>2024-01-28T10:15:57Z</time>
      </trkpt>
      <trkpt lat="46.55703" lon="0.34973">
        <ele>153.2</ele>
        <time>2024-01-28T10:15:59Z</time>
      </trkpt>
      <trkpt lat="46.55707" lon="0.34977">
        <ele>153.2</ele>
        <time>2024-01-28T10:16:00Z</time>
      </trkpt>
      <trkpt lat="46.55717" lon="0.34984">
        <ele>153</ele>
        <time>2024-01-28T10:16:02Z</time>
      </trkpt>
      <trkpt lat="46.55733" lon="0.34989">
        <ele>152.8</ele>
        <time>2024-01-28T10:16:05Z</time>
      </trkpt>
      <trkpt lat="46.55749" lon="0.3499">
        <ele>152.6</ele>
        <time>2024-01-28T10:16:09Z</time>
      </trkpt>
      <trkpt lat="46.55762" lon="0.34989">
        <ele>152.8</ele>
        <time>2024-01-28T10:16:15Z</time>
      </trkpt>
      <trkpt lat="46.55771" lon="0.34986">
        <ele>152.6</ele>
        <time>2024-01-28T10:16:21Z</time>
      </trkpt>
      <trkpt lat="46.55769" lon="0.3498">
        <ele>153</ele>
        <time>2024-01-28T10:16:24Z</time>
      </trkpt>
      <trkpt lat="46.55766" lon="0.3498">
        <ele>153</ele>
        <time>2024-01-28T10:16:25Z</time>
      </trkpt>
      <trkpt lat="46.55759" lon="0.34984">
        <ele>153</ele>
        <time>2024-01-28T10:16:27Z</time>
      </trkpt>
      <trkpt lat="46.55737" lon="0.34988">
        <ele>153</ele>
        <time>2024-01-28T10:16:32Z</time>
      </trkpt>
      <trkpt lat="46.55722" lon="0.34984">
        <ele>153</ele>
        <time>2024-01-28T10:16:35Z</time>
      </trkpt>
      <trkpt lat="46.55712" lon="0.34979">
        <ele>152.8</ele>
        <time>2024-01-28T10:16:37Z</time>
      </trkpt>
      <trkpt lat="46.55704" lon="0.34971">
        <ele>152.6</ele>
        <time>2024-01-28T10:16:39Z</time>
      </trkpt>
      <trkpt lat="46.55696" lon="0.34961">
        <ele>152.8</ele>
        <time>2024-01-28T10:16:41Z</time>
      </trkpt>
      <trkpt lat="46.55693" lon="0.34955">
        <ele>152.8</ele>
        <time>2024-01-28T10:16:42Z</time>
      </trkpt>
      <trkpt lat="46.5569" lon="0.34949">
        <ele>152.8</ele>
        <time>2024-01-28T10:16:43Z</time>
      </trkpt>
      <trkpt lat="46.5568" lon="0.34924">
        <ele>153.2</ele>
        <time>2024-01-28T10:16:47Z</time>
      </trkpt>
      <trkpt lat="46.55671" lon="0.34895">
        <ele>153.2</ele>
        <time>2024-01-28T10:16:53Z</time>
      </trkpt>
      <trkpt lat="46.55662" lon="0.34896">
        <ele>153.2</ele>
        <time>2024-01-28T10:16:56Z</time>
      </trkpt>
      <trkpt lat="46.55649" lon="0.34903">
        <ele>152.4</ele>
        <time>2024-01-28T10:16:59Z</time>
      </trkpt>
      <trkpt lat="46.55644" lon="0.34906">
        <ele>152.2</ele>
        <time>2024-01-28T10:17:00Z</time>
      </trkpt>
      <trkpt lat="46.55639" lon="0.34908">
        <ele>151.8</ele>
        <time>2024-01-28T10:17:01Z</time>
      </trkpt>
      <trkpt lat="46.55633" lon="0.3491">
        <ele>151.4</ele>
        <time>2024-01-28T10:17:03Z</time>
      </trkpt>
      <trkpt lat="46.55631" lon="0.34909">
        <ele>150.6</ele>
        <time>2024-01-28T10:17:04Z</time>
      </trkpt>
      <trkpt lat="46.55631" lon="0.34907">
        <ele>150</ele>
        <time>2024-01-28T10:17:05Z</time>
      </trkpt>
      <trkpt lat="46.5563" lon="0.34903">
        <ele>149.6</ele>
        <time>2024-01-28T10:17:06Z</time>
      </trkpt>
      <trkpt lat="46.55629" lon="0.34895">
        <ele>149</ele>
        <time>2024-01-28T10:17:08Z</time>
      </trkpt>
      <trkpt lat="46.55624" lon="0.34891">
        <ele>148.8</ele>
        <time>2024-01-28T10:17:10Z</time>
      </trkpt>
      <trkpt lat="46.5562" lon="0.34891">
        <ele>148.4</ele>
        <time>2024-01-28T10:17:11Z</time>
      </trkpt>
      <trkpt lat="46.55616" lon="0.3489">
        <ele>147.8</ele>
        <time>2024-01-28T10:17:12Z</time>
      </trkpt>
      <trkpt lat="46.55611" lon="0.34885">
        <ele>147.2</ele>
        <time>2024-01-28T10:17:14Z</time>
      </trkpt>
      <trkpt lat="46.55608" lon="0.34881">
        <ele>146.8</ele>
        <time>2024-01-28T10:17:15Z</time>
      </trkpt>
      <trkpt lat="46.55604" lon="0.34878">
        <ele>146.4</ele>
        <time>2024-01-28T10:17:16Z</time>
      </trkpt>
      <trkpt lat="46.55595" lon="0.34873">
        <ele>145.4</ele>
        <time>2024-01-28T10:17:18Z</time>
      </trkpt>
      <trkpt lat="46.5559" lon="0.34871">
        <ele>144.8</ele>
        <time>2024-01-28T10:17:19Z</time>
      </trkpt>
      <trkpt lat="46.55584" lon="0.34868">
        <ele>143.4</ele>
        <time>2024-01-28T10:17:20Z</time>
      </trkpt>
      <trkpt lat="46.55573" lon="0.3486">
        <ele>141.8</ele>
        <time>2024-01-28T10:17:22Z</time>
      </trkpt>
      <trkpt lat="46.55567" lon="0.34856">
        <ele>141.2</ele>
        <time>2024-01-28T10:17:23Z</time>
      </trkpt>
      <trkpt lat="46.55555" lon="0.34847">
        <ele>140</ele>
        <time>2024-01-28T10:17:25Z</time>
      </trkpt>
      <trkpt lat="46.55534" lon="0.34837">
        <ele>139.2</ele>
        <time>2024-01-28T10:17:28Z</time>
      </trkpt>
      <trkpt lat="46.55528" lon="0.34835">
        <ele>139</ele>
        <time>2024-01-28T10:17:29Z</time>
      </trkpt>
      <trkpt lat="46.55528" lon="0.34835">
        <ele>136.8</ele>
        <time>2024-01-28T10:17:30Z</time>
      </trkpt>
      <trkpt lat="46.55506" lon="0.34832">
        <ele>134.4</ele>
        <time>2024-01-28T10:17:33Z</time>
      </trkpt>
      <trkpt lat="46.55504" lon="0.3483">
        <ele>133.4</ele>
        <time>2024-01-28T10:17:34Z</time>
      </trkpt>
      <trkpt lat="46.55498" lon="0.34824">
        <ele>132</ele>
        <time>2024-01-28T10:17:36Z</time>
      </trkpt>
      <trkpt lat="46.55496" lon="0.34821">
        <ele>131.4</ele>
        <time>2024-01-28T10:17:37Z</time>
      </trkpt>
      <trkpt lat="46.55495" lon="0.34819">
        <ele>131</ele>
        <time>2024-01-28T10:17:38Z</time>
      </trkpt>
      <trkpt lat="46.55486" lon="0.34809">
        <ele>129.6</ele>
        <time>2024-01-28T10:17:42Z</time>
      </trkpt>
      <trkpt lat="46.5547" lon="0.3479">
        <ele>129</ele>
        <time>2024-01-28T10:17:46Z</time>
      </trkpt>
      <trkpt lat="46.55463" lon="0.34778">
        <ele>128.6</ele>
        <time>2024-01-28T10:17:48Z</time>
      </trkpt>
      <trkpt lat="46.55454" lon="0.34763">
        <ele>127.8</ele>
        <time>2024-01-28T10:17:50Z</time>
      </trkpt>
      <trkpt lat="46.55451" lon="0.34755">
        <ele>127.6</ele>
        <time>2024-01-28T10:17:51Z</time>
      </trkpt>
      <trkpt lat="46.55447" lon="0.34747">
        <ele>127.4</ele>
        <time>2024-01-28T10:17:52Z</time>
      </trkpt>
      <trkpt lat="46.5544" lon="0.34736">
        <ele>126.4</ele>
        <time>2024-01-28T10:17:54Z</time>
      </trkpt>
      <trkpt lat="46.55431" lon="0.34729">
        <ele>125.8</ele>
        <time>2024-01-28T10:17:56Z</time>
      </trkpt>
      <trkpt lat="46.55426" lon="0.34726">
        <ele>124.6</ele>
        <time>2024-01-28T10:17:57Z</time>
      </trkpt>
      <trkpt lat="46.55417" lon="0.34718">
        <ele>123.4</ele>
        <time>2024-01-28T10:17:59Z</time>
      </trkpt>
      <trkpt lat="46.55408" lon="0.3471">
        <ele>121</ele>
        <time>2024-01-28T10:18:01Z</time>
      </trkpt>
      <trkpt lat="46.55397" lon="0.34707">
        <ele>119.2</ele>
        <time>2024-01-28T10:18:03Z</time>
      </trkpt>
      <trkpt lat="46.5539" lon="0.34711">
        <ele>117.4</ele>
        <time>2024-01-28T10:18:05Z</time>
      </trkpt>
      <trkpt lat="46.55386" lon="0.34722">
        <ele>116.2</ele>
        <time>2024-01-28T10:18:07Z</time>
      </trkpt>
      <trkpt lat="46.55379" lon="0.34742">
        <ele>115.8</ele>
        <time>2024-01-28T10:18:10Z</time>
      </trkpt>
      <trkpt lat="46.55362" lon="0.34792">
        <ele>116</ele>
        <time>2024-01-28T10:18:16Z</time>
      </trkpt>
      <trkpt lat="46.55356" lon="0.34816">
        <ele>115.8</ele>
        <time>2024-01-28T10:18:19Z</time>
      </trkpt>
      <trkpt lat="46.55353" lon="0.3484">
        <ele>115.8</ele>
        <time>2024-01-28T10:18:22Z</time>
      </trkpt>
      <trkpt lat="46.55351" lon="0.34864">
        <ele>116</ele>
        <time>2024-01-28T10:18:25Z</time>
      </trkpt>
      <trkpt lat="46.55351" lon="0.34881">
        <ele>116.2</ele>
        <time>2024-01-28T10:18:27Z</time>
      </trkpt>
      <trkpt lat="46.55352" lon="0.34906">
        <ele>116.2</ele>
        <time>2024-01-28T10:18:30Z</time>
      </trkpt>
      <trkpt lat="46.55355" lon="0.34922">
        <ele>116</ele>
        <time>2024-01-28T10:18:32Z</time>
      </trkpt>
      <trkpt lat="46.55357" lon="0.3493">
        <ele>116</ele>
        <time>2024-01-28T10:18:33Z</time>
      </trkpt>
      <trkpt lat="46.55376" lon="0.34978">
        <ele>115.8</ele>
        <time>2024-01-28T10:18:40Z</time>
      </trkpt>
      <trkpt lat="46.55379" lon="0.34983">
        <ele>115.8</ele>
        <time>2024-01-28T10:18:41Z</time>
      </trkpt>
      <trkpt lat="46.55395" lon="0.35">
        <ele>115.8</ele>
        <time>2024-01-28T10:18:45Z</time>
      </trkpt>
      <trkpt lat="46.55414" lon="0.35014">
        <ele>116.8</ele>
        <time>2024-01-28T10:18:50Z</time>
      </trkpt>
      <trkpt lat="46.55418" lon="0.35018">
        <ele>117.2</ele>
        <time>2024-01-28T10:18:52Z</time>
      </trkpt>
      <trkpt lat="46.55419" lon="0.35021">
        <ele>117.8</ele>
        <time>2024-01-28T10:18:54Z</time>
      </trkpt>
      <trkpt lat="46.55419" lon="0.35026">
        <ele>118</ele>
        <time>2024-01-28T10:18:58Z</time>
      </trkpt>
      <trkpt lat="46.5542" lon="0.35029">
        <ele>118</ele>
        <time>2024-01-28T10:19:00Z</time>
      </trkpt>
      <trkpt lat="46.55421" lon="0.35032">
        <ele>118</ele>
        <time>2024-01-28T10:19:01Z</time>
      </trkpt>
      <trkpt lat="46.55429" lon="0.35044">
        <ele>118</ele>
        <time>2024-01-28T10:19:05Z</time>
      </trkpt>
      <trkpt lat="46.55443" lon="0.35082">
        <ele>117.4</ele>
        <time>2024-01-28T10:19:11Z</time>
      </trkpt>
      <trkpt lat="46.55452" lon="0.35106">
        <ele>116.2</ele>
        <time>2024-01-28T10:19:15Z</time>
      </trkpt>
      <trkpt lat="46.55461" lon="0.35128">
        <ele>115.8</ele>
        <time>2024-01-28T10:19:19Z</time>
      </trkpt>
      <trkpt lat="46.55462" lon="0.35133">
        <ele>115.8</ele>
        <time>2024-01-28T10:19:20Z</time>
      </trkpt>
      <trkpt lat="46.55476" lon="0.35174">
        <ele>116</ele>
        <time>2024-01-28T10:19:27Z</time>
      </trkpt>
      <trkpt lat="46.55484" lon="0.35196">
        <ele>116.2</ele>
        <time>2024-01-28T10:19:31Z</time>
      </trkpt>
      <trkpt lat="46.55486" lon="0.35208">
        <ele>116.4</ele>
        <time>2024-01-28T10:19:33Z</time>
      </trkpt>
      <trkpt lat="46.55497" lon="0.35238">
        <ele>117</ele>
        <time>2024-01-28T10:19:38Z</time>
      </trkpt>
      <trkpt lat="46.555" lon="0.35251">
        <ele>117</ele>
        <time>2024-01-28T10:19:40Z</time>
      </trkpt>
      <trkpt lat="46.55502" lon="0.35263">
        <ele>117.2</ele>
        <time>2024-01-28T10:19:42Z</time>
      </trkpt>
      <trkpt lat="46.555" lon="0.35276">
        <ele>117</ele>
        <time>2024-01-28T10:19:44Z</time>
      </trkpt>
      <trkpt lat="46.55499" lon="0.35283">
        <ele>117</ele>
        <time>2024-01-28T10:19:45Z</time>
      </trkpt>
      <trkpt lat="46.55497" lon="0.35289">
        <ele>117</ele>
        <time>2024-01-28T10:19:46Z</time>
      </trkpt>
      <trkpt lat="46.55481" lon="0.35327">
        <ele>117</ele>
        <time>2024-01-28T10:19:52Z</time>
      </trkpt>
      <trkpt lat="46.55459" lon="0.35369">
        <ele>116.8</ele>
        <time>2024-01-28T10:19:59Z</time>
      </trkpt>
      <trkpt lat="46.55449" lon="0.35382">
        <ele>116.6</ele>
        <time>2024-01-28T10:20:02Z</time>
      </trkpt>
      <trkpt lat="46.55438" lon="0.35392">
        <ele>116.6</ele>
        <time>2024-01-28T10:20:05Z</time>
      </trkpt>
      <trkpt lat="46.5541" lon="0.35409">
        <ele>116.8</ele>
        <time>2024-01-28T10:20:12Z</time>
      </trkpt>
      <trkpt lat="46.55393" lon="0.35416">
        <ele>116.8</ele>
        <time>2024-01-28T10:20:18Z</time>
      </trkpt>
      <trkpt lat="46.55388" lon="0.3542">
        <ele>117</ele>
        <time>2024-01-28T10:20:23Z</time>
      </trkpt>
      <trkpt lat="46.55391" lon="0.35422">
        <ele>117.2</ele>
        <time>2024-01-28T10:20:26Z</time>
      </trkpt>
      <trkpt lat="46.55391" lon="0.35422">
        <ele>117.8</ele>
        <time>2024-01-28T10:20:28Z</time>
      </trkpt>
      <trkpt lat="46.55393" lon="0.35423">
        <ele>118.2</ele>
        <time>2024-01-28T10:20:30Z</time>
      </trkpt>
      <trkpt lat="46.55395" lon="0.35423">
        <ele>118.4</ele>
        <time>2024-01-28T10:20:31Z</time>
      </trkpt>
      <trkpt lat="46.55399" lon="0.35421">
        <ele>119.2</ele>
        <time>2024-01-28T10:20:33Z</time>
      </trkpt>
      <trkpt lat="46.55401" lon="0.35421">
        <ele>119.6</ele>
        <time>2024-01-28T10:20:34Z</time>
      </trkpt>
      <trkpt lat="46.55406" lon="0.35422">
        <ele>120.6</ele>
        <time>2024-01-28T10:20:36Z</time>
      </trkpt>
      <trkpt lat="46.55416" lon="0.35425">
        <ele>121.8</ele>
        <time>2024-01-28T10:20:40Z</time>
      </trkpt>
      <trkpt lat="46.55423" lon="0.35428">
        <ele>123.2</ele>
        <time>2024-01-28T10:20:44Z</time>
      </trkpt>
      <trkpt lat="46.55425" lon="0.35428">
        <ele>123.6</ele>
        <time>2024-01-28T10:20:45Z</time>
      </trkpt>
      <trkpt lat="46.5543" lon="0.35428">
        <ele>124.4</ele>
        <time>2024-01-28T10:20:47Z</time>
      </trkpt>
      <trkpt lat="46.55439" lon="0.35426">
        <ele>125.6</ele>
        <time>2024-01-28T10:20:51Z</time>
      </trkpt>
      <trkpt lat="46.55442" lon="0.35425">
        <ele>126</ele>
        <time>2024-01-28T10:20:53Z</time>
      </trkpt>
      <trkpt lat="46.55447" lon="0.35425">
        <ele>126.6</ele>
        <time>2024-01-28T10:20:56Z</time>
      </trkpt>
      <trkpt lat="46.55451" lon="0.35425">
        <ele>127.8</ele>
        <time>2024-01-28T10:20:59Z</time>
      </trkpt>
      <trkpt lat="46.55452" lon="0.35425">
        <ele>128</ele>
        <time>2024-01-28T10:21:00Z</time>
      </trkpt>
      <trkpt lat="46.55459" lon="0.35425">
        <ele>128.8</ele>
        <time>2024-01-28T10:21:04Z</time>
      </trkpt>
      <trkpt lat="46.55463" lon="0.35425">
        <ele>130</ele>
        <time>2024-01-28T10:21:07Z</time>
      </trkpt>
      <trkpt lat="46.55464" lon="0.35425">
        <ele>130.6</ele>
        <time>2024-01-28T10:21:09Z</time>
      </trkpt>
      <trkpt lat="46.55466" lon="0.35424">
        <ele>131.2</ele>
        <time>2024-01-28T10:21:11Z</time>
      </trkpt>
      <trkpt lat="46.55471" lon="0.35423">
        <ele>131.8</ele>
        <time>2024-01-28T10:21:15Z</time>
      </trkpt>
      <trkpt lat="46.55473" lon="0.35422">
        <ele>132.2</ele>
        <time>2024-01-28T10:21:17Z</time>
      </trkpt>
      <trkpt lat="46.55476" lon="0.35421">
        <ele>133.2</ele>
        <time>2024-01-28T10:21:20Z</time>
      </trkpt>
      <trkpt lat="46.55481" lon="0.35419">
        <ele>134</ele>
        <time>2024-01-28T10:21:24Z</time>
      </trkpt>
      <trkpt lat="46.55483" lon="0.35418">
        <ele>134.8</ele>
        <time>2024-01-28T10:21:26Z</time>
      </trkpt>
      <trkpt lat="46.55486" lon="0.35417">
        <ele>136</ele>
        <time>2024-01-28T10:21:29Z</time>
      </trkpt>
      <trkpt lat="46.55489" lon="0.35418">
        <ele>137</ele>
        <time>2024-01-28T10:21:32Z</time>
      </trkpt>
      <trkpt lat="46.55491" lon="0.35417">
        <ele>137.2</ele>
        <time>2024-01-28T10:21:34Z</time>
      </trkpt>
      <trkpt lat="46.55494" lon="0.35419">
        <ele>138.2</ele>
        <time>2024-01-28T10:21:38Z</time>
      </trkpt>
      <trkpt lat="46.55498" lon="0.3542">
        <ele>139.2</ele>
        <time>2024-01-28T10:21:42Z</time>
      </trkpt>
      <trkpt lat="46.55501" lon="0.35422">
        <ele>140</ele>
        <time>2024-01-28T10:21:46Z</time>
      </trkpt>
      <trkpt lat="46.55502" lon="0.35422">
        <ele>140.2</ele>
        <time>2024-01-28T10:21:48Z</time>
      </trkpt>
      <trkpt lat="46.55505" lon="0.35424">
        <ele>141.2</ele>
        <time>2024-01-28T10:21:52Z</time>
      </trkpt>
      <trkpt lat="46.55506" lon="0.35425">
        <ele>141.4</ele>
        <time>2024-01-28T10:21:53Z</time>
      </trkpt>
      <trkpt lat="46.55507" lon="0.35425">
        <ele>141.4</ele>
        <time>2024-01-28T10:21:54Z</time>
      </trkpt>
      <trkpt lat="46.5551" lon="0.35426">
        <ele>141.8</ele>
        <time>2024-01-28T10:21:57Z</time>
      </trkpt>
      <trkpt lat="46.55512" lon="0.35427">
        <ele>142.2</ele>
        <time>2024-01-28T10:21:59Z</time>
      </trkpt>
      <trkpt lat="46.55513" lon="0.35428">
        <ele>142.4</ele>
        <time>2024-01-28T10:22:00Z</time>
      </trkpt>
      <trkpt lat="46.55515" lon="0.35429">
        <ele>142.8</ele>
        <time>2024-01-28T10:22:02Z</time>
      </trkpt>
      <trkpt lat="46.55516" lon="0.35431">
        <ele>143.2</ele>
        <time>2024-01-28T10:22:04Z</time>
      </trkpt>
      <trkpt lat="46.55517" lon="0.35432">
        <ele>143.4</ele>
        <time>2024-01-28T10:22:05Z</time>
      </trkpt>
      <trkpt lat="46.55517" lon="0.35433">
        <ele>143.6</ele>
        <time>2024-01-28T10:22:06Z</time>
      </trkpt>
      <trkpt lat="46.5552" lon="0.35437">
        <ele>144.4</ele>
        <time>2024-01-28T10:22:09Z</time>
      </trkpt>
      <trkpt lat="46.5552" lon="0.35439">
        <ele>144.6</ele>
        <time>2024-01-28T10:22:10Z</time>
      </trkpt>
      <trkpt lat="46.55522" lon="0.35445">
        <ele>145.8</ele>
        <time>2024-01-28T10:22:14Z</time>
      </trkpt>
      <trkpt lat="46.55524" lon="0.35449">
        <ele>146.4</ele>
        <time>2024-01-28T10:22:17Z</time>
      </trkpt>
      <trkpt lat="46.55525" lon="0.35452">
        <ele>146.6</ele>
        <time>2024-01-28T10:22:19Z</time>
      </trkpt>
      <trkpt lat="46.55525" lon="0.35454">
        <ele>146.8</ele>
        <time>2024-01-28T10:22:20Z</time>
      </trkpt>
      <trkpt lat="46.55527" lon="0.35464">
        <ele>148</ele>
        <time>2024-01-28T10:22:26Z</time>
      </trkpt>
      <trkpt lat="46.55527" lon="0.35469">
        <ele>148.4</ele>
        <time>2024-01-28T10:22:28Z</time>
      </trkpt>
      <trkpt lat="46.55528" lon="0.35483">
        <ele>149.2</ele>
        <time>2024-01-28T10:22:34Z</time>
      </trkpt>
      <trkpt lat="46.55529" lon="0.35486">
        <ele>149.2</ele>
        <time>2024-01-28T10:22:35Z</time>
      </trkpt>
      <trkpt lat="46.55529" lon="0.35498">
        <ele>150.2</ele>
        <time>2024-01-28T10:22:40Z</time>
      </trkpt>
      <trkpt lat="46.5553" lon="0.35503">
        <ele>150.4</ele>
        <time>2024-01-28T10:22:42Z</time>
      </trkpt>
      <trkpt lat="46.5553" lon="0.35519">
        <ele>151.4</ele>
        <time>2024-01-28T10:22:47Z</time>
      </trkpt>
      <trkpt lat="46.5553" lon="0.35526">
        <ele>151.8</ele>
        <time>2024-01-28T10:22:49Z</time>
      </trkpt>
      <trkpt lat="46.55529" lon="0.35542">
        <ele>152.4</ele>
        <time>2024-01-28T10:22:54Z</time>
      </trkpt>
      <trkpt lat="46.55529" lon="0.35557">
        <ele>153.4</ele>
        <time>2024-01-28T10:22:59Z</time>
      </trkpt>
      <trkpt lat="46.55529" lon="0.35562">
        <ele>153.8</ele>
        <time>2024-01-28T10:23:01Z</time>
      </trkpt>
      <trkpt lat="46.55532" lon="0.35575">
        <ele>154.4</ele>
        <time>2024-01-28T10:23:06Z</time>
      </trkpt>
      <trkpt lat="46.55532" lon="0.35581">
        <ele>154.8</ele>
        <time>2024-01-28T10:23:08Z</time>
      </trkpt>
      <trkpt lat="46.55534" lon="0.35603">
        <ele>155.6</ele>
        <time>2024-01-28T10:23:14Z</time>
      </trkpt>
      <trkpt lat="46.55535" lon="0.3563">
        <ele>156.6</ele>
        <time>2024-01-28T10:23:21Z</time>
      </trkpt>
      <trkpt lat="46.55536" lon="0.35634">
        <ele>156.8</ele>
        <time>2024-01-28T10:23:22Z</time>
      </trkpt>
      <trkpt lat="46.55532" lon="0.35657">
        <ele>157.6</ele>
        <time>2024-01-28T10:23:27Z</time>
      </trkpt>
      <trkpt lat="46.5553" lon="0.35661">
        <ele>157.6</ele>
        <time>2024-01-28T10:23:28Z</time>
      </trkpt>
      <trkpt lat="46.55526" lon="0.35666">
        <ele>157.8</ele>
        <time>2024-01-28T10:23:30Z</time>
      </trkpt>
      <trkpt lat="46.55523" lon="0.3567">
        <ele>158</ele>
        <time>2024-01-28T10:23:32Z</time>
      </trkpt>
      <trkpt lat="46.55517" lon="0.35673">
        <ele>158</ele>
        <time>2024-01-28T10:23:37Z</time>
      </trkpt>
      <trkpt lat="46.55515" lon="0.35673">
        <ele>158.2</ele>
        <time>2024-01-28T10:23:38Z</time>
      </trkpt>
      <trkpt lat="46.5551" lon="0.35674">
        <ele>158.6</ele>
        <time>2024-01-28T10:23:43Z</time>
      </trkpt>
      <trkpt lat="46.55509" lon="0.35673">
        <ele>158.6</ele>
        <time>2024-01-28T10:23:44Z</time>
      </trkpt>
      <trkpt lat="46.55508" lon="0.35673">
        <ele>158.8</ele>
        <time>2024-01-28T10:23:45Z</time>
      </trkpt>
      <trkpt lat="46.55507" lon="0.35673">
        <ele>158.8</ele>
        <time>2024-01-28T10:23:46Z</time>
      </trkpt>
      <trkpt lat="46.55504" lon="0.35675">
        <ele>158.8</ele>
        <time>2024-01-28T10:23:49Z</time>
      </trkpt>
      <trkpt lat="46.55503" lon="0.35674">
        <ele>158.8</ele>
        <time>2024-01-28T10:23:50Z</time>
      </trkpt>
      <trkpt lat="46.55501" lon="0.35673">
        <ele>158.8</ele>
        <time>2024-01-28T10:23:52Z</time>
      </trkpt>
      <trkpt lat="46.55499" lon="0.35674">
        <ele>158.8</ele>
        <time>2024-01-28T10:23:54Z</time>
      </trkpt>
      <trkpt lat="46.55498" lon="0.35675">
        <ele>159</ele>
        <time>2024-01-28T10:23:55Z</time>
      </trkpt>
      <trkpt lat="46.55496" lon="0.35677">
        <ele>159</ele>
        <time>2024-01-28T10:23:56Z</time>
      </trkpt>
      <trkpt lat="46.55491" lon="0.35675">
        <ele>159.2</ele>
        <time>2024-01-28T10:23:58Z</time>
      </trkpt>
      <trkpt lat="46.55483" lon="0.35675">
        <ele>159.8</ele>
        <time>2024-01-28T10:24:02Z</time>
      </trkpt>
      <trkpt lat="46.5548" lon="0.35675">
        <ele>159.8</ele>
        <time>2024-01-28T10:24:03Z</time>
      </trkpt>
      <trkpt lat="46.55467" lon="0.35672">
        <ele>160</ele>
        <time>2024-01-28T10:24:08Z</time>
      </trkpt>
      <trkpt lat="46.55445" lon="0.35666">
        <ele>160.8</ele>
        <time>2024-01-28T10:24:14Z</time>
      </trkpt>
      <trkpt lat="46.55441" lon="0.35665">
        <ele>160.8</ele>
        <time>2024-01-28T10:24:15Z</time>
      </trkpt>
      <trkpt lat="46.5541" lon="0.35658">
        <ele>161.2</ele>
        <time>2024-01-28T10:24:22Z</time>
      </trkpt>
      <trkpt lat="46.55366" lon="0.3565">
        <ele>160.2</ele>
        <time>2024-01-28T10:24:31Z</time>
      </trkpt>
      <trkpt lat="46.55354" lon="0.35647">
        <ele>159.6</ele>
        <time>2024-01-28T10:24:33Z</time>
      </trkpt>
      <trkpt lat="46.55319" lon="0.35643">
        <ele>158.4</ele>
        <time>2024-01-28T10:24:39Z</time>
      </trkpt>
      <trkpt lat="46.55301" lon="0.35641">
        <ele>157.4</ele>
        <time>2024-01-28T10:24:42Z</time>
      </trkpt>
      <trkpt lat="46.55276" lon="0.3564">
        <ele>156.2</ele>
        <time>2024-01-28T10:24:46Z</time>
      </trkpt>
      <trkpt lat="46.55257" lon="0.35641">
        <ele>155</ele>
        <time>2024-01-28T10:24:49Z</time>
      </trkpt>
      <trkpt lat="46.55237" lon="0.35646">
        <ele>153.6</ele>
        <time>2024-01-28T10:24:52Z</time>
      </trkpt>
      <trkpt lat="46.55224" lon="0.35654">
        <ele>152.6</ele>
        <time>2024-01-28T10:24:54Z</time>
      </trkpt>
      <trkpt lat="46.55212" lon="0.35668">
        <ele>152</ele>
        <time>2024-01-28T10:24:56Z</time>
      </trkpt>
      <trkpt lat="46.55207" lon="0.35676">
        <ele>151.6</ele>
        <time>2024-01-28T10:24:57Z</time>
      </trkpt>
      <trkpt lat="46.552" lon="0.35683">
        <ele>150.8</ele>
        <time>2024-01-28T10:24:58Z</time>
      </trkpt>
      <trkpt lat="46.55193" lon="0.3569">
        <ele>149.8</ele>
        <time>2024-01-28T10:24:59Z</time>
      </trkpt>
      <trkpt lat="46.55185" lon="0.35693">
        <ele>149</ele>
        <time>2024-01-28T10:25:00Z</time>
      </trkpt>
      <trkpt lat="46.55177" lon="0.35695">
        <ele>148.2</ele>
        <time>2024-01-28T10:25:01Z</time>
      </trkpt>
      <trkpt lat="46.55169" lon="0.35694">
        <ele>147.4</ele>
        <time>2024-01-28T10:25:02Z</time>
      </trkpt>
      <trkpt lat="46.55162" lon="0.35693">
        <ele>146.8</ele>
        <time>2024-01-28T10:25:03Z</time>
      </trkpt>
      <trkpt lat="46.55145" lon="0.35689">
        <ele>146.2</ele>
        <time>2024-01-28T10:25:06Z</time>
      </trkpt>
      <trkpt lat="46.55139" lon="0.35694">
        <ele>146.4</ele>
        <time>2024-01-28T10:25:08Z</time>
      </trkpt>
      <trkpt lat="46.55137" lon="0.35699">
        <ele>146.4</ele>
        <time>2024-01-28T10:25:09Z</time>
      </trkpt>
      <trkpt lat="46.55136" lon="0.35704">
        <ele>146.6</ele>
        <time>2024-01-28T10:25:10Z</time>
      </trkpt>
      <trkpt lat="46.55135" lon="0.35721">
        <ele>147.4</ele>
        <time>2024-01-28T10:25:13Z</time>
      </trkpt>
      <trkpt lat="46.55134" lon="0.35727">
        <ele>148</ele>
        <time>2024-01-28T10:25:14Z</time>
      </trkpt>
      <trkpt lat="46.55135" lon="0.35739">
        <ele>148.8</ele>
        <time>2024-01-28T10:25:16Z</time>
      </trkpt>
      <trkpt lat="46.55134" lon="0.35746">
        <ele>149</ele>
        <time>2024-01-28T10:25:17Z</time>
      </trkpt>
      <trkpt lat="46.55131" lon="0.35761">
        <ele>149.8</ele>
        <time>2024-01-28T10:25:19Z</time>
      </trkpt>
      <trkpt lat="46.55129" lon="0.35767">
        <ele>150.4</ele>
        <time>2024-01-28T10:25:20Z</time>
      </trkpt>
      <trkpt lat="46.55119" lon="0.35802">
        <ele>151.2</ele>
        <time>2024-01-28T10:25:25Z</time>
      </trkpt>
      <trkpt lat="46.55117" lon="0.35823">
        <ele>151.2</ele>
        <time>2024-01-28T10:25:28Z</time>
      </trkpt>
      <trkpt lat="46.55117" lon="0.35836">
        <ele>151.2</ele>
        <time>2024-01-28T10:25:30Z</time>
      </trkpt>
      <trkpt lat="46.55117" lon="0.3585">
        <ele>151.4</ele>
        <time>2024-01-28T10:25:32Z</time>
      </trkpt>
      <trkpt lat="46.55118" lon="0.35875">
        <ele>151.4</ele>
        <time>2024-01-28T10:25:36Z</time>
      </trkpt>
      <trkpt lat="46.55119" lon="0.35888">
        <ele>151.4</ele>
        <time>2024-01-28T10:25:38Z</time>
      </trkpt>
      <trkpt lat="46.55128" lon="0.35946">
        <ele>150.4</ele>
        <time>2024-01-28T10:25:47Z</time>
      </trkpt>
      <trkpt lat="46.55129" lon="0.35953">
        <ele>150.2</ele>
        <time>2024-01-28T10:25:48Z</time>
      </trkpt>
      <trkpt lat="46.55136" lon="0.35991">
        <ele>149.4</ele>
        <time>2024-01-28T10:25:53Z</time>
      </trkpt>
      <trkpt lat="46.55136" lon="0.35991">
        <ele>149.2</ele>
        <time>2024-01-28T10:25:54Z</time>
      </trkpt>
      <trkpt lat="46.55143" lon="0.36005">
        <ele>149.2</ele>
        <time>2024-01-28T10:25:55Z</time>
      </trkpt>
      <trkpt lat="46.55151" lon="0.36017">
        <ele>148.4</ele>
        <time>2024-01-28T10:25:57Z</time>
      </trkpt>
      <trkpt lat="46.55159" lon="0.36028">
        <ele>148</ele>
        <time>2024-01-28T10:25:59Z</time>
      </trkpt>
      <trkpt lat="46.55177" lon="0.36047">
        <ele>148</ele>
        <time>2024-01-28T10:26:03Z</time>
      </trkpt>
      <trkpt lat="46.55203" lon="0.36079">
        <ele>148.2</ele>
        <time>2024-01-28T10:26:10Z</time>
      </trkpt>
      <trkpt lat="46.55214" lon="0.361">
        <ele>148</ele>
        <time>2024-01-28T10:26:14Z</time>
      </trkpt>
      <trkpt lat="46.55216" lon="0.36105">
        <ele>148</ele>
        <time>2024-01-28T10:26:15Z</time>
      </trkpt>
      <trkpt lat="46.55231" lon="0.36138">
        <ele>148.4</ele>
        <time>2024-01-28T10:26:21Z</time>
      </trkpt>
      <trkpt lat="46.55245" lon="0.36178">
        <ele>148.8</ele>
        <time>2024-01-28T10:26:27Z</time>
      </trkpt>
      <trkpt lat="46.5525" lon="0.36192">
        <ele>149</ele>
        <time>2024-01-28T10:26:29Z</time>
      </trkpt>
      <trkpt lat="46.55256" lon="0.36214">
        <ele>149.2</ele>
        <time>2024-01-28T10:26:32Z</time>
      </trkpt>
      <trkpt lat="46.55258" lon="0.3622">
        <ele>149.2</ele>
        <time>2024-01-28T10:26:33Z</time>
      </trkpt>
      <trkpt lat="46.5526" lon="0.36228">
        <ele>149.4</ele>
        <time>2024-01-28T10:26:34Z</time>
      </trkpt>
      <trkpt lat="46.55264" lon="0.36262">
        <ele>150</ele>
        <time>2024-01-28T10:26:38Z</time>
      </trkpt>
      <trkpt lat="46.55266" lon="0.36271">
        <ele>150.2</ele>
        <time>2024-01-28T10:26:39Z</time>
      </trkpt>
      <trkpt lat="46.55269" lon="0.36286">
        <ele>150.2</ele>
        <time>2024-01-28T10:26:42Z</time>
      </trkpt>
      <trkpt lat="46.55272" lon="0.36297">
        <ele>150</ele>
        <time>2024-01-28T10:26:48Z</time>
      </trkpt>
      <trkpt lat="46.55272" lon="0.36304">
        <ele>150.4</ele>
        <time>2024-01-28T10:26:53Z</time>
      </trkpt>
      <trkpt lat="46.55271" lon="0.36304">
        <ele>150.4</ele>
        <time>2024-01-28T10:26:54Z</time>
      </trkpt>
      <trkpt lat="46.55267" lon="0.36304">
        <ele>150.2</ele>
        <time>2024-01-28T10:26:57Z</time>
      </trkpt>
      <trkpt lat="46.55264" lon="0.36307">
        <ele>149</ele>
        <time>2024-01-28T10:26:59Z</time>
      </trkpt>
      <trkpt lat="46.55262" lon="0.36309">
        <ele>148.6</ele>
        <time>2024-01-28T10:27:00Z</time>
      </trkpt>
      <trkpt lat="46.5526" lon="0.36317">
        <ele>147.8</ele>
        <time>2024-01-28T10:27:02Z</time>
      </trkpt>
      <trkpt lat="46.55257" lon="0.36324">
        <ele>146.4</ele>
        <time>2024-01-28T10:27:04Z</time>
      </trkpt>
      <trkpt lat="46.55255" lon="0.36327">
        <ele>145.8</ele>
        <time>2024-01-28T10:27:05Z</time>
      </trkpt>
      <trkpt lat="46.55251" lon="0.36337">
        <ele>145.2</ele>
        <time>2024-01-28T10:27:07Z</time>
      </trkpt>
      <trkpt lat="46.55247" lon="0.3635">
        <ele>143.8</ele>
        <time>2024-01-28T10:27:09Z</time>
      </trkpt>
      <trkpt lat="46.55244" lon="0.36359">
        <ele>142.8</ele>
        <time>2024-01-28T10:27:10Z</time>
      </trkpt>
      <trkpt lat="46.55236" lon="0.36374">
        <ele>141.4</ele>
        <time>2024-01-28T10:27:12Z</time>
      </trkpt>
      <trkpt lat="46.55227" lon="0.3639">
        <ele>139.6</ele>
        <time>2024-01-28T10:27:14Z</time>
      </trkpt>
      <trkpt lat="46.55222" lon="0.36396">
        <ele>138.4</ele>
        <time>2024-01-28T10:27:15Z</time>
      </trkpt>
      <trkpt lat="46.55217" lon="0.36402">
        <ele>136.8</ele>
        <time>2024-01-28T10:27:17Z</time>
      </trkpt>
      <trkpt lat="46.55215" lon="0.36404">
        <ele>136</ele>
        <time>2024-01-28T10:27:18Z</time>
      </trkpt>
      <trkpt lat="46.55213" lon="0.36407">
        <ele>135.2</ele>
        <time>2024-01-28T10:27:19Z</time>
      </trkpt>
      <trkpt lat="46.55207" lon="0.3641">
        <ele>133.4</ele>
        <time>2024-01-28T10:27:21Z</time>
      </trkpt>
      <trkpt lat="46.55192" lon="0.36411">
        <ele>131.6</ele>
        <time>2024-01-28T10:27:24Z</time>
      </trkpt>
      <trkpt lat="46.55179" lon="0.36408">
        <ele>129.4</ele>
        <time>2024-01-28T10:27:26Z</time>
      </trkpt>
      <trkpt lat="46.55171" lon="0.36405">
        <ele>128.2</ele>
        <time>2024-01-28T10:27:27Z</time>
      </trkpt>
      <trkpt lat="46.55163" lon="0.36403">
        <ele>127.2</ele>
        <time>2024-01-28T10:27:28Z</time>
      </trkpt>
      <trkpt lat="46.55155" lon="0.36401">
        <ele>125.6</ele>
        <time>2024-01-28T10:27:29Z</time>
      </trkpt>
      <trkpt lat="46.55147" lon="0.364">
        <ele>124.4</ele>
        <time>2024-01-28T10:27:30Z</time>
      </trkpt>
      <trkpt lat="46.55131" lon="0.36398">
        <ele>123.4</ele>
        <time>2024-01-28T10:27:32Z</time>
      </trkpt>
      <trkpt lat="46.55124" lon="0.36396">
        <ele>123</ele>
        <time>2024-01-28T10:27:33Z</time>
      </trkpt>
      <trkpt lat="46.55116" lon="0.36394">
        <ele>122.2</ele>
        <time>2024-01-28T10:27:34Z</time>
      </trkpt>
      <trkpt lat="46.55103" lon="0.36392">
        <ele>121.2</ele>
        <time>2024-01-28T10:27:36Z</time>
      </trkpt>
      <trkpt lat="46.55084" lon="0.36391">
        <ele>120.4</ele>
        <time>2024-01-28T10:27:38Z</time>
      </trkpt>
      <trkpt lat="46.55075" lon="0.36391">
        <ele>120</ele>
        <time>2024-01-28T10:27:39Z</time>
      </trkpt>
      <trkpt lat="46.55067" lon="0.36393">
        <ele>120</ele>
        <time>2024-01-28T10:27:40Z</time>
      </trkpt>
      <trkpt lat="46.55056" lon="0.36401">
        <ele>120</ele>
        <time>2024-01-28T10:27:42Z</time>
      </trkpt>
      <trkpt lat="46.5505" lon="0.36412">
        <ele>120.4</ele>
        <time>2024-01-28T10:27:44Z</time>
      </trkpt>
      <trkpt lat="46.55049" lon="0.36416">
        <ele>120.6</ele>
        <time>2024-01-28T10:27:45Z</time>
      </trkpt>
      <trkpt lat="46.55048" lon="0.36421">
        <ele>121</ele>
        <time>2024-01-28T10:27:46Z</time>
      </trkpt>
      <trkpt lat="46.55048" lon="0.36429">
        <ele>121.6</ele>
        <time>2024-01-28T10:27:48Z</time>
      </trkpt>
      <trkpt lat="46.55047" lon="0.36437">
        <ele>122.2</ele>
        <time>2024-01-28T10:27:50Z</time>
      </trkpt>
      <trkpt lat="46.55045" lon="0.36451">
        <ele>123.4</ele>
        <time>2024-01-28T10:27:54Z</time>
      </trkpt>
      <trkpt lat="46.55045" lon="0.36457">
        <ele>124</ele>
        <time>2024-01-28T10:27:56Z</time>
      </trkpt>
      <trkpt lat="46.55047" lon="0.36468">
        <ele>124.6</ele>
        <time>2024-01-28T10:27:59Z</time>
      </trkpt>
      <trkpt lat="46.55049" lon="0.36479">
        <ele>125</ele>
        <time>2024-01-28T10:28:01Z</time>
      </trkpt>
      <trkpt lat="46.55052" lon="0.3649">
        <ele>125.8</ele>
        <time>2024-01-28T10:28:04Z</time>
      </trkpt>
      <trkpt lat="46.55058" lon="0.36503">
        <ele>126.8</ele>
        <time>2024-01-28T10:28:08Z</time>
      </trkpt>
      <trkpt lat="46.55061" lon="0.36511">
        <ele>127.4</ele>
        <time>2024-01-28T10:28:10Z</time>
      </trkpt>
      <trkpt lat="46.55065" lon="0.36518">
        <ele>128</ele>
        <time>2024-01-28T10:28:13Z</time>
      </trkpt>
      <trkpt lat="46.5507" lon="0.36526">
        <ele>128.2</ele>
        <time>2024-01-28T10:28:16Z</time>
      </trkpt>
      <trkpt lat="46.55075" lon="0.36533">
        <ele>129</ele>
        <time>2024-01-28T10:28:19Z</time>
      </trkpt>
      <trkpt lat="46.55082" lon="0.36541">
        <ele>130</ele>
        <time>2024-01-28T10:28:22Z</time>
      </trkpt>
      <trkpt lat="46.55085" lon="0.36545">
        <ele>130.2</ele>
        <time>2024-01-28T10:28:23Z</time>
      </trkpt>
      <trkpt lat="46.55098" lon="0.36566">
        <ele>131</ele>
        <time>2024-01-28T10:28:29Z</time>
      </trkpt>
      <trkpt lat="46.55102" lon="0.36572">
        <ele>131.2</ele>
        <time>2024-01-28T10:28:31Z</time>
      </trkpt>
      <trkpt lat="46.55111" lon="0.36584">
        <ele>131.8</ele>
        <time>2024-01-28T10:28:36Z</time>
      </trkpt>
      <trkpt lat="46.55114" lon="0.36588">
        <ele>132.2</ele>
        <time>2024-01-28T10:28:38Z</time>
      </trkpt>
      <trkpt lat="46.55119" lon="0.36599">
        <ele>133.2</ele>
        <time>2024-01-28T10:28:43Z</time>
      </trkpt>
      <trkpt lat="46.55118" lon="0.36604">
        <ele>133.2</ele>
        <time>2024-01-28T10:28:45Z</time>
      </trkpt>
      <trkpt lat="46.55118" lon="0.36606">
        <ele>133.4</ele>
        <time>2024-01-28T10:28:46Z</time>
      </trkpt>
      <trkpt lat="46.55116" lon="0.36611">
        <ele>133.6</ele>
        <time>2024-01-28T10:28:49Z</time>
      </trkpt>
      <trkpt lat="46.55115" lon="0.36614">
        <ele>133.6</ele>
        <time>2024-01-28T10:28:51Z</time>
      </trkpt>
      <trkpt lat="46.55104" lon="0.36618">
        <ele>134</ele>
        <time>2024-01-28T10:28:57Z</time>
      </trkpt>
      <trkpt lat="46.5509" lon="0.36619">
        <ele>134.4</ele>
        <time>2024-01-28T10:29:03Z</time>
      </trkpt>
      <trkpt lat="46.55088" lon="0.36624">
        <ele>135.2</ele>
        <time>2024-01-28T10:29:06Z</time>
      </trkpt>
      <trkpt lat="46.55087" lon="0.36628">
        <ele>135.6</ele>
        <time>2024-01-28T10:29:08Z</time>
      </trkpt>
      <trkpt lat="46.55085" lon="0.36631">
        <ele>136.6</ele>
        <time>2024-01-28T10:29:11Z</time>
      </trkpt>
      <trkpt lat="46.55084" lon="0.36633">
        <ele>136.8</ele>
        <time>2024-01-28T10:29:12Z</time>
      </trkpt>
      <trkpt lat="46.55084" lon="0.36634">
        <ele>137.2</ele>
        <time>2024-01-28T10:29:13Z</time>
      </trkpt>
      <trkpt lat="46.55082" lon="0.36638">
        <ele>138</ele>
        <time>2024-01-28T10:29:16Z</time>
      </trkpt>
      <trkpt lat="46.5508" lon="0.36644">
        <ele>139.4</ele>
        <time>2024-01-28T10:29:20Z</time>
      </trkpt>
      <trkpt lat="46.55079" lon="0.36646">
        <ele>139.6</ele>
        <time>2024-01-28T10:29:21Z</time>
      </trkpt>
      <trkpt lat="46.55078" lon="0.36649">
        <ele>140</ele>
        <time>2024-01-28T10:29:23Z</time>
      </trkpt>
      <trkpt lat="46.55078" lon="0.36651">
        <ele>140.4</ele>
        <time>2024-01-28T10:29:24Z</time>
      </trkpt>
      <trkpt lat="46.55075" lon="0.36657">
        <ele>141.4</ele>
        <time>2024-01-28T10:29:29Z</time>
      </trkpt>
      <trkpt lat="46.55074" lon="0.36662">
        <ele>142.6</ele>
        <time>2024-01-28T10:29:33Z</time>
      </trkpt>
      <trkpt lat="46.55074" lon="0.36664">
        <ele>143</ele>
        <time>2024-01-28T10:29:34Z</time>
      </trkpt>
      <trkpt lat="46.55072" lon="0.36672">
        <ele>143.8</ele>
        <time>2024-01-28T10:29:39Z</time>
      </trkpt>
      <trkpt lat="46.5507" lon="0.36676">
        <ele>144.8</ele>
        <time>2024-01-28T10:29:42Z</time>
      </trkpt>
      <trkpt lat="46.55066" lon="0.36685">
        <ele>146</ele>
        <time>2024-01-28T10:29:48Z</time>
      </trkpt>
      <trkpt lat="46.55065" lon="0.36687">
        <ele>146.2</ele>
        <time>2024-01-28T10:29:49Z</time>
      </trkpt>
      <trkpt lat="46.55055" lon="0.36703">
        <ele>147.2</ele>
        <time>2024-01-28T10:29:55Z</time>
      </trkpt>
      <trkpt lat="46.55053" lon="0.36704">
        <ele>147.4</ele>
        <time>2024-01-28T10:29:56Z</time>
      </trkpt>
      <trkpt lat="46.55044" lon="0.36711">
        <ele>148</ele>
        <time>2024-01-28T10:30:01Z</time>
      </trkpt>
      <trkpt lat="46.55041" lon="0.3671">
        <ele>148.4</ele>
        <time>2024-01-28T10:30:03Z</time>
      </trkpt>
      <trkpt lat="46.55031" lon="0.36708">
        <ele>149.6</ele>
        <time>2024-01-28T10:30:09Z</time>
      </trkpt>
      <trkpt lat="46.55029" lon="0.36711">
        <ele>149.8</ele>
        <time>2024-01-28T10:30:11Z</time>
      </trkpt>
      <trkpt lat="46.55025" lon="0.36719">
        <ele>149.8</ele>
        <time>2024-01-28T10:30:14Z</time>
      </trkpt>
      <trkpt lat="46.55016" lon="0.3674">
        <ele>150.8</ele>
        <time>2024-01-28T10:30:20Z</time>
      </trkpt>
      <trkpt lat="46.55005" lon="0.36783">
        <ele>151.4</ele>
        <time>2024-01-28T10:30:28Z</time>
      </trkpt>
      <trkpt lat="46.54999" lon="0.36801">
        <ele>151.6</ele>
        <time>2024-01-28T10:30:32Z</time>
      </trkpt>
      <trkpt lat="46.54998" lon="0.36803">
        <ele>151.8</ele>
        <time>2024-01-28T10:30:33Z</time>
      </trkpt>
      <trkpt lat="46.54988" lon="0.36798">
        <ele>152.4</ele>
        <time>2024-01-28T10:30:38Z</time>
      </trkpt>
      <trkpt lat="46.54977" lon="0.36789">
        <ele>152.8</ele>
        <time>2024-01-28T10:30:43Z</time>
      </trkpt>
      <trkpt lat="46.5496" lon="0.36771">
        <ele>154</ele>
        <time>2024-01-28T10:30:51Z</time>
      </trkpt>
      <trkpt lat="46.54947" lon="0.36761">
        <ele>154.6</ele>
        <time>2024-01-28T10:30:56Z</time>
      </trkpt>
      <trkpt lat="46.54933" lon="0.36749">
        <ele>155</ele>
        <time>2024-01-28T10:31:01Z</time>
      </trkpt>
      <trkpt lat="46.54927" lon="0.36745">
        <ele>155.6</ele>
        <time>2024-01-28T10:31:03Z</time>
      </trkpt>
      <trkpt lat="46.54908" lon="0.36725">
        <ele>156.2</ele>
        <time>2024-01-28T10:31:09Z</time>
      </trkpt>
      <trkpt lat="46.54903" lon="0.36719">
        <ele>156.4</ele>
        <time>2024-01-28T10:31:11Z</time>
      </trkpt>
      <trkpt lat="46.5489" lon="0.36702">
        <ele>157.2</ele>
        <time>2024-01-28T10:31:16Z</time>
      </trkpt>
      <trkpt lat="46.54879" lon="0.3669">
        <ele>158</ele>
        <time>2024-01-28T10:31:20Z</time>
      </trkpt>
      <trkpt lat="46.54872" lon="0.3668">
        <ele>158.4</ele>
        <time>2024-01-28T10:31:23Z</time>
      </trkpt>
      <trkpt lat="46.54862" lon="0.36668">
        <ele>158.8</ele>
        <time>2024-01-28T10:31:27Z</time>
      </trkpt>
      <trkpt lat="46.5485" lon="0.36656">
        <ele>159.4</ele>
        <time>2024-01-28T10:31:31Z</time>
      </trkpt>
      <trkpt lat="46.54846" lon="0.36653">
        <ele>159.4</ele>
        <time>2024-01-28T10:31:32Z</time>
      </trkpt>
      <trkpt lat="46.54843" lon="0.3665">
        <ele>159.6</ele>
        <time>2024-01-28T10:31:33Z</time>
      </trkpt>
      <trkpt lat="46.54813" lon="0.3663">
        <ele>160</ele>
        <time>2024-01-28T10:31:41Z</time>
      </trkpt>
      <trkpt lat="46.54804" lon="0.3662">
        <ele>160</ele>
        <time>2024-01-28T10:31:44Z</time>
      </trkpt>
      <trkpt lat="46.548" lon="0.36612">
        <ele>160.2</ele>
        <time>2024-01-28T10:31:46Z</time>
      </trkpt>
      <trkpt lat="46.54787" lon="0.3659">
        <ele>160.4</ele>
        <time>2024-01-28T10:31:50Z</time>
      </trkpt>
      <trkpt lat="46.54783" lon="0.36586">
        <ele>160.4</ele>
        <time>2024-01-28T10:31:51Z</time>
      </trkpt>
      <trkpt lat="46.54779" lon="0.36584">
        <ele>160.4</ele>
        <time>2024-01-28T10:31:52Z</time>
      </trkpt>
      <trkpt lat="46.5477" lon="0.36583">
        <ele>160.4</ele>
        <time>2024-01-28T10:31:54Z</time>
      </trkpt>
      <trkpt lat="46.54756" lon="0.36599">
        <ele>160</ele>
        <time>2024-01-28T10:31:58Z</time>
      </trkpt>
      <trkpt lat="46.54737" lon="0.36634">
        <ele>159.8</ele>
        <time>2024-01-28T10:32:04Z</time>
      </trkpt>
      <trkpt lat="46.54725" lon="0.36657">
        <ele>159.4</ele>
        <time>2024-01-28T10:32:08Z</time>
      </trkpt>
      <trkpt lat="46.54723" lon="0.36664">
        <ele>159.2</ele>
        <time>2024-01-28T10:32:09Z</time>
      </trkpt>
      <trkpt lat="46.54718" lon="0.36677">
        <ele>158.8</ele>
        <time>2024-01-28T10:32:11Z</time>
      </trkpt>
      <trkpt lat="46.54708" lon="0.36712">
        <ele>158.2</ele>
        <time>2024-01-28T10:32:16Z</time>
      </trkpt>
      <trkpt lat="46.54702" lon="0.36727">
        <ele>157.4</ele>
        <time>2024-01-28T10:32:18Z</time>
      </trkpt>
      <trkpt lat="46.54693" lon="0.36752">
        <ele>157.2</ele>
        <time>2024-01-28T10:32:21Z</time>
      </trkpt>
      <trkpt lat="46.54688" lon="0.3676">
        <ele>156.8</ele>
        <time>2024-01-28T10:32:22Z</time>
      </trkpt>
      <trkpt lat="46.54683" lon="0.36766">
        <ele>156.6</ele>
        <time>2024-01-28T10:32:23Z</time>
      </trkpt>
      <trkpt lat="46.54671" lon="0.36777">
        <ele>155.8</ele>
        <time>2024-01-28T10:32:25Z</time>
      </trkpt>
      <trkpt lat="46.54664" lon="0.3678">
        <ele>155.6</ele>
        <time>2024-01-28T10:32:26Z</time>
      </trkpt>
      <trkpt lat="46.54658" lon="0.36783">
        <ele>155.6</ele>
        <time>2024-01-28T10:32:27Z</time>
      </trkpt>
      <trkpt lat="46.54611" lon="0.36805">
        <ele>155</ele>
        <time>2024-01-28T10:32:35Z</time>
      </trkpt>
      <trkpt lat="46.54571" lon="0.36824">
        <ele>156</ele>
        <time>2024-01-28T10:32:43Z</time>
      </trkpt>
      <trkpt lat="46.54558" lon="0.3683">
        <ele>156.6</ele>
        <time>2024-01-28T10:32:46Z</time>
      </trkpt>
      <trkpt lat="46.54542" lon="0.36836">
        <ele>157.2</ele>
        <time>2024-01-28T10:32:50Z</time>
      </trkpt>
      <trkpt lat="46.54528" lon="0.36843">
        <ele>157.8</ele>
        <time>2024-01-28T10:32:54Z</time>
      </trkpt>
      <trkpt lat="46.54514" lon="0.36849">
        <ele>158.6</ele>
        <time>2024-01-28T10:32:58Z</time>
      </trkpt>
      <trkpt lat="46.5451" lon="0.3685">
        <ele>159</ele>
        <time>2024-01-28T10:32:59Z</time>
      </trkpt>
      <trkpt lat="46.54481" lon="0.36862">
        <ele>159.8</ele>
        <time>2024-01-28T10:33:07Z</time>
      </trkpt>
      <trkpt lat="46.54466" lon="0.36868">
        <ele>160</ele>
        <time>2024-01-28T10:33:11Z</time>
      </trkpt>
      <trkpt lat="46.54454" lon="0.36873">
        <ele>160.4</ele>
        <time>2024-01-28T10:33:14Z</time>
      </trkpt>
      <trkpt lat="46.54427" lon="0.36885">
        <ele>160.6</ele>
        <time>2024-01-28T10:33:21Z</time>
      </trkpt>
      <trkpt lat="46.54394" lon="0.36898">
        <ele>160.6</ele>
        <time>2024-01-28T10:33:29Z</time>
      </trkpt>
      <trkpt lat="46.54381" lon="0.36898">
        <ele>160.4</ele>
        <time>2024-01-28T10:33:32Z</time>
      </trkpt>
      <trkpt lat="46.54372" lon="0.36897">
        <ele>160.2</ele>
        <time>2024-01-28T10:33:34Z</time>
      </trkpt>
      <trkpt lat="46.54343" lon="0.36894">
        <ele>159.6</ele>
        <time>2024-01-28T10:33:40Z</time>
      </trkpt>
      <trkpt lat="46.54299" lon="0.36893">
        <ele>159.2</ele>
        <time>2024-01-28T10:33:48Z</time>
      </trkpt>
      <trkpt lat="46.54293" lon="0.36893">
        <ele>159</ele>
        <time>2024-01-28T10:33:49Z</time>
      </trkpt>
      <trkpt lat="46.54268" lon="0.36891">
        <ele>157.8</ele>
        <time>2024-01-28T10:33:53Z</time>
      </trkpt>
      <trkpt lat="46.54257" lon="0.36889">
        <ele>157.4</ele>
        <time>2024-01-28T10:33:55Z</time>
      </trkpt>
      <trkpt lat="46.54247" lon="0.36886">
        <ele>157</ele>
        <time>2024-01-28T10:33:57Z</time>
      </trkpt>
      <trkpt lat="46.54239" lon="0.36893">
        <ele>156.6</ele>
        <time>2024-01-28T10:33:59Z</time>
      </trkpt>
      <trkpt lat="46.54236" lon="0.36904">
        <ele>156.6</ele>
        <time>2024-01-28T10:34:01Z</time>
      </trkpt>
      <trkpt lat="46.54238" lon="0.36908">
        <ele>156.6</ele>
        <time>2024-01-28T10:34:02Z</time>
      </trkpt>
      <trkpt lat="46.5424" lon="0.36912">
        <ele>156.6</ele>
        <time>2024-01-28T10:34:03Z</time>
      </trkpt>
      <trkpt lat="46.54246" lon="0.36921">
        <ele>156.6</ele>
        <time>2024-01-28T10:34:05Z</time>
      </trkpt>
      <trkpt lat="46.54252" lon="0.36932">
        <ele>156.8</ele>
        <time>2024-01-28T10:34:07Z</time>
      </trkpt>
      <trkpt lat="46.54254" lon="0.36938">
        <ele>157</ele>
        <time>2024-01-28T10:34:08Z</time>
      </trkpt>
      <trkpt lat="46.5426" lon="0.36951">
        <ele>156.8</ele>
        <time>2024-01-28T10:34:10Z</time>
      </trkpt>
      <trkpt lat="46.54266" lon="0.36963">
        <ele>156.8</ele>
        <time>2024-01-28T10:34:12Z</time>
      </trkpt>
      <trkpt lat="46.54276" lon="0.36979">
        <ele>156.8</ele>
        <time>2024-01-28T10:34:15Z</time>
      </trkpt>
      <trkpt lat="46.54281" lon="0.3699">
        <ele>156.6</ele>
        <time>2024-01-28T10:34:17Z</time>
      </trkpt>
      <trkpt lat="46.5429" lon="0.37008">
        <ele>156.4</ele>
        <time>2024-01-28T10:34:20Z</time>
      </trkpt>
      <trkpt lat="46.54292" lon="0.3702">
        <ele>156.6</ele>
        <time>2024-01-28T10:34:22Z</time>
      </trkpt>
      <trkpt lat="46.54304" lon="0.3705">
        <ele>156.6</ele>
        <time>2024-01-28T10:34:27Z</time>
      </trkpt>
      <trkpt lat="46.54316" lon="0.37082">
        <ele>156.8</ele>
        <time>2024-01-28T10:34:32Z</time>
      </trkpt>
      <trkpt lat="46.54328" lon="0.37097">
        <ele>156.2</ele>
        <time>2024-01-28T10:34:37Z</time>
      </trkpt>
      <trkpt lat="46.54331" lon="0.37101">
        <ele>156</ele>
        <time>2024-01-28T10:34:39Z</time>
      </trkpt>
      <trkpt lat="46.5433" lon="0.37105">
        <ele>156.2</ele>
        <time>2024-01-28T10:34:41Z</time>
      </trkpt>
      <trkpt lat="46.5432" lon="0.37118">
        <ele>156</ele>
        <time>2024-01-28T10:34:46Z</time>
      </trkpt>
      <trkpt lat="46.54311" lon="0.37127">
        <ele>155.4</ele>
        <time>2024-01-28T10:34:49Z</time>
      </trkpt>
      <trkpt lat="46.54298" lon="0.37132">
        <ele>154.6</ele>
        <time>2024-01-28T10:34:52Z</time>
      </trkpt>
      <trkpt lat="46.54294" lon="0.37132">
        <ele>154.2</ele>
        <time>2024-01-28T10:34:53Z</time>
      </trkpt>
      <trkpt lat="46.54287" lon="0.37132">
        <ele>152.6</ele>
        <time>2024-01-28T10:34:55Z</time>
      </trkpt>
      <trkpt lat="46.54283" lon="0.37133">
        <ele>151.4</ele>
        <time>2024-01-28T10:34:56Z</time>
      </trkpt>
      <trkpt lat="46.54279" lon="0.37133">
        <ele>150.6</ele>
        <time>2024-01-28T10:34:57Z</time>
      </trkpt>
      <trkpt lat="46.54276" lon="0.37133">
        <ele>150</ele>
        <time>2024-01-28T10:34:58Z</time>
      </trkpt>
      <trkpt lat="46.54273" lon="0.37133">
        <ele>149.6</ele>
        <time>2024-01-28T10:34:59Z</time>
      </trkpt>
      <trkpt lat="46.54268" lon="0.37136">
        <ele>148.4</ele>
        <time>2024-01-28T10:35:01Z</time>
      </trkpt>
      <trkpt lat="46.54267" lon="0.37139">
        <ele>146.8</ele>
        <time>2024-01-28T10:35:02Z</time>
      </trkpt>
      <trkpt lat="46.54265" lon="0.37143">
        <ele>145.8</ele>
        <time>2024-01-28T10:35:03Z</time>
      </trkpt>
      <trkpt lat="46.54262" lon="0.37151">
        <ele>144.2</ele>
        <time>2024-01-28T10:35:05Z</time>
      </trkpt>
      <trkpt lat="46.5426" lon="0.37155">
        <ele>143.8</ele>
        <time>2024-01-28T10:35:06Z</time>
      </trkpt>
      <trkpt lat="46.54259" lon="0.37161">
        <ele>143.2</ele>
        <time>2024-01-28T10:35:07Z</time>
      </trkpt>
      <trkpt lat="46.54252" lon="0.37173">
        <ele>142.2</ele>
        <time>2024-01-28T10:35:09Z</time>
      </trkpt>
      <trkpt lat="46.54248" lon="0.37179">
        <ele>141.8</ele>
        <time>2024-01-28T10:35:10Z</time>
      </trkpt>
      <trkpt lat="46.54236" lon="0.37195">
        <ele>141.8</ele>
        <time>2024-01-28T10:35:14Z</time>
      </trkpt>
      <trkpt lat="46.5423" lon="0.37201">
        <ele>142.8</ele>
        <time>2024-01-28T10:35:17Z</time>
      </trkpt>
      <trkpt lat="46.54228" lon="0.37203">
        <ele>143.4</ele>
        <time>2024-01-28T10:35:19Z</time>
      </trkpt>
      <trkpt lat="46.54226" lon="0.37204">
        <ele>144</ele>
        <time>2024-01-28T10:35:20Z</time>
      </trkpt>
      <trkpt lat="46.54222" lon="0.37208">
        <ele>145.6</ele>
        <time>2024-01-28T10:35:22Z</time>
      </trkpt>
      <trkpt lat="46.54216" lon="0.37214">
        <ele>146.4</ele>
        <time>2024-01-28T10:35:26Z</time>
      </trkpt>
      <trkpt lat="46.54214" lon="0.37216">
        <ele>146.8</ele>
        <time>2024-01-28T10:35:27Z</time>
      </trkpt>
      <trkpt lat="46.54209" lon="0.37223">
        <ele>147.8</ele>
        <time>2024-01-28T10:35:30Z</time>
      </trkpt>
      <trkpt lat="46.54202" lon="0.3723">
        <ele>149.2</ele>
        <time>2024-01-28T10:35:34Z</time>
      </trkpt>
      <trkpt lat="46.54194" lon="0.37237">
        <ele>150.2</ele>
        <time>2024-01-28T10:35:39Z</time>
      </trkpt>
      <trkpt lat="46.5419" lon="0.3724">
        <ele>150.6</ele>
        <time>2024-01-28T10:35:41Z</time>
      </trkpt>
      <trkpt lat="46.54183" lon="0.37246">
        <ele>151.4</ele>
        <time>2024-01-28T10:35:45Z</time>
      </trkpt>
      <trkpt lat="46.54177" lon="0.37252">
        <ele>152</ele>
        <time>2024-01-28T10:35:48Z</time>
      </trkpt>
      <trkpt lat="46.54171" lon="0.37257">
        <ele>152.6</ele>
        <time>2024-01-28T10:35:51Z</time>
      </trkpt>
      <trkpt lat="46.54165" lon="0.37261">
        <ele>153</ele>
        <time>2024-01-28T10:35:54Z</time>
      </trkpt>
      <trkpt lat="46.5416" lon="0.37265">
        <ele>153.6</ele>
        <time>2024-01-28T10:35:57Z</time>
      </trkpt>
      <trkpt lat="46.54152" lon="0.37271">
        <ele>154</ele>
        <time>2024-01-28T10:36:01Z</time>
      </trkpt>
      <trkpt lat="46.54142" lon="0.37283">
        <ele>154.6</ele>
        <time>2024-01-28T10:36:05Z</time>
      </trkpt>
      <trkpt lat="46.54137" lon="0.37287">
        <ele>155</ele>
        <time>2024-01-28T10:36:07Z</time>
      </trkpt>
      <trkpt lat="46.54123" lon="0.373">
        <ele>155.8</ele>
        <time>2024-01-28T10:36:12Z</time>
      </trkpt>
      <trkpt lat="46.54114" lon="0.37308">
        <ele>155.8</ele>
        <time>2024-01-28T10:36:15Z</time>
      </trkpt>
      <trkpt lat="46.54106" lon="0.37319">
        <ele>156</ele>
        <time>2024-01-28T10:36:19Z</time>
      </trkpt>
      <trkpt lat="46.54104" lon="0.3732">
        <ele>156</ele>
        <time>2024-01-28T10:36:20Z</time>
      </trkpt>
      <trkpt lat="46.54102" lon="0.37319">
        <ele>156.2</ele>
        <time>2024-01-28T10:36:21Z</time>
      </trkpt>
      <trkpt lat="46.54099" lon="0.37313">
        <ele>156</ele>
        <time>2024-01-28T10:36:24Z</time>
      </trkpt>
      <trkpt lat="46.54094" lon="0.37295">
        <ele>155.2</ele>
        <time>2024-01-28T10:36:31Z</time>
      </trkpt>
      <trkpt lat="46.54093" lon="0.37294">
        <ele>155.2</ele>
        <time>2024-01-28T10:36:32Z</time>
      </trkpt>
      <trkpt lat="46.54091" lon="0.37293">
        <ele>155.2</ele>
        <time>2024-01-28T10:36:35Z</time>
      </trkpt>
      <trkpt lat="46.5409" lon="0.37292">
        <ele>155.2</ele>
        <time>2024-01-28T10:36:36Z</time>
      </trkpt>
      <trkpt lat="46.54086" lon="0.37292">
        <ele>154.8</ele>
        <time>2024-01-28T10:36:44Z</time>
      </trkpt>
      <trkpt lat="46.54076" lon="0.37297">
        <ele>154.8</ele>
        <time>2024-01-28T10:36:52Z</time>
      </trkpt>
      <trkpt lat="46.54067" lon="0.37309">
        <ele>155.4</ele>
        <time>2024-01-28T10:36:58Z</time>
      </trkpt>
      <trkpt lat="46.54058" lon="0.37323">
        <ele>155.4</ele>
        <time>2024-01-28T10:37:04Z</time>
      </trkpt>
      <trkpt lat="46.54046" lon="0.37339">
        <ele>155.4</ele>
        <time>2024-01-28T10:37:09Z</time>
      </trkpt>
      <trkpt lat="46.54039" lon="0.37344">
        <ele>155.6</ele>
        <time>2024-01-28T10:37:11Z</time>
      </trkpt>
      <trkpt lat="46.5402" lon="0.37364">
        <ele>156.8</ele>
        <time>2024-01-28T10:37:18Z</time>
      </trkpt>
      <trkpt lat="46.54018" lon="0.37366">
        <ele>156.8</ele>
        <time>2024-01-28T10:37:19Z</time>
      </trkpt>
      <trkpt lat="46.5401" lon="0.37376">
        <ele>157.2</ele>
        <time>2024-01-28T10:37:24Z</time>
      </trkpt>
      <trkpt lat="46.54001" lon="0.37391">
        <ele>158</ele>
        <time>2024-01-28T10:37:31Z</time>
      </trkpt>
      <trkpt lat="46.53999" lon="0.37395">
        <ele>158</ele>
        <time>2024-01-28T10:37:32Z</time>
      </trkpt>
      <trkpt lat="46.53988" lon="0.37427">
        <ele>159</ele>
        <time>2024-01-28T10:37:39Z</time>
      </trkpt>
      <trkpt lat="46.53987" lon="0.37431">
        <ele>159</ele>
        <time>2024-01-28T10:37:40Z</time>
      </trkpt>
      <trkpt lat="46.53978" lon="0.37454">
        <ele>159.6</ele>
        <time>2024-01-28T10:37:45Z</time>
      </trkpt>
      <trkpt lat="46.53968" lon="0.3748">
        <ele>160</ele>
        <time>2024-01-28T10:37:50Z</time>
      </trkpt>
      <trkpt lat="46.5396" lon="0.37494">
        <ele>160.2</ele>
        <time>2024-01-28T10:37:53Z</time>
      </trkpt>
      <trkpt lat="46.53938" lon="0.37525">
        <ele>160.8</ele>
        <time>2024-01-28T10:38:01Z</time>
      </trkpt>
      <trkpt lat="46.53922" lon="0.37551">
        <ele>160.8</ele>
        <time>2024-01-28T10:38:07Z</time>
      </trkpt>
      <trkpt lat="46.53917" lon="0.37561">
        <ele>160.8</ele>
        <time>2024-01-28T10:38:09Z</time>
      </trkpt>
      <trkpt lat="46.53909" lon="0.37582">
        <ele>160.6</ele>
        <time>2024-01-28T10:38:13Z</time>
      </trkpt>
      <trkpt lat="46.53894" lon="0.37623">
        <ele>159.8</ele>
        <time>2024-01-28T10:38:21Z</time>
      </trkpt>
      <trkpt lat="46.53881" lon="0.37643">
        <ele>159.6</ele>
        <time>2024-01-28T10:38:27Z</time>
      </trkpt>
      <trkpt lat="46.53869" lon="0.37657">
        <ele>159.4</ele>
        <time>2024-01-28T10:38:31Z</time>
      </trkpt>
      <trkpt lat="46.5385" lon="0.37685">
        <ele>159.4</ele>
        <time>2024-01-28T10:38:37Z</time>
      </trkpt>
      <trkpt lat="46.53837" lon="0.37718">
        <ele>159</ele>
        <time>2024-01-28T10:38:42Z</time>
      </trkpt>
      <trkpt lat="46.53835" lon="0.37725">
        <ele>159</ele>
        <time>2024-01-28T10:38:43Z</time>
      </trkpt>
      <trkpt lat="46.53825" lon="0.3776">
        <ele>159</ele>
        <time>2024-01-28T10:38:48Z</time>
      </trkpt>
      <trkpt lat="46.53815" lon="0.37791">
        <ele>158</ele>
        <time>2024-01-28T10:38:52Z</time>
      </trkpt>
      <trkpt lat="46.53808" lon="0.37815">
        <ele>157</ele>
        <time>2024-01-28T10:38:55Z</time>
      </trkpt>
      <trkpt lat="46.53805" lon="0.37824">
        <ele>156.8</ele>
        <time>2024-01-28T10:38:56Z</time>
      </trkpt>
      <trkpt lat="46.53793" lon="0.37871">
        <ele>155.6</ele>
        <time>2024-01-28T10:39:01Z</time>
      </trkpt>
      <trkpt lat="46.53783" lon="0.37903">
        <ele>154</ele>
        <time>2024-01-28T10:39:04Z</time>
      </trkpt>
      <trkpt lat="46.53778" lon="0.37912">
        <ele>153.2</ele>
        <time>2024-01-28T10:39:05Z</time>
      </trkpt>
      <trkpt lat="46.53772" lon="0.37921">
        <ele>152.8</ele>
        <time>2024-01-28T10:39:06Z</time>
      </trkpt>
      <trkpt lat="46.53759" lon="0.37933">
        <ele>151.2</ele>
        <time>2024-01-28T10:39:08Z</time>
      </trkpt>
      <trkpt lat="46.53752" lon="0.37938">
        <ele>150.6</ele>
        <time>2024-01-28T10:39:09Z</time>
      </trkpt>
      <trkpt lat="46.53746" lon="0.37942">
        <ele>149.8</ele>
        <time>2024-01-28T10:39:10Z</time>
      </trkpt>
      <trkpt lat="46.53727" lon="0.37948">
        <ele>148.4</ele>
        <time>2024-01-28T10:39:13Z</time>
      </trkpt>
      <trkpt lat="46.53712" lon="0.37948">
        <ele>147</ele>
        <time>2024-01-28T10:39:15Z</time>
      </trkpt>
      <trkpt lat="46.53694" lon="0.37946">
        <ele>146</ele>
        <time>2024-01-28T10:39:17Z</time>
      </trkpt>
      <trkpt lat="46.53686" lon="0.37944">
        <ele>145.4</ele>
        <time>2024-01-28T10:39:18Z</time>
      </trkpt>
      <trkpt lat="46.53678" lon="0.37943">
        <ele>143.8</ele>
        <time>2024-01-28T10:39:20Z</time>
      </trkpt>
      <trkpt lat="46.53661" lon="0.37945">
        <ele>143.8</ele>
        <time>2024-01-28T10:39:21Z</time>
      </trkpt>
      <trkpt lat="46.53652" lon="0.37945">
        <ele>143.2</ele>
        <time>2024-01-28T10:39:22Z</time>
      </trkpt>
      <trkpt lat="46.53644" lon="0.37943">
        <ele>142.8</ele>
        <time>2024-01-28T10:39:23Z</time>
      </trkpt>
      <trkpt lat="46.53638" lon="0.37939">
        <ele>142.6</ele>
        <time>2024-01-28T10:39:24Z</time>
      </trkpt>
      <trkpt lat="46.53631" lon="0.37934">
        <ele>142.4</ele>
        <time>2024-01-28T10:39:25Z</time>
      </trkpt>
      <trkpt lat="46.53614" lon="0.37916">
        <ele>142.2</ele>
        <time>2024-01-28T10:39:29Z</time>
      </trkpt>
      <trkpt lat="46.53602" lon="0.37904">
        <ele>143.2</ele>
        <time>2024-01-28T10:39:32Z</time>
      </trkpt>
      <trkpt lat="46.53594" lon="0.37897">
        <ele>144</ele>
        <time>2024-01-28T10:39:34Z</time>
      </trkpt>
      <trkpt lat="46.53586" lon="0.37892">
        <ele>145</ele>
        <time>2024-01-28T10:39:36Z</time>
      </trkpt>
      <trkpt lat="46.53581" lon="0.3789">
        <ele>145.2</ele>
        <time>2024-01-28T10:39:37Z</time>
      </trkpt>
      <trkpt lat="46.53572" lon="0.37886">
        <ele>146.2</ele>
        <time>2024-01-28T10:39:39Z</time>
      </trkpt>
      <trkpt lat="46.53561" lon="0.37881">
        <ele>147.6</ele>
        <time>2024-01-28T10:39:41Z</time>
      </trkpt>
      <trkpt lat="46.53544" lon="0.37873">
        <ele>148.8</ele>
        <time>2024-01-28T10:39:45Z</time>
      </trkpt>
      <trkpt lat="46.5354" lon="0.37871">
        <ele>149.2</ele>
        <time>2024-01-28T10:39:46Z</time>
      </trkpt>
      <trkpt lat="46.53536" lon="0.37869">
        <ele>150</ele>
        <time>2024-01-28T10:39:47Z</time>
      </trkpt>
      <trkpt lat="46.53526" lon="0.37862">
        <ele>151.2</ele>
        <time>2024-01-28T10:39:50Z</time>
      </trkpt>
      <trkpt lat="46.53517" lon="0.37857">
        <ele>152.4</ele>
        <time>2024-01-28T10:39:53Z</time>
      </trkpt>
      <trkpt lat="46.53508" lon="0.37853">
        <ele>153.6</ele>
        <time>2024-01-28T10:39:56Z</time>
      </trkpt>
      <trkpt lat="46.53499" lon="0.37849">
        <ele>154.4</ele>
        <time>2024-01-28T10:39:59Z</time>
      </trkpt>
      <trkpt lat="46.53496" lon="0.37847">
        <ele>154.8</ele>
        <time>2024-01-28T10:40:00Z</time>
      </trkpt>
      <trkpt lat="46.53481" lon="0.3783">
        <ele>155.4</ele>
        <time>2024-01-28T10:40:05Z</time>
      </trkpt>
      <trkpt lat="46.53478" lon="0.37826">
        <ele>155.4</ele>
        <time>2024-01-28T10:40:06Z</time>
      </trkpt>
      <trkpt lat="46.53464" lon="0.37807">
        <ele>155.6</ele>
        <time>2024-01-28T10:40:10Z</time>
      </trkpt>
      <trkpt lat="46.53454" lon="0.37792">
        <ele>155.8</ele>
        <time>2024-01-28T10:40:13Z</time>
      </trkpt>
      <trkpt lat="46.5345" lon="0.37786">
        <ele>155.8</ele>
        <time>2024-01-28T10:40:14Z</time>
      </trkpt>
      <trkpt lat="46.53438" lon="0.37762">
        <ele>155.8</ele>
        <time>2024-01-28T10:40:18Z</time>
      </trkpt>
      <trkpt lat="46.53428" lon="0.37738">
        <ele>156.6</ele>
        <time>2024-01-28T10:40:22Z</time>
      </trkpt>
      <trkpt lat="46.53426" lon="0.37732">
        <ele>156.8</ele>
        <time>2024-01-28T10:40:23Z</time>
      </trkpt>
      <trkpt lat="46.53421" lon="0.37722">
        <ele>157</ele>
        <time>2024-01-28T10:40:25Z</time>
      </trkpt>
      <trkpt lat="46.53413" lon="0.37701">
        <ele>157.8</ele>
        <time>2024-01-28T10:40:29Z</time>
      </trkpt>
      <trkpt lat="46.53408" lon="0.37687">
        <ele>158.4</ele>
        <time>2024-01-28T10:40:32Z</time>
      </trkpt>
      <trkpt lat="46.53403" lon="0.37672">
        <ele>159.2</ele>
        <time>2024-01-28T10:40:35Z</time>
      </trkpt>
      <trkpt lat="46.53395" lon="0.37652">
        <ele>160</ele>
        <time>2024-01-28T10:40:39Z</time>
      </trkpt>
      <trkpt lat="46.53393" lon="0.37646">
        <ele>160.2</ele>
        <time>2024-01-28T10:40:40Z</time>
      </trkpt>
      <trkpt lat="46.5338" lon="0.37619">
        <ele>160.6</ele>
        <time>2024-01-28T10:40:45Z</time>
      </trkpt>
      <trkpt lat="46.5338" lon="0.37619">
        <ele>160.8</ele>
        <time>2024-01-28T10:40:46Z</time>
      </trkpt>
      <trkpt lat="46.53361" lon="0.37568">
        <ele>161</ele>
        <time>2024-01-28T10:40:54Z</time>
      </trkpt>
      <trkpt lat="46.53343" lon="0.37532">
        <ele>161</ele>
        <time>2024-01-28T10:41:01Z</time>
      </trkpt>
      <trkpt lat="46.5334" lon="0.37529">
        <ele>161</ele>
        <time>2024-01-28T10:41:02Z</time>
      </trkpt>
      <trkpt lat="46.53335" lon="0.3753">
        <ele>160.8</ele>
        <time>2024-01-28T10:41:04Z</time>
      </trkpt>
      <trkpt lat="46.53333" lon="0.37532">
        <ele>160.8</ele>
        <time>2024-01-28T10:41:05Z</time>
      </trkpt>
      <trkpt lat="46.53332" lon="0.37538">
        <ele>160.6</ele>
        <time>2024-01-28T10:41:07Z</time>
      </trkpt>
      <trkpt lat="46.53325" lon="0.37558">
        <ele>160.6</ele>
        <time>2024-01-28T10:41:12Z</time>
      </trkpt>
      <trkpt lat="46.53316" lon="0.37587">
        <ele>161.2</ele>
        <time>2024-01-28T10:41:18Z</time>
      </trkpt>
      <trkpt lat="46.53304" lon="0.37628">
        <ele>161.2</ele>
        <time>2024-01-28T10:41:25Z</time>
      </trkpt>
      <trkpt lat="46.53291" lon="0.37669">
        <ele>161.8</ele>
        <time>2024-01-28T10:41:31Z</time>
      </trkpt>
      <trkpt lat="46.53284" lon="0.37687">
        <ele>162.2</ele>
        <time>2024-01-28T10:41:34Z</time>
      </trkpt>
      <trkpt lat="46.53279" lon="0.37705">
        <ele>162.4</ele>
        <time>2024-01-28T10:41:37Z</time>
      </trkpt>
      <trkpt lat="46.53265" lon="0.3776">
        <ele>162.2</ele>
        <time>2024-01-28T10:41:45Z</time>
      </trkpt>
      <trkpt lat="46.53259" lon="0.3781">
        <ele>161.8</ele>
        <time>2024-01-28T10:41:52Z</time>
      </trkpt>
      <trkpt lat="46.53255" lon="0.37857">
        <ele>161.8</ele>
        <time>2024-01-28T10:41:59Z</time>
      </trkpt>
      <trkpt lat="46.53253" lon="0.37878">
        <ele>161.8</ele>
        <time>2024-01-28T10:42:02Z</time>
      </trkpt>
      <trkpt lat="46.53249" lon="0.379">
        <ele>161.6</ele>
        <time>2024-01-28T10:42:05Z</time>
      </trkpt>
      <trkpt lat="46.53243" lon="0.37945">
        <ele>161.4</ele>
        <time>2024-01-28T10:42:12Z</time>
      </trkpt>
      <trkpt lat="46.53243" lon="0.37951">
        <ele>161.2</ele>
        <time>2024-01-28T10:42:13Z</time>
      </trkpt>
      <trkpt lat="46.53244" lon="0.37957">
        <ele>161</ele>
        <time>2024-01-28T10:42:14Z</time>
      </trkpt>
      <trkpt lat="46.53248" lon="0.37974">
        <ele>160.8</ele>
        <time>2024-01-28T10:42:17Z</time>
      </trkpt>
      <trkpt lat="46.53256" lon="0.38023">
        <ele>160.2</ele>
        <time>2024-01-28T10:42:24Z</time>
      </trkpt>
      <trkpt lat="46.53256" lon="0.3803">
        <ele>160.2</ele>
        <time>2024-01-28T10:42:25Z</time>
      </trkpt>
      <trkpt lat="46.53261" lon="0.38073">
        <ele>159.6</ele>
        <time>2024-01-28T10:42:31Z</time>
      </trkpt>
      <trkpt lat="46.53263" lon="0.38087">
        <ele>159</ele>
        <time>2024-01-28T10:42:33Z</time>
      </trkpt>
      <trkpt lat="46.53266" lon="0.3812">
        <ele>158.2</ele>
        <time>2024-01-28T10:42:37Z</time>
      </trkpt>
      <trkpt lat="46.53267" lon="0.38129">
        <ele>158</ele>
        <time>2024-01-28T10:42:38Z</time>
      </trkpt>
      <trkpt lat="46.53267" lon="0.38138">
        <ele>157.8</ele>
        <time>2024-01-28T10:42:39Z</time>
      </trkpt>
      <trkpt lat="46.53265" lon="0.38164">
        <ele>157</ele>
        <time>2024-01-28T10:42:42Z</time>
      </trkpt>
      <trkpt lat="46.5326" lon="0.38196">
        <ele>155.6</ele>
        <time>2024-01-28T10:42:46Z</time>
      </trkpt>
      <trkpt lat="46.53254" lon="0.3822">
        <ele>155.2</ele>
        <time>2024-01-28T10:42:49Z</time>
      </trkpt>
      <trkpt lat="46.53247" lon="0.38237">
        <ele>154.6</ele>
        <time>2024-01-28T10:42:51Z</time>
      </trkpt>
      <trkpt lat="46.53238" lon="0.38255">
        <ele>154.4</ele>
        <time>2024-01-28T10:42:53Z</time>
      </trkpt>
      <trkpt lat="46.53214" lon="0.38313">
        <ele>153.8</ele>
        <time>2024-01-28T10:43:00Z</time>
      </trkpt>
      <trkpt lat="46.53208" lon="0.38326">
        <ele>153.6</ele>
        <time>2024-01-28T10:43:02Z</time>
      </trkpt>
      <trkpt lat="46.53202" lon="0.38346">
        <ele>153.4</ele>
        <time>2024-01-28T10:43:05Z</time>
      </trkpt>
      <trkpt lat="46.53189" lon="0.38383">
        <ele>154</ele>
        <time>2024-01-28T10:43:12Z</time>
      </trkpt>
      <trkpt lat="46.53187" lon="0.38387">
        <ele>154.2</ele>
        <time>2024-01-28T10:43:13Z</time>
      </trkpt>
      <trkpt lat="46.53186" lon="0.38404">
        <ele>154.4</ele>
        <time>2024-01-28T10:43:17Z</time>
      </trkpt>
      <trkpt lat="46.53187" lon="0.38413">
        <ele>154.4</ele>
        <time>2024-01-28T10:43:19Z</time>
      </trkpt>
      <trkpt lat="46.53191" lon="0.38419">
        <ele>154.2</ele>
        <time>2024-01-28T10:43:21Z</time>
      </trkpt>
      <trkpt lat="46.53196" lon="0.38425">
        <ele>154.6</ele>
        <time>2024-01-28T10:43:24Z</time>
      </trkpt>
      <trkpt lat="46.532" lon="0.38428">
        <ele>155.2</ele>
        <time>2024-01-28T10:43:26Z</time>
      </trkpt>
      <trkpt lat="46.53206" lon="0.38433">
        <ele>155.8</ele>
        <time>2024-01-28T10:43:29Z</time>
      </trkpt>
      <trkpt lat="46.53213" lon="0.3844">
        <ele>157.2</ele>
        <time>2024-01-28T10:43:33Z</time>
      </trkpt>
      <trkpt lat="46.53221" lon="0.38451">
        <ele>158.4</ele>
        <time>2024-01-28T10:43:38Z</time>
      </trkpt>
      <trkpt lat="46.53226" lon="0.38457">
        <ele>158.8</ele>
        <time>2024-01-28T10:43:40Z</time>
      </trkpt>
      <trkpt lat="46.53232" lon="0.38465">
        <ele>159.4</ele>
        <time>2024-01-28T10:43:43Z</time>
      </trkpt>
      <trkpt lat="46.5324" lon="0.38476">
        <ele>160.6</ele>
        <time>2024-01-28T10:43:47Z</time>
      </trkpt>
      <trkpt lat="46.53253" lon="0.38494">
        <ele>161.8</ele>
        <time>2024-01-28T10:43:53Z</time>
      </trkpt>
      <trkpt lat="46.53269" lon="0.38521">
        <ele>162.8</ele>
        <time>2024-01-28T10:43:59Z</time>
      </trkpt>
      <trkpt lat="46.53271" lon="0.38526">
        <ele>163</ele>
        <time>2024-01-28T10:44:00Z</time>
      </trkpt>
      <trkpt lat="46.53285" lon="0.38564">
        <ele>164</ele>
        <time>2024-01-28T10:44:07Z</time>
      </trkpt>
      <trkpt lat="46.5329" lon="0.38581">
        <ele>164.2</ele>
        <time>2024-01-28T10:44:10Z</time>
      </trkpt>
      <trkpt lat="46.53296" lon="0.38623">
        <ele>165</ele>
        <time>2024-01-28T10:44:17Z</time>
      </trkpt>
      <trkpt lat="46.533" lon="0.38668">
        <ele>164.8</ele>
        <time>2024-01-28T10:44:24Z</time>
      </trkpt>
      <trkpt lat="46.53303" lon="0.3868">
        <ele>164.4</ele>
        <time>2024-01-28T10:44:26Z</time>
      </trkpt>
      <trkpt lat="46.5331" lon="0.38714">
        <ele>164.2</ele>
        <time>2024-01-28T10:44:32Z</time>
      </trkpt>
      <trkpt lat="46.53312" lon="0.38719">
        <ele>164.2</ele>
        <time>2024-01-28T10:44:34Z</time>
      </trkpt>
      <trkpt lat="46.53321" lon="0.38759">
        <ele>164.6</ele>
        <time>2024-01-28T10:44:40Z</time>
      </trkpt>
      <trkpt lat="46.53324" lon="0.38782">
        <ele>165.2</ele>
        <time>2024-01-28T10:44:44Z</time>
      </trkpt>
      <trkpt lat="46.53325" lon="0.38797">
        <ele>165.2</ele>
        <time>2024-01-28T10:44:47Z</time>
      </trkpt>
      <trkpt lat="46.53328" lon="0.38819">
        <ele>164.8</ele>
        <time>2024-01-28T10:44:52Z</time>
      </trkpt>
      <trkpt lat="46.53319" lon="0.38829">
        <ele>165.6</ele>
        <time>2024-01-28T10:44:56Z</time>
      </trkpt>
      <trkpt lat="46.53298" lon="0.38835">
        <ele>166</ele>
        <time>2024-01-28T10:45:02Z</time>
      </trkpt>
      <trkpt lat="46.53292" lon="0.38837">
        <ele>166.2</ele>
        <time>2024-01-28T10:45:04Z</time>
      </trkpt>
      <trkpt lat="46.53282" lon="0.38841">
        <ele>166.8</ele>
        <time>2024-01-28T10:45:07Z</time>
      </trkpt>
      <trkpt lat="46.53276" lon="0.38845">
        <ele>167.2</ele>
        <time>2024-01-28T10:45:09Z</time>
      </trkpt>
      <trkpt lat="46.53259" lon="0.38855">
        <ele>167.6</ele>
        <time>2024-01-28T10:45:14Z</time>
      </trkpt>
      <trkpt lat="46.53245" lon="0.3886">
        <ele>168.2</ele>
        <time>2024-01-28T10:45:18Z</time>
      </trkpt>
      <trkpt lat="46.53228" lon="0.38864">
        <ele>168</ele>
        <time>2024-01-28T10:45:23Z</time>
      </trkpt>
      <trkpt lat="46.53203" lon="0.38871">
        <ele>168.2</ele>
        <time>2024-01-28T10:45:31Z</time>
      </trkpt>
      <trkpt lat="46.53175" lon="0.38874">
        <ele>168.2</ele>
        <time>2024-01-28T10:45:38Z</time>
      </trkpt>
      <trkpt lat="46.53148" lon="0.38883">
        <ele>168.2</ele>
        <time>2024-01-28T10:45:45Z</time>
      </trkpt>
      <trkpt lat="46.53123" lon="0.38891">
        <ele>168.2</ele>
        <time>2024-01-28T10:45:51Z</time>
      </trkpt>
      <trkpt lat="46.53089" lon="0.389">
        <ele>167.4</ele>
        <time>2024-01-28T10:46:00Z</time>
      </trkpt>
      <trkpt lat="46.53066" lon="0.38911">
        <ele>167.6</ele>
        <time>2024-01-28T10:46:06Z</time>
      </trkpt>
      <trkpt lat="46.53046" lon="0.38926">
        <ele>167.2</ele>
        <time>2024-01-28T10:46:11Z</time>
      </trkpt>
      <trkpt lat="46.53037" lon="0.38933">
        <ele>167</ele>
        <time>2024-01-28T10:46:13Z</time>
      </trkpt>
      <trkpt lat="46.52997" lon="0.38961">
        <ele>167</ele>
        <time>2024-01-28T10:46:22Z</time>
      </trkpt>
      <trkpt lat="46.52962" lon="0.38974">
        <ele>167.2</ele>
        <time>2024-01-28T10:46:30Z</time>
      </trkpt>
      <trkpt lat="46.52926" lon="0.38984">
        <ele>167.2</ele>
        <time>2024-01-28T10:46:38Z</time>
      </trkpt>
      <trkpt lat="46.5289" lon="0.38993">
        <ele>167.8</ele>
        <time>2024-01-28T10:46:46Z</time>
      </trkpt>
      <trkpt lat="46.52882" lon="0.38996">
        <ele>168.2</ele>
        <time>2024-01-28T10:46:48Z</time>
      </trkpt>
      <trkpt lat="46.52863" lon="0.39001">
        <ele>168.8</ele>
        <time>2024-01-28T10:46:53Z</time>
      </trkpt>
      <trkpt lat="46.5284" lon="0.39006">
        <ele>169.4</ele>
        <time>2024-01-28T10:46:59Z</time>
      </trkpt>
      <trkpt lat="46.52832" lon="0.39008">
        <ele>169.6</ele>
        <time>2024-01-28T10:47:01Z</time>
      </trkpt>
      <trkpt lat="46.52798" lon="0.39017">
        <ele>170.6</ele>
        <time>2024-01-28T10:47:10Z</time>
      </trkpt>
      <trkpt lat="46.52794" lon="0.39018">
        <ele>170.8</ele>
        <time>2024-01-28T10:47:11Z</time>
      </trkpt>
      <trkpt lat="46.52785" lon="0.39021">
        <ele>171.6</ele>
        <time>2024-01-28T10:47:14Z</time>
      </trkpt>
      <trkpt lat="46.52771" lon="0.39026">
        <ele>172.8</ele>
        <time>2024-01-28T10:47:18Z</time>
      </trkpt>
      <trkpt lat="46.52767" lon="0.39027">
        <ele>172.8</ele>
        <time>2024-01-28T10:47:19Z</time>
      </trkpt>
      <trkpt lat="46.52741" lon="0.39033">
        <ele>173.2</ele>
        <time>2024-01-28T10:47:26Z</time>
      </trkpt>
      <trkpt lat="46.52714" lon="0.39038">
        <ele>173.6</ele>
        <time>2024-01-28T10:47:34Z</time>
      </trkpt>
      <trkpt lat="46.52703" lon="0.39042">
        <ele>173</ele>
        <time>2024-01-28T10:47:39Z</time>
      </trkpt>
      <trkpt lat="46.52686" lon="0.39046">
        <ele>173</ele>
        <time>2024-01-28T10:47:46Z</time>
      </trkpt>
      <trkpt lat="46.52665" lon="0.39046">
        <ele>173.4</ele>
        <time>2024-01-28T10:47:53Z</time>
      </trkpt>
      <trkpt lat="46.52648" lon="0.39049">
        <ele>173.2</ele>
        <time>2024-01-28T10:47:59Z</time>
      </trkpt>
      <trkpt lat="46.52626" lon="0.39055">
        <ele>172.6</ele>
        <time>2024-01-28T10:48:06Z</time>
      </trkpt>
      <trkpt lat="46.52595" lon="0.39067">
        <ele>172.2</ele>
        <time>2024-01-28T10:48:15Z</time>
      </trkpt>
      <trkpt lat="46.52576" lon="0.39072">
        <ele>171.6</ele>
        <time>2024-01-28T10:48:20Z</time>
      </trkpt>
      <trkpt lat="46.52562" lon="0.39073">
        <ele>171.4</ele>
        <time>2024-01-28T10:48:23Z</time>
      </trkpt>
      <trkpt lat="46.5254" lon="0.39066">
        <ele>170.8</ele>
        <time>2024-01-28T10:48:28Z</time>
      </trkpt>
      <trkpt lat="46.5253" lon="0.39061">
        <ele>170.6</ele>
        <time>2024-01-28T10:48:30Z</time>
      </trkpt>
      <trkpt lat="46.5252" lon="0.39056">
        <ele>170.6</ele>
        <time>2024-01-28T10:48:32Z</time>
      </trkpt>
      <trkpt lat="46.5251" lon="0.39051">
        <ele>170.4</ele>
        <time>2024-01-28T10:48:34Z</time>
      </trkpt>
      <trkpt lat="46.52468" lon="0.39027">
        <ele>169.4</ele>
        <time>2024-01-28T10:48:42Z</time>
      </trkpt>
      <trkpt lat="46.52431" lon="0.39012">
        <ele>169.2</ele>
        <time>2024-01-28T10:48:49Z</time>
      </trkpt>
      <trkpt lat="46.52387" lon="0.3899">
        <ele>169.8</ele>
        <time>2024-01-28T10:48:57Z</time>
      </trkpt>
      <trkpt lat="46.5234" lon="0.38962">
        <ele>169</ele>
        <time>2024-01-28T10:49:05Z</time>
      </trkpt>
      <trkpt lat="46.52298" lon="0.38936">
        <ele>168.4</ele>
        <time>2024-01-28T10:49:12Z</time>
      </trkpt>
      <trkpt lat="46.52286" lon="0.38929">
        <ele>168.2</ele>
        <time>2024-01-28T10:49:14Z</time>
      </trkpt>
      <trkpt lat="46.52236" lon="0.38899">
        <ele>167.8</ele>
        <time>2024-01-28T10:49:22Z</time>
      </trkpt>
      <trkpt lat="46.52218" lon="0.38889">
        <ele>167.4</ele>
        <time>2024-01-28T10:49:25Z</time>
      </trkpt>
      <trkpt lat="46.52189" lon="0.38873">
        <ele>167</ele>
        <time>2024-01-28T10:49:30Z</time>
      </trkpt>
      <trkpt lat="46.52135" lon="0.38844">
        <ele>167</ele>
        <time>2024-01-28T10:49:39Z</time>
      </trkpt>
      <trkpt lat="46.52129" lon="0.38841">
        <ele>166.8</ele>
        <time>2024-01-28T10:49:40Z</time>
      </trkpt>
      <trkpt lat="46.52086" lon="0.38819">
        <ele>166.4</ele>
        <time>2024-01-28T10:49:47Z</time>
      </trkpt>
      <trkpt lat="46.52061" lon="0.38805">
        <ele>165.6</ele>
        <time>2024-01-28T10:49:51Z</time>
      </trkpt>
      <trkpt lat="46.52049" lon="0.38797">
        <ele>165.4</ele>
        <time>2024-01-28T10:49:53Z</time>
      </trkpt>
      <trkpt lat="46.52021" lon="0.38772">
        <ele>164.8</ele>
        <time>2024-01-28T10:49:58Z</time>
      </trkpt>
      <trkpt lat="46.52005" lon="0.38754">
        <ele>164.4</ele>
        <time>2024-01-28T10:50:01Z</time>
      </trkpt>
      <trkpt lat="46.51984" lon="0.38728">
        <ele>164</ele>
        <time>2024-01-28T10:50:05Z</time>
      </trkpt>
      <trkpt lat="46.51961" lon="0.38694">
        <ele>163</ele>
        <time>2024-01-28T10:50:10Z</time>
      </trkpt>
      <trkpt lat="46.51953" lon="0.3868">
        <ele>162.8</ele>
        <time>2024-01-28T10:50:12Z</time>
      </trkpt>
      <trkpt lat="46.5194" lon="0.3866">
        <ele>162.2</ele>
        <time>2024-01-28T10:50:15Z</time>
      </trkpt>
      <trkpt lat="46.5193" lon="0.38649">
        <ele>161.6</ele>
        <time>2024-01-28T10:50:17Z</time>
      </trkpt>
      <trkpt lat="46.51926" lon="0.38643">
        <ele>161.4</ele>
        <time>2024-01-28T10:50:18Z</time>
      </trkpt>
      <trkpt lat="46.51922" lon="0.38637">
        <ele>161.4</ele>
        <time>2024-01-28T10:50:19Z</time>
      </trkpt>
      <trkpt lat="46.51912" lon="0.38614">
        <ele>160.6</ele>
        <time>2024-01-28T10:50:22Z</time>
      </trkpt>
      <trkpt lat="46.51909" lon="0.38605">
        <ele>160</ele>
        <time>2024-01-28T10:50:23Z</time>
      </trkpt>
      <trkpt lat="46.51902" lon="0.38585">
        <ele>159.6</ele>
        <time>2024-01-28T10:50:25Z</time>
      </trkpt>
      <trkpt lat="46.51895" lon="0.38562">
        <ele>158</ele>
        <time>2024-01-28T10:50:27Z</time>
      </trkpt>
      <trkpt lat="46.51891" lon="0.38551">
        <ele>156.8</ele>
        <time>2024-01-28T10:50:28Z</time>
      </trkpt>
      <trkpt lat="46.51883" lon="0.38528">
        <ele>155.6</ele>
        <time>2024-01-28T10:50:30Z</time>
      </trkpt>
      <trkpt lat="46.51877" lon="0.38507">
        <ele>154.6</ele>
        <time>2024-01-28T10:50:32Z</time>
      </trkpt>
      <trkpt lat="46.51875" lon="0.38497">
        <ele>153.6</ele>
        <time>2024-01-28T10:50:33Z</time>
      </trkpt>
      <trkpt lat="46.51872" lon="0.3848">
        <ele>152.4</ele>
        <time>2024-01-28T10:50:35Z</time>
      </trkpt>
      <trkpt lat="46.5187" lon="0.38473">
        <ele>151.8</ele>
        <time>2024-01-28T10:50:36Z</time>
      </trkpt>
      <trkpt lat="46.51868" lon="0.38467">
        <ele>151.4</ele>
        <time>2024-01-28T10:50:37Z</time>
      </trkpt>
      <trkpt lat="46.51864" lon="0.38462">
        <ele>151</ele>
        <time>2024-01-28T10:50:38Z</time>
      </trkpt>
      <trkpt lat="46.51859" lon="0.38454">
        <ele>150.4</ele>
        <time>2024-01-28T10:50:40Z</time>
      </trkpt>
      <trkpt lat="46.51857" lon="0.38449">
        <ele>150.2</ele>
        <time>2024-01-28T10:50:41Z</time>
      </trkpt>
      <trkpt lat="46.51856" lon="0.38445">
        <ele>149.8</ele>
        <time>2024-01-28T10:50:42Z</time>
      </trkpt>
      <trkpt lat="46.51851" lon="0.38434">
        <ele>149.2</ele>
        <time>2024-01-28T10:50:44Z</time>
      </trkpt>
      <trkpt lat="46.51848" lon="0.38428">
        <ele>149</ele>
        <time>2024-01-28T10:50:45Z</time>
      </trkpt>
      <trkpt lat="46.51842" lon="0.38416">
        <ele>147.2</ele>
        <time>2024-01-28T10:50:47Z</time>
      </trkpt>
      <trkpt lat="46.51835" lon="0.38404">
        <ele>145.8</ele>
        <time>2024-01-28T10:50:49Z</time>
      </trkpt>
      <trkpt lat="46.51829" lon="0.38398">
        <ele>145.2</ele>
        <time>2024-01-28T10:50:50Z</time>
      </trkpt>
      <trkpt lat="46.51823" lon="0.38393">
        <ele>144.8</ele>
        <time>2024-01-28T10:50:51Z</time>
      </trkpt>
      <trkpt lat="46.51812" lon="0.38386">
        <ele>143.8</ele>
        <time>2024-01-28T10:50:53Z</time>
      </trkpt>
      <trkpt lat="46.51805" lon="0.38382">
        <ele>142.6</ele>
        <time>2024-01-28T10:50:54Z</time>
      </trkpt>
      <trkpt lat="46.51797" lon="0.38379">
        <ele>142.2</ele>
        <time>2024-01-28T10:50:55Z</time>
      </trkpt>
      <trkpt lat="46.51784" lon="0.38372">
        <ele>141.6</ele>
        <time>2024-01-28T10:50:57Z</time>
      </trkpt>
      <trkpt lat="46.51771" lon="0.38365">
        <ele>139.6</ele>
        <time>2024-01-28T10:50:59Z</time>
      </trkpt>
      <trkpt lat="46.51765" lon="0.38362">
        <ele>139</ele>
        <time>2024-01-28T10:51:00Z</time>
      </trkpt>
      <trkpt lat="46.51759" lon="0.38359">
        <ele>138.6</ele>
        <time>2024-01-28T10:51:01Z</time>
      </trkpt>
      <trkpt lat="46.5175" lon="0.38351">
        <ele>137.6</ele>
        <time>2024-01-28T10:51:03Z</time>
      </trkpt>
      <trkpt lat="46.51747" lon="0.38347">
        <ele>136.2</ele>
        <time>2024-01-28T10:51:04Z</time>
      </trkpt>
      <trkpt lat="46.51743" lon="0.38342">
        <ele>135.4</ele>
        <time>2024-01-28T10:51:05Z</time>
      </trkpt>
      <trkpt lat="46.5174" lon="0.38336">
        <ele>135</ele>
        <time>2024-01-28T10:51:06Z</time>
      </trkpt>
      <trkpt lat="46.51733" lon="0.38326">
        <ele>134.2</ele>
        <time>2024-01-28T10:51:08Z</time>
      </trkpt>
      <trkpt lat="46.51727" lon="0.38318">
        <ele>133.8</ele>
        <time>2024-01-28T10:51:10Z</time>
      </trkpt>
      <trkpt lat="46.5172" lon="0.3831">
        <ele>132.8</ele>
        <time>2024-01-28T10:51:12Z</time>
      </trkpt>
      <trkpt lat="46.51715" lon="0.38307">
        <ele>132.2</ele>
        <time>2024-01-28T10:51:13Z</time>
      </trkpt>
      <trkpt lat="46.5169" lon="0.38288">
        <ele>132</ele>
        <time>2024-01-28T10:51:18Z</time>
      </trkpt>
      <trkpt lat="46.51687" lon="0.38284">
        <ele>132</ele>
        <time>2024-01-28T10:51:19Z</time>
      </trkpt>
      <trkpt lat="46.51682" lon="0.38271">
        <ele>132</ele>
        <time>2024-01-28T10:51:21Z</time>
      </trkpt>
      <trkpt lat="46.51679" lon="0.38261">
        <ele>132.2</ele>
        <time>2024-01-28T10:51:23Z</time>
      </trkpt>
      <trkpt lat="46.51675" lon="0.38248">
        <ele>132.8</ele>
        <time>2024-01-28T10:51:26Z</time>
      </trkpt>
      <trkpt lat="46.51672" lon="0.38239">
        <ele>134</ele>
        <time>2024-01-28T10:51:29Z</time>
      </trkpt>
      <trkpt lat="46.5167" lon="0.38233">
        <ele>134.8</ele>
        <time>2024-01-28T10:51:31Z</time>
      </trkpt>
      <trkpt lat="46.51668" lon="0.38227">
        <ele>135</ele>
        <time>2024-01-28T10:51:33Z</time>
      </trkpt>
      <trkpt lat="46.51662" lon="0.38205">
        <ele>136.2</ele>
        <time>2024-01-28T10:51:39Z</time>
      </trkpt>
      <trkpt lat="46.51656" lon="0.38186">
        <ele>137.2</ele>
        <time>2024-01-28T10:51:44Z</time>
      </trkpt>
      <trkpt lat="46.51655" lon="0.38179">
        <ele>137.6</ele>
        <time>2024-01-28T10:51:46Z</time>
      </trkpt>
      <trkpt lat="46.5165" lon="0.38161">
        <ele>138.2</ele>
        <time>2024-01-28T10:51:51Z</time>
      </trkpt>
      <trkpt lat="46.51646" lon="0.38151">
        <ele>138.6</ele>
        <time>2024-01-28T10:51:54Z</time>
      </trkpt>
      <trkpt lat="46.51641" lon="0.38132">
        <ele>139.2</ele>
        <time>2024-01-28T10:51:59Z</time>
      </trkpt>
      <trkpt lat="46.51638" lon="0.38119">
        <ele>139.4</ele>
        <time>2024-01-28T10:52:03Z</time>
      </trkpt>
      <trkpt lat="46.51633" lon="0.38104">
        <ele>140.4</ele>
        <time>2024-01-28T10:52:07Z</time>
      </trkpt>
      <trkpt lat="46.5163" lon="0.38094">
        <ele>140.8</ele>
        <time>2024-01-28T10:52:10Z</time>
      </trkpt>
      <trkpt lat="46.51629" lon="0.38089">
        <ele>141.8</ele>
        <time>2024-01-28T10:52:12Z</time>
      </trkpt>
      <trkpt lat="46.51626" lon="0.38078">
        <ele>142.8</ele>
        <time>2024-01-28T10:52:16Z</time>
      </trkpt>
      <trkpt lat="46.51625" lon="0.3807">
        <ele>143.2</ele>
        <time>2024-01-28T10:52:19Z</time>
      </trkpt>
      <trkpt lat="46.51622" lon="0.38061">
        <ele>143.8</ele>
        <time>2024-01-28T10:52:22Z</time>
      </trkpt>
      <trkpt lat="46.5162" lon="0.38051">
        <ele>144.6</ele>
        <time>2024-01-28T10:52:26Z</time>
      </trkpt>
      <trkpt lat="46.51619" lon="0.38048">
        <ele>145</ele>
        <time>2024-01-28T10:52:27Z</time>
      </trkpt>
      <trkpt lat="46.51617" lon="0.3804">
        <ele>146</ele>
        <time>2024-01-28T10:52:30Z</time>
      </trkpt>
      <trkpt lat="46.51615" lon="0.38031">
        <ele>147</ele>
        <time>2024-01-28T10:52:33Z</time>
      </trkpt>
      <trkpt lat="46.51612" lon="0.38025">
        <ele>147.2</ele>
        <time>2024-01-28T10:52:35Z</time>
      </trkpt>
      <trkpt lat="46.51606" lon="0.38011">
        <ele>148.2</ele>
        <time>2024-01-28T10:52:41Z</time>
      </trkpt>
      <trkpt lat="46.51605" lon="0.38009">
        <ele>148.6</ele>
        <time>2024-01-28T10:52:42Z</time>
      </trkpt>
      <trkpt lat="46.516" lon="0.38001">
        <ele>149.2</ele>
        <time>2024-01-28T10:52:46Z</time>
      </trkpt>
      <trkpt lat="46.51595" lon="0.37992">
        <ele>149.8</ele>
        <time>2024-01-28T10:52:50Z</time>
      </trkpt>
      <trkpt lat="46.51592" lon="0.37983">
        <ele>150.4</ele>
        <time>2024-01-28T10:52:54Z</time>
      </trkpt>
      <trkpt lat="46.51588" lon="0.37976">
        <ele>150.4</ele>
        <time>2024-01-28T10:52:56Z</time>
      </trkpt>
      <trkpt lat="46.51575" lon="0.37952">
        <ele>151.6</ele>
        <time>2024-01-28T10:53:03Z</time>
      </trkpt>
      <trkpt lat="46.51561" lon="0.37924">
        <ele>152.2</ele>
        <time>2024-01-28T10:53:11Z</time>
      </trkpt>
      <trkpt lat="46.51555" lon="0.37909">
        <ele>152.6</ele>
        <time>2024-01-28T10:53:15Z</time>
      </trkpt>
      <trkpt lat="46.51546" lon="0.3789">
        <ele>153</ele>
        <time>2024-01-28T10:53:20Z</time>
      </trkpt>
      <trkpt lat="46.51536" lon="0.3786">
        <ele>153.2</ele>
        <time>2024-01-28T10:53:27Z</time>
      </trkpt>
      <trkpt lat="46.51524" lon="0.37832">
        <ele>153.4</ele>
        <time>2024-01-28T10:53:33Z</time>
      </trkpt>
      <trkpt lat="46.51522" lon="0.37829">
        <ele>153.6</ele>
        <time>2024-01-28T10:53:34Z</time>
      </trkpt>
      <trkpt lat="46.51509" lon="0.37802">
        <ele>154.6</ele>
        <time>2024-01-28T10:53:41Z</time>
      </trkpt>
      <trkpt lat="46.51507" lon="0.37799">
        <ele>154.6</ele>
        <time>2024-01-28T10:53:42Z</time>
      </trkpt>
      <trkpt lat="46.51498" lon="0.37776">
        <ele>155.8</ele>
        <time>2024-01-28T10:53:48Z</time>
      </trkpt>
      <trkpt lat="46.51495" lon="0.37766">
        <ele>156.2</ele>
        <time>2024-01-28T10:53:50Z</time>
      </trkpt>
      <trkpt lat="46.51489" lon="0.37744">
        <ele>156.8</ele>
        <time>2024-01-28T10:53:55Z</time>
      </trkpt>
      <trkpt lat="46.51487" lon="0.37735">
        <ele>157.4</ele>
        <time>2024-01-28T10:53:57Z</time>
      </trkpt>
      <trkpt lat="46.51485" lon="0.37725">
        <ele>158</ele>
        <time>2024-01-28T10:53:59Z</time>
      </trkpt>
      <trkpt lat="46.5148" lon="0.37704">
        <ele>158.4</ele>
        <time>2024-01-28T10:54:04Z</time>
      </trkpt>
      <trkpt lat="46.51475" lon="0.37688">
        <ele>159</ele>
        <time>2024-01-28T10:54:07Z</time>
      </trkpt>
      <trkpt lat="46.51471" lon="0.37679">
        <ele>159.2</ele>
        <time>2024-01-28T10:54:09Z</time>
      </trkpt>
      <trkpt lat="46.51456" lon="0.37649">
        <ele>159.8</ele>
        <time>2024-01-28T10:54:16Z</time>
      </trkpt>
      <trkpt lat="46.51452" lon="0.37641">
        <ele>160.4</ele>
        <time>2024-01-28T10:54:18Z</time>
      </trkpt>
      <trkpt lat="46.51445" lon="0.37626">
        <ele>161</ele>
        <time>2024-01-28T10:54:22Z</time>
      </trkpt>
      <trkpt lat="46.51433" lon="0.37598">
        <ele>161.4</ele>
        <time>2024-01-28T10:54:27Z</time>
      </trkpt>
      <trkpt lat="46.51424" lon="0.37574">
        <ele>162.2</ele>
        <time>2024-01-28T10:54:33Z</time>
      </trkpt>
      <trkpt lat="46.51416" lon="0.37562">
        <ele>162.4</ele>
        <time>2024-01-28T10:54:38Z</time>
      </trkpt>
      <trkpt lat="46.51412" lon="0.37568">
        <ele>162.4</ele>
        <time>2024-01-28T10:54:44Z</time>
      </trkpt>
      <trkpt lat="46.51411" lon="0.37571">
        <ele>162.4</ele>
        <time>2024-01-28T10:54:45Z</time>
      </trkpt>
      <trkpt lat="46.51408" lon="0.37582">
        <ele>162.6</ele>
        <time>2024-01-28T10:54:50Z</time>
      </trkpt>
      <trkpt lat="46.51406" lon="0.37584">
        <ele>162.8</ele>
        <time>2024-01-28T10:54:51Z</time>
      </trkpt>
      <trkpt lat="46.51402" lon="0.37592">
        <ele>163</ele>
        <time>2024-01-28T10:54:54Z</time>
      </trkpt>
      <trkpt lat="46.514" lon="0.37599">
        <ele>163.2</ele>
        <time>2024-01-28T10:54:56Z</time>
      </trkpt>
      <trkpt lat="46.51399" lon="0.37602">
        <ele>163.2</ele>
        <time>2024-01-28T10:54:57Z</time>
      </trkpt>
      <trkpt lat="46.51393" lon="0.37604">
        <ele>163.2</ele>
        <time>2024-01-28T10:55:00Z</time>
      </trkpt>
      <trkpt lat="46.51392" lon="0.37602">
        <ele>163.2</ele>
        <time>2024-01-28T10:55:01Z</time>
      </trkpt>
      <trkpt lat="46.51386" lon="0.37594">
        <ele>163.6</ele>
        <time>2024-01-28T10:55:05Z</time>
      </trkpt>
      <trkpt lat="46.5138" lon="0.37578">
        <ele>163.6</ele>
        <time>2024-01-28T10:55:10Z</time>
      </trkpt>
      <trkpt lat="46.51376" lon="0.37571">
        <ele>163.6</ele>
        <time>2024-01-28T10:55:12Z</time>
      </trkpt>
      <trkpt lat="46.51375" lon="0.37569">
        <ele>163.6</ele>
        <time>2024-01-28T10:55:13Z</time>
      </trkpt>
      <trkpt lat="46.51372" lon="0.37565">
        <ele>163.6</ele>
        <time>2024-01-28T10:55:14Z</time>
      </trkpt>
      <trkpt lat="46.51359" lon="0.37548">
        <ele>164.2</ele>
        <time>2024-01-28T10:55:19Z</time>
      </trkpt>
      <trkpt lat="46.51357" lon="0.37545">
        <ele>164.4</ele>
        <time>2024-01-28T10:55:20Z</time>
      </trkpt>
      <trkpt lat="46.51352" lon="0.37538">
        <ele>164.6</ele>
        <time>2024-01-28T10:55:22Z</time>
      </trkpt>
      <trkpt lat="46.51349" lon="0.37537">
        <ele>164.8</ele>
        <time>2024-01-28T10:55:23Z</time>
      </trkpt>
      <trkpt lat="46.51344" lon="0.37534">
        <ele>165.6</ele>
        <time>2024-01-28T10:55:25Z</time>
      </trkpt>
      <trkpt lat="46.5134" lon="0.37532">
        <ele>166</ele>
        <time>2024-01-28T10:55:26Z</time>
      </trkpt>
      <trkpt lat="46.51323" lon="0.37524">
        <ele>167</ele>
        <time>2024-01-28T10:55:31Z</time>
      </trkpt>
      <trkpt lat="46.51297" lon="0.3751">
        <ele>167.6</ele>
        <time>2024-01-28T10:55:38Z</time>
      </trkpt>
      <trkpt lat="46.51294" lon="0.37507">
        <ele>168</ele>
        <time>2024-01-28T10:55:39Z</time>
      </trkpt>
      <trkpt lat="46.5129" lon="0.37505">
        <ele>168.2</ele>
        <time>2024-01-28T10:55:40Z</time>
      </trkpt>
      <trkpt lat="46.51282" lon="0.375">
        <ele>168.4</ele>
        <time>2024-01-28T10:55:42Z</time>
      </trkpt>
      <trkpt lat="46.51275" lon="0.37496">
        <ele>168.6</ele>
        <time>2024-01-28T10:55:44Z</time>
      </trkpt>
      <trkpt lat="46.51268" lon="0.37492">
        <ele>169.2</ele>
        <time>2024-01-28T10:55:46Z</time>
      </trkpt>
      <trkpt lat="46.51248" lon="0.37484">
        <ele>170.2</ele>
        <time>2024-01-28T10:55:51Z</time>
      </trkpt>
      <trkpt lat="46.51238" lon="0.37479">
        <ele>170.4</ele>
        <time>2024-01-28T10:55:54Z</time>
      </trkpt>
      <trkpt lat="46.51228" lon="0.37477">
        <ele>170.4</ele>
        <time>2024-01-28T10:55:57Z</time>
      </trkpt>
      <trkpt lat="46.5121" lon="0.37471">
        <ele>170.6</ele>
        <time>2024-01-28T10:56:02Z</time>
      </trkpt>
      <trkpt lat="46.51203" lon="0.37467">
        <ele>170.8</ele>
        <time>2024-01-28T10:56:04Z</time>
      </trkpt>
      <trkpt lat="46.51189" lon="0.37455">
        <ele>171.2</ele>
        <time>2024-01-28T10:56:09Z</time>
      </trkpt>
      <trkpt lat="46.51175" lon="0.37434">
        <ele>171.4</ele>
        <time>2024-01-28T10:56:14Z</time>
      </trkpt>
      <trkpt lat="46.51173" lon="0.3743">
        <ele>171.4</ele>
        <time>2024-01-28T10:56:15Z</time>
      </trkpt>
      <trkpt lat="46.51165" lon="0.37419">
        <ele>171.4</ele>
        <time>2024-01-28T10:56:18Z</time>
      </trkpt>
      <trkpt lat="46.51159" lon="0.37406">
        <ele>171.4</ele>
        <time>2024-01-28T10:56:21Z</time>
      </trkpt>
      <trkpt lat="46.51143" lon="0.37381">
        <ele>171.6</ele>
        <time>2024-01-28T10:56:26Z</time>
      </trkpt>
      <trkpt lat="46.51138" lon="0.3737">
        <ele>171.6</ele>
        <time>2024-01-28T10:56:28Z</time>
      </trkpt>
      <trkpt lat="46.51135" lon="0.37357">
        <ele>171.8</ele>
        <time>2024-01-28T10:56:30Z</time>
      </trkpt>
      <trkpt lat="46.51133" lon="0.37344">
        <ele>171.8</ele>
        <time>2024-01-28T10:56:32Z</time>
      </trkpt>
      <trkpt lat="46.5113" lon="0.37326">
        <ele>171.8</ele>
        <time>2024-01-28T10:56:35Z</time>
      </trkpt>
      <trkpt lat="46.51124" lon="0.37307">
        <ele>172</ele>
        <time>2024-01-28T10:56:38Z</time>
      </trkpt>
      <trkpt lat="46.51122" lon="0.37301">
        <ele>172.2</ele>
        <time>2024-01-28T10:56:39Z</time>
      </trkpt>
      <trkpt lat="46.51109" lon="0.37266">
        <ele>172</ele>
        <time>2024-01-28T10:56:45Z</time>
      </trkpt>
      <trkpt lat="46.51096" lon="0.37244">
        <ele>172.4</ele>
        <time>2024-01-28T10:56:49Z</time>
      </trkpt>
      <trkpt lat="46.51093" lon="0.37241">
        <ele>172.6</ele>
        <time>2024-01-28T10:56:50Z</time>
      </trkpt>
      <trkpt lat="46.51089" lon="0.37235">
        <ele>172.6</ele>
        <time>2024-01-28T10:56:51Z</time>
      </trkpt>
      <trkpt lat="46.51072" lon="0.37216">
        <ele>172.6</ele>
        <time>2024-01-28T10:56:55Z</time>
      </trkpt>
      <trkpt lat="46.51045" lon="0.37187">
        <ele>172.8</ele>
        <time>2024-01-28T10:57:01Z</time>
      </trkpt>
      <trkpt lat="46.51032" lon="0.37174">
        <ele>173</ele>
        <time>2024-01-28T10:57:04Z</time>
      </trkpt>
      <trkpt lat="46.51023" lon="0.37168">
        <ele>173.2</ele>
        <time>2024-01-28T10:57:06Z</time>
      </trkpt>
      <trkpt lat="46.51014" lon="0.37159">
        <ele>173</ele>
        <time>2024-01-28T10:57:08Z</time>
      </trkpt>
      <trkpt lat="46.51007" lon="0.37147">
        <ele>173</ele>
        <time>2024-01-28T10:57:10Z</time>
      </trkpt>
      <trkpt lat="46.51" lon="0.37136">
        <ele>173</ele>
        <time>2024-01-28T10:57:12Z</time>
      </trkpt>
      <trkpt lat="46.5099" lon="0.37122">
        <ele>173.4</ele>
        <time>2024-01-28T10:57:15Z</time>
      </trkpt>
      <trkpt lat="46.50985" lon="0.37119">
        <ele>173.4</ele>
        <time>2024-01-28T10:57:16Z</time>
      </trkpt>
      <trkpt lat="46.50982" lon="0.37118">
        <ele>173.4</ele>
        <time>2024-01-28T10:57:17Z</time>
      </trkpt>
      <trkpt lat="46.50974" lon="0.3712">
        <ele>173.8</ele>
        <time>2024-01-28T10:57:19Z</time>
      </trkpt>
      <trkpt lat="46.50971" lon="0.37122">
        <ele>173.8</ele>
        <time>2024-01-28T10:57:20Z</time>
      </trkpt>
      <trkpt lat="46.50969" lon="0.37124">
        <ele>174</ele>
        <time>2024-01-28T10:57:21Z</time>
      </trkpt>
      <trkpt lat="46.50958" lon="0.37135">
        <ele>173.8</ele>
        <time>2024-01-28T10:57:25Z</time>
      </trkpt>
      <trkpt lat="46.50948" lon="0.37143">
        <ele>173.8</ele>
        <time>2024-01-28T10:57:29Z</time>
      </trkpt>
      <trkpt lat="46.50934" lon="0.37153">
        <ele>173.8</ele>
        <time>2024-01-28T10:57:32Z</time>
      </trkpt>
      <trkpt lat="46.5093" lon="0.37155">
        <ele>173.8</ele>
        <time>2024-01-28T10:57:33Z</time>
      </trkpt>
      <trkpt lat="46.50925" lon="0.37158">
        <ele>173.8</ele>
        <time>2024-01-28T10:57:34Z</time>
      </trkpt>
      <trkpt lat="46.50915" lon="0.37164">
        <ele>173.8</ele>
        <time>2024-01-28T10:57:36Z</time>
      </trkpt>
      <trkpt lat="46.50911" lon="0.37165">
        <ele>173.8</ele>
        <time>2024-01-28T10:57:37Z</time>
      </trkpt>
      <trkpt lat="46.50902" lon="0.37167">
        <ele>174</ele>
        <time>2024-01-28T10:57:39Z</time>
      </trkpt>
      <trkpt lat="46.50887" lon="0.37166">
        <ele>174</ele>
        <time>2024-01-28T10:57:42Z</time>
      </trkpt>
      <trkpt lat="46.5088" lon="0.37162">
        <ele>174</ele>
        <time>2024-01-28T10:57:44Z</time>
      </trkpt>
      <trkpt lat="46.50878" lon="0.37157">
        <ele>174</ele>
        <time>2024-01-28T10:57:45Z</time>
      </trkpt>
      <trkpt lat="46.50877" lon="0.37152">
        <ele>173.8</ele>
        <time>2024-01-28T10:57:46Z</time>
      </trkpt>
      <trkpt lat="46.5087" lon="0.37127">
        <ele>173.2</ele>
        <time>2024-01-28T10:57:50Z</time>
      </trkpt>
      <trkpt lat="46.50866" lon="0.37113">
        <ele>173.6</ele>
        <time>2024-01-28T10:57:52Z</time>
      </trkpt>
      <trkpt lat="46.50858" lon="0.37095">
        <ele>174</ele>
        <time>2024-01-28T10:57:55Z</time>
      </trkpt>
      <trkpt lat="46.50842" lon="0.37055">
        <ele>174</ele>
        <time>2024-01-28T10:58:01Z</time>
      </trkpt>
      <trkpt lat="46.50827" lon="0.36992">
        <ele>173.8</ele>
        <time>2024-01-28T10:58:09Z</time>
      </trkpt>
      <trkpt lat="46.50817" lon="0.36954">
        <ele>174.4</ele>
        <time>2024-01-28T10:58:14Z</time>
      </trkpt>
      <trkpt lat="46.50814" lon="0.36947">
        <ele>174.4</ele>
        <time>2024-01-28T10:58:15Z</time>
      </trkpt>
      <trkpt lat="46.508" lon="0.36908">
        <ele>174.4</ele>
        <time>2024-01-28T10:58:20Z</time>
      </trkpt>
      <trkpt lat="46.50789" lon="0.36883">
        <ele>173.6</ele>
        <time>2024-01-28T10:58:23Z</time>
      </trkpt>
      <trkpt lat="46.5078" lon="0.36869">
        <ele>173.4</ele>
        <time>2024-01-28T10:58:25Z</time>
      </trkpt>
      <trkpt lat="46.50769" lon="0.36851">
        <ele>173.4</ele>
        <time>2024-01-28T10:58:27Z</time>
      </trkpt>
      <trkpt lat="46.50754" lon="0.36835">
        <ele>172.8</ele>
        <time>2024-01-28T10:58:30Z</time>
      </trkpt>
      <trkpt lat="46.50745" lon="0.36824">
        <ele>172.6</ele>
        <time>2024-01-28T10:58:32Z</time>
      </trkpt>
      <trkpt lat="46.50724" lon="0.36801">
        <ele>172.2</ele>
        <time>2024-01-28T10:58:36Z</time>
      </trkpt>
      <trkpt lat="46.50703" lon="0.36781">
        <ele>171.6</ele>
        <time>2024-01-28T10:58:40Z</time>
      </trkpt>
      <trkpt lat="46.50693" lon="0.36774">
        <ele>171.4</ele>
        <time>2024-01-28T10:58:42Z</time>
      </trkpt>
      <trkpt lat="46.50689" lon="0.36772">
        <ele>171.4</ele>
        <time>2024-01-28T10:58:43Z</time>
      </trkpt>
      <trkpt lat="46.50677" lon="0.36772">
        <ele>171</ele>
        <time>2024-01-28T10:58:46Z</time>
      </trkpt>
      <trkpt lat="46.50673" lon="0.36771">
        <ele>171</ele>
        <time>2024-01-28T10:58:47Z</time>
      </trkpt>
      <trkpt lat="46.50667" lon="0.36774">
        <ele>171</ele>
        <time>2024-01-28T10:58:49Z</time>
      </trkpt>
      <trkpt lat="46.50665" lon="0.36778">
        <ele>171</ele>
        <time>2024-01-28T10:58:50Z</time>
      </trkpt>
      <trkpt lat="46.50663" lon="0.36781">
        <ele>171</ele>
        <time>2024-01-28T10:58:51Z</time>
      </trkpt>
      <trkpt lat="46.50657" lon="0.36795">
        <ele>171.6</ele>
        <time>2024-01-28T10:58:54Z</time>
      </trkpt>
      <trkpt lat="46.50651" lon="0.36815">
        <ele>171.8</ele>
        <time>2024-01-28T10:58:59Z</time>
      </trkpt>
      <trkpt lat="46.50649" lon="0.3682">
        <ele>172.2</ele>
        <time>2024-01-28T10:59:03Z</time>
      </trkpt>
      <trkpt lat="46.50648" lon="0.36819">
        <ele>172.2</ele>
        <time>2024-01-28T10:59:07Z</time>
      </trkpt>
    </trkseg>
  </trk>
</gpx>